<?xml version="1.0" encoding="UTF-8" standalone="no" ?>
<gpx xmlns="http://www.topografix.com/GPX/1/1" xmlns:xsi="http://www.w3.org/2001/XMLSchema-instance" xsi:schemaLocation="http://www.topografix.com/GPX/1/1 http://www.topografix.com/GPX/1/1/gpx.xsd" version="1.1" creator="VisuGPX - https://www.visugpx.com">
  <metadata>
    <name>Champagnat Cyclisme sur route</name>
  </metadata>
  <trk>
    <name><![CDATA[Champagnat Cyclisme sur route_1]]></name>
    <trkseg>
      <trkpt lat="46.48268" lon="5.36834">
        <ele>263</ele>
        <time>2022-05-07T10:34:52Z</time>
      </trkpt>
      <trkpt lat="46.48248" lon="5.36812">
        <ele>261.4</ele>
        <time>2022-05-07T10:34:54Z</time>
      </trkpt>
      <trkpt lat="46.48226" lon="5.36793">
        <ele>259.4</ele>
        <time>2022-05-07T10:34:56Z</time>
      </trkpt>
      <trkpt lat="46.48203" lon="5.36775">
        <ele>258.2</ele>
        <time>2022-05-07T10:34:58Z</time>
      </trkpt>
      <trkpt lat="46.48191" lon="5.36765">
        <ele>257.8</ele>
        <time>2022-05-07T10:34:59Z</time>
      </trkpt>
      <trkpt lat="46.48169" lon="5.36746">
        <ele>256.6</ele>
        <time>2022-05-07T10:35:01Z</time>
      </trkpt>
      <trkpt lat="46.48147" lon="5.36729">
        <ele>254.8</ele>
        <time>2022-05-07T10:35:03Z</time>
      </trkpt>
      <trkpt lat="46.48128" lon="5.36715">
        <ele>253.4</ele>
        <time>2022-05-07T10:35:05Z</time>
      </trkpt>
      <trkpt lat="46.4812" lon="5.36709">
        <ele>252.4</ele>
        <time>2022-05-07T10:35:06Z</time>
      </trkpt>
      <trkpt lat="46.48114" lon="5.36703">
        <ele>251.8</ele>
        <time>2022-05-07T10:35:07Z</time>
      </trkpt>
      <trkpt lat="46.4811" lon="5.36694">
        <ele>251</ele>
        <time>2022-05-07T10:35:08Z</time>
      </trkpt>
      <trkpt lat="46.4811" lon="5.36685">
        <ele>250.6</ele>
        <time>2022-05-07T10:35:09Z</time>
      </trkpt>
      <trkpt lat="46.48113" lon="5.36676">
        <ele>250</ele>
        <time>2022-05-07T10:35:10Z</time>
      </trkpt>
      <trkpt lat="46.48125" lon="5.36664">
        <ele>249.4</ele>
        <time>2022-05-07T10:35:12Z</time>
      </trkpt>
      <trkpt lat="46.48132" lon="5.36658">
        <ele>248.6</ele>
        <time>2022-05-07T10:35:13Z</time>
      </trkpt>
      <trkpt lat="46.48139" lon="5.36652">
        <ele>248</ele>
        <time>2022-05-07T10:35:14Z</time>
      </trkpt>
      <trkpt lat="46.48151" lon="5.36639">
        <ele>246.8</ele>
        <time>2022-05-07T10:35:16Z</time>
      </trkpt>
      <trkpt lat="46.48157" lon="5.36633">
        <ele>246</ele>
        <time>2022-05-07T10:35:17Z</time>
      </trkpt>
      <trkpt lat="46.48164" lon="5.36627">
        <ele>245.8</ele>
        <time>2022-05-07T10:35:18Z</time>
      </trkpt>
      <trkpt lat="46.48177" lon="5.36614">
        <ele>245.6</ele>
        <time>2022-05-07T10:35:20Z</time>
      </trkpt>
      <trkpt lat="46.48184" lon="5.36609">
        <ele>245.6</ele>
        <time>2022-05-07T10:35:21Z</time>
      </trkpt>
      <trkpt lat="46.48192" lon="5.36606">
        <ele>245.6</ele>
        <time>2022-05-07T10:35:22Z</time>
      </trkpt>
      <trkpt lat="46.48207" lon="5.366">
        <ele>245.4</ele>
        <time>2022-05-07T10:35:24Z</time>
      </trkpt>
      <trkpt lat="46.48213" lon="5.36595">
        <ele>245.4</ele>
        <time>2022-05-07T10:35:25Z</time>
      </trkpt>
      <trkpt lat="46.48217" lon="5.36588">
        <ele>245.4</ele>
        <time>2022-05-07T10:35:26Z</time>
      </trkpt>
      <trkpt lat="46.48224" lon="5.36568">
        <ele>245.4</ele>
        <time>2022-05-07T10:35:28Z</time>
      </trkpt>
      <trkpt lat="46.48232" lon="5.36553">
        <ele>245.4</ele>
        <time>2022-05-07T10:35:30Z</time>
      </trkpt>
      <trkpt lat="46.48238" lon="5.36547">
        <ele>245.2</ele>
        <time>2022-05-07T10:35:31Z</time>
      </trkpt>
      <trkpt lat="46.48261" lon="5.36522">
        <ele>244.6</ele>
        <time>2022-05-07T10:35:35Z</time>
      </trkpt>
      <trkpt lat="46.48299" lon="5.3648">
        <ele>244</ele>
        <time>2022-05-07T10:35:41Z</time>
      </trkpt>
      <trkpt lat="46.4831" lon="5.36468">
        <ele>243.6</ele>
        <time>2022-05-07T10:35:43Z</time>
      </trkpt>
      <trkpt lat="46.48335" lon="5.3644">
        <ele>242.4</ele>
        <time>2022-05-07T10:35:47Z</time>
      </trkpt>
      <trkpt lat="46.48362" lon="5.3641">
        <ele>241.4</ele>
        <time>2022-05-07T10:35:51Z</time>
      </trkpt>
      <trkpt lat="46.48368" lon="5.36404">
        <ele>241.2</ele>
        <time>2022-05-07T10:35:52Z</time>
      </trkpt>
      <trkpt lat="46.48415" lon="5.36358">
        <ele>240.2</ele>
        <time>2022-05-07T10:35:59Z</time>
      </trkpt>
      <trkpt lat="46.48422" lon="5.36354">
        <ele>240.2</ele>
        <time>2022-05-07T10:36:00Z</time>
      </trkpt>
      <trkpt lat="46.48429" lon="5.36351">
        <ele>240</ele>
        <time>2022-05-07T10:36:01Z</time>
      </trkpt>
      <trkpt lat="46.48451" lon="5.36346">
        <ele>239.6</ele>
        <time>2022-05-07T10:36:04Z</time>
      </trkpt>
      <trkpt lat="46.48472" lon="5.36343">
        <ele>239.2</ele>
        <time>2022-05-07T10:36:07Z</time>
      </trkpt>
      <trkpt lat="46.48506" lon="5.36337">
        <ele>238.6</ele>
        <time>2022-05-07T10:36:12Z</time>
      </trkpt>
      <trkpt lat="46.48561" lon="5.36328">
        <ele>237.8</ele>
        <time>2022-05-07T10:36:20Z</time>
      </trkpt>
      <trkpt lat="46.48604" lon="5.36321">
        <ele>236.8</ele>
        <time>2022-05-07T10:36:26Z</time>
      </trkpt>
      <trkpt lat="46.48611" lon="5.36319">
        <ele>236.4</ele>
        <time>2022-05-07T10:36:27Z</time>
      </trkpt>
      <trkpt lat="46.48624" lon="5.36307">
        <ele>235.6</ele>
        <time>2022-05-07T10:36:29Z</time>
      </trkpt>
      <trkpt lat="46.48632" lon="5.36286">
        <ele>235.2</ele>
        <time>2022-05-07T10:36:31Z</time>
      </trkpt>
      <trkpt lat="46.48635" lon="5.36274">
        <ele>235</ele>
        <time>2022-05-07T10:36:32Z</time>
      </trkpt>
      <trkpt lat="46.48637" lon="5.36262">
        <ele>235</ele>
        <time>2022-05-07T10:36:33Z</time>
      </trkpt>
      <trkpt lat="46.48639" lon="5.36236">
        <ele>234.4</ele>
        <time>2022-05-07T10:36:35Z</time>
      </trkpt>
      <trkpt lat="46.4864" lon="5.36224">
        <ele>234</ele>
        <time>2022-05-07T10:36:36Z</time>
      </trkpt>
      <trkpt lat="46.48643" lon="5.36186">
        <ele>233.2</ele>
        <time>2022-05-07T10:36:39Z</time>
      </trkpt>
      <trkpt lat="46.48648" lon="5.36138">
        <ele>232.6</ele>
        <time>2022-05-07T10:36:43Z</time>
      </trkpt>
      <trkpt lat="46.4865" lon="5.36126">
        <ele>232.6</ele>
        <time>2022-05-07T10:36:44Z</time>
      </trkpt>
      <trkpt lat="46.48655" lon="5.36103">
        <ele>232.2</ele>
        <time>2022-05-07T10:36:46Z</time>
      </trkpt>
      <trkpt lat="46.48667" lon="5.3605">
        <ele>232.2</ele>
        <time>2022-05-07T10:36:51Z</time>
      </trkpt>
      <trkpt lat="46.48673" lon="5.36024">
        <ele>232.4</ele>
        <time>2022-05-07T10:36:54Z</time>
      </trkpt>
      <trkpt lat="46.48675" lon="5.36016">
        <ele>232.6</ele>
        <time>2022-05-07T10:36:55Z</time>
      </trkpt>
      <trkpt lat="46.48676" lon="5.36008">
        <ele>232.6</ele>
        <time>2022-05-07T10:36:56Z</time>
      </trkpt>
      <trkpt lat="46.48677" lon="5.36">
        <ele>232.8</ele>
        <time>2022-05-07T10:36:57Z</time>
      </trkpt>
      <trkpt lat="46.4868" lon="5.35984">
        <ele>233.2</ele>
        <time>2022-05-07T10:36:59Z</time>
      </trkpt>
      <trkpt lat="46.48683" lon="5.35966">
        <ele>233.8</ele>
        <time>2022-05-07T10:37:01Z</time>
      </trkpt>
      <trkpt lat="46.48689" lon="5.35926">
        <ele>234.4</ele>
        <time>2022-05-07T10:37:05Z</time>
      </trkpt>
      <trkpt lat="46.48691" lon="5.35917">
        <ele>234.6</ele>
        <time>2022-05-07T10:37:06Z</time>
      </trkpt>
      <trkpt lat="46.48708" lon="5.35869">
        <ele>234.8</ele>
        <time>2022-05-07T10:37:11Z</time>
      </trkpt>
      <trkpt lat="46.48723" lon="5.35831">
        <ele>233</ele>
        <time>2022-05-07T10:37:15Z</time>
      </trkpt>
      <trkpt lat="46.48738" lon="5.35794">
        <ele>232</ele>
        <time>2022-05-07T10:37:19Z</time>
      </trkpt>
      <trkpt lat="46.48742" lon="5.35785">
        <ele>231.8</ele>
        <time>2022-05-07T10:37:20Z</time>
      </trkpt>
      <trkpt lat="46.48757" lon="5.3575">
        <ele>230.8</ele>
        <time>2022-05-07T10:37:24Z</time>
      </trkpt>
      <trkpt lat="46.48772" lon="5.35715">
        <ele>230.2</ele>
        <time>2022-05-07T10:37:28Z</time>
      </trkpt>
      <trkpt lat="46.48802" lon="5.35648">
        <ele>230.8</ele>
        <time>2022-05-07T10:37:36Z</time>
      </trkpt>
      <trkpt lat="46.48809" lon="5.35633">
        <ele>230.8</ele>
        <time>2022-05-07T10:37:38Z</time>
      </trkpt>
      <trkpt lat="46.48829" lon="5.35584">
        <ele>230.8</ele>
        <time>2022-05-07T10:37:44Z</time>
      </trkpt>
      <trkpt lat="46.48837" lon="5.35571">
        <ele>230.8</ele>
        <time>2022-05-07T10:37:46Z</time>
      </trkpt>
      <trkpt lat="46.4885" lon="5.35564">
        <ele>230.8</ele>
        <time>2022-05-07T10:37:48Z</time>
      </trkpt>
      <trkpt lat="46.48879" lon="5.35561">
        <ele>230.4</ele>
        <time>2022-05-07T10:37:52Z</time>
      </trkpt>
      <trkpt lat="46.48919" lon="5.35559">
        <ele>229.6</ele>
        <time>2022-05-07T10:37:57Z</time>
      </trkpt>
      <trkpt lat="46.48927" lon="5.35558">
        <ele>229.4</ele>
        <time>2022-05-07T10:37:58Z</time>
      </trkpt>
      <trkpt lat="46.48944" lon="5.35557">
        <ele>228.8</ele>
        <time>2022-05-07T10:38:00Z</time>
      </trkpt>
      <trkpt lat="46.48961" lon="5.35556">
        <ele>228.4</ele>
        <time>2022-05-07T10:38:02Z</time>
      </trkpt>
      <trkpt lat="46.49008" lon="5.35552">
        <ele>227.4</ele>
        <time>2022-05-07T10:38:08Z</time>
      </trkpt>
      <trkpt lat="46.49015" lon="5.35552">
        <ele>227.4</ele>
        <time>2022-05-07T10:38:09Z</time>
      </trkpt>
      <trkpt lat="46.49064" lon="5.3555">
        <ele>228</ele>
        <time>2022-05-07T10:38:16Z</time>
      </trkpt>
      <trkpt lat="46.49083" lon="5.35549">
        <ele>228.4</ele>
        <time>2022-05-07T10:38:19Z</time>
      </trkpt>
      <trkpt lat="46.49089" lon="5.35549">
        <ele>228.8</ele>
        <time>2022-05-07T10:38:20Z</time>
      </trkpt>
      <trkpt lat="46.49094" lon="5.35549">
        <ele>228.8</ele>
        <time>2022-05-07T10:38:21Z</time>
      </trkpt>
      <trkpt lat="46.49112" lon="5.3555">
        <ele>229.6</ele>
        <time>2022-05-07T10:38:24Z</time>
      </trkpt>
      <trkpt lat="46.49124" lon="5.35551">
        <ele>229.8</ele>
        <time>2022-05-07T10:38:26Z</time>
      </trkpt>
      <trkpt lat="46.49147" lon="5.35552">
        <ele>230.8</ele>
        <time>2022-05-07T10:38:30Z</time>
      </trkpt>
      <trkpt lat="46.49152" lon="5.35552">
        <ele>231</ele>
        <time>2022-05-07T10:38:31Z</time>
      </trkpt>
      <trkpt lat="46.49155" lon="5.35552">
        <ele>231.2</ele>
        <time>2022-05-07T10:38:32Z</time>
      </trkpt>
      <trkpt lat="46.4917" lon="5.35549">
        <ele>231.6</ele>
        <time>2022-05-07T10:38:36Z</time>
      </trkpt>
      <trkpt lat="46.49193" lon="5.35544">
        <ele>231.8</ele>
        <time>2022-05-07T10:38:40Z</time>
      </trkpt>
      <trkpt lat="46.49238" lon="5.35543">
        <ele>232</ele>
        <time>2022-05-07T10:38:46Z</time>
      </trkpt>
      <trkpt lat="46.49259" lon="5.35543">
        <ele>232.2</ele>
        <time>2022-05-07T10:38:49Z</time>
      </trkpt>
      <trkpt lat="46.49282" lon="5.3554">
        <ele>232.4</ele>
        <time>2022-05-07T10:38:52Z</time>
      </trkpt>
      <trkpt lat="46.49327" lon="5.35537">
        <ele>232.2</ele>
        <time>2022-05-07T10:38:58Z</time>
      </trkpt>
      <trkpt lat="46.49383" lon="5.35534">
        <ele>231</ele>
        <time>2022-05-07T10:39:05Z</time>
      </trkpt>
      <trkpt lat="46.49398" lon="5.35538">
        <ele>230.8</ele>
        <time>2022-05-07T10:39:07Z</time>
      </trkpt>
      <trkpt lat="46.49406" lon="5.3554">
        <ele>230.8</ele>
        <time>2022-05-07T10:39:08Z</time>
      </trkpt>
      <trkpt lat="46.49425" lon="5.35548">
        <ele>230.4</ele>
        <time>2022-05-07T10:39:11Z</time>
      </trkpt>
      <trkpt lat="46.49433" lon="5.35553">
        <ele>230.4</ele>
        <time>2022-05-07T10:39:12Z</time>
      </trkpt>
      <trkpt lat="46.49487" lon="5.35576">
        <ele>229.8</ele>
        <time>2022-05-07T10:39:20Z</time>
      </trkpt>
      <trkpt lat="46.49495" lon="5.35579">
        <ele>229.8</ele>
        <time>2022-05-07T10:39:21Z</time>
      </trkpt>
      <trkpt lat="46.49522" lon="5.3559">
        <ele>229.4</ele>
        <time>2022-05-07T10:39:25Z</time>
      </trkpt>
      <trkpt lat="46.49565" lon="5.35608">
        <ele>228.8</ele>
        <time>2022-05-07T10:39:31Z</time>
      </trkpt>
      <trkpt lat="46.49587" lon="5.35615">
        <ele>228.6</ele>
        <time>2022-05-07T10:39:34Z</time>
      </trkpt>
      <trkpt lat="46.49632" lon="5.35629">
        <ele>227.6</ele>
        <time>2022-05-07T10:39:40Z</time>
      </trkpt>
      <trkpt lat="46.49638" lon="5.35631">
        <ele>227.4</ele>
        <time>2022-05-07T10:39:41Z</time>
      </trkpt>
      <trkpt lat="46.49667" lon="5.35638">
        <ele>226.4</ele>
        <time>2022-05-07T10:39:45Z</time>
      </trkpt>
      <trkpt lat="46.4968" lon="5.35643">
        <ele>226</ele>
        <time>2022-05-07T10:39:47Z</time>
      </trkpt>
      <trkpt lat="46.4969" lon="5.35647">
        <ele>225.8</ele>
        <time>2022-05-07T10:39:49Z</time>
      </trkpt>
      <trkpt lat="46.49693" lon="5.35646">
        <ele>225.6</ele>
        <time>2022-05-07T10:39:50Z</time>
      </trkpt>
      <trkpt lat="46.49701" lon="5.35635">
        <ele>225.4</ele>
        <time>2022-05-07T10:39:53Z</time>
      </trkpt>
      <trkpt lat="46.49704" lon="5.35628">
        <ele>225.4</ele>
        <time>2022-05-07T10:39:54Z</time>
      </trkpt>
      <trkpt lat="46.49705" lon="5.35621">
        <ele>225.2</ele>
        <time>2022-05-07T10:39:55Z</time>
      </trkpt>
      <trkpt lat="46.49708" lon="5.35597">
        <ele>225.2</ele>
        <time>2022-05-07T10:39:58Z</time>
      </trkpt>
      <trkpt lat="46.49718" lon="5.35513">
        <ele>225</ele>
        <time>2022-05-07T10:40:07Z</time>
      </trkpt>
      <trkpt lat="46.49727" lon="5.35443">
        <ele>224.6</ele>
        <time>2022-05-07T10:40:14Z</time>
      </trkpt>
      <trkpt lat="46.49733" lon="5.354">
        <ele>224.4</ele>
        <time>2022-05-07T10:40:18Z</time>
      </trkpt>
      <trkpt lat="46.49736" lon="5.35357">
        <ele>224</ele>
        <time>2022-05-07T10:40:22Z</time>
      </trkpt>
      <trkpt lat="46.49733" lon="5.35315">
        <ele>223.2</ele>
        <time>2022-05-07T10:40:26Z</time>
      </trkpt>
      <trkpt lat="46.49732" lon="5.35306">
        <ele>222.8</ele>
        <time>2022-05-07T10:40:27Z</time>
      </trkpt>
      <trkpt lat="46.49723" lon="5.35271">
        <ele>222.6</ele>
        <time>2022-05-07T10:40:31Z</time>
      </trkpt>
      <trkpt lat="46.49721" lon="5.35262">
        <ele>222.6</ele>
        <time>2022-05-07T10:40:32Z</time>
      </trkpt>
      <trkpt lat="46.4971" lon="5.35212">
        <ele>223.8</ele>
        <time>2022-05-07T10:40:38Z</time>
      </trkpt>
      <trkpt lat="46.49699" lon="5.35156">
        <ele>224</ele>
        <time>2022-05-07T10:40:44Z</time>
      </trkpt>
      <trkpt lat="46.49685" lon="5.35088">
        <ele>223.4</ele>
        <time>2022-05-07T10:40:51Z</time>
      </trkpt>
      <trkpt lat="46.49673" lon="5.35027">
        <ele>223.8</ele>
        <time>2022-05-07T10:40:58Z</time>
      </trkpt>
      <trkpt lat="46.49666" lon="5.34993">
        <ele>224.4</ele>
        <time>2022-05-07T10:41:02Z</time>
      </trkpt>
      <trkpt lat="46.49664" lon="5.34977">
        <ele>224.6</ele>
        <time>2022-05-07T10:41:04Z</time>
      </trkpt>
      <trkpt lat="46.49662" lon="5.34969">
        <ele>224.6</ele>
        <time>2022-05-07T10:41:05Z</time>
      </trkpt>
      <trkpt lat="46.49653" lon="5.34922">
        <ele>225.4</ele>
        <time>2022-05-07T10:41:11Z</time>
      </trkpt>
      <trkpt lat="46.49651" lon="5.34912">
        <ele>225.6</ele>
        <time>2022-05-07T10:41:12Z</time>
      </trkpt>
      <trkpt lat="46.49642" lon="5.34864">
        <ele>226.2</ele>
        <time>2022-05-07T10:41:18Z</time>
      </trkpt>
      <trkpt lat="46.49638" lon="5.34847">
        <ele>226.4</ele>
        <time>2022-05-07T10:41:20Z</time>
      </trkpt>
      <trkpt lat="46.49629" lon="5.34784">
        <ele>226.4</ele>
        <time>2022-05-07T10:41:26Z</time>
      </trkpt>
      <trkpt lat="46.49628" lon="5.34725">
        <ele>225.4</ele>
        <time>2022-05-07T10:41:31Z</time>
      </trkpt>
      <trkpt lat="46.49629" lon="5.34713">
        <ele>224.8</ele>
        <time>2022-05-07T10:41:32Z</time>
      </trkpt>
      <trkpt lat="46.49632" lon="5.34684">
        <ele>223.8</ele>
        <time>2022-05-07T10:41:34Z</time>
      </trkpt>
      <trkpt lat="46.49634" lon="5.34659">
        <ele>222.8</ele>
        <time>2022-05-07T10:41:36Z</time>
      </trkpt>
      <trkpt lat="46.49635" lon="5.34643">
        <ele>221.8</ele>
        <time>2022-05-07T10:41:37Z</time>
      </trkpt>
      <trkpt lat="46.49638" lon="5.34617">
        <ele>220.6</ele>
        <time>2022-05-07T10:41:39Z</time>
      </trkpt>
      <trkpt lat="46.49641" lon="5.34589">
        <ele>219.6</ele>
        <time>2022-05-07T10:41:41Z</time>
      </trkpt>
      <trkpt lat="46.49646" lon="5.34562">
        <ele>218.6</ele>
        <time>2022-05-07T10:41:43Z</time>
      </trkpt>
      <trkpt lat="46.49656" lon="5.34514">
        <ele>217.4</ele>
        <time>2022-05-07T10:41:47Z</time>
      </trkpt>
      <trkpt lat="46.49659" lon="5.34504">
        <ele>217.4</ele>
        <time>2022-05-07T10:41:48Z</time>
      </trkpt>
      <trkpt lat="46.49674" lon="5.34448">
        <ele>217.6</ele>
        <time>2022-05-07T10:41:54Z</time>
      </trkpt>
      <trkpt lat="46.49679" lon="5.3443">
        <ele>218.4</ele>
        <time>2022-05-07T10:41:56Z</time>
      </trkpt>
      <trkpt lat="46.49681" lon="5.34424">
        <ele>218.6</ele>
        <time>2022-05-07T10:41:57Z</time>
      </trkpt>
      <trkpt lat="46.49687" lon="5.344">
        <ele>219.8</ele>
        <time>2022-05-07T10:42:00Z</time>
      </trkpt>
      <trkpt lat="46.49692" lon="5.34385">
        <ele>220.6</ele>
        <time>2022-05-07T10:42:02Z</time>
      </trkpt>
      <trkpt lat="46.49694" lon="5.34377">
        <ele>221</ele>
        <time>2022-05-07T10:42:03Z</time>
      </trkpt>
      <trkpt lat="46.49705" lon="5.34344">
        <ele>221.8</ele>
        <time>2022-05-07T10:42:08Z</time>
      </trkpt>
      <trkpt lat="46.49707" lon="5.34338">
        <ele>222.2</ele>
        <time>2022-05-07T10:42:09Z</time>
      </trkpt>
      <trkpt lat="46.49715" lon="5.34318">
        <ele>222.8</ele>
        <time>2022-05-07T10:42:12Z</time>
      </trkpt>
      <trkpt lat="46.49721" lon="5.34305">
        <ele>223.2</ele>
        <time>2022-05-07T10:42:14Z</time>
      </trkpt>
      <trkpt lat="46.49725" lon="5.34297">
        <ele>223.2</ele>
        <time>2022-05-07T10:42:15Z</time>
      </trkpt>
      <trkpt lat="46.49745" lon="5.3426">
        <ele>223.4</ele>
        <time>2022-05-07T10:42:20Z</time>
      </trkpt>
      <trkpt lat="46.49774" lon="5.34208">
        <ele>223.4</ele>
        <time>2022-05-07T10:42:27Z</time>
      </trkpt>
      <trkpt lat="46.49798" lon="5.34167">
        <ele>223</ele>
        <time>2022-05-07T10:42:33Z</time>
      </trkpt>
      <trkpt lat="46.49801" lon="5.3416">
        <ele>223</ele>
        <time>2022-05-07T10:42:34Z</time>
      </trkpt>
      <trkpt lat="46.49816" lon="5.34134">
        <ele>223</ele>
        <time>2022-05-07T10:42:38Z</time>
      </trkpt>
      <trkpt lat="46.4984" lon="5.34092">
        <ele>223.4</ele>
        <time>2022-05-07T10:42:44Z</time>
      </trkpt>
      <trkpt lat="46.49879" lon="5.34041">
        <ele>223</ele>
        <time>2022-05-07T10:42:52Z</time>
      </trkpt>
      <trkpt lat="46.49908" lon="5.34011">
        <ele>224</ele>
        <time>2022-05-07T10:42:58Z</time>
      </trkpt>
      <trkpt lat="46.49913" lon="5.34007">
        <ele>224.2</ele>
        <time>2022-05-07T10:42:59Z</time>
      </trkpt>
      <trkpt lat="46.49935" lon="5.33983">
        <ele>225</ele>
        <time>2022-05-07T10:43:04Z</time>
      </trkpt>
      <trkpt lat="46.49952" lon="5.33965">
        <ele>225.2</ele>
        <time>2022-05-07T10:43:08Z</time>
      </trkpt>
      <trkpt lat="46.49962" lon="5.33956">
        <ele>225.6</ele>
        <time>2022-05-07T10:43:10Z</time>
      </trkpt>
      <trkpt lat="46.49971" lon="5.33947">
        <ele>225.8</ele>
        <time>2022-05-07T10:43:12Z</time>
      </trkpt>
      <trkpt lat="46.49985" lon="5.33932">
        <ele>226.4</ele>
        <time>2022-05-07T10:43:15Z</time>
      </trkpt>
      <trkpt lat="46.49994" lon="5.33922">
        <ele>226.4</ele>
        <time>2022-05-07T10:43:17Z</time>
      </trkpt>
      <trkpt lat="46.50004" lon="5.33911">
        <ele>226.6</ele>
        <time>2022-05-07T10:43:19Z</time>
      </trkpt>
      <trkpt lat="46.50031" lon="5.33878">
        <ele>226.6</ele>
        <time>2022-05-07T10:43:24Z</time>
      </trkpt>
      <trkpt lat="46.50036" lon="5.33872">
        <ele>226.6</ele>
        <time>2022-05-07T10:43:25Z</time>
      </trkpt>
      <trkpt lat="46.50083" lon="5.33816">
        <ele>225.4</ele>
        <time>2022-05-07T10:43:33Z</time>
      </trkpt>
      <trkpt lat="46.50089" lon="5.3381">
        <ele>225.2</ele>
        <time>2022-05-07T10:43:34Z</time>
      </trkpt>
      <trkpt lat="46.50102" lon="5.33798">
        <ele>224.4</ele>
        <time>2022-05-07T10:43:36Z</time>
      </trkpt>
      <trkpt lat="46.50122" lon="5.33777">
        <ele>224.2</ele>
        <time>2022-05-07T10:43:39Z</time>
      </trkpt>
      <trkpt lat="46.50134" lon="5.33764">
        <ele>224</ele>
        <time>2022-05-07T10:43:41Z</time>
      </trkpt>
      <trkpt lat="46.5014" lon="5.33757">
        <ele>223.8</ele>
        <time>2022-05-07T10:43:42Z</time>
      </trkpt>
      <trkpt lat="46.50152" lon="5.33744">
        <ele>223.8</ele>
        <time>2022-05-07T10:43:44Z</time>
      </trkpt>
      <trkpt lat="46.50186" lon="5.3371">
        <ele>224</ele>
        <time>2022-05-07T10:43:50Z</time>
      </trkpt>
      <trkpt lat="46.50218" lon="5.33675">
        <ele>224.6</ele>
        <time>2022-05-07T10:43:56Z</time>
      </trkpt>
      <trkpt lat="46.50262" lon="5.33627">
        <ele>224</ele>
        <time>2022-05-07T10:44:04Z</time>
      </trkpt>
      <trkpt lat="46.50306" lon="5.33578">
        <ele>223.4</ele>
        <time>2022-05-07T10:44:12Z</time>
      </trkpt>
      <trkpt lat="46.50317" lon="5.33566">
        <ele>223.4</ele>
        <time>2022-05-07T10:44:14Z</time>
      </trkpt>
      <trkpt lat="46.50357" lon="5.33525">
        <ele>223</ele>
        <time>2022-05-07T10:44:21Z</time>
      </trkpt>
      <trkpt lat="46.50368" lon="5.33513">
        <ele>222.8</ele>
        <time>2022-05-07T10:44:23Z</time>
      </trkpt>
      <trkpt lat="46.50403" lon="5.33477">
        <ele>222</ele>
        <time>2022-05-07T10:44:29Z</time>
      </trkpt>
      <trkpt lat="46.50427" lon="5.33451">
        <ele>221.6</ele>
        <time>2022-05-07T10:44:33Z</time>
      </trkpt>
      <trkpt lat="46.50438" lon="5.33436">
        <ele>221.4</ele>
        <time>2022-05-07T10:44:35Z</time>
      </trkpt>
      <trkpt lat="46.50443" lon="5.33428">
        <ele>221.2</ele>
        <time>2022-05-07T10:44:36Z</time>
      </trkpt>
      <trkpt lat="46.50452" lon="5.33409">
        <ele>220.8</ele>
        <time>2022-05-07T10:44:38Z</time>
      </trkpt>
      <trkpt lat="46.50455" lon="5.33399">
        <ele>220.8</ele>
        <time>2022-05-07T10:44:39Z</time>
      </trkpt>
      <trkpt lat="46.5046" lon="5.33377">
        <ele>220.2</ele>
        <time>2022-05-07T10:44:41Z</time>
      </trkpt>
      <trkpt lat="46.50464" lon="5.33354">
        <ele>219.8</ele>
        <time>2022-05-07T10:44:43Z</time>
      </trkpt>
      <trkpt lat="46.50465" lon="5.33343">
        <ele>219.8</ele>
        <time>2022-05-07T10:44:44Z</time>
      </trkpt>
      <trkpt lat="46.50466" lon="5.33321">
        <ele>219.6</ele>
        <time>2022-05-07T10:44:46Z</time>
      </trkpt>
      <trkpt lat="46.50466" lon="5.33289">
        <ele>219.4</ele>
        <time>2022-05-07T10:44:49Z</time>
      </trkpt>
      <trkpt lat="46.50467" lon="5.33239">
        <ele>220</ele>
        <time>2022-05-07T10:44:54Z</time>
      </trkpt>
      <trkpt lat="46.50465" lon="5.332">
        <ele>220.6</ele>
        <time>2022-05-07T10:44:58Z</time>
      </trkpt>
      <trkpt lat="46.50465" lon="5.3319">
        <ele>220.6</ele>
        <time>2022-05-07T10:44:59Z</time>
      </trkpt>
      <trkpt lat="46.50467" lon="5.33103">
        <ele>220.6</ele>
        <time>2022-05-07T10:45:07Z</time>
      </trkpt>
      <trkpt lat="46.50467" lon="5.33064">
        <ele>219.6</ele>
        <time>2022-05-07T10:45:10Z</time>
      </trkpt>
      <trkpt lat="46.50467" lon="5.3305">
        <ele>219</ele>
        <time>2022-05-07T10:45:11Z</time>
      </trkpt>
      <trkpt lat="46.50469" lon="5.33022">
        <ele>218</ele>
        <time>2022-05-07T10:45:13Z</time>
      </trkpt>
      <trkpt lat="46.5047" lon="5.32993">
        <ele>216.8</ele>
        <time>2022-05-07T10:45:15Z</time>
      </trkpt>
      <trkpt lat="46.50471" lon="5.32963">
        <ele>215.4</ele>
        <time>2022-05-07T10:45:17Z</time>
      </trkpt>
      <trkpt lat="46.50471" lon="5.32933">
        <ele>214</ele>
        <time>2022-05-07T10:45:19Z</time>
      </trkpt>
      <trkpt lat="46.50472" lon="5.32903">
        <ele>212.8</ele>
        <time>2022-05-07T10:45:21Z</time>
      </trkpt>
      <trkpt lat="46.50473" lon="5.32872">
        <ele>211.4</ele>
        <time>2022-05-07T10:45:23Z</time>
      </trkpt>
      <trkpt lat="46.50473" lon="5.32854">
        <ele>211.2</ele>
        <time>2022-05-07T10:45:24Z</time>
      </trkpt>
      <trkpt lat="46.50473" lon="5.32842">
        <ele>210.2</ele>
        <time>2022-05-07T10:45:25Z</time>
      </trkpt>
      <trkpt lat="46.50474" lon="5.32797">
        <ele>209</ele>
        <time>2022-05-07T10:45:28Z</time>
      </trkpt>
      <trkpt lat="46.50476" lon="5.32755">
        <ele>208.4</ele>
        <time>2022-05-07T10:45:31Z</time>
      </trkpt>
      <trkpt lat="46.50476" lon="5.32727">
        <ele>208</ele>
        <time>2022-05-07T10:45:33Z</time>
      </trkpt>
      <trkpt lat="46.50477" lon="5.32688">
        <ele>206.6</ele>
        <time>2022-05-07T10:45:36Z</time>
      </trkpt>
      <trkpt lat="46.50478" lon="5.32662">
        <ele>206.2</ele>
        <time>2022-05-07T10:45:38Z</time>
      </trkpt>
      <trkpt lat="46.50477" lon="5.32585">
        <ele>205.6</ele>
        <time>2022-05-07T10:45:44Z</time>
      </trkpt>
      <trkpt lat="46.50476" lon="5.32572">
        <ele>205.6</ele>
        <time>2022-05-07T10:45:45Z</time>
      </trkpt>
      <trkpt lat="46.50472" lon="5.32483">
        <ele>205</ele>
        <time>2022-05-07T10:45:52Z</time>
      </trkpt>
      <trkpt lat="46.50468" lon="5.32445">
        <ele>204.6</ele>
        <time>2022-05-07T10:45:55Z</time>
      </trkpt>
      <trkpt lat="46.50466" lon="5.32433">
        <ele>204.6</ele>
        <time>2022-05-07T10:45:56Z</time>
      </trkpt>
      <trkpt lat="46.50452" lon="5.32364">
        <ele>203.8</ele>
        <time>2022-05-07T10:46:02Z</time>
      </trkpt>
      <trkpt lat="46.5044" lon="5.3231">
        <ele>203.4</ele>
        <time>2022-05-07T10:46:07Z</time>
      </trkpt>
      <trkpt lat="46.50436" lon="5.32289">
        <ele>203.4</ele>
        <time>2022-05-07T10:46:09Z</time>
      </trkpt>
      <trkpt lat="46.5043" lon="5.32236">
        <ele>203.6</ele>
        <time>2022-05-07T10:46:14Z</time>
      </trkpt>
      <trkpt lat="46.50431" lon="5.32214">
        <ele>203.6</ele>
        <time>2022-05-07T10:46:16Z</time>
      </trkpt>
      <trkpt lat="46.50437" lon="5.32194">
        <ele>203.6</ele>
        <time>2022-05-07T10:46:18Z</time>
      </trkpt>
      <trkpt lat="46.50454" lon="5.32177">
        <ele>203.4</ele>
        <time>2022-05-07T10:46:21Z</time>
      </trkpt>
      <trkpt lat="46.50463" lon="5.32163">
        <ele>203.4</ele>
        <time>2022-05-07T10:46:23Z</time>
      </trkpt>
      <trkpt lat="46.50466" lon="5.32154">
        <ele>203.4</ele>
        <time>2022-05-07T10:46:24Z</time>
      </trkpt>
      <trkpt lat="46.50492" lon="5.32083">
        <ele>203.6</ele>
        <time>2022-05-07T10:46:32Z</time>
      </trkpt>
      <trkpt lat="46.50526" lon="5.32024">
        <ele>203.8</ele>
        <time>2022-05-07T10:46:40Z</time>
      </trkpt>
      <trkpt lat="46.50554" lon="5.31979">
        <ele>204.4</ele>
        <time>2022-05-07T10:46:47Z</time>
      </trkpt>
      <trkpt lat="46.5056" lon="5.31966">
        <ele>204.8</ele>
        <time>2022-05-07T10:46:49Z</time>
      </trkpt>
      <trkpt lat="46.5057" lon="5.31943">
        <ele>206</ele>
        <time>2022-05-07T10:46:53Z</time>
      </trkpt>
      <trkpt lat="46.50576" lon="5.31928">
        <ele>207.4</ele>
        <time>2022-05-07T10:46:56Z</time>
      </trkpt>
      <trkpt lat="46.50579" lon="5.31921">
        <ele>207.6</ele>
        <time>2022-05-07T10:46:57Z</time>
      </trkpt>
      <trkpt lat="46.50585" lon="5.31907">
        <ele>208.8</ele>
        <time>2022-05-07T10:47:00Z</time>
      </trkpt>
      <trkpt lat="46.50591" lon="5.31892">
        <ele>210</ele>
        <time>2022-05-07T10:47:03Z</time>
      </trkpt>
      <trkpt lat="46.50593" lon="5.31886">
        <ele>210</ele>
        <time>2022-05-07T10:47:04Z</time>
      </trkpt>
      <trkpt lat="46.50609" lon="5.31846">
        <ele>211.2</ele>
        <time>2022-05-07T10:47:12Z</time>
      </trkpt>
      <trkpt lat="46.5062" lon="5.31811">
        <ele>212.2</ele>
        <time>2022-05-07T10:47:18Z</time>
      </trkpt>
      <trkpt lat="46.50628" lon="5.3178">
        <ele>213</ele>
        <time>2022-05-07T10:47:22Z</time>
      </trkpt>
      <trkpt lat="46.50634" lon="5.31767">
        <ele>213.4</ele>
        <time>2022-05-07T10:47:24Z</time>
      </trkpt>
      <trkpt lat="46.50639" lon="5.31753">
        <ele>213.6</ele>
        <time>2022-05-07T10:47:26Z</time>
      </trkpt>
      <trkpt lat="46.50649" lon="5.31731">
        <ele>213.6</ele>
        <time>2022-05-07T10:47:29Z</time>
      </trkpt>
      <trkpt lat="46.50658" lon="5.31722">
        <ele>213.6</ele>
        <time>2022-05-07T10:47:31Z</time>
      </trkpt>
      <trkpt lat="46.50668" lon="5.31716">
        <ele>213.8</ele>
        <time>2022-05-07T10:47:33Z</time>
      </trkpt>
      <trkpt lat="46.507" lon="5.3171">
        <ele>213.6</ele>
        <time>2022-05-07T10:47:39Z</time>
      </trkpt>
      <trkpt lat="46.50754" lon="5.31704">
        <ele>213.6</ele>
        <time>2022-05-07T10:47:48Z</time>
      </trkpt>
      <trkpt lat="46.50761" lon="5.31704">
        <ele>213.8</ele>
        <time>2022-05-07T10:47:49Z</time>
      </trkpt>
      <trkpt lat="46.50779" lon="5.3171">
        <ele>213.8</ele>
        <time>2022-05-07T10:47:52Z</time>
      </trkpt>
      <trkpt lat="46.50784" lon="5.31713">
        <ele>213.8</ele>
        <time>2022-05-07T10:47:53Z</time>
      </trkpt>
      <trkpt lat="46.50823" lon="5.31743">
        <ele>214</ele>
        <time>2022-05-07T10:48:00Z</time>
      </trkpt>
      <trkpt lat="46.50833" lon="5.31746">
        <ele>214</ele>
        <time>2022-05-07T10:48:02Z</time>
      </trkpt>
      <trkpt lat="46.50845" lon="5.31745">
        <ele>214</ele>
        <time>2022-05-07T10:48:04Z</time>
      </trkpt>
      <trkpt lat="46.50848" lon="5.31743">
        <ele>214.2</ele>
        <time>2022-05-07T10:48:05Z</time>
      </trkpt>
      <trkpt lat="46.50858" lon="5.31736">
        <ele>214.4</ele>
        <time>2022-05-07T10:48:07Z</time>
      </trkpt>
      <trkpt lat="46.50873" lon="5.31721">
        <ele>214.6</ele>
        <time>2022-05-07T10:48:10Z</time>
      </trkpt>
      <trkpt lat="46.50888" lon="5.31706">
        <ele>215</ele>
        <time>2022-05-07T10:48:13Z</time>
      </trkpt>
      <trkpt lat="46.50899" lon="5.31696">
        <ele>215</ele>
        <time>2022-05-07T10:48:15Z</time>
      </trkpt>
      <trkpt lat="46.50932" lon="5.31664">
        <ele>214.8</ele>
        <time>2022-05-07T10:48:21Z</time>
      </trkpt>
      <trkpt lat="46.50965" lon="5.3163">
        <ele>213.4</ele>
        <time>2022-05-07T10:48:26Z</time>
      </trkpt>
      <trkpt lat="46.51002" lon="5.31589">
        <ele>213.2</ele>
        <time>2022-05-07T10:48:33Z</time>
      </trkpt>
      <trkpt lat="46.51031" lon="5.31553">
        <ele>214</ele>
        <time>2022-05-07T10:48:39Z</time>
      </trkpt>
      <trkpt lat="46.51033" lon="5.31547">
        <ele>214.2</ele>
        <time>2022-05-07T10:48:40Z</time>
      </trkpt>
      <trkpt lat="46.51036" lon="5.31537">
        <ele>214.2</ele>
        <time>2022-05-07T10:48:41Z</time>
      </trkpt>
      <trkpt lat="46.51045" lon="5.31505">
        <ele>214.2</ele>
        <time>2022-05-07T10:48:44Z</time>
      </trkpt>
      <trkpt lat="46.51062" lon="5.31426">
        <ele>212.2</ele>
        <time>2022-05-07T10:48:51Z</time>
      </trkpt>
      <trkpt lat="46.51067" lon="5.31402">
        <ele>211.8</ele>
        <time>2022-05-07T10:48:53Z</time>
      </trkpt>
      <trkpt lat="46.51069" lon="5.31389">
        <ele>211.4</ele>
        <time>2022-05-07T10:48:54Z</time>
      </trkpt>
      <trkpt lat="46.5107" lon="5.31364">
        <ele>211</ele>
        <time>2022-05-07T10:48:56Z</time>
      </trkpt>
      <trkpt lat="46.51069" lon="5.31316">
        <ele>209.6</ele>
        <time>2022-05-07T10:49:00Z</time>
      </trkpt>
      <trkpt lat="46.51083" lon="5.31284">
        <ele>208.4</ele>
        <time>2022-05-07T10:49:03Z</time>
      </trkpt>
      <trkpt lat="46.51098" lon="5.31265">
        <ele>207.8</ele>
        <time>2022-05-07T10:49:05Z</time>
      </trkpt>
      <trkpt lat="46.51106" lon="5.31257">
        <ele>207.4</ele>
        <time>2022-05-07T10:49:06Z</time>
      </trkpt>
      <trkpt lat="46.51114" lon="5.31248">
        <ele>207</ele>
        <time>2022-05-07T10:49:07Z</time>
      </trkpt>
      <trkpt lat="46.51121" lon="5.3124">
        <ele>205.8</ele>
        <time>2022-05-07T10:49:08Z</time>
      </trkpt>
      <trkpt lat="46.51136" lon="5.31222">
        <ele>204.8</ele>
        <time>2022-05-07T10:49:10Z</time>
      </trkpt>
      <trkpt lat="46.51144" lon="5.31213">
        <ele>204.4</ele>
        <time>2022-05-07T10:49:11Z</time>
      </trkpt>
      <trkpt lat="46.51179" lon="5.31173">
        <ele>203.6</ele>
        <time>2022-05-07T10:49:16Z</time>
      </trkpt>
      <trkpt lat="46.51185" lon="5.31164">
        <ele>203.2</ele>
        <time>2022-05-07T10:49:17Z</time>
      </trkpt>
      <trkpt lat="46.51197" lon="5.31148">
        <ele>202.6</ele>
        <time>2022-05-07T10:49:19Z</time>
      </trkpt>
      <trkpt lat="46.51227" lon="5.31112">
        <ele>202</ele>
        <time>2022-05-07T10:49:24Z</time>
      </trkpt>
      <trkpt lat="46.5124" lon="5.31099">
        <ele>201.8</ele>
        <time>2022-05-07T10:49:26Z</time>
      </trkpt>
      <trkpt lat="46.51254" lon="5.31087">
        <ele>201.4</ele>
        <time>2022-05-07T10:49:28Z</time>
      </trkpt>
      <trkpt lat="46.51261" lon="5.31084">
        <ele>201.4</ele>
        <time>2022-05-07T10:49:29Z</time>
      </trkpt>
      <trkpt lat="46.51269" lon="5.31081">
        <ele>201.2</ele>
        <time>2022-05-07T10:49:30Z</time>
      </trkpt>
      <trkpt lat="46.51291" lon="5.31079">
        <ele>201.2</ele>
        <time>2022-05-07T10:49:33Z</time>
      </trkpt>
      <trkpt lat="46.51312" lon="5.31076">
        <ele>201</ele>
        <time>2022-05-07T10:49:36Z</time>
      </trkpt>
      <trkpt lat="46.51345" lon="5.31074">
        <ele>201.4</ele>
        <time>2022-05-07T10:49:41Z</time>
      </trkpt>
      <trkpt lat="46.51396" lon="5.31069">
        <ele>201.6</ele>
        <time>2022-05-07T10:49:49Z</time>
      </trkpt>
      <trkpt lat="46.51451" lon="5.31067">
        <ele>201.6</ele>
        <time>2022-05-07T10:49:58Z</time>
      </trkpt>
      <trkpt lat="46.515" lon="5.31068">
        <ele>200.8</ele>
        <time>2022-05-07T10:50:06Z</time>
      </trkpt>
      <trkpt lat="46.5154" lon="5.31072">
        <ele>201.2</ele>
        <time>2022-05-07T10:50:13Z</time>
      </trkpt>
      <trkpt lat="46.51589" lon="5.3108">
        <ele>201.2</ele>
        <time>2022-05-07T10:50:22Z</time>
      </trkpt>
      <trkpt lat="46.51615" lon="5.31093">
        <ele>201.4</ele>
        <time>2022-05-07T10:50:27Z</time>
      </trkpt>
      <trkpt lat="46.51623" lon="5.31098">
        <ele>201.6</ele>
        <time>2022-05-07T10:50:29Z</time>
      </trkpt>
      <trkpt lat="46.51637" lon="5.31104">
        <ele>202</ele>
        <time>2022-05-07T10:50:32Z</time>
      </trkpt>
      <trkpt lat="46.51646" lon="5.31104">
        <ele>202.4</ele>
        <time>2022-05-07T10:50:34Z</time>
      </trkpt>
      <trkpt lat="46.51664" lon="5.31104">
        <ele>203.4</ele>
        <time>2022-05-07T10:50:38Z</time>
      </trkpt>
      <trkpt lat="46.51668" lon="5.31107">
        <ele>203.6</ele>
        <time>2022-05-07T10:50:39Z</time>
      </trkpt>
      <trkpt lat="46.51672" lon="5.31112">
        <ele>203.6</ele>
        <time>2022-05-07T10:50:40Z</time>
      </trkpt>
      <trkpt lat="46.51687" lon="5.31139">
        <ele>203.6</ele>
        <time>2022-05-07T10:50:44Z</time>
      </trkpt>
      <trkpt lat="46.51712" lon="5.31165">
        <ele>203.4</ele>
        <time>2022-05-07T10:50:49Z</time>
      </trkpt>
      <trkpt lat="46.51724" lon="5.31173">
        <ele>203</ele>
        <time>2022-05-07T10:50:51Z</time>
      </trkpt>
      <trkpt lat="46.51737" lon="5.31177">
        <ele>202.4</ele>
        <time>2022-05-07T10:50:53Z</time>
      </trkpt>
      <trkpt lat="46.51744" lon="5.31179">
        <ele>202.2</ele>
        <time>2022-05-07T10:50:54Z</time>
      </trkpt>
      <trkpt lat="46.51773" lon="5.3118">
        <ele>201.2</ele>
        <time>2022-05-07T10:50:58Z</time>
      </trkpt>
      <trkpt lat="46.51782" lon="5.3118">
        <ele>201</ele>
        <time>2022-05-07T10:50:59Z</time>
      </trkpt>
      <trkpt lat="46.51797" lon="5.31181">
        <ele>200</ele>
        <time>2022-05-07T10:51:01Z</time>
      </trkpt>
      <trkpt lat="46.51813" lon="5.31182">
        <ele>198.8</ele>
        <time>2022-05-07T10:51:03Z</time>
      </trkpt>
      <trkpt lat="46.51829" lon="5.31185">
        <ele>197.2</ele>
        <time>2022-05-07T10:51:05Z</time>
      </trkpt>
      <trkpt lat="46.51853" lon="5.31198">
        <ele>196.6</ele>
        <time>2022-05-07T10:51:08Z</time>
      </trkpt>
      <trkpt lat="46.51866" lon="5.3121">
        <ele>196.4</ele>
        <time>2022-05-07T10:51:10Z</time>
      </trkpt>
      <trkpt lat="46.51872" lon="5.31217">
        <ele>196.2</ele>
        <time>2022-05-07T10:51:11Z</time>
      </trkpt>
      <trkpt lat="46.51878" lon="5.31225">
        <ele>196.2</ele>
        <time>2022-05-07T10:51:12Z</time>
      </trkpt>
      <trkpt lat="46.51888" lon="5.31241">
        <ele>196</ele>
        <time>2022-05-07T10:51:14Z</time>
      </trkpt>
      <trkpt lat="46.51922" lon="5.31294">
        <ele>196.2</ele>
        <time>2022-05-07T10:51:21Z</time>
      </trkpt>
      <trkpt lat="46.51961" lon="5.3135">
        <ele>196</ele>
        <time>2022-05-07T10:51:29Z</time>
      </trkpt>
      <trkpt lat="46.51993" lon="5.31398">
        <ele>195.8</ele>
        <time>2022-05-07T10:51:36Z</time>
      </trkpt>
      <trkpt lat="46.52018" lon="5.31436">
        <ele>197.4</ele>
        <time>2022-05-07T10:51:42Z</time>
      </trkpt>
      <trkpt lat="46.52035" lon="5.3146">
        <ele>198</ele>
        <time>2022-05-07T10:51:46Z</time>
      </trkpt>
      <trkpt lat="46.52042" lon="5.31471">
        <ele>198.4</ele>
        <time>2022-05-07T10:51:48Z</time>
      </trkpt>
      <trkpt lat="46.52065" lon="5.31507">
        <ele>199.2</ele>
        <time>2022-05-07T10:51:54Z</time>
      </trkpt>
      <trkpt lat="46.52069" lon="5.31512">
        <ele>199.4</ele>
        <time>2022-05-07T10:51:55Z</time>
      </trkpt>
      <trkpt lat="46.52077" lon="5.31522">
        <ele>199.8</ele>
        <time>2022-05-07T10:51:57Z</time>
      </trkpt>
      <trkpt lat="46.5209" lon="5.3154">
        <ele>200.4</ele>
        <time>2022-05-07T10:52:00Z</time>
      </trkpt>
      <trkpt lat="46.52094" lon="5.31545">
        <ele>200.4</ele>
        <time>2022-05-07T10:52:01Z</time>
      </trkpt>
      <trkpt lat="46.52104" lon="5.3156">
        <ele>201</ele>
        <time>2022-05-07T10:52:04Z</time>
      </trkpt>
      <trkpt lat="46.52108" lon="5.31565">
        <ele>201.2</ele>
        <time>2022-05-07T10:52:05Z</time>
      </trkpt>
      <trkpt lat="46.52112" lon="5.3157">
        <ele>201.4</ele>
        <time>2022-05-07T10:52:06Z</time>
      </trkpt>
      <trkpt lat="46.52116" lon="5.31575">
        <ele>201.6</ele>
        <time>2022-05-07T10:52:07Z</time>
      </trkpt>
      <trkpt lat="46.52131" lon="5.31597">
        <ele>202.2</ele>
        <time>2022-05-07T10:52:11Z</time>
      </trkpt>
      <trkpt lat="46.52138" lon="5.31608">
        <ele>202.4</ele>
        <time>2022-05-07T10:52:13Z</time>
      </trkpt>
      <trkpt lat="46.52162" lon="5.31644">
        <ele>203.2</ele>
        <time>2022-05-07T10:52:20Z</time>
      </trkpt>
      <trkpt lat="46.52175" lon="5.31662">
        <ele>203.6</ele>
        <time>2022-05-07T10:52:24Z</time>
      </trkpt>
      <trkpt lat="46.52193" lon="5.31687">
        <ele>204.4</ele>
        <time>2022-05-07T10:52:29Z</time>
      </trkpt>
      <trkpt lat="46.52195" lon="5.3169">
        <ele>204.8</ele>
        <time>2022-05-07T10:52:30Z</time>
      </trkpt>
      <trkpt lat="46.52227" lon="5.31736">
        <ele>205.8</ele>
        <time>2022-05-07T10:52:39Z</time>
      </trkpt>
      <trkpt lat="46.5223" lon="5.31741">
        <ele>205.8</ele>
        <time>2022-05-07T10:52:40Z</time>
      </trkpt>
      <trkpt lat="46.52254" lon="5.31777">
        <ele>207</ele>
        <time>2022-05-07T10:52:47Z</time>
      </trkpt>
      <trkpt lat="46.52282" lon="5.31816">
        <ele>208</ele>
        <time>2022-05-07T10:52:55Z</time>
      </trkpt>
      <trkpt lat="46.52289" lon="5.31826">
        <ele>208.4</ele>
        <time>2022-05-07T10:52:57Z</time>
      </trkpt>
      <trkpt lat="46.52299" lon="5.3184">
        <ele>209</ele>
        <time>2022-05-07T10:53:00Z</time>
      </trkpt>
      <trkpt lat="46.52315" lon="5.31864">
        <ele>210.2</ele>
        <time>2022-05-07T10:53:05Z</time>
      </trkpt>
      <trkpt lat="46.52342" lon="5.31901">
        <ele>210.8</ele>
        <time>2022-05-07T10:53:13Z</time>
      </trkpt>
      <trkpt lat="46.52355" lon="5.31921">
        <ele>211.4</ele>
        <time>2022-05-07T10:53:17Z</time>
      </trkpt>
      <trkpt lat="46.52372" lon="5.31943">
        <ele>211.6</ele>
        <time>2022-05-07T10:53:21Z</time>
      </trkpt>
      <trkpt lat="46.52399" lon="5.31981">
        <ele>211</ele>
        <time>2022-05-07T10:53:27Z</time>
      </trkpt>
      <trkpt lat="46.52419" lon="5.3201">
        <ele>210.4</ele>
        <time>2022-05-07T10:53:31Z</time>
      </trkpt>
      <trkpt lat="46.52441" lon="5.32041">
        <ele>209</ele>
        <time>2022-05-07T10:53:35Z</time>
      </trkpt>
      <trkpt lat="46.52457" lon="5.32066">
        <ele>208.4</ele>
        <time>2022-05-07T10:53:38Z</time>
      </trkpt>
      <trkpt lat="46.52468" lon="5.32082">
        <ele>207.8</ele>
        <time>2022-05-07T10:53:40Z</time>
      </trkpt>
      <trkpt lat="46.52474" lon="5.3209">
        <ele>207.4</ele>
        <time>2022-05-07T10:53:41Z</time>
      </trkpt>
      <trkpt lat="46.52486" lon="5.32106">
        <ele>206.4</ele>
        <time>2022-05-07T10:53:43Z</time>
      </trkpt>
      <trkpt lat="46.52503" lon="5.32131">
        <ele>205.6</ele>
        <time>2022-05-07T10:53:46Z</time>
      </trkpt>
      <trkpt lat="46.52509" lon="5.3214">
        <ele>205.4</ele>
        <time>2022-05-07T10:53:47Z</time>
      </trkpt>
      <trkpt lat="46.52529" lon="5.32163">
        <ele>203.8</ele>
        <time>2022-05-07T10:53:50Z</time>
      </trkpt>
      <trkpt lat="46.52544" lon="5.32178">
        <ele>202.4</ele>
        <time>2022-05-07T10:53:52Z</time>
      </trkpt>
      <trkpt lat="46.52566" lon="5.32194">
        <ele>201.2</ele>
        <time>2022-05-07T10:53:55Z</time>
      </trkpt>
      <trkpt lat="46.52574" lon="5.32199">
        <ele>201</ele>
        <time>2022-05-07T10:53:56Z</time>
      </trkpt>
      <trkpt lat="46.52601" lon="5.32211">
        <ele>200.2</ele>
        <time>2022-05-07T10:53:59Z</time>
      </trkpt>
      <trkpt lat="46.5262" lon="5.3222">
        <ele>199.6</ele>
        <time>2022-05-07T10:54:01Z</time>
      </trkpt>
      <trkpt lat="46.52629" lon="5.32225">
        <ele>199.2</ele>
        <time>2022-05-07T10:54:02Z</time>
      </trkpt>
      <trkpt lat="46.52656" lon="5.32243">
        <ele>198</ele>
        <time>2022-05-07T10:54:05Z</time>
      </trkpt>
      <trkpt lat="46.52664" lon="5.3225">
        <ele>196.6</ele>
        <time>2022-05-07T10:54:06Z</time>
      </trkpt>
      <trkpt lat="46.52672" lon="5.32257">
        <ele>196.2</ele>
        <time>2022-05-07T10:54:07Z</time>
      </trkpt>
      <trkpt lat="46.52687" lon="5.32272">
        <ele>195.2</ele>
        <time>2022-05-07T10:54:09Z</time>
      </trkpt>
      <trkpt lat="46.52701" lon="5.32287">
        <ele>194</ele>
        <time>2022-05-07T10:54:11Z</time>
      </trkpt>
      <trkpt lat="46.52707" lon="5.32294">
        <ele>194</ele>
        <time>2022-05-07T10:54:12Z</time>
      </trkpt>
      <trkpt lat="46.52745" lon="5.32344">
        <ele>194.4</ele>
        <time>2022-05-07T10:54:19Z</time>
      </trkpt>
      <trkpt lat="46.52777" lon="5.3238">
        <ele>195.4</ele>
        <time>2022-05-07T10:54:25Z</time>
      </trkpt>
      <trkpt lat="46.52788" lon="5.32392">
        <ele>195.8</ele>
        <time>2022-05-07T10:54:27Z</time>
      </trkpt>
      <trkpt lat="46.52836" lon="5.32444">
        <ele>196.2</ele>
        <time>2022-05-07T10:54:36Z</time>
      </trkpt>
      <trkpt lat="46.52882" lon="5.32491">
        <ele>195.2</ele>
        <time>2022-05-07T10:54:45Z</time>
      </trkpt>
      <trkpt lat="46.52892" lon="5.32502">
        <ele>195.2</ele>
        <time>2022-05-07T10:54:47Z</time>
      </trkpt>
      <trkpt lat="46.52938" lon="5.32548">
        <ele>195.4</ele>
        <time>2022-05-07T10:54:56Z</time>
      </trkpt>
      <trkpt lat="46.52953" lon="5.32564">
        <ele>195.8</ele>
        <time>2022-05-07T10:54:59Z</time>
      </trkpt>
      <trkpt lat="46.52981" lon="5.32592">
        <ele>196.4</ele>
        <time>2022-05-07T10:55:05Z</time>
      </trkpt>
      <trkpt lat="46.53001" lon="5.32613">
        <ele>197.4</ele>
        <time>2022-05-07T10:55:10Z</time>
      </trkpt>
      <trkpt lat="46.53008" lon="5.32621">
        <ele>198</ele>
        <time>2022-05-07T10:55:12Z</time>
      </trkpt>
      <trkpt lat="46.53015" lon="5.32628">
        <ele>198.4</ele>
        <time>2022-05-07T10:55:14Z</time>
      </trkpt>
      <trkpt lat="46.53031" lon="5.32647">
        <ele>199.4</ele>
        <time>2022-05-07T10:55:19Z</time>
      </trkpt>
      <trkpt lat="46.53044" lon="5.32661">
        <ele>200.8</ele>
        <time>2022-05-07T10:55:23Z</time>
      </trkpt>
      <trkpt lat="46.53057" lon="5.32674">
        <ele>201.8</ele>
        <time>2022-05-07T10:55:27Z</time>
      </trkpt>
      <trkpt lat="46.53066" lon="5.32684">
        <ele>203</ele>
        <time>2022-05-07T10:55:30Z</time>
      </trkpt>
      <trkpt lat="46.53079" lon="5.32699">
        <ele>204.2</ele>
        <time>2022-05-07T10:55:35Z</time>
      </trkpt>
      <trkpt lat="46.53085" lon="5.32705">
        <ele>204.6</ele>
        <time>2022-05-07T10:55:37Z</time>
      </trkpt>
      <trkpt lat="46.53098" lon="5.3272">
        <ele>205.4</ele>
        <time>2022-05-07T10:55:42Z</time>
      </trkpt>
      <trkpt lat="46.53109" lon="5.32732">
        <ele>206.6</ele>
        <time>2022-05-07T10:55:46Z</time>
      </trkpt>
      <trkpt lat="46.53111" lon="5.32735">
        <ele>206.6</ele>
        <time>2022-05-07T10:55:47Z</time>
      </trkpt>
      <trkpt lat="46.53127" lon="5.32753">
        <ele>207.6</ele>
        <time>2022-05-07T10:55:53Z</time>
      </trkpt>
      <trkpt lat="46.53135" lon="5.32762">
        <ele>208.2</ele>
        <time>2022-05-07T10:55:56Z</time>
      </trkpt>
      <trkpt lat="46.5314" lon="5.32768">
        <ele>208.8</ele>
        <time>2022-05-07T10:55:58Z</time>
      </trkpt>
      <trkpt lat="46.53154" lon="5.32788">
        <ele>209.8</ele>
        <time>2022-05-07T10:56:04Z</time>
      </trkpt>
      <trkpt lat="46.53171" lon="5.32816">
        <ele>211</ele>
        <time>2022-05-07T10:56:12Z</time>
      </trkpt>
      <trkpt lat="46.53177" lon="5.32827">
        <ele>211.4</ele>
        <time>2022-05-07T10:56:15Z</time>
      </trkpt>
      <trkpt lat="46.53187" lon="5.32846">
        <ele>212.2</ele>
        <time>2022-05-07T10:56:20Z</time>
      </trkpt>
      <trkpt lat="46.53195" lon="5.32862">
        <ele>212.8</ele>
        <time>2022-05-07T10:56:24Z</time>
      </trkpt>
      <trkpt lat="46.53197" lon="5.32866">
        <ele>213.4</ele>
        <time>2022-05-07T10:56:25Z</time>
      </trkpt>
      <trkpt lat="46.53202" lon="5.32878">
        <ele>214.4</ele>
        <time>2022-05-07T10:56:28Z</time>
      </trkpt>
      <trkpt lat="46.53215" lon="5.32903">
        <ele>215.2</ele>
        <time>2022-05-07T10:56:34Z</time>
      </trkpt>
      <trkpt lat="46.5322" lon="5.32915">
        <ele>215.6</ele>
        <time>2022-05-07T10:56:37Z</time>
      </trkpt>
      <trkpt lat="46.53226" lon="5.32927">
        <ele>216</ele>
        <time>2022-05-07T10:56:40Z</time>
      </trkpt>
      <trkpt lat="46.5323" lon="5.32935">
        <ele>216.8</ele>
        <time>2022-05-07T10:56:42Z</time>
      </trkpt>
      <trkpt lat="46.53244" lon="5.32961">
        <ele>218.2</ele>
        <time>2022-05-07T10:56:48Z</time>
      </trkpt>
      <trkpt lat="46.53249" lon="5.3297">
        <ele>218.6</ele>
        <time>2022-05-07T10:56:50Z</time>
      </trkpt>
      <trkpt lat="46.53263" lon="5.32997">
        <ele>219.2</ele>
        <time>2022-05-07T10:56:56Z</time>
      </trkpt>
      <trkpt lat="46.53272" lon="5.33014">
        <ele>219.4</ele>
        <time>2022-05-07T10:57:00Z</time>
      </trkpt>
      <trkpt lat="46.53297" lon="5.33054">
        <ele>219.8</ele>
        <time>2022-05-07T10:57:09Z</time>
      </trkpt>
      <trkpt lat="46.53306" lon="5.33068">
        <ele>220.2</ele>
        <time>2022-05-07T10:57:12Z</time>
      </trkpt>
      <trkpt lat="46.5333" lon="5.33101">
        <ele>220</ele>
        <time>2022-05-07T10:57:19Z</time>
      </trkpt>
      <trkpt lat="46.53358" lon="5.33139">
        <ele>220</ele>
        <time>2022-05-07T10:57:26Z</time>
      </trkpt>
      <trkpt lat="46.53389" lon="5.33183">
        <ele>220</ele>
        <time>2022-05-07T10:57:34Z</time>
      </trkpt>
      <trkpt lat="46.53422" lon="5.33228">
        <ele>220.2</ele>
        <time>2022-05-07T10:57:42Z</time>
      </trkpt>
      <trkpt lat="46.53466" lon="5.33288">
        <ele>220</ele>
        <time>2022-05-07T10:57:52Z</time>
      </trkpt>
      <trkpt lat="46.53496" lon="5.3333">
        <ele>220.2</ele>
        <time>2022-05-07T10:57:59Z</time>
      </trkpt>
      <trkpt lat="46.5353" lon="5.33377">
        <ele>220</ele>
        <time>2022-05-07T10:58:07Z</time>
      </trkpt>
      <trkpt lat="46.53539" lon="5.3339">
        <ele>219.4</ele>
        <time>2022-05-07T10:58:09Z</time>
      </trkpt>
      <trkpt lat="46.53558" lon="5.33418">
        <ele>218.6</ele>
        <time>2022-05-07T10:58:13Z</time>
      </trkpt>
      <trkpt lat="46.53568" lon="5.33432">
        <ele>218.2</ele>
        <time>2022-05-07T10:58:15Z</time>
      </trkpt>
      <trkpt lat="46.53604" lon="5.33482">
        <ele>216.6</ele>
        <time>2022-05-07T10:58:22Z</time>
      </trkpt>
      <trkpt lat="46.53623" lon="5.33509">
        <ele>215.6</ele>
        <time>2022-05-07T10:58:26Z</time>
      </trkpt>
      <trkpt lat="46.53626" lon="5.33515">
        <ele>215.6</ele>
        <time>2022-05-07T10:58:27Z</time>
      </trkpt>
      <trkpt lat="46.53629" lon="5.33519">
        <ele>215.6</ele>
        <time>2022-05-07T10:58:28Z</time>
      </trkpt>
      <trkpt lat="46.53633" lon="5.33527">
        <ele>215.4</ele>
        <time>2022-05-07T10:58:31Z</time>
      </trkpt>
      <trkpt lat="46.53639" lon="5.33525">
        <ele>215.4</ele>
        <time>2022-05-07T10:58:33Z</time>
      </trkpt>
      <trkpt lat="46.53642" lon="5.33522">
        <ele>215.4</ele>
        <time>2022-05-07T10:58:34Z</time>
      </trkpt>
      <trkpt lat="46.53669" lon="5.33498">
        <ele>216</ele>
        <time>2022-05-07T10:58:41Z</time>
      </trkpt>
      <trkpt lat="46.53686" lon="5.33481">
        <ele>216.6</ele>
        <time>2022-05-07T10:58:45Z</time>
      </trkpt>
      <trkpt lat="46.53695" lon="5.33473">
        <ele>216.8</ele>
        <time>2022-05-07T10:58:47Z</time>
      </trkpt>
      <trkpt lat="46.53701" lon="5.33471">
        <ele>217</ele>
        <time>2022-05-07T10:58:48Z</time>
      </trkpt>
      <trkpt lat="46.53707" lon="5.33472">
        <ele>217.2</ele>
        <time>2022-05-07T10:58:49Z</time>
      </trkpt>
      <trkpt lat="46.53719" lon="5.33477">
        <ele>217.4</ele>
        <time>2022-05-07T10:58:51Z</time>
      </trkpt>
      <trkpt lat="46.53759" lon="5.33497">
        <ele>217</ele>
        <time>2022-05-07T10:58:57Z</time>
      </trkpt>
      <trkpt lat="46.538" lon="5.33526">
        <ele>215.4</ele>
        <time>2022-05-07T10:59:03Z</time>
      </trkpt>
      <trkpt lat="46.53807" lon="5.33531">
        <ele>215.2</ele>
        <time>2022-05-07T10:59:04Z</time>
      </trkpt>
      <trkpt lat="46.53835" lon="5.33547">
        <ele>214.4</ele>
        <time>2022-05-07T10:59:08Z</time>
      </trkpt>
      <trkpt lat="46.53856" lon="5.33557">
        <ele>213.6</ele>
        <time>2022-05-07T10:59:11Z</time>
      </trkpt>
      <trkpt lat="46.53872" lon="5.3356">
        <ele>213.2</ele>
        <time>2022-05-07T10:59:13Z</time>
      </trkpt>
      <trkpt lat="46.53897" lon="5.33562">
        <ele>212.8</ele>
        <time>2022-05-07T10:59:16Z</time>
      </trkpt>
      <trkpt lat="46.53913" lon="5.33562">
        <ele>212.2</ele>
        <time>2022-05-07T10:59:18Z</time>
      </trkpt>
      <trkpt lat="46.5394" lon="5.33564">
        <ele>211</ele>
        <time>2022-05-07T10:59:21Z</time>
      </trkpt>
      <trkpt lat="46.53967" lon="5.33566">
        <ele>209.4</ele>
        <time>2022-05-07T10:59:24Z</time>
      </trkpt>
      <trkpt lat="46.53986" lon="5.33566">
        <ele>208</ele>
        <time>2022-05-07T10:59:26Z</time>
      </trkpt>
      <trkpt lat="46.53996" lon="5.33567">
        <ele>207</ele>
        <time>2022-05-07T10:59:27Z</time>
      </trkpt>
      <trkpt lat="46.54015" lon="5.33572">
        <ele>205.4</ele>
        <time>2022-05-07T10:59:29Z</time>
      </trkpt>
      <trkpt lat="46.54025" lon="5.33577">
        <ele>204.8</ele>
        <time>2022-05-07T10:59:30Z</time>
      </trkpt>
      <trkpt lat="46.54034" lon="5.33583">
        <ele>204.2</ele>
        <time>2022-05-07T10:59:31Z</time>
      </trkpt>
      <trkpt lat="46.54062" lon="5.33602">
        <ele>203.2</ele>
        <time>2022-05-07T10:59:34Z</time>
      </trkpt>
      <trkpt lat="46.54081" lon="5.33613">
        <ele>202.8</ele>
        <time>2022-05-07T10:59:36Z</time>
      </trkpt>
      <trkpt lat="46.54113" lon="5.33633">
        <ele>202</ele>
        <time>2022-05-07T10:59:40Z</time>
      </trkpt>
      <trkpt lat="46.5412" lon="5.33636">
        <ele>201.8</ele>
        <time>2022-05-07T10:59:41Z</time>
      </trkpt>
      <trkpt lat="46.54153" lon="5.33649">
        <ele>202.4</ele>
        <time>2022-05-07T10:59:46Z</time>
      </trkpt>
      <trkpt lat="46.54159" lon="5.3365">
        <ele>202.6</ele>
        <time>2022-05-07T10:59:47Z</time>
      </trkpt>
      <trkpt lat="46.54177" lon="5.33651">
        <ele>203.8</ele>
        <time>2022-05-07T10:59:50Z</time>
      </trkpt>
      <trkpt lat="46.54189" lon="5.33651">
        <ele>204.6</ele>
        <time>2022-05-07T10:59:52Z</time>
      </trkpt>
      <trkpt lat="46.54195" lon="5.33651">
        <ele>204.8</ele>
        <time>2022-05-07T10:59:53Z</time>
      </trkpt>
      <trkpt lat="46.54227" lon="5.3365">
        <ele>206.2</ele>
        <time>2022-05-07T10:59:59Z</time>
      </trkpt>
      <trkpt lat="46.54244" lon="5.33651">
        <ele>207</ele>
        <time>2022-05-07T11:00:02Z</time>
      </trkpt>
      <trkpt lat="46.54269" lon="5.33653">
        <ele>207.2</ele>
        <time>2022-05-07T11:00:06Z</time>
      </trkpt>
      <trkpt lat="46.54296" lon="5.33655">
        <ele>207.6</ele>
        <time>2022-05-07T11:00:10Z</time>
      </trkpt>
      <trkpt lat="46.54349" lon="5.33662">
        <ele>206</ele>
        <time>2022-05-07T11:00:17Z</time>
      </trkpt>
      <trkpt lat="46.54373" lon="5.33669">
        <ele>204.8</ele>
        <time>2022-05-07T11:00:20Z</time>
      </trkpt>
      <trkpt lat="46.54394" lon="5.33678">
        <ele>204.4</ele>
        <time>2022-05-07T11:00:23Z</time>
      </trkpt>
      <trkpt lat="46.54425" lon="5.33692">
        <ele>204.8</ele>
        <time>2022-05-07T11:00:28Z</time>
      </trkpt>
      <trkpt lat="46.5445" lon="5.33703">
        <ele>205.6</ele>
        <time>2022-05-07T11:00:33Z</time>
      </trkpt>
      <trkpt lat="46.54459" lon="5.33707">
        <ele>206</ele>
        <time>2022-05-07T11:00:35Z</time>
      </trkpt>
      <trkpt lat="46.54472" lon="5.33712">
        <ele>206.8</ele>
        <time>2022-05-07T11:00:38Z</time>
      </trkpt>
      <trkpt lat="46.54476" lon="5.33713">
        <ele>207</ele>
        <time>2022-05-07T11:00:39Z</time>
      </trkpt>
      <trkpt lat="46.54479" lon="5.33713">
        <ele>207.4</ele>
        <time>2022-05-07T11:00:40Z</time>
      </trkpt>
      <trkpt lat="46.54487" lon="5.33716">
        <ele>208.2</ele>
        <time>2022-05-07T11:00:42Z</time>
      </trkpt>
      <trkpt lat="46.54503" lon="5.33725">
        <ele>209.4</ele>
        <time>2022-05-07T11:00:46Z</time>
      </trkpt>
      <trkpt lat="46.54518" lon="5.33733">
        <ele>210.4</ele>
        <time>2022-05-07T11:00:50Z</time>
      </trkpt>
      <trkpt lat="46.54532" lon="5.33742">
        <ele>211</ele>
        <time>2022-05-07T11:00:54Z</time>
      </trkpt>
      <trkpt lat="46.5454" lon="5.33746">
        <ele>211.4</ele>
        <time>2022-05-07T11:00:56Z</time>
      </trkpt>
      <trkpt lat="46.54555" lon="5.33754">
        <ele>212.2</ele>
        <time>2022-05-07T11:01:00Z</time>
      </trkpt>
      <trkpt lat="46.54563" lon="5.33758">
        <ele>212.6</ele>
        <time>2022-05-07T11:01:02Z</time>
      </trkpt>
      <trkpt lat="46.5457" lon="5.33762">
        <ele>213.2</ele>
        <time>2022-05-07T11:01:04Z</time>
      </trkpt>
      <trkpt lat="46.54578" lon="5.33765">
        <ele>213.8</ele>
        <time>2022-05-07T11:01:06Z</time>
      </trkpt>
      <trkpt lat="46.54586" lon="5.33768">
        <ele>214.4</ele>
        <time>2022-05-07T11:01:08Z</time>
      </trkpt>
      <trkpt lat="46.54589" lon="5.3377">
        <ele>214.8</ele>
        <time>2022-05-07T11:01:09Z</time>
      </trkpt>
      <trkpt lat="46.5461" lon="5.33776">
        <ele>216.2</ele>
        <time>2022-05-07T11:01:14Z</time>
      </trkpt>
      <trkpt lat="46.54624" lon="5.3378">
        <ele>217</ele>
        <time>2022-05-07T11:01:17Z</time>
      </trkpt>
      <trkpt lat="46.54629" lon="5.33781">
        <ele>217.2</ele>
        <time>2022-05-07T11:01:18Z</time>
      </trkpt>
      <trkpt lat="46.54656" lon="5.33788">
        <ele>217.4</ele>
        <time>2022-05-07T11:01:23Z</time>
      </trkpt>
      <trkpt lat="46.54696" lon="5.33789">
        <ele>216.4</ele>
        <time>2022-05-07T11:01:29Z</time>
      </trkpt>
      <trkpt lat="46.5471" lon="5.33786">
        <ele>216</ele>
        <time>2022-05-07T11:01:31Z</time>
      </trkpt>
      <trkpt lat="46.54734" lon="5.33781">
        <ele>215</ele>
        <time>2022-05-07T11:01:34Z</time>
      </trkpt>
      <trkpt lat="46.54742" lon="5.3378">
        <ele>214.8</ele>
        <time>2022-05-07T11:01:35Z</time>
      </trkpt>
      <trkpt lat="46.54767" lon="5.33778">
        <ele>213.6</ele>
        <time>2022-05-07T11:01:38Z</time>
      </trkpt>
      <trkpt lat="46.54775" lon="5.33778">
        <ele>213.4</ele>
        <time>2022-05-07T11:01:39Z</time>
      </trkpt>
      <trkpt lat="46.54808" lon="5.33778">
        <ele>212.4</ele>
        <time>2022-05-07T11:01:43Z</time>
      </trkpt>
      <trkpt lat="46.54832" lon="5.3378">
        <ele>210.8</ele>
        <time>2022-05-07T11:01:46Z</time>
      </trkpt>
      <trkpt lat="46.5484" lon="5.3378">
        <ele>210.4</ele>
        <time>2022-05-07T11:01:47Z</time>
      </trkpt>
      <trkpt lat="46.54856" lon="5.3378">
        <ele>209.4</ele>
        <time>2022-05-07T11:01:49Z</time>
      </trkpt>
      <trkpt lat="46.54878" lon="5.33775">
        <ele>208.4</ele>
        <time>2022-05-07T11:01:52Z</time>
      </trkpt>
      <trkpt lat="46.54885" lon="5.33774">
        <ele>208.2</ele>
        <time>2022-05-07T11:01:53Z</time>
      </trkpt>
      <trkpt lat="46.54893" lon="5.33772">
        <ele>208</ele>
        <time>2022-05-07T11:01:54Z</time>
      </trkpt>
      <trkpt lat="46.5493" lon="5.33773">
        <ele>207.4</ele>
        <time>2022-05-07T11:01:59Z</time>
      </trkpt>
      <trkpt lat="46.54946" lon="5.33776">
        <ele>207.2</ele>
        <time>2022-05-07T11:02:01Z</time>
      </trkpt>
      <trkpt lat="46.54991" lon="5.33787">
        <ele>207</ele>
        <time>2022-05-07T11:02:08Z</time>
      </trkpt>
      <trkpt lat="46.5503" lon="5.33801">
        <ele>208</ele>
        <time>2022-05-07T11:02:15Z</time>
      </trkpt>
      <trkpt lat="46.55068" lon="5.33825">
        <ele>208.2</ele>
        <time>2022-05-07T11:02:23Z</time>
      </trkpt>
      <trkpt lat="46.55073" lon="5.3383">
        <ele>208.4</ele>
        <time>2022-05-07T11:02:24Z</time>
      </trkpt>
      <trkpt lat="46.55099" lon="5.33859">
        <ele>208.6</ele>
        <time>2022-05-07T11:02:31Z</time>
      </trkpt>
      <trkpt lat="46.55102" lon="5.33863">
        <ele>208.8</ele>
        <time>2022-05-07T11:02:32Z</time>
      </trkpt>
      <trkpt lat="46.55112" lon="5.33877">
        <ele>209.4</ele>
        <time>2022-05-07T11:02:35Z</time>
      </trkpt>
      <trkpt lat="46.55125" lon="5.33897">
        <ele>210.6</ele>
        <time>2022-05-07T11:02:39Z</time>
      </trkpt>
      <trkpt lat="46.55131" lon="5.33907">
        <ele>211.4</ele>
        <time>2022-05-07T11:02:41Z</time>
      </trkpt>
      <trkpt lat="46.55135" lon="5.33911">
        <ele>211.8</ele>
        <time>2022-05-07T11:02:42Z</time>
      </trkpt>
      <trkpt lat="46.55141" lon="5.33922">
        <ele>212.4</ele>
        <time>2022-05-07T11:02:44Z</time>
      </trkpt>
      <trkpt lat="46.5515" lon="5.33936">
        <ele>212.8</ele>
        <time>2022-05-07T11:02:47Z</time>
      </trkpt>
      <trkpt lat="46.55153" lon="5.33941">
        <ele>213</ele>
        <time>2022-05-07T11:02:48Z</time>
      </trkpt>
      <trkpt lat="46.55165" lon="5.33964">
        <ele>214</ele>
        <time>2022-05-07T11:02:53Z</time>
      </trkpt>
      <trkpt lat="46.55172" lon="5.33979">
        <ele>215.2</ele>
        <time>2022-05-07T11:02:56Z</time>
      </trkpt>
      <trkpt lat="46.55179" lon="5.33999">
        <ele>216.4</ele>
        <time>2022-05-07T11:03:00Z</time>
      </trkpt>
      <trkpt lat="46.55183" lon="5.34016">
        <ele>217.4</ele>
        <time>2022-05-07T11:03:03Z</time>
      </trkpt>
      <trkpt lat="46.55186" lon="5.34038">
        <ele>217.8</ele>
        <time>2022-05-07T11:03:07Z</time>
      </trkpt>
      <trkpt lat="46.55191" lon="5.34054">
        <ele>218.6</ele>
        <time>2022-05-07T11:03:10Z</time>
      </trkpt>
      <trkpt lat="46.552" lon="5.34074">
        <ele>218.8</ele>
        <time>2022-05-07T11:03:14Z</time>
      </trkpt>
      <trkpt lat="46.55205" lon="5.34085">
        <ele>219.2</ele>
        <time>2022-05-07T11:03:16Z</time>
      </trkpt>
      <trkpt lat="46.55213" lon="5.34107">
        <ele>219.8</ele>
        <time>2022-05-07T11:03:20Z</time>
      </trkpt>
      <trkpt lat="46.55225" lon="5.3414">
        <ele>220.4</ele>
        <time>2022-05-07T11:03:25Z</time>
      </trkpt>
      <trkpt lat="46.55226" lon="5.34145">
        <ele>220.4</ele>
        <time>2022-05-07T11:03:26Z</time>
      </trkpt>
      <trkpt lat="46.55234" lon="5.34202">
        <ele>220.4</ele>
        <time>2022-05-07T11:03:33Z</time>
      </trkpt>
      <trkpt lat="46.5524" lon="5.34221">
        <ele>220.2</ele>
        <time>2022-05-07T11:03:35Z</time>
      </trkpt>
      <trkpt lat="46.55245" lon="5.34237">
        <ele>220</ele>
        <time>2022-05-07T11:03:37Z</time>
      </trkpt>
      <trkpt lat="46.55269" lon="5.3427">
        <ele>219</ele>
        <time>2022-05-07T11:03:42Z</time>
      </trkpt>
      <trkpt lat="46.55275" lon="5.34275">
        <ele>219</ele>
        <time>2022-05-07T11:03:43Z</time>
      </trkpt>
      <trkpt lat="46.5528" lon="5.34281">
        <ele>218.6</ele>
        <time>2022-05-07T11:03:44Z</time>
      </trkpt>
      <trkpt lat="46.55312" lon="5.34319">
        <ele>217.4</ele>
        <time>2022-05-07T11:03:49Z</time>
      </trkpt>
      <trkpt lat="46.55317" lon="5.34324">
        <ele>217.4</ele>
        <time>2022-05-07T11:03:50Z</time>
      </trkpt>
      <trkpt lat="46.55344" lon="5.34353">
        <ele>216.2</ele>
        <time>2022-05-07T11:03:54Z</time>
      </trkpt>
      <trkpt lat="46.55371" lon="5.34382">
        <ele>215.2</ele>
        <time>2022-05-07T11:03:58Z</time>
      </trkpt>
      <trkpt lat="46.55393" lon="5.34404">
        <ele>214.6</ele>
        <time>2022-05-07T11:04:01Z</time>
      </trkpt>
      <trkpt lat="46.55406" lon="5.34419">
        <ele>214</ele>
        <time>2022-05-07T11:04:03Z</time>
      </trkpt>
      <trkpt lat="46.55454" lon="5.34469">
        <ele>213.6</ele>
        <time>2022-05-07T11:04:11Z</time>
      </trkpt>
      <trkpt lat="46.55486" lon="5.34502">
        <ele>213.4</ele>
        <time>2022-05-07T11:04:17Z</time>
      </trkpt>
      <trkpt lat="46.55523" lon="5.34532">
        <ele>214</ele>
        <time>2022-05-07T11:04:24Z</time>
      </trkpt>
      <trkpt lat="46.5556" lon="5.34551">
        <ele>213.8</ele>
        <time>2022-05-07T11:04:30Z</time>
      </trkpt>
      <trkpt lat="46.55595" lon="5.34562">
        <ele>212.8</ele>
        <time>2022-05-07T11:04:35Z</time>
      </trkpt>
      <trkpt lat="46.5561" lon="5.34567">
        <ele>212.2</ele>
        <time>2022-05-07T11:04:37Z</time>
      </trkpt>
      <trkpt lat="46.55633" lon="5.34575">
        <ele>211.6</ele>
        <time>2022-05-07T11:04:40Z</time>
      </trkpt>
      <trkpt lat="46.55652" lon="5.34577">
        <ele>211.2</ele>
        <time>2022-05-07T11:04:42Z</time>
      </trkpt>
      <trkpt lat="46.5567" lon="5.34576">
        <ele>210.4</ele>
        <time>2022-05-07T11:04:44Z</time>
      </trkpt>
      <trkpt lat="46.55689" lon="5.34575">
        <ele>208.8</ele>
        <time>2022-05-07T11:04:46Z</time>
      </trkpt>
      <trkpt lat="46.55698" lon="5.34576">
        <ele>207.8</ele>
        <time>2022-05-07T11:04:47Z</time>
      </trkpt>
      <trkpt lat="46.55706" lon="5.34577">
        <ele>207.2</ele>
        <time>2022-05-07T11:04:48Z</time>
      </trkpt>
      <trkpt lat="46.55715" lon="5.34579">
        <ele>206.6</ele>
        <time>2022-05-07T11:04:49Z</time>
      </trkpt>
      <trkpt lat="46.55734" lon="5.34583">
        <ele>205.4</ele>
        <time>2022-05-07T11:04:51Z</time>
      </trkpt>
      <trkpt lat="46.55762" lon="5.34589">
        <ele>203.6</ele>
        <time>2022-05-07T11:04:54Z</time>
      </trkpt>
      <trkpt lat="46.55782" lon="5.34594">
        <ele>202.6</ele>
        <time>2022-05-07T11:04:56Z</time>
      </trkpt>
      <trkpt lat="46.55814" lon="5.34601">
        <ele>201.4</ele>
        <time>2022-05-07T11:05:00Z</time>
      </trkpt>
      <trkpt lat="46.55821" lon="5.34602">
        <ele>201.2</ele>
        <time>2022-05-07T11:05:01Z</time>
      </trkpt>
      <trkpt lat="46.55874" lon="5.34615">
        <ele>200.6</ele>
        <time>2022-05-07T11:05:08Z</time>
      </trkpt>
      <trkpt lat="46.55888" lon="5.34618">
        <ele>200.2</ele>
        <time>2022-05-07T11:05:10Z</time>
      </trkpt>
      <trkpt lat="46.5593" lon="5.34628">
        <ele>199.6</ele>
        <time>2022-05-07T11:05:16Z</time>
      </trkpt>
      <trkpt lat="46.55951" lon="5.34633">
        <ele>199.2</ele>
        <time>2022-05-07T11:05:19Z</time>
      </trkpt>
      <trkpt lat="46.55983" lon="5.34642">
        <ele>199.2</ele>
        <time>2022-05-07T11:05:24Z</time>
      </trkpt>
      <trkpt lat="46.56026" lon="5.34653">
        <ele>199.8</ele>
        <time>2022-05-07T11:05:31Z</time>
      </trkpt>
      <trkpt lat="46.56081" lon="5.34666">
        <ele>200</ele>
        <time>2022-05-07T11:05:40Z</time>
      </trkpt>
      <trkpt lat="46.56118" lon="5.34675">
        <ele>199.8</ele>
        <time>2022-05-07T11:05:47Z</time>
      </trkpt>
      <trkpt lat="46.56137" lon="5.34679">
        <ele>200.2</ele>
        <time>2022-05-07T11:05:51Z</time>
      </trkpt>
      <trkpt lat="46.56146" lon="5.34681">
        <ele>201.2</ele>
        <time>2022-05-07T11:05:53Z</time>
      </trkpt>
      <trkpt lat="46.5615" lon="5.34681">
        <ele>201.4</ele>
        <time>2022-05-07T11:05:54Z</time>
      </trkpt>
      <trkpt lat="46.56175" lon="5.34678">
        <ele>202.6</ele>
        <time>2022-05-07T11:06:00Z</time>
      </trkpt>
      <trkpt lat="46.5618" lon="5.34677">
        <ele>202.6</ele>
        <time>2022-05-07T11:06:01Z</time>
      </trkpt>
      <trkpt lat="46.56199" lon="5.34673">
        <ele>203.8</ele>
        <time>2022-05-07T11:06:06Z</time>
      </trkpt>
      <trkpt lat="46.56206" lon="5.3467">
        <ele>204.2</ele>
        <time>2022-05-07T11:06:08Z</time>
      </trkpt>
      <trkpt lat="46.56219" lon="5.34666">
        <ele>205</ele>
        <time>2022-05-07T11:06:11Z</time>
      </trkpt>
      <trkpt lat="46.56235" lon="5.34662">
        <ele>206</ele>
        <time>2022-05-07T11:06:15Z</time>
      </trkpt>
      <trkpt lat="46.56247" lon="5.34658">
        <ele>206.6</ele>
        <time>2022-05-07T11:06:18Z</time>
      </trkpt>
      <trkpt lat="46.56259" lon="5.34653">
        <ele>207</ele>
        <time>2022-05-07T11:06:21Z</time>
      </trkpt>
      <trkpt lat="46.56288" lon="5.34648">
        <ele>208</ele>
        <time>2022-05-07T11:06:28Z</time>
      </trkpt>
      <trkpt lat="46.56291" lon="5.34647">
        <ele>208.4</ele>
        <time>2022-05-07T11:06:29Z</time>
      </trkpt>
      <trkpt lat="46.56295" lon="5.34646">
        <ele>208.6</ele>
        <time>2022-05-07T11:06:30Z</time>
      </trkpt>
      <trkpt lat="46.56309" lon="5.34646">
        <ele>209.8</ele>
        <time>2022-05-07T11:06:33Z</time>
      </trkpt>
      <trkpt lat="46.56312" lon="5.34646">
        <ele>210</ele>
        <time>2022-05-07T11:06:34Z</time>
      </trkpt>
      <trkpt lat="46.56317" lon="5.34648">
        <ele>210.2</ele>
        <time>2022-05-07T11:06:35Z</time>
      </trkpt>
      <trkpt lat="46.56328" lon="5.34651">
        <ele>211</ele>
        <time>2022-05-07T11:06:38Z</time>
      </trkpt>
      <trkpt lat="46.56351" lon="5.34662">
        <ele>211.4</ele>
        <time>2022-05-07T11:06:43Z</time>
      </trkpt>
      <trkpt lat="46.5637" lon="5.34671">
        <ele>211.6</ele>
        <time>2022-05-07T11:06:47Z</time>
      </trkpt>
      <trkpt lat="46.56385" lon="5.34675">
        <ele>211.4</ele>
        <time>2022-05-07T11:06:50Z</time>
      </trkpt>
      <trkpt lat="46.56426" lon="5.34687">
        <ele>210.2</ele>
        <time>2022-05-07T11:06:57Z</time>
      </trkpt>
      <trkpt lat="46.56438" lon="5.34694">
        <ele>210</ele>
        <time>2022-05-07T11:06:59Z</time>
      </trkpt>
      <trkpt lat="46.56455" lon="5.34705">
        <ele>208.8</ele>
        <time>2022-05-07T11:07:02Z</time>
      </trkpt>
      <trkpt lat="46.56474" lon="5.34715">
        <ele>207.6</ele>
        <time>2022-05-07T11:07:05Z</time>
      </trkpt>
      <trkpt lat="46.56487" lon="5.34722">
        <ele>206.4</ele>
        <time>2022-05-07T11:07:07Z</time>
      </trkpt>
      <trkpt lat="46.56511" lon="5.34736">
        <ele>205.4</ele>
        <time>2022-05-07T11:07:11Z</time>
      </trkpt>
      <trkpt lat="46.56531" lon="5.34747">
        <ele>205</ele>
        <time>2022-05-07T11:07:14Z</time>
      </trkpt>
      <trkpt lat="46.56558" lon="5.34762">
        <ele>204.2</ele>
        <time>2022-05-07T11:07:18Z</time>
      </trkpt>
      <trkpt lat="46.56576" lon="5.34769">
        <ele>203.6</ele>
        <time>2022-05-07T11:07:20Z</time>
      </trkpt>
      <trkpt lat="46.56591" lon="5.34769">
        <ele>202.4</ele>
        <time>2022-05-07T11:07:22Z</time>
      </trkpt>
      <trkpt lat="46.56601" lon="5.34764">
        <ele>201.8</ele>
        <time>2022-05-07T11:07:23Z</time>
      </trkpt>
      <trkpt lat="46.56608" lon="5.34758">
        <ele>201.2</ele>
        <time>2022-05-07T11:07:24Z</time>
      </trkpt>
      <trkpt lat="46.56618" lon="5.34741">
        <ele>200.2</ele>
        <time>2022-05-07T11:07:26Z</time>
      </trkpt>
      <trkpt lat="46.56634" lon="5.34707">
        <ele>199</ele>
        <time>2022-05-07T11:07:29Z</time>
      </trkpt>
      <trkpt lat="46.56639" lon="5.347">
        <ele>198.2</ele>
        <time>2022-05-07T11:07:30Z</time>
      </trkpt>
      <trkpt lat="46.56646" lon="5.34693">
        <ele>198</ele>
        <time>2022-05-07T11:07:31Z</time>
      </trkpt>
      <trkpt lat="46.56655" lon="5.34688">
        <ele>197.6</ele>
        <time>2022-05-07T11:07:32Z</time>
      </trkpt>
      <trkpt lat="46.56663" lon="5.34686">
        <ele>197.6</ele>
        <time>2022-05-07T11:07:33Z</time>
      </trkpt>
      <trkpt lat="46.567" lon="5.34675">
        <ele>197.2</ele>
        <time>2022-05-07T11:07:38Z</time>
      </trkpt>
      <trkpt lat="46.56744" lon="5.34658">
        <ele>197.2</ele>
        <time>2022-05-07T11:07:44Z</time>
      </trkpt>
      <trkpt lat="46.56751" lon="5.34659">
        <ele>197.2</ele>
        <time>2022-05-07T11:07:45Z</time>
      </trkpt>
      <trkpt lat="46.56758" lon="5.34662">
        <ele>197.2</ele>
        <time>2022-05-07T11:07:46Z</time>
      </trkpt>
      <trkpt lat="46.56771" lon="5.34676">
        <ele>197.2</ele>
        <time>2022-05-07T11:07:48Z</time>
      </trkpt>
      <trkpt lat="46.56777" lon="5.34693">
        <ele>197.2</ele>
        <time>2022-05-07T11:07:50Z</time>
      </trkpt>
      <trkpt lat="46.5678" lon="5.34703">
        <ele>197.2</ele>
        <time>2022-05-07T11:07:51Z</time>
      </trkpt>
      <trkpt lat="46.56797" lon="5.34786">
        <ele>196.8</ele>
        <time>2022-05-07T11:07:59Z</time>
      </trkpt>
      <trkpt lat="46.56799" lon="5.34797">
        <ele>196.6</ele>
        <time>2022-05-07T11:08:00Z</time>
      </trkpt>
      <trkpt lat="46.56814" lon="5.34876">
        <ele>196.4</ele>
        <time>2022-05-07T11:08:08Z</time>
      </trkpt>
      <trkpt lat="46.56819" lon="5.34905">
        <ele>196.4</ele>
        <time>2022-05-07T11:08:11Z</time>
      </trkpt>
      <trkpt lat="46.56828" lon="5.3495">
        <ele>197.6</ele>
        <time>2022-05-07T11:08:16Z</time>
      </trkpt>
      <trkpt lat="46.56831" lon="5.34967">
        <ele>198</ele>
        <time>2022-05-07T11:08:18Z</time>
      </trkpt>
      <trkpt lat="46.56843" lon="5.35001">
        <ele>198.6</ele>
        <time>2022-05-07T11:08:23Z</time>
      </trkpt>
      <trkpt lat="46.56846" lon="5.35008">
        <ele>198.6</ele>
        <time>2022-05-07T11:08:24Z</time>
      </trkpt>
      <trkpt lat="46.56856" lon="5.3503">
        <ele>199.6</ele>
        <time>2022-05-07T11:08:28Z</time>
      </trkpt>
      <trkpt lat="46.56859" lon="5.35036">
        <ele>200</ele>
        <time>2022-05-07T11:08:29Z</time>
      </trkpt>
      <trkpt lat="46.56868" lon="5.35057">
        <ele>201</ele>
        <time>2022-05-07T11:08:33Z</time>
      </trkpt>
      <trkpt lat="46.5687" lon="5.35062">
        <ele>201.4</ele>
        <time>2022-05-07T11:08:34Z</time>
      </trkpt>
      <trkpt lat="46.56877" lon="5.35077">
        <ele>202.2</ele>
        <time>2022-05-07T11:08:37Z</time>
      </trkpt>
      <trkpt lat="46.56882" lon="5.35088">
        <ele>203.4</ele>
        <time>2022-05-07T11:08:39Z</time>
      </trkpt>
      <trkpt lat="46.56889" lon="5.35103">
        <ele>204.6</ele>
        <time>2022-05-07T11:08:42Z</time>
      </trkpt>
      <trkpt lat="46.56893" lon="5.35113">
        <ele>205.6</ele>
        <time>2022-05-07T11:08:44Z</time>
      </trkpt>
      <trkpt lat="46.56906" lon="5.35141">
        <ele>206.8</ele>
        <time>2022-05-07T11:08:50Z</time>
      </trkpt>
      <trkpt lat="46.56908" lon="5.35145">
        <ele>207</ele>
        <time>2022-05-07T11:08:51Z</time>
      </trkpt>
      <trkpt lat="46.56916" lon="5.35162">
        <ele>207.8</ele>
        <time>2022-05-07T11:08:56Z</time>
      </trkpt>
      <trkpt lat="46.56918" lon="5.35164">
        <ele>208.8</ele>
        <time>2022-05-07T11:09:00Z</time>
      </trkpt>
      <trkpt lat="46.56918" lon="5.35164">
        <ele>209</ele>
        <time>2022-05-07T11:09:01Z</time>
      </trkpt>
      <trkpt lat="46.5692" lon="5.35167">
        <ele>209.4</ele>
        <time>2022-05-07T11:09:45Z</time>
      </trkpt>
      <trkpt lat="46.56928" lon="5.35172">
        <ele>209.6</ele>
        <time>2022-05-07T11:09:47Z</time>
      </trkpt>
      <trkpt lat="46.56948" lon="5.35187">
        <ele>209.4</ele>
        <time>2022-05-07T11:09:51Z</time>
      </trkpt>
      <trkpt lat="46.56959" lon="5.352">
        <ele>209.4</ele>
        <time>2022-05-07T11:09:53Z</time>
      </trkpt>
      <trkpt lat="46.56967" lon="5.35218">
        <ele>208.8</ele>
        <time>2022-05-07T11:09:55Z</time>
      </trkpt>
      <trkpt lat="46.56973" lon="5.3524">
        <ele>207.8</ele>
        <time>2022-05-07T11:09:57Z</time>
      </trkpt>
      <trkpt lat="46.56978" lon="5.35264">
        <ele>206.8</ele>
        <time>2022-05-07T11:09:59Z</time>
      </trkpt>
      <trkpt lat="46.56981" lon="5.35277">
        <ele>205.8</ele>
        <time>2022-05-07T11:10:00Z</time>
      </trkpt>
      <trkpt lat="46.56988" lon="5.35299">
        <ele>204.8</ele>
        <time>2022-05-07T11:10:02Z</time>
      </trkpt>
      <trkpt lat="46.56995" lon="5.35321">
        <ele>203.8</ele>
        <time>2022-05-07T11:10:04Z</time>
      </trkpt>
      <trkpt lat="46.56998" lon="5.35332">
        <ele>203</ele>
        <time>2022-05-07T11:10:05Z</time>
      </trkpt>
      <trkpt lat="46.57021" lon="5.35403">
        <ele>202.8</ele>
        <time>2022-05-07T11:10:12Z</time>
      </trkpt>
      <trkpt lat="46.5703" lon="5.35433">
        <ele>202.4</ele>
        <time>2022-05-07T11:10:15Z</time>
      </trkpt>
      <trkpt lat="46.57033" lon="5.35456">
        <ele>202.4</ele>
        <time>2022-05-07T11:10:17Z</time>
      </trkpt>
      <trkpt lat="46.57035" lon="5.35475">
        <ele>202.2</ele>
        <time>2022-05-07T11:10:19Z</time>
      </trkpt>
      <trkpt lat="46.57039" lon="5.35516">
        <ele>201.6</ele>
        <time>2022-05-07T11:10:23Z</time>
      </trkpt>
      <trkpt lat="46.57048" lon="5.35604">
        <ele>201.4</ele>
        <time>2022-05-07T11:10:31Z</time>
      </trkpt>
      <trkpt lat="46.57056" lon="5.35625">
        <ele>201</ele>
        <time>2022-05-07T11:10:33Z</time>
      </trkpt>
      <trkpt lat="46.5706" lon="5.35633">
        <ele>201</ele>
        <time>2022-05-07T11:10:34Z</time>
      </trkpt>
      <trkpt lat="46.57066" lon="5.35641">
        <ele>201</ele>
        <time>2022-05-07T11:10:35Z</time>
      </trkpt>
      <trkpt lat="46.57082" lon="5.35661">
        <ele>200.8</ele>
        <time>2022-05-07T11:10:38Z</time>
      </trkpt>
      <trkpt lat="46.57092" lon="5.35674">
        <ele>200.4</ele>
        <time>2022-05-07T11:10:40Z</time>
      </trkpt>
      <trkpt lat="46.57107" lon="5.35694">
        <ele>200.6</ele>
        <time>2022-05-07T11:10:43Z</time>
      </trkpt>
      <trkpt lat="46.57136" lon="5.3573">
        <ele>200.6</ele>
        <time>2022-05-07T11:10:49Z</time>
      </trkpt>
      <trkpt lat="46.57141" lon="5.35735">
        <ele>200.4</ele>
        <time>2022-05-07T11:10:50Z</time>
      </trkpt>
      <trkpt lat="46.57147" lon="5.35739">
        <ele>200.6</ele>
        <time>2022-05-07T11:10:51Z</time>
      </trkpt>
      <trkpt lat="46.57184" lon="5.35762">
        <ele>200.6</ele>
        <time>2022-05-07T11:10:57Z</time>
      </trkpt>
      <trkpt lat="46.57234" lon="5.35793">
        <ele>200.8</ele>
        <time>2022-05-07T11:11:06Z</time>
      </trkpt>
      <trkpt lat="46.57274" lon="5.35818">
        <ele>201</ele>
        <time>2022-05-07T11:11:14Z</time>
      </trkpt>
      <trkpt lat="46.57311" lon="5.35837">
        <ele>201.8</ele>
        <time>2022-05-07T11:11:21Z</time>
      </trkpt>
      <trkpt lat="46.57339" lon="5.35841">
        <ele>201.8</ele>
        <time>2022-05-07T11:11:26Z</time>
      </trkpt>
      <trkpt lat="46.57343" lon="5.3584">
        <ele>201.6</ele>
        <time>2022-05-07T11:11:27Z</time>
      </trkpt>
      <trkpt lat="46.57348" lon="5.35838">
        <ele>201.6</ele>
        <time>2022-05-07T11:11:28Z</time>
      </trkpt>
      <trkpt lat="46.57358" lon="5.3583">
        <ele>201.6</ele>
        <time>2022-05-07T11:11:30Z</time>
      </trkpt>
      <trkpt lat="46.5737" lon="5.35816">
        <ele>202.2</ele>
        <time>2022-05-07T11:11:33Z</time>
      </trkpt>
      <trkpt lat="46.5738" lon="5.35801">
        <ele>203.4</ele>
        <time>2022-05-07T11:11:36Z</time>
      </trkpt>
      <trkpt lat="46.57383" lon="5.35796">
        <ele>203.6</ele>
        <time>2022-05-07T11:11:37Z</time>
      </trkpt>
      <trkpt lat="46.57395" lon="5.35768">
        <ele>204.6</ele>
        <time>2022-05-07T11:11:42Z</time>
      </trkpt>
      <trkpt lat="46.57399" lon="5.35763">
        <ele>204.8</ele>
        <time>2022-05-07T11:11:43Z</time>
      </trkpt>
      <trkpt lat="46.57412" lon="5.35749">
        <ele>205.4</ele>
        <time>2022-05-07T11:11:46Z</time>
      </trkpt>
      <trkpt lat="46.57445" lon="5.35729">
        <ele>205</ele>
        <time>2022-05-07T11:11:51Z</time>
      </trkpt>
      <trkpt lat="46.57468" lon="5.35713">
        <ele>202.4</ele>
        <time>2022-05-07T11:11:54Z</time>
      </trkpt>
      <trkpt lat="46.57484" lon="5.35703">
        <ele>201.2</ele>
        <time>2022-05-07T11:11:56Z</time>
      </trkpt>
      <trkpt lat="46.57492" lon="5.35698">
        <ele>201</ele>
        <time>2022-05-07T11:11:57Z</time>
      </trkpt>
      <trkpt lat="46.575" lon="5.35693">
        <ele>200.2</ele>
        <time>2022-05-07T11:11:58Z</time>
      </trkpt>
      <trkpt lat="46.57523" lon="5.35675">
        <ele>198.6</ele>
        <time>2022-05-07T11:12:01Z</time>
      </trkpt>
      <trkpt lat="46.57538" lon="5.35661">
        <ele>197.8</ele>
        <time>2022-05-07T11:12:03Z</time>
      </trkpt>
      <trkpt lat="46.57551" lon="5.35644">
        <ele>197.2</ele>
        <time>2022-05-07T11:12:05Z</time>
      </trkpt>
      <trkpt lat="46.57568" lon="5.35617">
        <ele>196.2</ele>
        <time>2022-05-07T11:12:08Z</time>
      </trkpt>
      <trkpt lat="46.57575" lon="5.35608">
        <ele>196</ele>
        <time>2022-05-07T11:12:09Z</time>
      </trkpt>
      <trkpt lat="46.57583" lon="5.35599">
        <ele>195.8</ele>
        <time>2022-05-07T11:12:10Z</time>
      </trkpt>
      <trkpt lat="46.57597" lon="5.35588">
        <ele>195.2</ele>
        <time>2022-05-07T11:12:12Z</time>
      </trkpt>
      <trkpt lat="46.57605" lon="5.35581">
        <ele>195</ele>
        <time>2022-05-07T11:12:13Z</time>
      </trkpt>
      <trkpt lat="46.57612" lon="5.35574">
        <ele>195</ele>
        <time>2022-05-07T11:12:14Z</time>
      </trkpt>
      <trkpt lat="46.57624" lon="5.35563">
        <ele>194.8</ele>
        <time>2022-05-07T11:12:16Z</time>
      </trkpt>
      <trkpt lat="46.57656" lon="5.3553">
        <ele>194.6</ele>
        <time>2022-05-07T11:12:21Z</time>
      </trkpt>
      <trkpt lat="46.57661" lon="5.35527">
        <ele>194.6</ele>
        <time>2022-05-07T11:12:22Z</time>
      </trkpt>
      <trkpt lat="46.57692" lon="5.35506">
        <ele>195</ele>
        <time>2022-05-07T11:12:27Z</time>
      </trkpt>
      <trkpt lat="46.57717" lon="5.35488">
        <ele>196</ele>
        <time>2022-05-07T11:12:32Z</time>
      </trkpt>
      <trkpt lat="46.57721" lon="5.35486">
        <ele>196.4</ele>
        <time>2022-05-07T11:12:33Z</time>
      </trkpt>
      <trkpt lat="46.57735" lon="5.35476">
        <ele>197</ele>
        <time>2022-05-07T11:12:36Z</time>
      </trkpt>
      <trkpt lat="46.5775" lon="5.35466">
        <ele>197.8</ele>
        <time>2022-05-07T11:12:40Z</time>
      </trkpt>
      <trkpt lat="46.57754" lon="5.35464">
        <ele>198.4</ele>
        <time>2022-05-07T11:12:41Z</time>
      </trkpt>
      <trkpt lat="46.57765" lon="5.35456">
        <ele>199.8</ele>
        <time>2022-05-07T11:12:44Z</time>
      </trkpt>
      <trkpt lat="46.57776" lon="5.35448">
        <ele>201</ele>
        <time>2022-05-07T11:12:47Z</time>
      </trkpt>
      <trkpt lat="46.57787" lon="5.3544">
        <ele>202</ele>
        <time>2022-05-07T11:12:50Z</time>
      </trkpt>
      <trkpt lat="46.57802" lon="5.3543">
        <ele>203</ele>
        <time>2022-05-07T11:12:54Z</time>
      </trkpt>
      <trkpt lat="46.5781" lon="5.35426">
        <ele>203.6</ele>
        <time>2022-05-07T11:12:56Z</time>
      </trkpt>
      <trkpt lat="46.5782" lon="5.35433">
        <ele>204.2</ele>
        <time>2022-05-07T11:12:59Z</time>
      </trkpt>
      <trkpt lat="46.57825" lon="5.35449">
        <ele>205.6</ele>
        <time>2022-05-07T11:13:02Z</time>
      </trkpt>
      <trkpt lat="46.57826" lon="5.35456">
        <ele>205.8</ele>
        <time>2022-05-07T11:13:03Z</time>
      </trkpt>
      <trkpt lat="46.57832" lon="5.35498">
        <ele>206.2</ele>
        <time>2022-05-07T11:13:09Z</time>
      </trkpt>
      <trkpt lat="46.57848" lon="5.35542">
        <ele>206.2</ele>
        <time>2022-05-07T11:13:14Z</time>
      </trkpt>
      <trkpt lat="46.57868" lon="5.35594">
        <ele>204.4</ele>
        <time>2022-05-07T11:13:19Z</time>
      </trkpt>
      <trkpt lat="46.57874" lon="5.35617">
        <ele>203.6</ele>
        <time>2022-05-07T11:13:21Z</time>
      </trkpt>
      <trkpt lat="46.57875" lon="5.35628">
        <ele>203.2</ele>
        <time>2022-05-07T11:13:22Z</time>
      </trkpt>
      <trkpt lat="46.57877" lon="5.35639">
        <ele>203.2</ele>
        <time>2022-05-07T11:13:23Z</time>
      </trkpt>
      <trkpt lat="46.57883" lon="5.35677">
        <ele>203</ele>
        <time>2022-05-07T11:13:27Z</time>
      </trkpt>
      <trkpt lat="46.57886" lon="5.35687">
        <ele>203</ele>
        <time>2022-05-07T11:13:28Z</time>
      </trkpt>
      <trkpt lat="46.57898" lon="5.35719">
        <ele>203.4</ele>
        <time>2022-05-07T11:13:32Z</time>
      </trkpt>
      <trkpt lat="46.57927" lon="5.3578">
        <ele>203.6</ele>
        <time>2022-05-07T11:13:40Z</time>
      </trkpt>
      <trkpt lat="46.57934" lon="5.358">
        <ele>203.4</ele>
        <time>2022-05-07T11:13:42Z</time>
      </trkpt>
      <trkpt lat="46.57937" lon="5.35821">
        <ele>203.2</ele>
        <time>2022-05-07T11:13:44Z</time>
      </trkpt>
      <trkpt lat="46.57935" lon="5.35844">
        <ele>202.8</ele>
        <time>2022-05-07T11:13:46Z</time>
      </trkpt>
      <trkpt lat="46.57931" lon="5.35865">
        <ele>202.2</ele>
        <time>2022-05-07T11:13:48Z</time>
      </trkpt>
      <trkpt lat="46.57915" lon="5.35924">
        <ele>201.4</ele>
        <time>2022-05-07T11:13:54Z</time>
      </trkpt>
      <trkpt lat="46.57912" lon="5.35948">
        <ele>201.2</ele>
        <time>2022-05-07T11:13:56Z</time>
      </trkpt>
      <trkpt lat="46.57914" lon="5.35971">
        <ele>200.8</ele>
        <time>2022-05-07T11:13:58Z</time>
      </trkpt>
      <trkpt lat="46.57925" lon="5.35991">
        <ele>200.2</ele>
        <time>2022-05-07T11:14:00Z</time>
      </trkpt>
      <trkpt lat="46.57932" lon="5.35998">
        <ele>199.8</ele>
        <time>2022-05-07T11:14:01Z</time>
      </trkpt>
      <trkpt lat="46.57952" lon="5.36014">
        <ele>198.4</ele>
        <time>2022-05-07T11:14:04Z</time>
      </trkpt>
      <trkpt lat="46.57959" lon="5.36019">
        <ele>198.2</ele>
        <time>2022-05-07T11:14:05Z</time>
      </trkpt>
      <trkpt lat="46.57965" lon="5.36026">
        <ele>198.2</ele>
        <time>2022-05-07T11:14:06Z</time>
      </trkpt>
      <trkpt lat="46.57993" lon="5.36063">
        <ele>198.4</ele>
        <time>2022-05-07T11:14:11Z</time>
      </trkpt>
      <trkpt lat="46.57998" lon="5.36071">
        <ele>198.4</ele>
        <time>2022-05-07T11:14:12Z</time>
      </trkpt>
      <trkpt lat="46.58007" lon="5.3609">
        <ele>199</ele>
        <time>2022-05-07T11:14:14Z</time>
      </trkpt>
      <trkpt lat="46.58012" lon="5.36106">
        <ele>199.4</ele>
        <time>2022-05-07T11:14:16Z</time>
      </trkpt>
      <trkpt lat="46.58014" lon="5.36115">
        <ele>199.4</ele>
        <time>2022-05-07T11:14:17Z</time>
      </trkpt>
      <trkpt lat="46.58017" lon="5.36126">
        <ele>199.4</ele>
        <time>2022-05-07T11:14:18Z</time>
      </trkpt>
      <trkpt lat="46.5802" lon="5.36136">
        <ele>199.6</ele>
        <time>2022-05-07T11:14:19Z</time>
      </trkpt>
      <trkpt lat="46.58022" lon="5.36146">
        <ele>199.6</ele>
        <time>2022-05-07T11:14:20Z</time>
      </trkpt>
      <trkpt lat="46.58025" lon="5.36163">
        <ele>199.6</ele>
        <time>2022-05-07T11:14:22Z</time>
      </trkpt>
      <trkpt lat="46.58024" lon="5.36181">
        <ele>199.8</ele>
        <time>2022-05-07T11:14:24Z</time>
      </trkpt>
      <trkpt lat="46.58022" lon="5.36193">
        <ele>200.4</ele>
        <time>2022-05-07T11:14:25Z</time>
      </trkpt>
      <trkpt lat="46.58021" lon="5.36201">
        <ele>200.6</ele>
        <time>2022-05-07T11:14:26Z</time>
      </trkpt>
      <trkpt lat="46.5802" lon="5.36212">
        <ele>200.8</ele>
        <time>2022-05-07T11:14:27Z</time>
      </trkpt>
      <trkpt lat="46.5802" lon="5.36264">
        <ele>201.2</ele>
        <time>2022-05-07T11:14:32Z</time>
      </trkpt>
      <trkpt lat="46.5802" lon="5.36274">
        <ele>201.2</ele>
        <time>2022-05-07T11:14:33Z</time>
      </trkpt>
      <trkpt lat="46.58019" lon="5.36283">
        <ele>201.2</ele>
        <time>2022-05-07T11:14:34Z</time>
      </trkpt>
      <trkpt lat="46.58021" lon="5.36312">
        <ele>201.2</ele>
        <time>2022-05-07T11:14:37Z</time>
      </trkpt>
      <trkpt lat="46.58023" lon="5.36321">
        <ele>201.2</ele>
        <time>2022-05-07T11:14:38Z</time>
      </trkpt>
      <trkpt lat="46.58026" lon="5.3633">
        <ele>201.4</ele>
        <time>2022-05-07T11:14:39Z</time>
      </trkpt>
      <trkpt lat="46.58029" lon="5.36339">
        <ele>201.4</ele>
        <time>2022-05-07T11:14:40Z</time>
      </trkpt>
      <trkpt lat="46.58041" lon="5.36363">
        <ele>201.6</ele>
        <time>2022-05-07T11:14:43Z</time>
      </trkpt>
      <trkpt lat="46.5805" lon="5.36376">
        <ele>201.4</ele>
        <time>2022-05-07T11:14:45Z</time>
      </trkpt>
      <trkpt lat="46.58068" lon="5.36401">
        <ele>201.2</ele>
        <time>2022-05-07T11:14:49Z</time>
      </trkpt>
      <trkpt lat="46.58076" lon="5.36415">
        <ele>201.4</ele>
        <time>2022-05-07T11:14:51Z</time>
      </trkpt>
      <trkpt lat="46.58088" lon="5.36437">
        <ele>201.6</ele>
        <time>2022-05-07T11:14:54Z</time>
      </trkpt>
      <trkpt lat="46.58092" lon="5.36449">
        <ele>201.6</ele>
        <time>2022-05-07T11:14:56Z</time>
      </trkpt>
      <trkpt lat="46.58112" lon="5.36486">
        <ele>201.6</ele>
        <time>2022-05-07T11:15:01Z</time>
      </trkpt>
      <trkpt lat="46.58115" lon="5.36495">
        <ele>201.6</ele>
        <time>2022-05-07T11:15:02Z</time>
      </trkpt>
      <trkpt lat="46.58119" lon="5.36503">
        <ele>201.6</ele>
        <time>2022-05-07T11:15:03Z</time>
      </trkpt>
      <trkpt lat="46.58122" lon="5.3652">
        <ele>201.8</ele>
        <time>2022-05-07T11:15:05Z</time>
      </trkpt>
      <trkpt lat="46.58123" lon="5.36527">
        <ele>201.8</ele>
        <time>2022-05-07T11:15:06Z</time>
      </trkpt>
      <trkpt lat="46.58124" lon="5.36551">
        <ele>202.4</ele>
        <time>2022-05-07T11:15:09Z</time>
      </trkpt>
      <trkpt lat="46.58123" lon="5.36568">
        <ele>203</ele>
        <time>2022-05-07T11:15:11Z</time>
      </trkpt>
      <trkpt lat="46.58123" lon="5.36577">
        <ele>203.2</ele>
        <time>2022-05-07T11:15:12Z</time>
      </trkpt>
      <trkpt lat="46.58125" lon="5.36596">
        <ele>203.4</ele>
        <time>2022-05-07T11:15:14Z</time>
      </trkpt>
      <trkpt lat="46.58126" lon="5.36605">
        <ele>203.6</ele>
        <time>2022-05-07T11:15:15Z</time>
      </trkpt>
      <trkpt lat="46.58132" lon="5.36622">
        <ele>203.6</ele>
        <time>2022-05-07T11:15:17Z</time>
      </trkpt>
      <trkpt lat="46.5816" lon="5.36692">
        <ele>203.2</ele>
        <time>2022-05-07T11:15:26Z</time>
      </trkpt>
      <trkpt lat="46.58186" lon="5.36751">
        <ele>203</ele>
        <time>2022-05-07T11:15:33Z</time>
      </trkpt>
      <trkpt lat="46.58208" lon="5.36806">
        <ele>202.8</ele>
        <time>2022-05-07T11:15:40Z</time>
      </trkpt>
      <trkpt lat="46.58236" lon="5.36877">
        <ele>203.6</ele>
        <time>2022-05-07T11:15:49Z</time>
      </trkpt>
      <trkpt lat="46.58238" lon="5.36883">
        <ele>203.6</ele>
        <time>2022-05-07T11:15:50Z</time>
      </trkpt>
      <trkpt lat="46.58257" lon="5.36935">
        <ele>204.4</ele>
        <time>2022-05-07T11:15:57Z</time>
      </trkpt>
      <trkpt lat="46.58263" lon="5.3695">
        <ele>204.6</ele>
        <time>2022-05-07T11:15:59Z</time>
      </trkpt>
      <trkpt lat="46.58278" lon="5.36976">
        <ele>205.4</ele>
        <time>2022-05-07T11:16:03Z</time>
      </trkpt>
      <trkpt lat="46.58288" lon="5.36986">
        <ele>205.4</ele>
        <time>2022-05-07T11:16:05Z</time>
      </trkpt>
      <trkpt lat="46.58298" lon="5.36993">
        <ele>205.6</ele>
        <time>2022-05-07T11:16:07Z</time>
      </trkpt>
      <trkpt lat="46.58303" lon="5.36996">
        <ele>205.6</ele>
        <time>2022-05-07T11:16:08Z</time>
      </trkpt>
      <trkpt lat="46.58323" lon="5.37005">
        <ele>205.6</ele>
        <time>2022-05-07T11:16:12Z</time>
      </trkpt>
      <trkpt lat="46.58342" lon="5.37013">
        <ele>206.2</ele>
        <time>2022-05-07T11:16:16Z</time>
      </trkpt>
      <trkpt lat="46.58356" lon="5.3702">
        <ele>206.8</ele>
        <time>2022-05-07T11:16:19Z</time>
      </trkpt>
      <trkpt lat="46.58375" lon="5.37028">
        <ele>208</ele>
        <time>2022-05-07T11:16:23Z</time>
      </trkpt>
      <trkpt lat="46.58384" lon="5.37031">
        <ele>208.6</ele>
        <time>2022-05-07T11:16:25Z</time>
      </trkpt>
      <trkpt lat="46.58398" lon="5.37037">
        <ele>209.4</ele>
        <time>2022-05-07T11:16:28Z</time>
      </trkpt>
      <trkpt lat="46.58415" lon="5.37047">
        <ele>210.6</ele>
        <time>2022-05-07T11:16:32Z</time>
      </trkpt>
      <trkpt lat="46.58437" lon="5.37058">
        <ele>211.8</ele>
        <time>2022-05-07T11:16:37Z</time>
      </trkpt>
      <trkpt lat="46.58458" lon="5.37069">
        <ele>212.6</ele>
        <time>2022-05-07T11:16:42Z</time>
      </trkpt>
      <trkpt lat="46.58466" lon="5.37074">
        <ele>212.8</ele>
        <time>2022-05-07T11:16:44Z</time>
      </trkpt>
      <trkpt lat="46.58487" lon="5.37089">
        <ele>214.2</ele>
        <time>2022-05-07T11:16:49Z</time>
      </trkpt>
      <trkpt lat="46.58499" lon="5.371">
        <ele>214.8</ele>
        <time>2022-05-07T11:16:52Z</time>
      </trkpt>
      <trkpt lat="46.58507" lon="5.37109">
        <ele>215.2</ele>
        <time>2022-05-07T11:16:54Z</time>
      </trkpt>
      <trkpt lat="46.5853" lon="5.37136">
        <ele>215.2</ele>
        <time>2022-05-07T11:16:59Z</time>
      </trkpt>
      <trkpt lat="46.58548" lon="5.37166">
        <ele>214</ele>
        <time>2022-05-07T11:17:03Z</time>
      </trkpt>
      <trkpt lat="46.58552" lon="5.37175">
        <ele>213.8</ele>
        <time>2022-05-07T11:17:04Z</time>
      </trkpt>
      <trkpt lat="46.58578" lon="5.37243">
        <ele>213</ele>
        <time>2022-05-07T11:17:12Z</time>
      </trkpt>
      <trkpt lat="46.58597" lon="5.37311">
        <ele>213.2</ele>
        <time>2022-05-07T11:17:20Z</time>
      </trkpt>
      <trkpt lat="46.58612" lon="5.37382">
        <ele>213</ele>
        <time>2022-05-07T11:17:28Z</time>
      </trkpt>
      <trkpt lat="46.58618" lon="5.37408">
        <ele>213</ele>
        <time>2022-05-07T11:17:31Z</time>
      </trkpt>
      <trkpt lat="46.58638" lon="5.37466">
        <ele>213</ele>
        <time>2022-05-07T11:17:38Z</time>
      </trkpt>
      <trkpt lat="46.58667" lon="5.37518">
        <ele>212.8</ele>
        <time>2022-05-07T11:17:45Z</time>
      </trkpt>
      <trkpt lat="46.58695" lon="5.37554">
        <ele>213</ele>
        <time>2022-05-07T11:17:51Z</time>
      </trkpt>
      <trkpt lat="46.58724" lon="5.37589">
        <ele>213.4</ele>
        <time>2022-05-07T11:17:58Z</time>
      </trkpt>
      <trkpt lat="46.58743" lon="5.37614">
        <ele>214</ele>
        <time>2022-05-07T11:18:03Z</time>
      </trkpt>
      <trkpt lat="46.58747" lon="5.37619">
        <ele>214</ele>
        <time>2022-05-07T11:18:04Z</time>
      </trkpt>
      <trkpt lat="46.58751" lon="5.37624">
        <ele>214.4</ele>
        <time>2022-05-07T11:18:05Z</time>
      </trkpt>
      <trkpt lat="46.58762" lon="5.3764">
        <ele>215.2</ele>
        <time>2022-05-07T11:18:08Z</time>
      </trkpt>
      <trkpt lat="46.58785" lon="5.37675">
        <ele>215.8</ele>
        <time>2022-05-07T11:18:14Z</time>
      </trkpt>
      <trkpt lat="46.58795" lon="5.37694">
        <ele>216.2</ele>
        <time>2022-05-07T11:18:17Z</time>
      </trkpt>
      <trkpt lat="46.58817" lon="5.3774">
        <ele>217.2</ele>
        <time>2022-05-07T11:18:24Z</time>
      </trkpt>
      <trkpt lat="46.58841" lon="5.37793">
        <ele>217.4</ele>
        <time>2022-05-07T11:18:32Z</time>
      </trkpt>
      <trkpt lat="46.58864" lon="5.37835">
        <ele>217.2</ele>
        <time>2022-05-07T11:18:39Z</time>
      </trkpt>
      <trkpt lat="46.58876" lon="5.3785">
        <ele>217</ele>
        <time>2022-05-07T11:18:42Z</time>
      </trkpt>
      <trkpt lat="46.58898" lon="5.37872">
        <ele>216.8</ele>
        <time>2022-05-07T11:18:47Z</time>
      </trkpt>
      <trkpt lat="46.58936" lon="5.379">
        <ele>216.2</ele>
        <time>2022-05-07T11:18:55Z</time>
      </trkpt>
      <trkpt lat="46.58946" lon="5.37908">
        <ele>216</ele>
        <time>2022-05-07T11:18:57Z</time>
      </trkpt>
      <trkpt lat="46.58958" lon="5.37926">
        <ele>216</ele>
        <time>2022-05-07T11:19:00Z</time>
      </trkpt>
      <trkpt lat="46.58961" lon="5.37932">
        <ele>216.2</ele>
        <time>2022-05-07T11:19:01Z</time>
      </trkpt>
      <trkpt lat="46.58976" lon="5.3797">
        <ele>216.2</ele>
        <time>2022-05-07T11:19:06Z</time>
      </trkpt>
      <trkpt lat="46.59001" lon="5.38041">
        <ele>216</ele>
        <time>2022-05-07T11:19:15Z</time>
      </trkpt>
      <trkpt lat="46.59016" lon="5.38081">
        <ele>215.4</ele>
        <time>2022-05-07T11:19:20Z</time>
      </trkpt>
      <trkpt lat="46.59027" lon="5.38113">
        <ele>215.2</ele>
        <time>2022-05-07T11:19:24Z</time>
      </trkpt>
      <trkpt lat="46.5905" lon="5.38175">
        <ele>215.4</ele>
        <time>2022-05-07T11:19:32Z</time>
      </trkpt>
      <trkpt lat="46.59076" lon="5.38247">
        <ele>215.4</ele>
        <time>2022-05-07T11:19:41Z</time>
      </trkpt>
      <trkpt lat="46.591" lon="5.38319">
        <ele>215.4</ele>
        <time>2022-05-07T11:19:50Z</time>
      </trkpt>
      <trkpt lat="46.59105" lon="5.38336">
        <ele>215.2</ele>
        <time>2022-05-07T11:19:52Z</time>
      </trkpt>
      <trkpt lat="46.59129" lon="5.38412">
        <ele>215.2</ele>
        <time>2022-05-07T11:20:01Z</time>
      </trkpt>
      <trkpt lat="46.5914" lon="5.38444">
        <ele>215.4</ele>
        <time>2022-05-07T11:20:05Z</time>
      </trkpt>
      <trkpt lat="46.59148" lon="5.38459">
        <ele>215.4</ele>
        <time>2022-05-07T11:20:07Z</time>
      </trkpt>
      <trkpt lat="46.59168" lon="5.38494">
        <ele>216</ele>
        <time>2022-05-07T11:20:12Z</time>
      </trkpt>
      <trkpt lat="46.59175" lon="5.38504">
        <ele>216.2</ele>
        <time>2022-05-07T11:20:14Z</time>
      </trkpt>
      <trkpt lat="46.59184" lon="5.38515">
        <ele>216.4</ele>
        <time>2022-05-07T11:20:16Z</time>
      </trkpt>
      <trkpt lat="46.59209" lon="5.38545">
        <ele>217.4</ele>
        <time>2022-05-07T11:20:22Z</time>
      </trkpt>
      <trkpt lat="46.59217" lon="5.38555">
        <ele>217.8</ele>
        <time>2022-05-07T11:20:24Z</time>
      </trkpt>
      <trkpt lat="46.59252" lon="5.38592">
        <ele>218.6</ele>
        <time>2022-05-07T11:20:31Z</time>
      </trkpt>
      <trkpt lat="46.59295" lon="5.38637">
        <ele>217.4</ele>
        <time>2022-05-07T11:20:39Z</time>
      </trkpt>
      <trkpt lat="46.5934" lon="5.38685">
        <ele>217.4</ele>
        <time>2022-05-07T11:20:48Z</time>
      </trkpt>
      <trkpt lat="46.59359" lon="5.38706">
        <ele>217.8</ele>
        <time>2022-05-07T11:20:52Z</time>
      </trkpt>
      <trkpt lat="46.59398" lon="5.38747">
        <ele>218</ele>
        <time>2022-05-07T11:21:00Z</time>
      </trkpt>
      <trkpt lat="46.59434" lon="5.3879">
        <ele>218</ele>
        <time>2022-05-07T11:21:08Z</time>
      </trkpt>
      <trkpt lat="46.59438" lon="5.38797">
        <ele>218</ele>
        <time>2022-05-07T11:21:09Z</time>
      </trkpt>
      <trkpt lat="46.5944" lon="5.38804">
        <ele>218</ele>
        <time>2022-05-07T11:21:10Z</time>
      </trkpt>
      <trkpt lat="46.59447" lon="5.38837">
        <ele>218.6</ele>
        <time>2022-05-07T11:21:14Z</time>
      </trkpt>
      <trkpt lat="46.59448" lon="5.38854">
        <ele>218.8</ele>
        <time>2022-05-07T11:21:16Z</time>
      </trkpt>
      <trkpt lat="46.59449" lon="5.3888">
        <ele>219</ele>
        <time>2022-05-07T11:21:19Z</time>
      </trkpt>
      <trkpt lat="46.5945" lon="5.3889">
        <ele>219</ele>
        <time>2022-05-07T11:21:20Z</time>
      </trkpt>
      <trkpt lat="46.59457" lon="5.38916">
        <ele>218.6</ele>
        <time>2022-05-07T11:21:23Z</time>
      </trkpt>
      <trkpt lat="46.59473" lon="5.38957">
        <ele>218</ele>
        <time>2022-05-07T11:21:28Z</time>
      </trkpt>
      <trkpt lat="46.59475" lon="5.38966">
        <ele>218</ele>
        <time>2022-05-07T11:21:29Z</time>
      </trkpt>
      <trkpt lat="46.59477" lon="5.38975">
        <ele>217.8</ele>
        <time>2022-05-07T11:21:30Z</time>
      </trkpt>
      <trkpt lat="46.59484" lon="5.39038">
        <ele>217.4</ele>
        <time>2022-05-07T11:21:37Z</time>
      </trkpt>
      <trkpt lat="46.59494" lon="5.39116">
        <ele>218.4</ele>
        <time>2022-05-07T11:21:46Z</time>
      </trkpt>
      <trkpt lat="46.595" lon="5.39166">
        <ele>218.6</ele>
        <time>2022-05-07T11:21:52Z</time>
      </trkpt>
      <trkpt lat="46.59504" lon="5.39181">
        <ele>218.8</ele>
        <time>2022-05-07T11:21:54Z</time>
      </trkpt>
      <trkpt lat="46.59507" lon="5.39189">
        <ele>218.8</ele>
        <time>2022-05-07T11:21:55Z</time>
      </trkpt>
      <trkpt lat="46.59515" lon="5.39201">
        <ele>219</ele>
        <time>2022-05-07T11:21:57Z</time>
      </trkpt>
      <trkpt lat="46.59526" lon="5.39209">
        <ele>219.2</ele>
        <time>2022-05-07T11:21:59Z</time>
      </trkpt>
      <trkpt lat="46.59533" lon="5.39211">
        <ele>219.4</ele>
        <time>2022-05-07T11:22:00Z</time>
      </trkpt>
      <trkpt lat="46.59551" lon="5.39212">
        <ele>219.6</ele>
        <time>2022-05-07T11:22:03Z</time>
      </trkpt>
      <trkpt lat="46.59586" lon="5.39201">
        <ele>219.8</ele>
        <time>2022-05-07T11:22:09Z</time>
      </trkpt>
      <trkpt lat="46.59598" lon="5.39194">
        <ele>219.8</ele>
        <time>2022-05-07T11:22:11Z</time>
      </trkpt>
      <trkpt lat="46.59609" lon="5.3919">
        <ele>220</ele>
        <time>2022-05-07T11:22:12Z</time>
      </trkpt>
      <trkpt lat="46.59615" lon="5.39189">
        <ele>220</ele>
        <time>2022-05-07T11:22:14Z</time>
      </trkpt>
      <trkpt lat="46.59622" lon="5.39187">
        <ele>220.2</ele>
        <time>2022-05-07T11:22:15Z</time>
      </trkpt>
      <trkpt lat="46.59646" lon="5.39189">
        <ele>220.2</ele>
        <time>2022-05-07T11:22:19Z</time>
      </trkpt>
      <trkpt lat="46.59679" lon="5.39196">
        <ele>220.4</ele>
        <time>2022-05-07T11:22:25Z</time>
      </trkpt>
      <trkpt lat="46.59701" lon="5.392">
        <ele>221</ele>
        <time>2022-05-07T11:22:29Z</time>
      </trkpt>
      <trkpt lat="46.59712" lon="5.39203">
        <ele>221.2</ele>
        <time>2022-05-07T11:22:31Z</time>
      </trkpt>
      <trkpt lat="46.59717" lon="5.39205">
        <ele>221.2</ele>
        <time>2022-05-07T11:22:32Z</time>
      </trkpt>
      <trkpt lat="46.59725" lon="5.39214">
        <ele>221.4</ele>
        <time>2022-05-07T11:22:34Z</time>
      </trkpt>
      <trkpt lat="46.59733" lon="5.39223">
        <ele>221.4</ele>
        <time>2022-05-07T11:22:36Z</time>
      </trkpt>
      <trkpt lat="46.59738" lon="5.39225">
        <ele>221.4</ele>
        <time>2022-05-07T11:22:37Z</time>
      </trkpt>
      <trkpt lat="46.59743" lon="5.39223">
        <ele>221.4</ele>
        <time>2022-05-07T11:22:38Z</time>
      </trkpt>
      <trkpt lat="46.59754" lon="5.39215">
        <ele>221.2</ele>
        <time>2022-05-07T11:22:40Z</time>
      </trkpt>
      <trkpt lat="46.5976" lon="5.3921">
        <ele>221.2</ele>
        <time>2022-05-07T11:22:41Z</time>
      </trkpt>
      <trkpt lat="46.59779" lon="5.392">
        <ele>220.8</ele>
        <time>2022-05-07T11:22:44Z</time>
      </trkpt>
      <trkpt lat="46.59813" lon="5.39194">
        <ele>220.2</ele>
        <time>2022-05-07T11:22:49Z</time>
      </trkpt>
      <trkpt lat="46.59871" lon="5.392">
        <ele>219.8</ele>
        <time>2022-05-07T11:22:58Z</time>
      </trkpt>
      <trkpt lat="46.59916" lon="5.39187">
        <ele>219.8</ele>
        <time>2022-05-07T11:23:04Z</time>
      </trkpt>
      <trkpt lat="46.59951" lon="5.39186">
        <ele>218.8</ele>
        <time>2022-05-07T11:23:10Z</time>
      </trkpt>
      <trkpt lat="46.59972" lon="5.39186">
        <ele>217.6</ele>
        <time>2022-05-07T11:23:13Z</time>
      </trkpt>
      <trkpt lat="46.59999" lon="5.39195">
        <ele>216.6</ele>
        <time>2022-05-07T11:23:17Z</time>
      </trkpt>
      <trkpt lat="46.60005" lon="5.39199">
        <ele>216.4</ele>
        <time>2022-05-07T11:23:18Z</time>
      </trkpt>
      <trkpt lat="46.60018" lon="5.39208">
        <ele>216.2</ele>
        <time>2022-05-07T11:23:19Z</time>
      </trkpt>
      <trkpt lat="46.60029" lon="5.39221">
        <ele>215.8</ele>
        <time>2022-05-07T11:23:22Z</time>
      </trkpt>
      <trkpt lat="46.60034" lon="5.39229">
        <ele>215.6</ele>
        <time>2022-05-07T11:23:23Z</time>
      </trkpt>
      <trkpt lat="46.60039" lon="5.39238">
        <ele>215.6</ele>
        <time>2022-05-07T11:23:24Z</time>
      </trkpt>
      <trkpt lat="46.60047" lon="5.39262">
        <ele>215</ele>
        <time>2022-05-07T11:23:26Z</time>
      </trkpt>
      <trkpt lat="46.60049" lon="5.39272">
        <ele>214.8</ele>
        <time>2022-05-07T11:23:27Z</time>
      </trkpt>
      <trkpt lat="46.60051" lon="5.39284">
        <ele>214.2</ele>
        <time>2022-05-07T11:23:28Z</time>
      </trkpt>
      <trkpt lat="46.60052" lon="5.39311">
        <ele>213.4</ele>
        <time>2022-05-07T11:23:30Z</time>
      </trkpt>
      <trkpt lat="46.60051" lon="5.39324">
        <ele>213</ele>
        <time>2022-05-07T11:23:31Z</time>
      </trkpt>
      <trkpt lat="46.60049" lon="5.3935">
        <ele>212</ele>
        <time>2022-05-07T11:23:33Z</time>
      </trkpt>
      <trkpt lat="46.60045" lon="5.39376">
        <ele>211</ele>
        <time>2022-05-07T11:23:35Z</time>
      </trkpt>
      <trkpt lat="46.60043" lon="5.39387">
        <ele>210.8</ele>
        <time>2022-05-07T11:23:36Z</time>
      </trkpt>
      <trkpt lat="46.60034" lon="5.39441">
        <ele>210.4</ele>
        <time>2022-05-07T11:23:40Z</time>
      </trkpt>
      <trkpt lat="46.60034" lon="5.3946">
        <ele>210.4</ele>
        <time>2022-05-07T11:23:42Z</time>
      </trkpt>
      <trkpt lat="46.60036" lon="5.3948">
        <ele>210.6</ele>
        <time>2022-05-07T11:23:44Z</time>
      </trkpt>
      <trkpt lat="46.60036" lon="5.3948">
        <ele>210.6</ele>
        <time>2022-05-07T11:23:45Z</time>
      </trkpt>
      <trkpt lat="46.60044" lon="5.3951">
        <ele>210.6</ele>
        <time>2022-05-07T11:23:47Z</time>
      </trkpt>
      <trkpt lat="46.60048" lon="5.3952">
        <ele>210.6</ele>
        <time>2022-05-07T11:23:49Z</time>
      </trkpt>
      <trkpt lat="46.60071" lon="5.3957">
        <ele>209.4</ele>
        <time>2022-05-07T11:23:53Z</time>
      </trkpt>
      <trkpt lat="46.60076" lon="5.3958">
        <ele>208.6</ele>
        <time>2022-05-07T11:23:54Z</time>
      </trkpt>
      <trkpt lat="46.60076" lon="5.3958">
        <ele>208.4</ele>
        <time>2022-05-07T11:23:55Z</time>
      </trkpt>
      <trkpt lat="46.60084" lon="5.39602">
        <ele>208</ele>
        <time>2022-05-07T11:23:56Z</time>
      </trkpt>
      <trkpt lat="46.60088" lon="5.39627">
        <ele>207.4</ele>
        <time>2022-05-07T11:23:58Z</time>
      </trkpt>
      <trkpt lat="46.60088" lon="5.3964">
        <ele>206.8</ele>
        <time>2022-05-07T11:23:59Z</time>
      </trkpt>
      <trkpt lat="46.60086" lon="5.39665">
        <ele>206</ele>
        <time>2022-05-07T11:24:01Z</time>
      </trkpt>
      <trkpt lat="46.60082" lon="5.39677">
        <ele>205.8</ele>
        <time>2022-05-07T11:24:02Z</time>
      </trkpt>
      <trkpt lat="46.60067" lon="5.39711">
        <ele>204.6</ele>
        <time>2022-05-07T11:24:05Z</time>
      </trkpt>
      <trkpt lat="46.60064" lon="5.39724">
        <ele>204.2</ele>
        <time>2022-05-07T11:24:06Z</time>
      </trkpt>
      <trkpt lat="46.60064" lon="5.39737">
        <ele>203.6</ele>
        <time>2022-05-07T11:24:08Z</time>
      </trkpt>
      <trkpt lat="46.60068" lon="5.39763">
        <ele>203.6</ele>
        <time>2022-05-07T11:24:09Z</time>
      </trkpt>
      <trkpt lat="46.60086" lon="5.39808">
        <ele>203</ele>
        <time>2022-05-07T11:24:13Z</time>
      </trkpt>
      <trkpt lat="46.60092" lon="5.39817">
        <ele>203</ele>
        <time>2022-05-07T11:24:14Z</time>
      </trkpt>
      <trkpt lat="46.60098" lon="5.39826">
        <ele>202.6</ele>
        <time>2022-05-07T11:24:15Z</time>
      </trkpt>
      <trkpt lat="46.60111" lon="5.3984">
        <ele>201.8</ele>
        <time>2022-05-07T11:24:18Z</time>
      </trkpt>
      <trkpt lat="46.60125" lon="5.39852">
        <ele>201.6</ele>
        <time>2022-05-07T11:24:19Z</time>
      </trkpt>
      <trkpt lat="46.60156" lon="5.39879">
        <ele>200.8</ele>
        <time>2022-05-07T11:24:24Z</time>
      </trkpt>
      <trkpt lat="46.60167" lon="5.39892">
        <ele>200.8</ele>
        <time>2022-05-07T11:24:26Z</time>
      </trkpt>
      <trkpt lat="46.60176" lon="5.39907">
        <ele>201</ele>
        <time>2022-05-07T11:24:28Z</time>
      </trkpt>
      <trkpt lat="46.60182" lon="5.39924">
        <ele>201</ele>
        <time>2022-05-07T11:24:30Z</time>
      </trkpt>
      <trkpt lat="46.60185" lon="5.39942">
        <ele>201.2</ele>
        <time>2022-05-07T11:24:32Z</time>
      </trkpt>
      <trkpt lat="46.60186" lon="5.3996">
        <ele>201.8</ele>
        <time>2022-05-07T11:24:34Z</time>
      </trkpt>
      <trkpt lat="46.60186" lon="5.39986">
        <ele>202.6</ele>
        <time>2022-05-07T11:24:37Z</time>
      </trkpt>
      <trkpt lat="46.60187" lon="5.39994">
        <ele>203</ele>
        <time>2022-05-07T11:24:38Z</time>
      </trkpt>
      <trkpt lat="46.60187" lon="5.40012">
        <ele>203.4</ele>
        <time>2022-05-07T11:24:40Z</time>
      </trkpt>
      <trkpt lat="46.60188" lon="5.40029">
        <ele>203.6</ele>
        <time>2022-05-07T11:24:42Z</time>
      </trkpt>
      <trkpt lat="46.60188" lon="5.40037">
        <ele>204</ele>
        <time>2022-05-07T11:24:43Z</time>
      </trkpt>
      <trkpt lat="46.60191" lon="5.40093">
        <ele>204.6</ele>
        <time>2022-05-07T11:24:50Z</time>
      </trkpt>
      <trkpt lat="46.6019" lon="5.40123">
        <ele>205.6</ele>
        <time>2022-05-07T11:24:54Z</time>
      </trkpt>
      <trkpt lat="46.60188" lon="5.40138">
        <ele>205.8</ele>
        <time>2022-05-07T11:24:56Z</time>
      </trkpt>
      <trkpt lat="46.6018" lon="5.40168">
        <ele>206.2</ele>
        <time>2022-05-07T11:25:00Z</time>
      </trkpt>
      <trkpt lat="46.60175" lon="5.40193">
        <ele>206.6</ele>
        <time>2022-05-07T11:25:03Z</time>
      </trkpt>
      <trkpt lat="46.60173" lon="5.40211">
        <ele>206.8</ele>
        <time>2022-05-07T11:25:05Z</time>
      </trkpt>
      <trkpt lat="46.60174" lon="5.4022">
        <ele>206.6</ele>
        <time>2022-05-07T11:25:06Z</time>
      </trkpt>
      <trkpt lat="46.60175" lon="5.40229">
        <ele>206.6</ele>
        <time>2022-05-07T11:25:07Z</time>
      </trkpt>
      <trkpt lat="46.6018" lon="5.40247">
        <ele>206.2</ele>
        <time>2022-05-07T11:25:09Z</time>
      </trkpt>
      <trkpt lat="46.60185" lon="5.40262">
        <ele>206.2</ele>
        <time>2022-05-07T11:25:11Z</time>
      </trkpt>
      <trkpt lat="46.60211" lon="5.40329">
        <ele>206</ele>
        <time>2022-05-07T11:25:20Z</time>
      </trkpt>
      <trkpt lat="46.60215" lon="5.40344">
        <ele>206</ele>
        <time>2022-05-07T11:25:22Z</time>
      </trkpt>
      <trkpt lat="46.60218" lon="5.40376">
        <ele>206</ele>
        <time>2022-05-07T11:25:26Z</time>
      </trkpt>
      <trkpt lat="46.60217" lon="5.40427">
        <ele>205.4</ele>
        <time>2022-05-07T11:25:31Z</time>
      </trkpt>
      <trkpt lat="46.60216" lon="5.40464">
        <ele>204.6</ele>
        <time>2022-05-07T11:25:34Z</time>
      </trkpt>
      <trkpt lat="46.60217" lon="5.40479">
        <ele>204.6</ele>
        <time>2022-05-07T11:25:35Z</time>
      </trkpt>
      <trkpt lat="46.60218" lon="5.4049">
        <ele>204.4</ele>
        <time>2022-05-07T11:25:36Z</time>
      </trkpt>
      <trkpt lat="46.60226" lon="5.40527">
        <ele>203</ele>
        <time>2022-05-07T11:25:39Z</time>
      </trkpt>
      <trkpt lat="46.60233" lon="5.40563">
        <ele>202</ele>
        <time>2022-05-07T11:25:42Z</time>
      </trkpt>
      <trkpt lat="46.60234" lon="5.40575">
        <ele>201.4</ele>
        <time>2022-05-07T11:25:43Z</time>
      </trkpt>
      <trkpt lat="46.60232" lon="5.40598">
        <ele>201.2</ele>
        <time>2022-05-07T11:25:45Z</time>
      </trkpt>
      <trkpt lat="46.60227" lon="5.4062">
        <ele>201</ele>
        <time>2022-05-07T11:25:47Z</time>
      </trkpt>
      <trkpt lat="46.60222" lon="5.4063">
        <ele>200.8</ele>
        <time>2022-05-07T11:25:48Z</time>
      </trkpt>
      <trkpt lat="46.60191" lon="5.40683">
        <ele>200.2</ele>
        <time>2022-05-07T11:25:54Z</time>
      </trkpt>
      <trkpt lat="46.60182" lon="5.40701">
        <ele>200</ele>
        <time>2022-05-07T11:25:56Z</time>
      </trkpt>
      <trkpt lat="46.60175" lon="5.4072">
        <ele>200</ele>
        <time>2022-05-07T11:25:58Z</time>
      </trkpt>
      <trkpt lat="46.60173" lon="5.4073">
        <ele>200</ele>
        <time>2022-05-07T11:25:59Z</time>
      </trkpt>
      <trkpt lat="46.6017" lon="5.40754">
        <ele>200</ele>
        <time>2022-05-07T11:26:01Z</time>
      </trkpt>
      <trkpt lat="46.60171" lon="5.40763">
        <ele>200</ele>
        <time>2022-05-07T11:26:02Z</time>
      </trkpt>
      <trkpt lat="46.60172" lon="5.40773">
        <ele>200</ele>
        <time>2022-05-07T11:26:03Z</time>
      </trkpt>
      <trkpt lat="46.60176" lon="5.40794">
        <ele>199.8</ele>
        <time>2022-05-07T11:26:05Z</time>
      </trkpt>
      <trkpt lat="46.6018" lon="5.40803">
        <ele>199.8</ele>
        <time>2022-05-07T11:26:06Z</time>
      </trkpt>
      <trkpt lat="46.60184" lon="5.40812">
        <ele>199.8</ele>
        <time>2022-05-07T11:26:07Z</time>
      </trkpt>
      <trkpt lat="46.60195" lon="5.40826">
        <ele>199.8</ele>
        <time>2022-05-07T11:26:09Z</time>
      </trkpt>
      <trkpt lat="46.602" lon="5.40833">
        <ele>199.6</ele>
        <time>2022-05-07T11:26:10Z</time>
      </trkpt>
      <trkpt lat="46.60235" lon="5.40862">
        <ele>199.8</ele>
        <time>2022-05-07T11:26:16Z</time>
      </trkpt>
      <trkpt lat="46.60262" lon="5.40882">
        <ele>200.8</ele>
        <time>2022-05-07T11:26:21Z</time>
      </trkpt>
      <trkpt lat="46.60271" lon="5.4089">
        <ele>201.2</ele>
        <time>2022-05-07T11:26:23Z</time>
      </trkpt>
      <trkpt lat="46.60293" lon="5.40912">
        <ele>202</ele>
        <time>2022-05-07T11:26:28Z</time>
      </trkpt>
      <trkpt lat="46.60297" lon="5.40916">
        <ele>202.2</ele>
        <time>2022-05-07T11:26:29Z</time>
      </trkpt>
      <trkpt lat="46.60306" lon="5.40932">
        <ele>203.4</ele>
        <time>2022-05-07T11:26:32Z</time>
      </trkpt>
      <trkpt lat="46.60311" lon="5.40943">
        <ele>203.8</ele>
        <time>2022-05-07T11:26:34Z</time>
      </trkpt>
      <trkpt lat="46.60319" lon="5.40958">
        <ele>204.4</ele>
        <time>2022-05-07T11:26:37Z</time>
      </trkpt>
      <trkpt lat="46.60329" lon="5.40975">
        <ele>205.6</ele>
        <time>2022-05-07T11:26:41Z</time>
      </trkpt>
      <trkpt lat="46.60337" lon="5.40988">
        <ele>206.6</ele>
        <time>2022-05-07T11:26:44Z</time>
      </trkpt>
      <trkpt lat="46.60347" lon="5.40998">
        <ele>207.6</ele>
        <time>2022-05-07T11:26:47Z</time>
      </trkpt>
      <trkpt lat="46.60353" lon="5.41005">
        <ele>208.2</ele>
        <time>2022-05-07T11:26:49Z</time>
      </trkpt>
      <trkpt lat="46.6036" lon="5.41009">
        <ele>208.6</ele>
        <time>2022-05-07T11:26:51Z</time>
      </trkpt>
      <trkpt lat="46.60366" lon="5.41014">
        <ele>209.2</ele>
        <time>2022-05-07T11:26:53Z</time>
      </trkpt>
      <trkpt lat="46.60372" lon="5.41019">
        <ele>209.6</ele>
        <time>2022-05-07T11:26:55Z</time>
      </trkpt>
      <trkpt lat="46.60384" lon="5.41028">
        <ele>210.8</ele>
        <time>2022-05-07T11:26:58Z</time>
      </trkpt>
      <trkpt lat="46.60394" lon="5.41039">
        <ele>211.8</ele>
        <time>2022-05-07T11:27:01Z</time>
      </trkpt>
      <trkpt lat="46.60405" lon="5.41058">
        <ele>212.8</ele>
        <time>2022-05-07T11:27:05Z</time>
      </trkpt>
      <trkpt lat="46.60409" lon="5.41068">
        <ele>213</ele>
        <time>2022-05-07T11:27:07Z</time>
      </trkpt>
      <trkpt lat="46.60426" lon="5.41105">
        <ele>213.8</ele>
        <time>2022-05-07T11:27:13Z</time>
      </trkpt>
      <trkpt lat="46.60435" lon="5.41117">
        <ele>213.8</ele>
        <time>2022-05-07T11:27:15Z</time>
      </trkpt>
      <trkpt lat="46.60445" lon="5.41127">
        <ele>213.6</ele>
        <time>2022-05-07T11:27:17Z</time>
      </trkpt>
      <trkpt lat="46.60451" lon="5.41131">
        <ele>213.8</ele>
        <time>2022-05-07T11:27:18Z</time>
      </trkpt>
      <trkpt lat="46.60475" lon="5.4114">
        <ele>213</ele>
        <time>2022-05-07T11:27:22Z</time>
      </trkpt>
      <trkpt lat="46.60481" lon="5.4114">
        <ele>212.8</ele>
        <time>2022-05-07T11:27:23Z</time>
      </trkpt>
      <trkpt lat="46.60502" lon="5.41141">
        <ele>212.2</ele>
        <time>2022-05-07T11:27:26Z</time>
      </trkpt>
      <trkpt lat="46.60516" lon="5.41142">
        <ele>212</ele>
        <time>2022-05-07T11:27:28Z</time>
      </trkpt>
      <trkpt lat="46.60546" lon="5.41143">
        <ele>211.2</ele>
        <time>2022-05-07T11:27:32Z</time>
      </trkpt>
      <trkpt lat="46.60561" lon="5.41145">
        <ele>210.8</ele>
        <time>2022-05-07T11:27:34Z</time>
      </trkpt>
      <trkpt lat="46.60583" lon="5.4115">
        <ele>209.8</ele>
        <time>2022-05-07T11:27:37Z</time>
      </trkpt>
      <trkpt lat="46.60606" lon="5.41157">
        <ele>208.8</ele>
        <time>2022-05-07T11:27:40Z</time>
      </trkpt>
      <trkpt lat="46.60613" lon="5.41159">
        <ele>208.6</ele>
        <time>2022-05-07T11:27:41Z</time>
      </trkpt>
      <trkpt lat="46.60642" lon="5.41168">
        <ele>207.6</ele>
        <time>2022-05-07T11:27:45Z</time>
      </trkpt>
      <trkpt lat="46.60657" lon="5.41173">
        <ele>206.6</ele>
        <time>2022-05-07T11:27:47Z</time>
      </trkpt>
      <trkpt lat="46.60671" lon="5.41179">
        <ele>206.2</ele>
        <time>2022-05-07T11:27:49Z</time>
      </trkpt>
      <trkpt lat="46.60692" lon="5.41191">
        <ele>206</ele>
        <time>2022-05-07T11:27:52Z</time>
      </trkpt>
      <trkpt lat="46.60698" lon="5.41197">
        <ele>206</ele>
        <time>2022-05-07T11:27:53Z</time>
      </trkpt>
      <trkpt lat="46.60729" lon="5.41237">
        <ele>206</ele>
        <time>2022-05-07T11:27:59Z</time>
      </trkpt>
      <trkpt lat="46.60766" lon="5.41276">
        <ele>206.6</ele>
        <time>2022-05-07T11:28:06Z</time>
      </trkpt>
      <trkpt lat="46.60781" lon="5.41292">
        <ele>206.4</ele>
        <time>2022-05-07T11:28:09Z</time>
      </trkpt>
      <trkpt lat="46.60798" lon="5.41311">
        <ele>206</ele>
        <time>2022-05-07T11:28:12Z</time>
      </trkpt>
      <trkpt lat="46.60812" lon="5.41324">
        <ele>205.4</ele>
        <time>2022-05-07T11:28:14Z</time>
      </trkpt>
      <trkpt lat="46.60817" lon="5.41328">
        <ele>205</ele>
        <time>2022-05-07T11:28:15Z</time>
      </trkpt>
      <trkpt lat="46.60824" lon="5.41332">
        <ele>205</ele>
        <time>2022-05-07T11:28:16Z</time>
      </trkpt>
      <trkpt lat="46.60832" lon="5.41334">
        <ele>204.6</ele>
        <time>2022-05-07T11:28:17Z</time>
      </trkpt>
      <trkpt lat="46.60839" lon="5.41334">
        <ele>204.4</ele>
        <time>2022-05-07T11:28:18Z</time>
      </trkpt>
      <trkpt lat="46.60846" lon="5.41332">
        <ele>204</ele>
        <time>2022-05-07T11:28:19Z</time>
      </trkpt>
      <trkpt lat="46.60852" lon="5.41329">
        <ele>203.8</ele>
        <time>2022-05-07T11:28:20Z</time>
      </trkpt>
      <trkpt lat="46.60864" lon="5.4132">
        <ele>203.6</ele>
        <time>2022-05-07T11:28:22Z</time>
      </trkpt>
      <trkpt lat="46.60875" lon="5.41306">
        <ele>203.2</ele>
        <time>2022-05-07T11:28:24Z</time>
      </trkpt>
      <trkpt lat="46.60886" lon="5.41292">
        <ele>202.8</ele>
        <time>2022-05-07T11:28:26Z</time>
      </trkpt>
      <trkpt lat="46.60928" lon="5.4124">
        <ele>201.8</ele>
        <time>2022-05-07T11:28:33Z</time>
      </trkpt>
      <trkpt lat="46.60966" lon="5.41201">
        <ele>200.8</ele>
        <time>2022-05-07T11:28:39Z</time>
      </trkpt>
      <trkpt lat="46.60986" lon="5.41183">
        <ele>200.4</ele>
        <time>2022-05-07T11:28:42Z</time>
      </trkpt>
      <trkpt lat="46.61006" lon="5.41166">
        <ele>199.6</ele>
        <time>2022-05-07T11:28:45Z</time>
      </trkpt>
      <trkpt lat="46.61026" lon="5.41156">
        <ele>199.2</ele>
        <time>2022-05-07T11:28:48Z</time>
      </trkpt>
      <trkpt lat="46.61033" lon="5.41154">
        <ele>199.2</ele>
        <time>2022-05-07T11:28:49Z</time>
      </trkpt>
      <trkpt lat="46.61052" lon="5.41156">
        <ele>199</ele>
        <time>2022-05-07T11:28:52Z</time>
      </trkpt>
      <trkpt lat="46.61096" lon="5.41168">
        <ele>199</ele>
        <time>2022-05-07T11:28:59Z</time>
      </trkpt>
      <trkpt lat="46.61118" lon="5.41174">
        <ele>198.4</ele>
        <time>2022-05-07T11:29:03Z</time>
      </trkpt>
      <trkpt lat="46.61146" lon="5.41182">
        <ele>198.2</ele>
        <time>2022-05-07T11:29:08Z</time>
      </trkpt>
      <trkpt lat="46.612" lon="5.41197">
        <ele>198.6</ele>
        <time>2022-05-07T11:29:18Z</time>
      </trkpt>
      <trkpt lat="46.61216" lon="5.41202">
        <ele>198.6</ele>
        <time>2022-05-07T11:29:21Z</time>
      </trkpt>
      <trkpt lat="46.61232" lon="5.41206">
        <ele>198.4</ele>
        <time>2022-05-07T11:29:25Z</time>
      </trkpt>
      <trkpt lat="46.61268" lon="5.41216">
        <ele>198.4</ele>
        <time>2022-05-07T11:29:31Z</time>
      </trkpt>
      <trkpt lat="46.61325" lon="5.41233">
        <ele>198.8</ele>
        <time>2022-05-07T11:29:42Z</time>
      </trkpt>
      <trkpt lat="46.61357" lon="5.41241">
        <ele>199.8</ele>
        <time>2022-05-07T11:29:48Z</time>
      </trkpt>
      <trkpt lat="46.61367" lon="5.41244">
        <ele>200</ele>
        <time>2022-05-07T11:29:50Z</time>
      </trkpt>
      <trkpt lat="46.61416" lon="5.41258">
        <ele>200.2</ele>
        <time>2022-05-07T11:29:59Z</time>
      </trkpt>
      <trkpt lat="46.6147" lon="5.41273">
        <ele>200.4</ele>
        <time>2022-05-07T11:30:09Z</time>
      </trkpt>
      <trkpt lat="46.615" lon="5.41283">
        <ele>200.2</ele>
        <time>2022-05-07T11:30:15Z</time>
      </trkpt>
      <trkpt lat="46.61542" lon="5.41307">
        <ele>199.4</ele>
        <time>2022-05-07T11:30:23Z</time>
      </trkpt>
      <trkpt lat="46.61592" lon="5.41342">
        <ele>199.2</ele>
        <time>2022-05-07T11:30:33Z</time>
      </trkpt>
      <trkpt lat="46.61628" lon="5.41376">
        <ele>199.4</ele>
        <time>2022-05-07T11:30:41Z</time>
      </trkpt>
      <trkpt lat="46.61665" lon="5.41418">
        <ele>199.4</ele>
        <time>2022-05-07T11:30:50Z</time>
      </trkpt>
      <trkpt lat="46.61694" lon="5.41436">
        <ele>199.4</ele>
        <time>2022-05-07T11:30:56Z</time>
      </trkpt>
      <trkpt lat="46.6171" lon="5.41439">
        <ele>199.4</ele>
        <time>2022-05-07T11:30:59Z</time>
      </trkpt>
      <trkpt lat="46.61727" lon="5.41438">
        <ele>199.2</ele>
        <time>2022-05-07T11:31:02Z</time>
      </trkpt>
      <trkpt lat="46.61737" lon="5.41436">
        <ele>199.2</ele>
        <time>2022-05-07T11:31:04Z</time>
      </trkpt>
      <trkpt lat="46.61748" lon="5.4143">
        <ele>199.2</ele>
        <time>2022-05-07T11:31:06Z</time>
      </trkpt>
      <trkpt lat="46.61753" lon="5.41427">
        <ele>199.2</ele>
        <time>2022-05-07T11:31:07Z</time>
      </trkpt>
      <trkpt lat="46.61781" lon="5.41399">
        <ele>199.4</ele>
        <time>2022-05-07T11:31:13Z</time>
      </trkpt>
      <trkpt lat="46.61799" lon="5.41368">
        <ele>199.8</ele>
        <time>2022-05-07T11:31:18Z</time>
      </trkpt>
      <trkpt lat="46.61825" lon="5.41322">
        <ele>199.8</ele>
        <time>2022-05-07T11:31:25Z</time>
      </trkpt>
      <trkpt lat="46.61858" lon="5.41263">
        <ele>199.6</ele>
        <time>2022-05-07T11:31:34Z</time>
      </trkpt>
      <trkpt lat="46.61884" lon="5.41221">
        <ele>199.6</ele>
        <time>2022-05-07T11:31:41Z</time>
      </trkpt>
      <trkpt lat="46.61914" lon="5.41181">
        <ele>199.4</ele>
        <time>2022-05-07T11:31:48Z</time>
      </trkpt>
      <trkpt lat="46.61956" lon="5.41124">
        <ele>199.4</ele>
        <time>2022-05-07T11:31:58Z</time>
      </trkpt>
      <trkpt lat="46.61988" lon="5.4108">
        <ele>199.4</ele>
        <time>2022-05-07T11:32:06Z</time>
      </trkpt>
      <trkpt lat="46.62015" lon="5.41036">
        <ele>199.8</ele>
        <time>2022-05-07T11:32:13Z</time>
      </trkpt>
      <trkpt lat="46.62034" lon="5.40981">
        <ele>199.8</ele>
        <time>2022-05-07T11:32:20Z</time>
      </trkpt>
      <trkpt lat="46.62056" lon="5.40914">
        <ele>199.8</ele>
        <time>2022-05-07T11:32:28Z</time>
      </trkpt>
      <trkpt lat="46.62076" lon="5.40855">
        <ele>200.2</ele>
        <time>2022-05-07T11:32:35Z</time>
      </trkpt>
      <trkpt lat="46.621" lon="5.40792">
        <ele>200.2</ele>
        <time>2022-05-07T11:32:43Z</time>
      </trkpt>
      <trkpt lat="46.62117" lon="5.40748">
        <ele>200.2</ele>
        <time>2022-05-07T11:32:49Z</time>
      </trkpt>
      <trkpt lat="46.6213" lon="5.4073">
        <ele>200</ele>
        <time>2022-05-07T11:32:52Z</time>
      </trkpt>
      <trkpt lat="46.62139" lon="5.4072">
        <ele>200</ele>
        <time>2022-05-07T11:32:54Z</time>
      </trkpt>
      <trkpt lat="46.62155" lon="5.40711">
        <ele>199.8</ele>
        <time>2022-05-07T11:32:57Z</time>
      </trkpt>
      <trkpt lat="46.62167" lon="5.40709">
        <ele>199.8</ele>
        <time>2022-05-07T11:32:59Z</time>
      </trkpt>
      <trkpt lat="46.62172" lon="5.40709">
        <ele>199.8</ele>
        <time>2022-05-07T11:33:00Z</time>
      </trkpt>
      <trkpt lat="46.6219" lon="5.40712">
        <ele>199.8</ele>
        <time>2022-05-07T11:33:03Z</time>
      </trkpt>
      <trkpt lat="46.62195" lon="5.40714">
        <ele>199.8</ele>
        <time>2022-05-07T11:33:04Z</time>
      </trkpt>
      <trkpt lat="46.622" lon="5.40718">
        <ele>199.8</ele>
        <time>2022-05-07T11:33:05Z</time>
      </trkpt>
      <trkpt lat="46.62219" lon="5.40734">
        <ele>200</ele>
        <time>2022-05-07T11:33:09Z</time>
      </trkpt>
      <trkpt lat="46.62261" lon="5.40776">
        <ele>200.6</ele>
        <time>2022-05-07T11:33:18Z</time>
      </trkpt>
      <trkpt lat="46.62299" lon="5.40823">
        <ele>200.2</ele>
        <time>2022-05-07T11:33:27Z</time>
      </trkpt>
      <trkpt lat="46.62315" lon="5.40847">
        <ele>200.2</ele>
        <time>2022-05-07T11:33:31Z</time>
      </trkpt>
      <trkpt lat="46.62325" lon="5.40865">
        <ele>200</ele>
        <time>2022-05-07T11:33:34Z</time>
      </trkpt>
      <trkpt lat="46.62328" lon="5.4087">
        <ele>200</ele>
        <time>2022-05-07T11:33:35Z</time>
      </trkpt>
      <trkpt lat="46.62351" lon="5.40893">
        <ele>200.4</ele>
        <time>2022-05-07T11:33:40Z</time>
      </trkpt>
      <trkpt lat="46.62365" lon="5.40906">
        <ele>200.6</ele>
        <time>2022-05-07T11:33:43Z</time>
      </trkpt>
      <trkpt lat="46.62391" lon="5.40934">
        <ele>200.8</ele>
        <time>2022-05-07T11:33:49Z</time>
      </trkpt>
      <trkpt lat="46.62395" lon="5.40939">
        <ele>200.8</ele>
        <time>2022-05-07T11:33:50Z</time>
      </trkpt>
      <trkpt lat="46.6241" lon="5.4097">
        <ele>200.8</ele>
        <time>2022-05-07T11:33:55Z</time>
      </trkpt>
      <trkpt lat="46.62416" lon="5.40983">
        <ele>200.8</ele>
        <time>2022-05-07T11:33:57Z</time>
      </trkpt>
      <trkpt lat="46.62436" lon="5.41035">
        <ele>201.2</ele>
        <time>2022-05-07T11:34:05Z</time>
      </trkpt>
      <trkpt lat="46.62439" lon="5.41041">
        <ele>201.4</ele>
        <time>2022-05-07T11:34:06Z</time>
      </trkpt>
      <trkpt lat="46.62448" lon="5.41067">
        <ele>201.6</ele>
        <time>2022-05-07T11:34:10Z</time>
      </trkpt>
      <trkpt lat="46.62451" lon="5.41074">
        <ele>201.8</ele>
        <time>2022-05-07T11:34:11Z</time>
      </trkpt>
      <trkpt lat="46.62469" lon="5.4111">
        <ele>202</ele>
        <time>2022-05-07T11:34:17Z</time>
      </trkpt>
      <trkpt lat="46.62472" lon="5.41115">
        <ele>202</ele>
        <time>2022-05-07T11:34:18Z</time>
      </trkpt>
      <trkpt lat="46.62492" lon="5.41136">
        <ele>202.4</ele>
        <time>2022-05-07T11:34:23Z</time>
      </trkpt>
      <trkpt lat="46.62496" lon="5.41138">
        <ele>202.4</ele>
        <time>2022-05-07T11:34:24Z</time>
      </trkpt>
      <trkpt lat="46.62501" lon="5.41141">
        <ele>202.4</ele>
        <time>2022-05-07T11:34:25Z</time>
      </trkpt>
      <trkpt lat="46.62537" lon="5.41158">
        <ele>203</ele>
        <time>2022-05-07T11:34:33Z</time>
      </trkpt>
      <trkpt lat="46.62567" lon="5.4117">
        <ele>203.4</ele>
        <time>2022-05-07T11:34:40Z</time>
      </trkpt>
      <trkpt lat="46.62576" lon="5.41174">
        <ele>203.8</ele>
        <time>2022-05-07T11:34:42Z</time>
      </trkpt>
      <trkpt lat="46.62605" lon="5.41186">
        <ele>204.4</ele>
        <time>2022-05-07T11:34:49Z</time>
      </trkpt>
      <trkpt lat="46.62609" lon="5.41188">
        <ele>204.6</ele>
        <time>2022-05-07T11:34:50Z</time>
      </trkpt>
      <trkpt lat="46.62639" lon="5.41201">
        <ele>205.6</ele>
        <time>2022-05-07T11:34:57Z</time>
      </trkpt>
      <trkpt lat="46.62677" lon="5.41217">
        <ele>205.8</ele>
        <time>2022-05-07T11:35:06Z</time>
      </trkpt>
      <trkpt lat="46.62704" lon="5.41228">
        <ele>207</ele>
        <time>2022-05-07T11:35:12Z</time>
      </trkpt>
      <trkpt lat="46.62735" lon="5.41242">
        <ele>207.6</ele>
        <time>2022-05-07T11:35:19Z</time>
      </trkpt>
      <trkpt lat="46.62743" lon="5.41246">
        <ele>208</ele>
        <time>2022-05-07T11:35:21Z</time>
      </trkpt>
      <trkpt lat="46.6277" lon="5.41257">
        <ele>208.4</ele>
        <time>2022-05-07T11:35:27Z</time>
      </trkpt>
      <trkpt lat="46.62801" lon="5.41272">
        <ele>209</ele>
        <time>2022-05-07T11:35:34Z</time>
      </trkpt>
      <trkpt lat="46.62822" lon="5.41281">
        <ele>209.8</ele>
        <time>2022-05-07T11:35:39Z</time>
      </trkpt>
      <trkpt lat="46.62831" lon="5.41284">
        <ele>210.4</ele>
        <time>2022-05-07T11:35:41Z</time>
      </trkpt>
      <trkpt lat="46.6286" lon="5.41296">
        <ele>211.2</ele>
        <time>2022-05-07T11:35:48Z</time>
      </trkpt>
      <trkpt lat="46.62864" lon="5.41298">
        <ele>211.4</ele>
        <time>2022-05-07T11:35:49Z</time>
      </trkpt>
      <trkpt lat="46.62884" lon="5.41307">
        <ele>212.6</ele>
        <time>2022-05-07T11:35:54Z</time>
      </trkpt>
      <trkpt lat="46.62896" lon="5.41311">
        <ele>213.2</ele>
        <time>2022-05-07T11:35:57Z</time>
      </trkpt>
      <trkpt lat="46.62907" lon="5.41316">
        <ele>213.6</ele>
        <time>2022-05-07T11:36:00Z</time>
      </trkpt>
      <trkpt lat="46.62922" lon="5.41323">
        <ele>214.6</ele>
        <time>2022-05-07T11:36:04Z</time>
      </trkpt>
      <trkpt lat="46.62926" lon="5.41325">
        <ele>214.8</ele>
        <time>2022-05-07T11:36:05Z</time>
      </trkpt>
      <trkpt lat="46.62945" lon="5.41333">
        <ele>215.8</ele>
        <time>2022-05-07T11:36:10Z</time>
      </trkpt>
      <trkpt lat="46.62951" lon="5.41337">
        <ele>216</ele>
        <time>2022-05-07T11:36:12Z</time>
      </trkpt>
      <trkpt lat="46.62967" lon="5.41344">
        <ele>217</ele>
        <time>2022-05-07T11:36:16Z</time>
      </trkpt>
      <trkpt lat="46.62978" lon="5.41348">
        <ele>218</ele>
        <time>2022-05-07T11:36:19Z</time>
      </trkpt>
      <trkpt lat="46.62999" lon="5.41357">
        <ele>219.2</ele>
        <time>2022-05-07T11:36:25Z</time>
      </trkpt>
      <trkpt lat="46.63016" lon="5.41366">
        <ele>220.2</ele>
        <time>2022-05-07T11:36:30Z</time>
      </trkpt>
      <trkpt lat="46.63023" lon="5.41371">
        <ele>220.4</ele>
        <time>2022-05-07T11:36:32Z</time>
      </trkpt>
      <trkpt lat="46.63034" lon="5.4138">
        <ele>221.4</ele>
        <time>2022-05-07T11:36:35Z</time>
      </trkpt>
      <trkpt lat="46.63047" lon="5.41393">
        <ele>221.8</ele>
        <time>2022-05-07T11:36:39Z</time>
      </trkpt>
      <trkpt lat="46.63064" lon="5.41413">
        <ele>222.2</ele>
        <time>2022-05-07T11:36:44Z</time>
      </trkpt>
      <trkpt lat="46.63067" lon="5.41418">
        <ele>222.4</ele>
        <time>2022-05-07T11:36:45Z</time>
      </trkpt>
      <trkpt lat="46.63085" lon="5.4144">
        <ele>222.8</ele>
        <time>2022-05-07T11:36:50Z</time>
      </trkpt>
      <trkpt lat="46.63106" lon="5.41468">
        <ele>222.6</ele>
        <time>2022-05-07T11:36:55Z</time>
      </trkpt>
      <trkpt lat="46.63114" lon="5.4148">
        <ele>222.6</ele>
        <time>2022-05-07T11:36:57Z</time>
      </trkpt>
      <trkpt lat="46.63126" lon="5.41505">
        <ele>222.6</ele>
        <time>2022-05-07T11:37:01Z</time>
      </trkpt>
      <trkpt lat="46.63149" lon="5.4156">
        <ele>221.8</ele>
        <time>2022-05-07T11:37:09Z</time>
      </trkpt>
      <trkpt lat="46.63178" lon="5.41618">
        <ele>222.2</ele>
        <time>2022-05-07T11:37:17Z</time>
      </trkpt>
      <trkpt lat="46.63204" lon="5.41678">
        <ele>221.8</ele>
        <time>2022-05-07T11:37:25Z</time>
      </trkpt>
      <trkpt lat="46.6323" lon="5.41726">
        <ele>222.4</ele>
        <time>2022-05-07T11:37:32Z</time>
      </trkpt>
      <trkpt lat="46.63261" lon="5.41765">
        <ele>223</ele>
        <time>2022-05-07T11:37:39Z</time>
      </trkpt>
      <trkpt lat="46.63297" lon="5.41816">
        <ele>223</ele>
        <time>2022-05-07T11:37:47Z</time>
      </trkpt>
      <trkpt lat="46.63333" lon="5.41867">
        <ele>221.2</ele>
        <time>2022-05-07T11:37:54Z</time>
      </trkpt>
      <trkpt lat="46.63362" lon="5.41909">
        <ele>220.6</ele>
        <time>2022-05-07T11:38:00Z</time>
      </trkpt>
      <trkpt lat="46.63389" lon="5.41934">
        <ele>220.6</ele>
        <time>2022-05-07T11:38:05Z</time>
      </trkpt>
      <trkpt lat="46.63417" lon="5.41955">
        <ele>221.4</ele>
        <time>2022-05-07T11:38:11Z</time>
      </trkpt>
      <trkpt lat="46.63422" lon="5.41958">
        <ele>221.4</ele>
        <time>2022-05-07T11:38:12Z</time>
      </trkpt>
      <trkpt lat="46.63443" lon="5.41968">
        <ele>222</ele>
        <time>2022-05-07T11:38:16Z</time>
      </trkpt>
      <trkpt lat="46.63452" lon="5.41974">
        <ele>222.4</ele>
        <time>2022-05-07T11:38:18Z</time>
      </trkpt>
      <trkpt lat="46.63477" lon="5.41994">
        <ele>223</ele>
        <time>2022-05-07T11:38:23Z</time>
      </trkpt>
      <trkpt lat="46.635" lon="5.42014">
        <ele>223</ele>
        <time>2022-05-07T11:38:28Z</time>
      </trkpt>
      <trkpt lat="46.6351" lon="5.4202">
        <ele>223</ele>
        <time>2022-05-07T11:38:30Z</time>
      </trkpt>
      <trkpt lat="46.63526" lon="5.42028">
        <ele>223.2</ele>
        <time>2022-05-07T11:38:33Z</time>
      </trkpt>
      <trkpt lat="46.63537" lon="5.42029">
        <ele>223.2</ele>
        <time>2022-05-07T11:38:35Z</time>
      </trkpt>
      <trkpt lat="46.63548" lon="5.42023">
        <ele>223.2</ele>
        <time>2022-05-07T11:38:37Z</time>
      </trkpt>
      <trkpt lat="46.63553" lon="5.42019">
        <ele>223.2</ele>
        <time>2022-05-07T11:38:38Z</time>
      </trkpt>
      <trkpt lat="46.63564" lon="5.42009">
        <ele>223</ele>
        <time>2022-05-07T11:38:40Z</time>
      </trkpt>
      <trkpt lat="46.63586" lon="5.4199">
        <ele>222.8</ele>
        <time>2022-05-07T11:38:44Z</time>
      </trkpt>
      <trkpt lat="46.6362" lon="5.41959">
        <ele>221.4</ele>
        <time>2022-05-07T11:38:50Z</time>
      </trkpt>
      <trkpt lat="46.63626" lon="5.41954">
        <ele>221.2</ele>
        <time>2022-05-07T11:38:51Z</time>
      </trkpt>
      <trkpt lat="46.63657" lon="5.41927">
        <ele>220.8</ele>
        <time>2022-05-07T11:38:56Z</time>
      </trkpt>
      <trkpt lat="46.63682" lon="5.41908">
        <ele>220.2</ele>
        <time>2022-05-07T11:39:00Z</time>
      </trkpt>
      <trkpt lat="46.63703" lon="5.41895">
        <ele>220</ele>
        <time>2022-05-07T11:39:03Z</time>
      </trkpt>
      <trkpt lat="46.6373" lon="5.41879">
        <ele>219</ele>
        <time>2022-05-07T11:39:07Z</time>
      </trkpt>
      <trkpt lat="46.63765" lon="5.41858">
        <ele>218.4</ele>
        <time>2022-05-07T11:39:12Z</time>
      </trkpt>
      <trkpt lat="46.63793" lon="5.41841">
        <ele>217.8</ele>
        <time>2022-05-07T11:39:16Z</time>
      </trkpt>
      <trkpt lat="46.63834" lon="5.41816">
        <ele>217</ele>
        <time>2022-05-07T11:39:22Z</time>
      </trkpt>
      <trkpt lat="46.63841" lon="5.41811">
        <ele>216.8</ele>
        <time>2022-05-07T11:39:23Z</time>
      </trkpt>
      <trkpt lat="46.63868" lon="5.41796">
        <ele>215.6</ele>
        <time>2022-05-07T11:39:27Z</time>
      </trkpt>
      <trkpt lat="46.63887" lon="5.41785">
        <ele>215</ele>
        <time>2022-05-07T11:39:30Z</time>
      </trkpt>
      <trkpt lat="46.63927" lon="5.4176">
        <ele>214.8</ele>
        <time>2022-05-07T11:39:37Z</time>
      </trkpt>
      <trkpt lat="46.63979" lon="5.41729">
        <ele>215.2</ele>
        <time>2022-05-07T11:39:47Z</time>
      </trkpt>
      <trkpt lat="46.64006" lon="5.41714">
        <ele>216.6</ele>
        <time>2022-05-07T11:39:53Z</time>
      </trkpt>
      <trkpt lat="46.64032" lon="5.41698">
        <ele>217.6</ele>
        <time>2022-05-07T11:39:59Z</time>
      </trkpt>
      <trkpt lat="46.6405" lon="5.41687">
        <ele>218.4</ele>
        <time>2022-05-07T11:40:03Z</time>
      </trkpt>
      <trkpt lat="46.64054" lon="5.41684">
        <ele>218.8</ele>
        <time>2022-05-07T11:40:04Z</time>
      </trkpt>
      <trkpt lat="46.6407" lon="5.41673">
        <ele>219.6</ele>
        <time>2022-05-07T11:40:08Z</time>
      </trkpt>
      <trkpt lat="46.64075" lon="5.41671">
        <ele>219.8</ele>
        <time>2022-05-07T11:40:09Z</time>
      </trkpt>
      <trkpt lat="46.64088" lon="5.41663">
        <ele>220.4</ele>
        <time>2022-05-07T11:40:12Z</time>
      </trkpt>
      <trkpt lat="46.64104" lon="5.41653">
        <ele>221</ele>
        <time>2022-05-07T11:40:16Z</time>
      </trkpt>
      <trkpt lat="46.64126" lon="5.41637">
        <ele>221.8</ele>
        <time>2022-05-07T11:40:22Z</time>
      </trkpt>
      <trkpt lat="46.64135" lon="5.41632">
        <ele>222</ele>
        <time>2022-05-07T11:40:24Z</time>
      </trkpt>
      <trkpt lat="46.64139" lon="5.41629">
        <ele>222.2</ele>
        <time>2022-05-07T11:40:25Z</time>
      </trkpt>
      <trkpt lat="46.64157" lon="5.41619">
        <ele>222.8</ele>
        <time>2022-05-07T11:40:29Z</time>
      </trkpt>
      <trkpt lat="46.64172" lon="5.4161">
        <ele>223.2</ele>
        <time>2022-05-07T11:40:32Z</time>
      </trkpt>
      <trkpt lat="46.64193" lon="5.41598">
        <ele>223.2</ele>
        <time>2022-05-07T11:40:36Z</time>
      </trkpt>
      <trkpt lat="46.64231" lon="5.41574">
        <ele>222.6</ele>
        <time>2022-05-07T11:40:43Z</time>
      </trkpt>
      <trkpt lat="46.64261" lon="5.41554">
        <ele>222</ele>
        <time>2022-05-07T11:40:48Z</time>
      </trkpt>
      <trkpt lat="46.64279" lon="5.41541">
        <ele>221.6</ele>
        <time>2022-05-07T11:40:51Z</time>
      </trkpt>
      <trkpt lat="46.64305" lon="5.41525">
        <ele>221</ele>
        <time>2022-05-07T11:40:55Z</time>
      </trkpt>
      <trkpt lat="46.64337" lon="5.41505">
        <ele>220.6</ele>
        <time>2022-05-07T11:41:00Z</time>
      </trkpt>
      <trkpt lat="46.64385" lon="5.41474">
        <ele>220.2</ele>
        <time>2022-05-07T11:41:08Z</time>
      </trkpt>
      <trkpt lat="46.64438" lon="5.41439">
        <ele>220.2</ele>
        <time>2022-05-07T11:41:17Z</time>
      </trkpt>
      <trkpt lat="46.64444" lon="5.41435">
        <ele>220.4</ele>
        <time>2022-05-07T11:41:18Z</time>
      </trkpt>
      <trkpt lat="46.64496" lon="5.414">
        <ele>221.2</ele>
        <time>2022-05-07T11:41:27Z</time>
      </trkpt>
      <trkpt lat="46.64502" lon="5.41397">
        <ele>221.4</ele>
        <time>2022-05-07T11:41:28Z</time>
      </trkpt>
      <trkpt lat="46.64552" lon="5.41364">
        <ele>221.8</ele>
        <time>2022-05-07T11:41:37Z</time>
      </trkpt>
      <trkpt lat="46.64602" lon="5.41331">
        <ele>222.2</ele>
        <time>2022-05-07T11:41:46Z</time>
      </trkpt>
      <trkpt lat="46.6462" lon="5.4132">
        <ele>222.2</ele>
        <time>2022-05-07T11:41:49Z</time>
      </trkpt>
      <trkpt lat="46.64658" lon="5.41297">
        <ele>221.2</ele>
        <time>2022-05-07T11:41:55Z</time>
      </trkpt>
      <trkpt lat="46.64704" lon="5.41266">
        <ele>220.2</ele>
        <time>2022-05-07T11:42:02Z</time>
      </trkpt>
      <trkpt lat="46.64717" lon="5.41257">
        <ele>220</ele>
        <time>2022-05-07T11:42:04Z</time>
      </trkpt>
      <trkpt lat="46.64729" lon="5.41246">
        <ele>219.8</ele>
        <time>2022-05-07T11:42:06Z</time>
      </trkpt>
      <trkpt lat="46.64734" lon="5.41243">
        <ele>219.8</ele>
        <time>2022-05-07T11:42:07Z</time>
      </trkpt>
      <trkpt lat="46.64767" lon="5.4122">
        <ele>219.8</ele>
        <time>2022-05-07T11:42:13Z</time>
      </trkpt>
      <trkpt lat="46.64812" lon="5.41189">
        <ele>220.4</ele>
        <time>2022-05-07T11:42:21Z</time>
      </trkpt>
      <trkpt lat="46.64861" lon="5.41154">
        <ele>220.2</ele>
        <time>2022-05-07T11:42:29Z</time>
      </trkpt>
      <trkpt lat="46.64867" lon="5.41149">
        <ele>220.2</ele>
        <time>2022-05-07T11:42:30Z</time>
      </trkpt>
      <trkpt lat="46.64903" lon="5.41128">
        <ele>219.6</ele>
        <time>2022-05-07T11:42:35Z</time>
      </trkpt>
      <trkpt lat="46.64944" lon="5.41099">
        <ele>219</ele>
        <time>2022-05-07T11:42:41Z</time>
      </trkpt>
      <trkpt lat="46.64982" lon="5.41074">
        <ele>218.2</ele>
        <time>2022-05-07T11:42:46Z</time>
      </trkpt>
      <trkpt lat="46.64997" lon="5.41065">
        <ele>218</ele>
        <time>2022-05-07T11:42:48Z</time>
      </trkpt>
      <trkpt lat="46.65032" lon="5.41039">
        <ele>217.6</ele>
        <time>2022-05-07T11:42:53Z</time>
      </trkpt>
      <trkpt lat="46.65081" lon="5.40986">
        <ele>217.4</ele>
        <time>2022-05-07T11:43:01Z</time>
      </trkpt>
      <trkpt lat="46.6512" lon="5.40928">
        <ele>217</ele>
        <time>2022-05-07T11:43:08Z</time>
      </trkpt>
      <trkpt lat="46.65146" lon="5.4089">
        <ele>215.8</ele>
        <time>2022-05-07T11:43:12Z</time>
      </trkpt>
      <trkpt lat="46.65159" lon="5.40871">
        <ele>215.6</ele>
        <time>2022-05-07T11:43:14Z</time>
      </trkpt>
      <trkpt lat="46.65186" lon="5.40832">
        <ele>214.6</ele>
        <time>2022-05-07T11:43:18Z</time>
      </trkpt>
      <trkpt lat="46.65207" lon="5.408">
        <ele>213.4</ele>
        <time>2022-05-07T11:43:21Z</time>
      </trkpt>
      <trkpt lat="46.65221" lon="5.40779">
        <ele>212.8</ele>
        <time>2022-05-07T11:43:23Z</time>
      </trkpt>
      <trkpt lat="46.65226" lon="5.40771">
        <ele>212.2</ele>
        <time>2022-05-07T11:43:24Z</time>
      </trkpt>
      <trkpt lat="46.65249" lon="5.40735">
        <ele>210.6</ele>
        <time>2022-05-07T11:43:27Z</time>
      </trkpt>
      <trkpt lat="46.65255" lon="5.40724">
        <ele>210</ele>
        <time>2022-05-07T11:43:28Z</time>
      </trkpt>
      <trkpt lat="46.6526" lon="5.40711">
        <ele>209.4</ele>
        <time>2022-05-07T11:43:29Z</time>
      </trkpt>
      <trkpt lat="46.65275" lon="5.40675">
        <ele>207.8</ele>
        <time>2022-05-07T11:43:32Z</time>
      </trkpt>
      <trkpt lat="46.65283" lon="5.40648">
        <ele>207.2</ele>
        <time>2022-05-07T11:43:34Z</time>
      </trkpt>
      <trkpt lat="46.65295" lon="5.40606">
        <ele>206.8</ele>
        <time>2022-05-07T11:43:37Z</time>
      </trkpt>
      <trkpt lat="46.65309" lon="5.4056">
        <ele>206</ele>
        <time>2022-05-07T11:43:41Z</time>
      </trkpt>
      <trkpt lat="46.65313" lon="5.40546">
        <ele>205.8</ele>
        <time>2022-05-07T11:43:42Z</time>
      </trkpt>
      <trkpt lat="46.65318" lon="5.40535">
        <ele>205.6</ele>
        <time>2022-05-07T11:43:43Z</time>
      </trkpt>
      <trkpt lat="46.65328" lon="5.40516">
        <ele>205.4</ele>
        <time>2022-05-07T11:43:45Z</time>
      </trkpt>
      <trkpt lat="46.65354" lon="5.40478">
        <ele>205.4</ele>
        <time>2022-05-07T11:43:50Z</time>
      </trkpt>
      <trkpt lat="46.65392" lon="5.40423">
        <ele>206.2</ele>
        <time>2022-05-07T11:43:57Z</time>
      </trkpt>
      <trkpt lat="46.65408" lon="5.404">
        <ele>206</ele>
        <time>2022-05-07T11:44:00Z</time>
      </trkpt>
      <trkpt lat="46.65437" lon="5.4036">
        <ele>206</ele>
        <time>2022-05-07T11:44:06Z</time>
      </trkpt>
      <trkpt lat="46.6545" lon="5.40343">
        <ele>206.8</ele>
        <time>2022-05-07T11:44:09Z</time>
      </trkpt>
      <trkpt lat="46.65462" lon="5.40325">
        <ele>207.8</ele>
        <time>2022-05-07T11:44:12Z</time>
      </trkpt>
      <trkpt lat="46.65466" lon="5.40319">
        <ele>208.2</ele>
        <time>2022-05-07T11:44:13Z</time>
      </trkpt>
      <trkpt lat="46.65478" lon="5.40303">
        <ele>209.4</ele>
        <time>2022-05-07T11:44:16Z</time>
      </trkpt>
      <trkpt lat="46.65493" lon="5.40283">
        <ele>210.6</ele>
        <time>2022-05-07T11:44:20Z</time>
      </trkpt>
      <trkpt lat="46.65505" lon="5.4027">
        <ele>212</ele>
        <time>2022-05-07T11:44:23Z</time>
      </trkpt>
      <trkpt lat="46.6552" lon="5.40252">
        <ele>213.4</ele>
        <time>2022-05-07T11:44:27Z</time>
      </trkpt>
      <trkpt lat="46.65527" lon="5.40243">
        <ele>214.4</ele>
        <time>2022-05-07T11:44:29Z</time>
      </trkpt>
      <trkpt lat="46.6553" lon="5.40237">
        <ele>214.6</ele>
        <time>2022-05-07T11:44:30Z</time>
      </trkpt>
      <trkpt lat="46.65532" lon="5.40231">
        <ele>214.8</ele>
        <time>2022-05-07T11:44:31Z</time>
      </trkpt>
      <trkpt lat="46.65534" lon="5.40226">
        <ele>215.2</ele>
        <time>2022-05-07T11:44:32Z</time>
      </trkpt>
      <trkpt lat="46.65536" lon="5.4022">
        <ele>215.2</ele>
        <time>2022-05-07T11:44:33Z</time>
      </trkpt>
      <trkpt lat="46.65541" lon="5.40199">
        <ele>215.6</ele>
        <time>2022-05-07T11:44:36Z</time>
      </trkpt>
      <trkpt lat="46.65542" lon="5.40193">
        <ele>215.8</ele>
        <time>2022-05-07T11:44:37Z</time>
      </trkpt>
      <trkpt lat="46.65545" lon="5.40181">
        <ele>216</ele>
        <time>2022-05-07T11:44:39Z</time>
      </trkpt>
      <trkpt lat="46.65548" lon="5.40167">
        <ele>216.2</ele>
        <time>2022-05-07T11:44:41Z</time>
      </trkpt>
      <trkpt lat="46.6555" lon="5.4016">
        <ele>216.4</ele>
        <time>2022-05-07T11:44:42Z</time>
      </trkpt>
      <trkpt lat="46.65553" lon="5.40146">
        <ele>216.8</ele>
        <time>2022-05-07T11:44:44Z</time>
      </trkpt>
      <trkpt lat="46.65559" lon="5.40116">
        <ele>217.4</ele>
        <time>2022-05-07T11:44:48Z</time>
      </trkpt>
      <trkpt lat="46.65568" lon="5.40086">
        <ele>217.8</ele>
        <time>2022-05-07T11:44:52Z</time>
      </trkpt>
      <trkpt lat="46.65574" lon="5.4007">
        <ele>218</ele>
        <time>2022-05-07T11:44:54Z</time>
      </trkpt>
      <trkpt lat="46.65579" lon="5.40057">
        <ele>218</ele>
        <time>2022-05-07T11:44:56Z</time>
      </trkpt>
      <trkpt lat="46.65583" lon="5.40042">
        <ele>218.2</ele>
        <time>2022-05-07T11:44:58Z</time>
      </trkpt>
      <trkpt lat="46.65586" lon="5.40035">
        <ele>218.4</ele>
        <time>2022-05-07T11:44:59Z</time>
      </trkpt>
      <trkpt lat="46.65592" lon="5.40021">
        <ele>218.6</ele>
        <time>2022-05-07T11:45:01Z</time>
      </trkpt>
      <trkpt lat="46.65597" lon="5.40007">
        <ele>218.6</ele>
        <time>2022-05-07T11:45:03Z</time>
      </trkpt>
      <trkpt lat="46.6561" lon="5.3997">
        <ele>218.6</ele>
        <time>2022-05-07T11:45:08Z</time>
      </trkpt>
      <trkpt lat="46.65613" lon="5.39965">
        <ele>218.6</ele>
        <time>2022-05-07T11:45:09Z</time>
      </trkpt>
      <trkpt lat="46.65627" lon="5.39922">
        <ele>218.6</ele>
        <time>2022-05-07T11:45:14Z</time>
      </trkpt>
      <trkpt lat="46.65649" lon="5.3985">
        <ele>217.8</ele>
        <time>2022-05-07T11:45:21Z</time>
      </trkpt>
      <trkpt lat="46.65651" lon="5.39841">
        <ele>217.6</ele>
        <time>2022-05-07T11:45:22Z</time>
      </trkpt>
      <trkpt lat="46.65663" lon="5.39802">
        <ele>217.4</ele>
        <time>2022-05-07T11:45:26Z</time>
      </trkpt>
      <trkpt lat="46.65672" lon="5.39783">
        <ele>217</ele>
        <time>2022-05-07T11:45:28Z</time>
      </trkpt>
      <trkpt lat="46.65684" lon="5.39772">
        <ele>216.8</ele>
        <time>2022-05-07T11:45:30Z</time>
      </trkpt>
      <trkpt lat="46.65692" lon="5.39768">
        <ele>216.8</ele>
        <time>2022-05-07T11:45:31Z</time>
      </trkpt>
      <trkpt lat="46.65699" lon="5.39767">
        <ele>216.4</ele>
        <time>2022-05-07T11:45:32Z</time>
      </trkpt>
      <trkpt lat="46.65714" lon="5.3977">
        <ele>216.2</ele>
        <time>2022-05-07T11:45:34Z</time>
      </trkpt>
      <trkpt lat="46.65743" lon="5.39785">
        <ele>215.2</ele>
        <time>2022-05-07T11:45:38Z</time>
      </trkpt>
      <trkpt lat="46.65757" lon="5.39791">
        <ele>214.6</ele>
        <time>2022-05-07T11:45:40Z</time>
      </trkpt>
      <trkpt lat="46.65775" lon="5.398">
        <ele>214.4</ele>
        <time>2022-05-07T11:45:42Z</time>
      </trkpt>
      <trkpt lat="46.65792" lon="5.39805">
        <ele>214.2</ele>
        <time>2022-05-07T11:45:44Z</time>
      </trkpt>
      <trkpt lat="46.65801" lon="5.39808">
        <ele>214</ele>
        <time>2022-05-07T11:45:45Z</time>
      </trkpt>
      <trkpt lat="46.65834" lon="5.39816">
        <ele>213</ele>
        <time>2022-05-07T11:45:49Z</time>
      </trkpt>
      <trkpt lat="46.65852" lon="5.39817">
        <ele>212</ele>
        <time>2022-05-07T11:45:51Z</time>
      </trkpt>
      <trkpt lat="46.65887" lon="5.39815">
        <ele>210.8</ele>
        <time>2022-05-07T11:45:55Z</time>
      </trkpt>
      <trkpt lat="46.65904" lon="5.3981">
        <ele>210.6</ele>
        <time>2022-05-07T11:45:57Z</time>
      </trkpt>
      <trkpt lat="46.65913" lon="5.39806">
        <ele>210</ele>
        <time>2022-05-07T11:45:58Z</time>
      </trkpt>
      <trkpt lat="46.65922" lon="5.39801">
        <ele>209.6</ele>
        <time>2022-05-07T11:45:59Z</time>
      </trkpt>
      <trkpt lat="46.65932" lon="5.39794">
        <ele>208.6</ele>
        <time>2022-05-07T11:46:00Z</time>
      </trkpt>
      <trkpt lat="46.65941" lon="5.39787">
        <ele>208.2</ele>
        <time>2022-05-07T11:46:01Z</time>
      </trkpt>
      <trkpt lat="46.65956" lon="5.39776">
        <ele>206.8</ele>
        <time>2022-05-07T11:46:03Z</time>
      </trkpt>
      <trkpt lat="46.65975" lon="5.39768">
        <ele>206.2</ele>
        <time>2022-05-07T11:46:05Z</time>
      </trkpt>
      <trkpt lat="46.65995" lon="5.39768">
        <ele>205.6</ele>
        <time>2022-05-07T11:46:07Z</time>
      </trkpt>
      <trkpt lat="46.66004" lon="5.39768">
        <ele>205.4</ele>
        <time>2022-05-07T11:46:08Z</time>
      </trkpt>
      <trkpt lat="46.66019" lon="5.39767">
        <ele>204.8</ele>
        <time>2022-05-07T11:46:10Z</time>
      </trkpt>
      <trkpt lat="46.66035" lon="5.39762">
        <ele>204.4</ele>
        <time>2022-05-07T11:46:12Z</time>
      </trkpt>
      <trkpt lat="46.66067" lon="5.39744">
        <ele>204.4</ele>
        <time>2022-05-07T11:46:17Z</time>
      </trkpt>
      <trkpt lat="46.66087" lon="5.39733">
        <ele>205.4</ele>
        <time>2022-05-07T11:46:21Z</time>
      </trkpt>
      <trkpt lat="46.66093" lon="5.3973">
        <ele>205.6</ele>
        <time>2022-05-07T11:46:22Z</time>
      </trkpt>
      <trkpt lat="46.66098" lon="5.39728">
        <ele>206</ele>
        <time>2022-05-07T11:46:23Z</time>
      </trkpt>
      <trkpt lat="46.66108" lon="5.39721">
        <ele>207</ele>
        <time>2022-05-07T11:46:25Z</time>
      </trkpt>
      <trkpt lat="46.66123" lon="5.39713">
        <ele>208</ele>
        <time>2022-05-07T11:46:28Z</time>
      </trkpt>
      <trkpt lat="46.66141" lon="5.39703">
        <ele>209.4</ele>
        <time>2022-05-07T11:46:32Z</time>
      </trkpt>
      <trkpt lat="46.66159" lon="5.39692">
        <ele>210.6</ele>
        <time>2022-05-07T11:46:36Z</time>
      </trkpt>
      <trkpt lat="46.66174" lon="5.39685">
        <ele>211.8</ele>
        <time>2022-05-07T11:46:39Z</time>
      </trkpt>
      <trkpt lat="46.66188" lon="5.39678">
        <ele>212.4</ele>
        <time>2022-05-07T11:46:42Z</time>
      </trkpt>
      <trkpt lat="46.66198" lon="5.39675">
        <ele>212.8</ele>
        <time>2022-05-07T11:46:44Z</time>
      </trkpt>
      <trkpt lat="46.66202" lon="5.39674">
        <ele>212.8</ele>
        <time>2022-05-07T11:46:45Z</time>
      </trkpt>
      <trkpt lat="46.66208" lon="5.39674">
        <ele>213</ele>
        <time>2022-05-07T11:46:46Z</time>
      </trkpt>
      <trkpt lat="46.66236" lon="5.39671">
        <ele>213.6</ele>
        <time>2022-05-07T11:46:51Z</time>
      </trkpt>
      <trkpt lat="46.66247" lon="5.39671">
        <ele>213.8</ele>
        <time>2022-05-07T11:46:53Z</time>
      </trkpt>
      <trkpt lat="46.66276" lon="5.39673">
        <ele>215</ele>
        <time>2022-05-07T11:46:59Z</time>
      </trkpt>
      <trkpt lat="46.6631" lon="5.39686">
        <ele>215.8</ele>
        <time>2022-05-07T11:47:06Z</time>
      </trkpt>
      <trkpt lat="46.66313" lon="5.39689">
        <ele>216</ele>
        <time>2022-05-07T11:47:07Z</time>
      </trkpt>
      <trkpt lat="46.66335" lon="5.39709">
        <ele>217.2</ele>
        <time>2022-05-07T11:47:12Z</time>
      </trkpt>
      <trkpt lat="46.66342" lon="5.39719">
        <ele>217.6</ele>
        <time>2022-05-07T11:47:14Z</time>
      </trkpt>
      <trkpt lat="46.66359" lon="5.39748">
        <ele>218</ele>
        <time>2022-05-07T11:47:19Z</time>
      </trkpt>
      <trkpt lat="46.66362" lon="5.39755">
        <ele>218.2</ele>
        <time>2022-05-07T11:47:20Z</time>
      </trkpt>
      <trkpt lat="46.6637" lon="5.39776">
        <ele>218.4</ele>
        <time>2022-05-07T11:47:23Z</time>
      </trkpt>
      <trkpt lat="46.66372" lon="5.39783">
        <ele>218.6</ele>
        <time>2022-05-07T11:47:24Z</time>
      </trkpt>
      <trkpt lat="46.66377" lon="5.39796">
        <ele>218.8</ele>
        <time>2022-05-07T11:47:26Z</time>
      </trkpt>
      <trkpt lat="46.6638" lon="5.39803">
        <ele>218.8</ele>
        <time>2022-05-07T11:47:27Z</time>
      </trkpt>
      <trkpt lat="46.6639" lon="5.39818">
        <ele>219.2</ele>
        <time>2022-05-07T11:47:30Z</time>
      </trkpt>
      <trkpt lat="46.66394" lon="5.39823">
        <ele>219.4</ele>
        <time>2022-05-07T11:47:31Z</time>
      </trkpt>
      <trkpt lat="46.66404" lon="5.39833">
        <ele>219.6</ele>
        <time>2022-05-07T11:47:33Z</time>
      </trkpt>
      <trkpt lat="46.66416" lon="5.39844">
        <ele>219.8</ele>
        <time>2022-05-07T11:47:35Z</time>
      </trkpt>
      <trkpt lat="46.6643" lon="5.39854">
        <ele>219.6</ele>
        <time>2022-05-07T11:47:38Z</time>
      </trkpt>
      <trkpt lat="46.66468" lon="5.39872">
        <ele>218.6</ele>
        <time>2022-05-07T11:47:43Z</time>
      </trkpt>
      <trkpt lat="46.66475" lon="5.39877">
        <ele>218.2</ele>
        <time>2022-05-07T11:47:44Z</time>
      </trkpt>
      <trkpt lat="46.66493" lon="5.39886">
        <ele>217.8</ele>
        <time>2022-05-07T11:47:46Z</time>
      </trkpt>
      <trkpt lat="46.66519" lon="5.39908">
        <ele>217.2</ele>
        <time>2022-05-07T11:47:49Z</time>
      </trkpt>
      <trkpt lat="46.66526" lon="5.39914">
        <ele>217</ele>
        <time>2022-05-07T11:47:50Z</time>
      </trkpt>
      <trkpt lat="46.66553" lon="5.39936">
        <ele>216</ele>
        <time>2022-05-07T11:47:54Z</time>
      </trkpt>
      <trkpt lat="46.66559" lon="5.39941">
        <ele>216</ele>
        <time>2022-05-07T11:47:55Z</time>
      </trkpt>
      <trkpt lat="46.66568" lon="5.39955">
        <ele>216</ele>
        <time>2022-05-07T11:47:57Z</time>
      </trkpt>
      <trkpt lat="46.66575" lon="5.39965">
        <ele>216.2</ele>
        <time>2022-05-07T11:47:59Z</time>
      </trkpt>
      <trkpt lat="46.66595" lon="5.3999">
        <ele>216.8</ele>
        <time>2022-05-07T11:48:04Z</time>
      </trkpt>
      <trkpt lat="46.66597" lon="5.39995">
        <ele>217</ele>
        <time>2022-05-07T11:48:05Z</time>
      </trkpt>
      <trkpt lat="46.66607" lon="5.40003">
        <ele>217.8</ele>
        <time>2022-05-07T11:48:08Z</time>
      </trkpt>
      <trkpt lat="46.66618" lon="5.40007">
        <ele>218.2</ele>
        <time>2022-05-07T11:48:10Z</time>
      </trkpt>
      <trkpt lat="46.66631" lon="5.4001">
        <ele>218.4</ele>
        <time>2022-05-07T11:48:12Z</time>
      </trkpt>
      <trkpt lat="46.66665" lon="5.40018">
        <ele>219</ele>
        <time>2022-05-07T11:48:18Z</time>
      </trkpt>
      <trkpt lat="46.6667" lon="5.40019">
        <ele>219.4</ele>
        <time>2022-05-07T11:48:19Z</time>
      </trkpt>
      <trkpt lat="46.66692" lon="5.40027">
        <ele>220.4</ele>
        <time>2022-05-07T11:48:23Z</time>
      </trkpt>
      <trkpt lat="46.66703" lon="5.40033">
        <ele>220.6</ele>
        <time>2022-05-07T11:48:25Z</time>
      </trkpt>
      <trkpt lat="46.66737" lon="5.40054">
        <ele>220.4</ele>
        <time>2022-05-07T11:48:31Z</time>
      </trkpt>
      <trkpt lat="46.66782" lon="5.40081">
        <ele>220</ele>
        <time>2022-05-07T11:48:39Z</time>
      </trkpt>
      <trkpt lat="46.66818" lon="5.40105">
        <ele>219.6</ele>
        <time>2022-05-07T11:48:45Z</time>
      </trkpt>
      <trkpt lat="46.66841" lon="5.40117">
        <ele>219.4</ele>
        <time>2022-05-07T11:48:49Z</time>
      </trkpt>
      <trkpt lat="46.66846" lon="5.40118">
        <ele>219.2</ele>
        <time>2022-05-07T11:48:50Z</time>
      </trkpt>
      <trkpt lat="46.66852" lon="5.40118">
        <ele>219.2</ele>
        <time>2022-05-07T11:48:51Z</time>
      </trkpt>
      <trkpt lat="46.6687" lon="5.40114">
        <ele>219</ele>
        <time>2022-05-07T11:48:54Z</time>
      </trkpt>
      <trkpt lat="46.66911" lon="5.4011">
        <ele>218.6</ele>
        <time>2022-05-07T11:49:01Z</time>
      </trkpt>
      <trkpt lat="46.66954" lon="5.40117">
        <ele>219.2</ele>
        <time>2022-05-07T11:49:09Z</time>
      </trkpt>
      <trkpt lat="46.66996" lon="5.40122">
        <ele>220.4</ele>
        <time>2022-05-07T11:49:17Z</time>
      </trkpt>
      <trkpt lat="46.67036" lon="5.40122">
        <ele>221.2</ele>
        <time>2022-05-07T11:49:25Z</time>
      </trkpt>
      <trkpt lat="46.67045" lon="5.40122">
        <ele>221.4</ele>
        <time>2022-05-07T11:49:27Z</time>
      </trkpt>
      <trkpt lat="46.67056" lon="5.40123">
        <ele>221.4</ele>
        <time>2022-05-07T11:49:29Z</time>
      </trkpt>
      <trkpt lat="46.67061" lon="5.40124">
        <ele>221.2</ele>
        <time>2022-05-07T11:49:31Z</time>
      </trkpt>
      <trkpt lat="46.67063" lon="5.40125">
        <ele>221.2</ele>
        <time>2022-05-07T11:49:32Z</time>
      </trkpt>
      <trkpt lat="46.67063" lon="5.40125">
        <ele>221.2</ele>
        <time>2022-05-07T11:49:34Z</time>
      </trkpt>
      <trkpt lat="46.67063" lon="5.40125">
        <ele>221.2</ele>
        <time>2022-05-07T11:49:35Z</time>
      </trkpt>
      <trkpt lat="46.67068" lon="5.40125">
        <ele>221</ele>
        <time>2022-05-07T11:49:43Z</time>
      </trkpt>
      <trkpt lat="46.67069" lon="5.40123">
        <ele>221</ele>
        <time>2022-05-07T11:49:44Z</time>
      </trkpt>
      <trkpt lat="46.67071" lon="5.40103">
        <ele>221</ele>
        <time>2022-05-07T11:49:48Z</time>
      </trkpt>
      <trkpt lat="46.67074" lon="5.4008">
        <ele>220.8</ele>
        <time>2022-05-07T11:49:51Z</time>
      </trkpt>
      <trkpt lat="46.67076" lon="5.40057">
        <ele>220.8</ele>
        <time>2022-05-07T11:49:54Z</time>
      </trkpt>
      <trkpt lat="46.6708" lon="5.40029">
        <ele>220.8</ele>
        <time>2022-05-07T11:49:58Z</time>
      </trkpt>
      <trkpt lat="46.67083" lon="5.40024">
        <ele>221</ele>
        <time>2022-05-07T11:49:59Z</time>
      </trkpt>
      <trkpt lat="46.67088" lon="5.40021">
        <ele>221</ele>
        <time>2022-05-07T11:50:00Z</time>
      </trkpt>
      <trkpt lat="46.67099" lon="5.40019">
        <ele>221.2</ele>
        <time>2022-05-07T11:50:02Z</time>
      </trkpt>
      <trkpt lat="46.67145" lon="5.40008">
        <ele>220.8</ele>
        <time>2022-05-07T11:50:10Z</time>
      </trkpt>
      <trkpt lat="46.6719" lon="5.40009">
        <ele>221</ele>
        <time>2022-05-07T11:50:18Z</time>
      </trkpt>
      <trkpt lat="46.67197" lon="5.40007">
        <ele>221.2</ele>
        <time>2022-05-07T11:50:19Z</time>
      </trkpt>
      <trkpt lat="46.67207" lon="5.4">
        <ele>221.4</ele>
        <time>2022-05-07T11:50:21Z</time>
      </trkpt>
      <trkpt lat="46.67215" lon="5.3999">
        <ele>221.4</ele>
        <time>2022-05-07T11:50:23Z</time>
      </trkpt>
      <trkpt lat="46.67225" lon="5.39969">
        <ele>221.6</ele>
        <time>2022-05-07T11:50:26Z</time>
      </trkpt>
      <trkpt lat="46.67233" lon="5.39959">
        <ele>221.6</ele>
        <time>2022-05-07T11:50:28Z</time>
      </trkpt>
      <trkpt lat="46.67244" lon="5.39956">
        <ele>221.8</ele>
        <time>2022-05-07T11:50:30Z</time>
      </trkpt>
      <trkpt lat="46.67267" lon="5.39958">
        <ele>222</ele>
        <time>2022-05-07T11:50:34Z</time>
      </trkpt>
      <trkpt lat="46.67273" lon="5.39959">
        <ele>222</ele>
        <time>2022-05-07T11:50:35Z</time>
      </trkpt>
      <trkpt lat="46.6733" lon="5.39972">
        <ele>221.8</ele>
        <time>2022-05-07T11:50:45Z</time>
      </trkpt>
      <trkpt lat="46.67386" lon="5.39991">
        <ele>222.4</ele>
        <time>2022-05-07T11:50:55Z</time>
      </trkpt>
      <trkpt lat="46.67394" lon="5.39993">
        <ele>222.4</ele>
        <time>2022-05-07T11:50:56Z</time>
      </trkpt>
      <trkpt lat="46.67443" lon="5.4001">
        <ele>222.8</ele>
        <time>2022-05-07T11:51:04Z</time>
      </trkpt>
      <trkpt lat="46.6749" lon="5.40027">
        <ele>222.4</ele>
        <time>2022-05-07T11:51:12Z</time>
      </trkpt>
      <trkpt lat="46.67549" lon="5.40041">
        <ele>222.4</ele>
        <time>2022-05-07T11:51:21Z</time>
      </trkpt>
      <trkpt lat="46.67597" lon="5.40058">
        <ele>222.4</ele>
        <time>2022-05-07T11:51:29Z</time>
      </trkpt>
      <trkpt lat="46.67638" lon="5.40082">
        <ele>222.4</ele>
        <time>2022-05-07T11:51:36Z</time>
      </trkpt>
      <trkpt lat="46.6768" lon="5.40104">
        <ele>222.8</ele>
        <time>2022-05-07T11:51:43Z</time>
      </trkpt>
      <trkpt lat="46.67716" lon="5.40138">
        <ele>222.4</ele>
        <time>2022-05-07T11:51:50Z</time>
      </trkpt>
      <trkpt lat="46.67752" lon="5.40169">
        <ele>221.8</ele>
        <time>2022-05-07T11:51:57Z</time>
      </trkpt>
      <trkpt lat="46.67762" lon="5.40177">
        <ele>221.6</ele>
        <time>2022-05-07T11:51:59Z</time>
      </trkpt>
      <trkpt lat="46.6778" lon="5.40185">
        <ele>221.6</ele>
        <time>2022-05-07T11:52:02Z</time>
      </trkpt>
      <trkpt lat="46.67818" lon="5.40188">
        <ele>221.4</ele>
        <time>2022-05-07T11:52:08Z</time>
      </trkpt>
      <trkpt lat="46.67824" lon="5.40188">
        <ele>221.4</ele>
        <time>2022-05-07T11:52:09Z</time>
      </trkpt>
      <trkpt lat="46.67854" lon="5.40183">
        <ele>220.8</ele>
        <time>2022-05-07T11:52:14Z</time>
      </trkpt>
      <trkpt lat="46.6786" lon="5.40184">
        <ele>220.6</ele>
        <time>2022-05-07T11:52:15Z</time>
      </trkpt>
      <trkpt lat="46.67866" lon="5.40187">
        <ele>220.4</ele>
        <time>2022-05-07T11:52:16Z</time>
      </trkpt>
      <trkpt lat="46.67882" lon="5.40201">
        <ele>220.2</ele>
        <time>2022-05-07T11:52:19Z</time>
      </trkpt>
      <trkpt lat="46.67891" lon="5.40211">
        <ele>220.4</ele>
        <time>2022-05-07T11:52:21Z</time>
      </trkpt>
      <trkpt lat="46.67909" lon="5.40232">
        <ele>220.6</ele>
        <time>2022-05-07T11:52:25Z</time>
      </trkpt>
      <trkpt lat="46.67926" lon="5.40248">
        <ele>221.4</ele>
        <time>2022-05-07T11:52:29Z</time>
      </trkpt>
      <trkpt lat="46.67931" lon="5.40252">
        <ele>221.4</ele>
        <time>2022-05-07T11:52:30Z</time>
      </trkpt>
      <trkpt lat="46.67935" lon="5.40254">
        <ele>221.4</ele>
        <time>2022-05-07T11:52:31Z</time>
      </trkpt>
      <trkpt lat="46.67939" lon="5.40253">
        <ele>221.4</ele>
        <time>2022-05-07T11:52:32Z</time>
      </trkpt>
      <trkpt lat="46.67947" lon="5.40245">
        <ele>221.4</ele>
        <time>2022-05-07T11:52:34Z</time>
      </trkpt>
      <trkpt lat="46.67951" lon="5.40233">
        <ele>221.4</ele>
        <time>2022-05-07T11:52:36Z</time>
      </trkpt>
      <trkpt lat="46.67955" lon="5.40218">
        <ele>221.6</ele>
        <time>2022-05-07T11:52:38Z</time>
      </trkpt>
      <trkpt lat="46.67959" lon="5.40203">
        <ele>221.4</ele>
        <time>2022-05-07T11:52:40Z</time>
      </trkpt>
      <trkpt lat="46.67971" lon="5.40176">
        <ele>221.4</ele>
        <time>2022-05-07T11:52:44Z</time>
      </trkpt>
      <trkpt lat="46.67975" lon="5.4017">
        <ele>221.4</ele>
        <time>2022-05-07T11:52:45Z</time>
      </trkpt>
      <trkpt lat="46.67994" lon="5.40142">
        <ele>221.4</ele>
        <time>2022-05-07T11:52:50Z</time>
      </trkpt>
      <trkpt lat="46.68025" lon="5.4009">
        <ele>221.4</ele>
        <time>2022-05-07T11:52:58Z</time>
      </trkpt>
      <trkpt lat="46.68037" lon="5.40069">
        <ele>221.2</ele>
        <time>2022-05-07T11:53:01Z</time>
      </trkpt>
      <trkpt lat="46.68044" lon="5.40053">
        <ele>221</ele>
        <time>2022-05-07T11:53:03Z</time>
      </trkpt>
      <trkpt lat="46.68046" lon="5.40044">
        <ele>221</ele>
        <time>2022-05-07T11:53:04Z</time>
      </trkpt>
      <trkpt lat="46.68047" lon="5.40035">
        <ele>220.8</ele>
        <time>2022-05-07T11:53:05Z</time>
      </trkpt>
      <trkpt lat="46.68049" lon="5.40001">
        <ele>220.6</ele>
        <time>2022-05-07T11:53:08Z</time>
      </trkpt>
      <trkpt lat="46.68051" lon="5.39976">
        <ele>220.2</ele>
        <time>2022-05-07T11:53:10Z</time>
      </trkpt>
      <trkpt lat="46.68056" lon="5.39937">
        <ele>219.2</ele>
        <time>2022-05-07T11:53:13Z</time>
      </trkpt>
      <trkpt lat="46.68058" lon="5.39921">
        <ele>218</ele>
        <time>2022-05-07T11:53:14Z</time>
      </trkpt>
      <trkpt lat="46.68062" lon="5.39899">
        <ele>216.6</ele>
        <time>2022-05-07T11:53:16Z</time>
      </trkpt>
      <trkpt lat="46.68067" lon="5.39876">
        <ele>215.8</ele>
        <time>2022-05-07T11:53:18Z</time>
      </trkpt>
      <trkpt lat="46.68069" lon="5.39865">
        <ele>215.4</ele>
        <time>2022-05-07T11:53:19Z</time>
      </trkpt>
      <trkpt lat="46.68078" lon="5.39827">
        <ele>215.2</ele>
        <time>2022-05-07T11:53:23Z</time>
      </trkpt>
      <trkpt lat="46.68081" lon="5.39811">
        <ele>215.2</ele>
        <time>2022-05-07T11:53:25Z</time>
      </trkpt>
      <trkpt lat="46.68085" lon="5.39789">
        <ele>215.4</ele>
        <time>2022-05-07T11:53:28Z</time>
      </trkpt>
      <trkpt lat="46.68093" lon="5.39781">
        <ele>215.2</ele>
        <time>2022-05-07T11:53:30Z</time>
      </trkpt>
      <trkpt lat="46.68098" lon="5.3978">
        <ele>215.2</ele>
        <time>2022-05-07T11:53:31Z</time>
      </trkpt>
      <trkpt lat="46.68125" lon="5.39777">
        <ele>214.2</ele>
        <time>2022-05-07T11:53:35Z</time>
      </trkpt>
      <trkpt lat="46.68163" lon="5.39771">
        <ele>213.2</ele>
        <time>2022-05-07T11:53:40Z</time>
      </trkpt>
      <trkpt lat="46.68178" lon="5.39769">
        <ele>212.2</ele>
        <time>2022-05-07T11:53:42Z</time>
      </trkpt>
      <trkpt lat="46.68208" lon="5.39767">
        <ele>211.2</ele>
        <time>2022-05-07T11:53:46Z</time>
      </trkpt>
      <trkpt lat="46.68231" lon="5.3977">
        <ele>210</ele>
        <time>2022-05-07T11:53:49Z</time>
      </trkpt>
      <trkpt lat="46.68251" lon="5.39777">
        <ele>209.4</ele>
        <time>2022-05-07T11:53:52Z</time>
      </trkpt>
      <trkpt lat="46.68262" lon="5.39784">
        <ele>209.2</ele>
        <time>2022-05-07T11:53:54Z</time>
      </trkpt>
      <trkpt lat="46.68281" lon="5.39793">
        <ele>209</ele>
        <time>2022-05-07T11:53:57Z</time>
      </trkpt>
      <trkpt lat="46.68288" lon="5.39795">
        <ele>208.8</ele>
        <time>2022-05-07T11:53:58Z</time>
      </trkpt>
      <trkpt lat="46.68301" lon="5.39797">
        <ele>208.8</ele>
        <time>2022-05-07T11:54:00Z</time>
      </trkpt>
      <trkpt lat="46.68343" lon="5.39795">
        <ele>208.8</ele>
        <time>2022-05-07T11:54:07Z</time>
      </trkpt>
      <trkpt lat="46.68382" lon="5.39794">
        <ele>210.2</ele>
        <time>2022-05-07T11:54:14Z</time>
      </trkpt>
      <trkpt lat="46.68413" lon="5.39807">
        <ele>211</ele>
        <time>2022-05-07T11:54:20Z</time>
      </trkpt>
      <trkpt lat="46.68442" lon="5.39821">
        <ele>211.4</ele>
        <time>2022-05-07T11:54:26Z</time>
      </trkpt>
      <trkpt lat="46.68451" lon="5.39825">
        <ele>211.8</ele>
        <time>2022-05-07T11:54:28Z</time>
      </trkpt>
      <trkpt lat="46.68464" lon="5.39831">
        <ele>212.4</ele>
        <time>2022-05-07T11:54:31Z</time>
      </trkpt>
      <trkpt lat="46.6849" lon="5.39842">
        <ele>213.4</ele>
        <time>2022-05-07T11:54:37Z</time>
      </trkpt>
      <trkpt lat="46.68519" lon="5.39855">
        <ele>214.6</ele>
        <time>2022-05-07T11:54:44Z</time>
      </trkpt>
      <trkpt lat="46.68527" lon="5.39858">
        <ele>214.8</ele>
        <time>2022-05-07T11:54:46Z</time>
      </trkpt>
      <trkpt lat="46.68546" lon="5.39867">
        <ele>215.6</ele>
        <time>2022-05-07T11:54:51Z</time>
      </trkpt>
      <trkpt lat="46.68561" lon="5.39874">
        <ele>216.2</ele>
        <time>2022-05-07T11:54:55Z</time>
      </trkpt>
      <trkpt lat="46.68574" lon="5.39879">
        <ele>216.6</ele>
        <time>2022-05-07T11:54:58Z</time>
      </trkpt>
      <trkpt lat="46.6859" lon="5.39886">
        <ele>217.2</ele>
        <time>2022-05-07T11:55:02Z</time>
      </trkpt>
      <trkpt lat="46.68608" lon="5.39894">
        <ele>217.8</ele>
        <time>2022-05-07T11:55:07Z</time>
      </trkpt>
      <trkpt lat="46.68632" lon="5.39906">
        <ele>218.4</ele>
        <time>2022-05-07T11:55:13Z</time>
      </trkpt>
      <trkpt lat="46.6864" lon="5.39912">
        <ele>218.8</ele>
        <time>2022-05-07T11:55:15Z</time>
      </trkpt>
      <trkpt lat="46.6866" lon="5.39923">
        <ele>219</ele>
        <time>2022-05-07T11:55:19Z</time>
      </trkpt>
      <trkpt lat="46.68687" lon="5.3995">
        <ele>218.4</ele>
        <time>2022-05-07T11:55:25Z</time>
      </trkpt>
      <trkpt lat="46.68717" lon="5.39993">
        <ele>217.8</ele>
        <time>2022-05-07T11:55:33Z</time>
      </trkpt>
      <trkpt lat="46.68724" lon="5.40004">
        <ele>217.8</ele>
        <time>2022-05-07T11:55:35Z</time>
      </trkpt>
      <trkpt lat="46.68748" lon="5.40041">
        <ele>218</ele>
        <time>2022-05-07T11:55:42Z</time>
      </trkpt>
      <trkpt lat="46.6878" lon="5.40092">
        <ele>218.8</ele>
        <time>2022-05-07T11:55:52Z</time>
      </trkpt>
      <trkpt lat="46.68787" lon="5.40101">
        <ele>219</ele>
        <time>2022-05-07T11:55:54Z</time>
      </trkpt>
      <trkpt lat="46.68809" lon="5.40125">
        <ele>219.8</ele>
        <time>2022-05-07T11:56:00Z</time>
      </trkpt>
      <trkpt lat="46.68843" lon="5.40155">
        <ele>220</ele>
        <time>2022-05-07T11:56:08Z</time>
      </trkpt>
      <trkpt lat="46.68876" lon="5.40178">
        <ele>219.6</ele>
        <time>2022-05-07T11:56:15Z</time>
      </trkpt>
      <trkpt lat="46.6892" lon="5.40194">
        <ele>219.4</ele>
        <time>2022-05-07T11:56:23Z</time>
      </trkpt>
      <trkpt lat="46.68942" lon="5.40205">
        <ele>219.2</ele>
        <time>2022-05-07T11:56:27Z</time>
      </trkpt>
      <trkpt lat="46.68946" lon="5.4021">
        <ele>219</ele>
        <time>2022-05-07T11:56:28Z</time>
      </trkpt>
      <trkpt lat="46.68949" lon="5.40218">
        <ele>218.8</ele>
        <time>2022-05-07T11:56:29Z</time>
      </trkpt>
      <trkpt lat="46.68951" lon="5.40237">
        <ele>218.6</ele>
        <time>2022-05-07T11:56:31Z</time>
      </trkpt>
      <trkpt lat="46.68954" lon="5.40298">
        <ele>218.2</ele>
        <time>2022-05-07T11:56:37Z</time>
      </trkpt>
      <trkpt lat="46.68965" lon="5.40376">
        <ele>217.6</ele>
        <time>2022-05-07T11:56:45Z</time>
      </trkpt>
      <trkpt lat="46.68967" lon="5.40385">
        <ele>217.8</ele>
        <time>2022-05-07T11:56:46Z</time>
      </trkpt>
      <trkpt lat="46.68976" lon="5.40419">
        <ele>217.8</ele>
        <time>2022-05-07T11:56:50Z</time>
      </trkpt>
      <trkpt lat="46.68982" lon="5.40434">
        <ele>218</ele>
        <time>2022-05-07T11:56:52Z</time>
      </trkpt>
      <trkpt lat="46.68999" lon="5.40472">
        <ele>218</ele>
        <time>2022-05-07T11:56:58Z</time>
      </trkpt>
      <trkpt lat="46.69028" lon="5.40528">
        <ele>218.8</ele>
        <time>2022-05-07T11:57:08Z</time>
      </trkpt>
      <trkpt lat="46.69041" lon="5.40554">
        <ele>219.4</ele>
        <time>2022-05-07T11:57:13Z</time>
      </trkpt>
      <trkpt lat="46.69049" lon="5.40569">
        <ele>219.8</ele>
        <time>2022-05-07T11:57:16Z</time>
      </trkpt>
      <trkpt lat="46.6906" lon="5.40591">
        <ele>220.4</ele>
        <time>2022-05-07T11:57:20Z</time>
      </trkpt>
      <trkpt lat="46.69071" lon="5.40613">
        <ele>220.8</ele>
        <time>2022-05-07T11:57:24Z</time>
      </trkpt>
      <trkpt lat="46.69105" lon="5.40678">
        <ele>221.4</ele>
        <time>2022-05-07T11:57:35Z</time>
      </trkpt>
      <trkpt lat="46.69126" lon="5.40722">
        <ele>221.4</ele>
        <time>2022-05-07T11:57:42Z</time>
      </trkpt>
      <trkpt lat="46.69137" lon="5.4074">
        <ele>221.4</ele>
        <time>2022-05-07T11:57:45Z</time>
      </trkpt>
      <trkpt lat="46.69146" lon="5.4076">
        <ele>221.6</ele>
        <time>2022-05-07T11:57:48Z</time>
      </trkpt>
      <trkpt lat="46.69159" lon="5.40785">
        <ele>221.6</ele>
        <time>2022-05-07T11:57:52Z</time>
      </trkpt>
      <trkpt lat="46.69185" lon="5.40837">
        <ele>221.6</ele>
        <time>2022-05-07T11:58:00Z</time>
      </trkpt>
      <trkpt lat="46.69217" lon="5.40903">
        <ele>222.4</ele>
        <time>2022-05-07T11:58:10Z</time>
      </trkpt>
      <trkpt lat="46.69221" lon="5.40909">
        <ele>222.6</ele>
        <time>2022-05-07T11:58:11Z</time>
      </trkpt>
      <trkpt lat="46.69254" lon="5.40977">
        <ele>222.2</ele>
        <time>2022-05-07T11:58:20Z</time>
      </trkpt>
      <trkpt lat="46.69271" lon="5.4101">
        <ele>221.6</ele>
        <time>2022-05-07T11:58:24Z</time>
      </trkpt>
      <trkpt lat="46.6928" lon="5.41025">
        <ele>221</ele>
        <time>2022-05-07T11:58:26Z</time>
      </trkpt>
      <trkpt lat="46.69292" lon="5.4105">
        <ele>220.4</ele>
        <time>2022-05-07T11:58:29Z</time>
      </trkpt>
      <trkpt lat="46.69307" lon="5.41076">
        <ele>219.8</ele>
        <time>2022-05-07T11:58:32Z</time>
      </trkpt>
      <trkpt lat="46.69316" lon="5.41095">
        <ele>219.4</ele>
        <time>2022-05-07T11:58:34Z</time>
      </trkpt>
      <trkpt lat="46.69336" lon="5.41135">
        <ele>218.4</ele>
        <time>2022-05-07T11:58:38Z</time>
      </trkpt>
      <trkpt lat="46.69346" lon="5.41155">
        <ele>217.2</ele>
        <time>2022-05-07T11:58:40Z</time>
      </trkpt>
      <trkpt lat="46.69363" lon="5.41186">
        <ele>215.8</ele>
        <time>2022-05-07T11:58:43Z</time>
      </trkpt>
      <trkpt lat="46.69369" lon="5.41197">
        <ele>215.2</ele>
        <time>2022-05-07T11:58:44Z</time>
      </trkpt>
      <trkpt lat="46.69381" lon="5.41219">
        <ele>214.6</ele>
        <time>2022-05-07T11:58:46Z</time>
      </trkpt>
      <trkpt lat="46.69399" lon="5.41253">
        <ele>213.6</ele>
        <time>2022-05-07T11:58:49Z</time>
      </trkpt>
      <trkpt lat="46.69411" lon="5.41277">
        <ele>213</ele>
        <time>2022-05-07T11:58:51Z</time>
      </trkpt>
      <trkpt lat="46.69424" lon="5.413">
        <ele>211.6</ele>
        <time>2022-05-07T11:58:53Z</time>
      </trkpt>
      <trkpt lat="46.69443" lon="5.41334">
        <ele>210.2</ele>
        <time>2022-05-07T11:58:56Z</time>
      </trkpt>
      <trkpt lat="46.69455" lon="5.41356">
        <ele>209.4</ele>
        <time>2022-05-07T11:58:58Z</time>
      </trkpt>
      <trkpt lat="46.69461" lon="5.41366">
        <ele>209.2</ele>
        <time>2022-05-07T11:58:59Z</time>
      </trkpt>
      <trkpt lat="46.69467" lon="5.41377">
        <ele>209</ele>
        <time>2022-05-07T11:59:00Z</time>
      </trkpt>
      <trkpt lat="46.69494" lon="5.41426">
        <ele>208.6</ele>
        <time>2022-05-07T11:59:05Z</time>
      </trkpt>
      <trkpt lat="46.6953" lon="5.4149">
        <ele>208.6</ele>
        <time>2022-05-07T11:59:12Z</time>
      </trkpt>
      <trkpt lat="46.69567" lon="5.4156">
        <ele>209.4</ele>
        <time>2022-05-07T11:59:20Z</time>
      </trkpt>
      <trkpt lat="46.69572" lon="5.41568">
        <ele>209.6</ele>
        <time>2022-05-07T11:59:21Z</time>
      </trkpt>
      <trkpt lat="46.69596" lon="5.41613">
        <ele>209.8</ele>
        <time>2022-05-07T11:59:27Z</time>
      </trkpt>
      <trkpt lat="46.69611" lon="5.41641">
        <ele>210</ele>
        <time>2022-05-07T11:59:31Z</time>
      </trkpt>
      <trkpt lat="46.69618" lon="5.41655">
        <ele>210.6</ele>
        <time>2022-05-07T11:59:33Z</time>
      </trkpt>
      <trkpt lat="46.6963" lon="5.41682">
        <ele>211.4</ele>
        <time>2022-05-07T11:59:37Z</time>
      </trkpt>
      <trkpt lat="46.69633" lon="5.41689">
        <ele>211.6</ele>
        <time>2022-05-07T11:59:38Z</time>
      </trkpt>
      <trkpt lat="46.69635" lon="5.41696">
        <ele>212</ele>
        <time>2022-05-07T11:59:39Z</time>
      </trkpt>
      <trkpt lat="46.69641" lon="5.41717">
        <ele>212.8</ele>
        <time>2022-05-07T11:59:42Z</time>
      </trkpt>
      <trkpt lat="46.69648" lon="5.41744">
        <ele>213.8</ele>
        <time>2022-05-07T11:59:46Z</time>
      </trkpt>
      <trkpt lat="46.69651" lon="5.41758">
        <ele>214.2</ele>
        <time>2022-05-07T11:59:48Z</time>
      </trkpt>
      <trkpt lat="46.69653" lon="5.41765">
        <ele>214.8</ele>
        <time>2022-05-07T11:59:49Z</time>
      </trkpt>
      <trkpt lat="46.69653" lon="5.41773">
        <ele>214.8</ele>
        <time>2022-05-07T11:59:50Z</time>
      </trkpt>
      <trkpt lat="46.69654" lon="5.4178">
        <ele>215.4</ele>
        <time>2022-05-07T11:59:51Z</time>
      </trkpt>
      <trkpt lat="46.69655" lon="5.41788">
        <ele>215.6</ele>
        <time>2022-05-07T11:59:52Z</time>
      </trkpt>
      <trkpt lat="46.69656" lon="5.41803">
        <ele>216</ele>
        <time>2022-05-07T11:59:54Z</time>
      </trkpt>
      <trkpt lat="46.69659" lon="5.41843">
        <ele>216.6</ele>
        <time>2022-05-07T11:59:59Z</time>
      </trkpt>
      <trkpt lat="46.69662" lon="5.41877">
        <ele>217</ele>
        <time>2022-05-07T12:00:03Z</time>
      </trkpt>
      <trkpt lat="46.69665" lon="5.41912">
        <ele>217.2</ele>
        <time>2022-05-07T12:00:07Z</time>
      </trkpt>
      <trkpt lat="46.69671" lon="5.41974">
        <ele>217.6</ele>
        <time>2022-05-07T12:00:14Z</time>
      </trkpt>
      <trkpt lat="46.6968" lon="5.42047">
        <ele>217.2</ele>
        <time>2022-05-07T12:00:22Z</time>
      </trkpt>
      <trkpt lat="46.69694" lon="5.42107">
        <ele>217.4</ele>
        <time>2022-05-07T12:00:29Z</time>
      </trkpt>
      <trkpt lat="46.69699" lon="5.42122">
        <ele>217.6</ele>
        <time>2022-05-07T12:00:31Z</time>
      </trkpt>
      <trkpt lat="46.69713" lon="5.4215">
        <ele>217.8</ele>
        <time>2022-05-07T12:00:35Z</time>
      </trkpt>
      <trkpt lat="46.6974" lon="5.42182">
        <ele>218</ele>
        <time>2022-05-07T12:00:41Z</time>
      </trkpt>
      <trkpt lat="46.6975" lon="5.42191">
        <ele>218</ele>
        <time>2022-05-07T12:00:43Z</time>
      </trkpt>
      <trkpt lat="46.69755" lon="5.42195">
        <ele>218.2</ele>
        <time>2022-05-07T12:00:44Z</time>
      </trkpt>
      <trkpt lat="46.69771" lon="5.42204">
        <ele>218.2</ele>
        <time>2022-05-07T12:00:47Z</time>
      </trkpt>
      <trkpt lat="46.69815" lon="5.42222">
        <ele>218.6</ele>
        <time>2022-05-07T12:00:55Z</time>
      </trkpt>
      <trkpt lat="46.69861" lon="5.42238">
        <ele>218.2</ele>
        <time>2022-05-07T12:01:03Z</time>
      </trkpt>
      <trkpt lat="46.69906" lon="5.42243">
        <ele>217</ele>
        <time>2022-05-07T12:01:10Z</time>
      </trkpt>
      <trkpt lat="46.69946" lon="5.42245">
        <ele>215.8</ele>
        <time>2022-05-07T12:01:16Z</time>
      </trkpt>
      <trkpt lat="46.69966" lon="5.42245">
        <ele>215.4</ele>
        <time>2022-05-07T12:01:19Z</time>
      </trkpt>
      <trkpt lat="46.70003" lon="5.42246">
        <ele>214.8</ele>
        <time>2022-05-07T12:01:24Z</time>
      </trkpt>
      <trkpt lat="46.70034" lon="5.42248">
        <ele>214.6</ele>
        <time>2022-05-07T12:01:28Z</time>
      </trkpt>
      <trkpt lat="46.70078" lon="5.42249">
        <ele>213.6</ele>
        <time>2022-05-07T12:01:34Z</time>
      </trkpt>
      <trkpt lat="46.70092" lon="5.4225">
        <ele>213.6</ele>
        <time>2022-05-07T12:01:36Z</time>
      </trkpt>
      <trkpt lat="46.70147" lon="5.42252">
        <ele>213.8</ele>
        <time>2022-05-07T12:01:44Z</time>
      </trkpt>
      <trkpt lat="46.70205" lon="5.42254">
        <ele>213.2</ele>
        <time>2022-05-07T12:01:52Z</time>
      </trkpt>
      <trkpt lat="46.70212" lon="5.42254">
        <ele>213</ele>
        <time>2022-05-07T12:01:53Z</time>
      </trkpt>
      <trkpt lat="46.70226" lon="5.42255">
        <ele>212.6</ele>
        <time>2022-05-07T12:01:55Z</time>
      </trkpt>
      <trkpt lat="46.70276" lon="5.42257">
        <ele>211.4</ele>
        <time>2022-05-07T12:02:02Z</time>
      </trkpt>
      <trkpt lat="46.70315" lon="5.4226">
        <ele>210.4</ele>
        <time>2022-05-07T12:02:08Z</time>
      </trkpt>
      <trkpt lat="46.70321" lon="5.4226">
        <ele>210.4</ele>
        <time>2022-05-07T12:02:09Z</time>
      </trkpt>
      <trkpt lat="46.70356" lon="5.42261">
        <ele>210</ele>
        <time>2022-05-07T12:02:15Z</time>
      </trkpt>
      <trkpt lat="46.70409" lon="5.42274">
        <ele>210.6</ele>
        <time>2022-05-07T12:02:24Z</time>
      </trkpt>
      <trkpt lat="46.70438" lon="5.42299">
        <ele>210.4</ele>
        <time>2022-05-07T12:02:29Z</time>
      </trkpt>
      <trkpt lat="46.70469" lon="5.42343">
        <ele>209.6</ele>
        <time>2022-05-07T12:02:35Z</time>
      </trkpt>
      <trkpt lat="46.70474" lon="5.42351">
        <ele>209.4</ele>
        <time>2022-05-07T12:02:36Z</time>
      </trkpt>
      <trkpt lat="46.70501" lon="5.42392">
        <ele>208.2</ele>
        <time>2022-05-07T12:02:41Z</time>
      </trkpt>
      <trkpt lat="46.70506" lon="5.42399">
        <ele>208</ele>
        <time>2022-05-07T12:02:42Z</time>
      </trkpt>
      <trkpt lat="46.70511" lon="5.42407">
        <ele>208</ele>
        <time>2022-05-07T12:02:43Z</time>
      </trkpt>
      <trkpt lat="46.70551" lon="5.42468">
        <ele>207</ele>
        <time>2022-05-07T12:02:51Z</time>
      </trkpt>
      <trkpt lat="46.7059" lon="5.42527">
        <ele>206.2</ele>
        <time>2022-05-07T12:02:59Z</time>
      </trkpt>
      <trkpt lat="46.70609" lon="5.42555">
        <ele>206</ele>
        <time>2022-05-07T12:03:03Z</time>
      </trkpt>
      <trkpt lat="46.70634" lon="5.42593">
        <ele>205.8</ele>
        <time>2022-05-07T12:03:08Z</time>
      </trkpt>
      <trkpt lat="46.70672" lon="5.4265">
        <ele>206</ele>
        <time>2022-05-07T12:03:16Z</time>
      </trkpt>
      <trkpt lat="46.70686" lon="5.42671">
        <ele>206</ele>
        <time>2022-05-07T12:03:19Z</time>
      </trkpt>
      <trkpt lat="46.70725" lon="5.42731">
        <ele>206.2</ele>
        <time>2022-05-07T12:03:27Z</time>
      </trkpt>
      <trkpt lat="46.70747" lon="5.42763">
        <ele>206.2</ele>
        <time>2022-05-07T12:03:31Z</time>
      </trkpt>
      <trkpt lat="46.70785" lon="5.4282">
        <ele>205.8</ele>
        <time>2022-05-07T12:03:38Z</time>
      </trkpt>
      <trkpt lat="46.70812" lon="5.4286">
        <ele>204.8</ele>
        <time>2022-05-07T12:03:43Z</time>
      </trkpt>
      <trkpt lat="46.70839" lon="5.429">
        <ele>203.8</ele>
        <time>2022-05-07T12:03:48Z</time>
      </trkpt>
      <trkpt lat="46.70844" lon="5.42908">
        <ele>203.8</ele>
        <time>2022-05-07T12:03:49Z</time>
      </trkpt>
      <trkpt lat="46.70882" lon="5.42965">
        <ele>203</ele>
        <time>2022-05-07T12:03:56Z</time>
      </trkpt>
      <trkpt lat="46.70888" lon="5.42973">
        <ele>202.8</ele>
        <time>2022-05-07T12:03:57Z</time>
      </trkpt>
      <trkpt lat="46.70904" lon="5.42997">
        <ele>202.6</ele>
        <time>2022-05-07T12:04:00Z</time>
      </trkpt>
      <trkpt lat="46.70928" lon="5.43034">
        <ele>202.6</ele>
        <time>2022-05-07T12:04:05Z</time>
      </trkpt>
      <trkpt lat="46.70966" lon="5.43091">
        <ele>202.6</ele>
        <time>2022-05-07T12:04:13Z</time>
      </trkpt>
      <trkpt lat="46.71006" lon="5.43151">
        <ele>203.4</ele>
        <time>2022-05-07T12:04:22Z</time>
      </trkpt>
      <trkpt lat="46.71014" lon="5.43165">
        <ele>203.8</ele>
        <time>2022-05-07T12:04:24Z</time>
      </trkpt>
      <trkpt lat="46.71019" lon="5.43172">
        <ele>204</ele>
        <time>2022-05-07T12:04:25Z</time>
      </trkpt>
      <trkpt lat="46.71031" lon="5.4319">
        <ele>204.2</ele>
        <time>2022-05-07T12:04:28Z</time>
      </trkpt>
      <trkpt lat="46.71066" lon="5.43241">
        <ele>204.6</ele>
        <time>2022-05-07T12:04:36Z</time>
      </trkpt>
      <trkpt lat="46.71082" lon="5.43267">
        <ele>204.8</ele>
        <time>2022-05-07T12:04:40Z</time>
      </trkpt>
      <trkpt lat="46.71095" lon="5.43287">
        <ele>205</ele>
        <time>2022-05-07T12:04:43Z</time>
      </trkpt>
      <trkpt lat="46.71127" lon="5.43338">
        <ele>205.4</ele>
        <time>2022-05-07T12:04:50Z</time>
      </trkpt>
      <trkpt lat="46.7116" lon="5.43388">
        <ele>205.8</ele>
        <time>2022-05-07T12:04:57Z</time>
      </trkpt>
      <trkpt lat="46.71184" lon="5.43424">
        <ele>205.6</ele>
        <time>2022-05-07T12:05:02Z</time>
      </trkpt>
      <trkpt lat="46.71188" lon="5.4343">
        <ele>206</ele>
        <time>2022-05-07T12:05:03Z</time>
      </trkpt>
      <trkpt lat="46.71219" lon="5.43475">
        <ele>206.8</ele>
        <time>2022-05-07T12:05:10Z</time>
      </trkpt>
      <trkpt lat="46.71247" lon="5.43512">
        <ele>207.2</ele>
        <time>2022-05-07T12:05:16Z</time>
      </trkpt>
      <trkpt lat="46.7128" lon="5.43557">
        <ele>207.4</ele>
        <time>2022-05-07T12:05:23Z</time>
      </trkpt>
      <trkpt lat="46.71315" lon="5.43612">
        <ele>207.4</ele>
        <time>2022-05-07T12:05:31Z</time>
      </trkpt>
      <trkpt lat="46.71349" lon="5.43665">
        <ele>207.2</ele>
        <time>2022-05-07T12:05:38Z</time>
      </trkpt>
      <trkpt lat="46.71384" lon="5.43717">
        <ele>206.6</ele>
        <time>2022-05-07T12:05:45Z</time>
      </trkpt>
      <trkpt lat="46.71407" lon="5.43751">
        <ele>205.8</ele>
        <time>2022-05-07T12:05:50Z</time>
      </trkpt>
      <trkpt lat="46.7143" lon="5.43784">
        <ele>205.6</ele>
        <time>2022-05-07T12:05:55Z</time>
      </trkpt>
      <trkpt lat="46.71459" lon="5.43828">
        <ele>205.6</ele>
        <time>2022-05-07T12:06:02Z</time>
      </trkpt>
      <trkpt lat="46.71495" lon="5.43883">
        <ele>206.4</ele>
        <time>2022-05-07T12:06:11Z</time>
      </trkpt>
      <trkpt lat="46.71503" lon="5.43897">
        <ele>206.8</ele>
        <time>2022-05-07T12:06:13Z</time>
      </trkpt>
      <trkpt lat="46.71525" lon="5.43928">
        <ele>207.4</ele>
        <time>2022-05-07T12:06:18Z</time>
      </trkpt>
      <trkpt lat="46.71534" lon="5.43941">
        <ele>207.8</ele>
        <time>2022-05-07T12:06:20Z</time>
      </trkpt>
      <trkpt lat="46.71559" lon="5.4398">
        <ele>208.8</ele>
        <time>2022-05-07T12:06:26Z</time>
      </trkpt>
      <trkpt lat="46.71591" lon="5.44029">
        <ele>209.6</ele>
        <time>2022-05-07T12:06:34Z</time>
      </trkpt>
      <trkpt lat="46.71628" lon="5.44085">
        <ele>209.8</ele>
        <time>2022-05-07T12:06:43Z</time>
      </trkpt>
      <trkpt lat="46.71632" lon="5.44092">
        <ele>210</ele>
        <time>2022-05-07T12:06:44Z</time>
      </trkpt>
      <trkpt lat="46.7166" lon="5.44134">
        <ele>209.8</ele>
        <time>2022-05-07T12:06:50Z</time>
      </trkpt>
      <trkpt lat="46.71695" lon="5.44188">
        <ele>208.6</ele>
        <time>2022-05-07T12:06:57Z</time>
      </trkpt>
      <trkpt lat="46.71714" lon="5.44218">
        <ele>207.2</ele>
        <time>2022-05-07T12:07:01Z</time>
      </trkpt>
      <trkpt lat="46.71728" lon="5.4424">
        <ele>206.6</ele>
        <time>2022-05-07T12:07:04Z</time>
      </trkpt>
      <trkpt lat="46.71738" lon="5.44254">
        <ele>206.2</ele>
        <time>2022-05-07T12:07:06Z</time>
      </trkpt>
      <trkpt lat="46.7177" lon="5.44301">
        <ele>205.6</ele>
        <time>2022-05-07T12:07:13Z</time>
      </trkpt>
      <trkpt lat="46.7179" lon="5.44321">
        <ele>205.4</ele>
        <time>2022-05-07T12:07:17Z</time>
      </trkpt>
      <trkpt lat="46.71795" lon="5.44326">
        <ele>205.2</ele>
        <time>2022-05-07T12:07:18Z</time>
      </trkpt>
      <trkpt lat="46.718" lon="5.4433">
        <ele>205.2</ele>
        <time>2022-05-07T12:07:19Z</time>
      </trkpt>
      <trkpt lat="46.71805" lon="5.44332">
        <ele>205</ele>
        <time>2022-05-07T12:07:20Z</time>
      </trkpt>
      <trkpt lat="46.71812" lon="5.44334">
        <ele>204.8</ele>
        <time>2022-05-07T12:07:21Z</time>
      </trkpt>
      <trkpt lat="46.71844" lon="5.44344">
        <ele>204.2</ele>
        <time>2022-05-07T12:07:26Z</time>
      </trkpt>
      <trkpt lat="46.71851" lon="5.44346">
        <ele>204</ele>
        <time>2022-05-07T12:07:27Z</time>
      </trkpt>
      <trkpt lat="46.71905" lon="5.44365">
        <ele>203.2</ele>
        <time>2022-05-07T12:07:36Z</time>
      </trkpt>
      <trkpt lat="46.71911" lon="5.44368">
        <ele>203.4</ele>
        <time>2022-05-07T12:07:37Z</time>
      </trkpt>
      <trkpt lat="46.71965" lon="5.44386">
        <ele>203.8</ele>
        <time>2022-05-07T12:07:46Z</time>
      </trkpt>
      <trkpt lat="46.71977" lon="5.4439">
        <ele>203.8</ele>
        <time>2022-05-07T12:07:48Z</time>
      </trkpt>
      <trkpt lat="46.72031" lon="5.44409">
        <ele>203.6</ele>
        <time>2022-05-07T12:07:57Z</time>
      </trkpt>
      <trkpt lat="46.72084" lon="5.44428">
        <ele>204.2</ele>
        <time>2022-05-07T12:08:06Z</time>
      </trkpt>
      <trkpt lat="46.7209" lon="5.4443">
        <ele>204.2</ele>
        <time>2022-05-07T12:08:07Z</time>
      </trkpt>
      <trkpt lat="46.7214" lon="5.44448">
        <ele>204.4</ele>
        <time>2022-05-07T12:08:15Z</time>
      </trkpt>
      <trkpt lat="46.72194" lon="5.44466">
        <ele>204</ele>
        <time>2022-05-07T12:08:24Z</time>
      </trkpt>
      <trkpt lat="46.72206" lon="5.4447">
        <ele>204.2</ele>
        <time>2022-05-07T12:08:26Z</time>
      </trkpt>
      <trkpt lat="46.72249" lon="5.44483">
        <ele>204.2</ele>
        <time>2022-05-07T12:08:33Z</time>
      </trkpt>
      <trkpt lat="46.72291" lon="5.44485">
        <ele>204.2</ele>
        <time>2022-05-07T12:08:40Z</time>
      </trkpt>
      <trkpt lat="46.72337" lon="5.44482">
        <ele>204.2</ele>
        <time>2022-05-07T12:08:48Z</time>
      </trkpt>
      <trkpt lat="46.72392" lon="5.44479">
        <ele>204.2</ele>
        <time>2022-05-07T12:08:57Z</time>
      </trkpt>
      <trkpt lat="46.72448" lon="5.44474">
        <ele>204.2</ele>
        <time>2022-05-07T12:09:06Z</time>
      </trkpt>
      <trkpt lat="46.72461" lon="5.44471">
        <ele>204.4</ele>
        <time>2022-05-07T12:09:08Z</time>
      </trkpt>
      <trkpt lat="46.72497" lon="5.44444">
        <ele>204.2</ele>
        <time>2022-05-07T12:09:14Z</time>
      </trkpt>
      <trkpt lat="46.72533" lon="5.44407">
        <ele>204</ele>
        <time>2022-05-07T12:09:21Z</time>
      </trkpt>
      <trkpt lat="46.72556" lon="5.44388">
        <ele>204</ele>
        <time>2022-05-07T12:09:25Z</time>
      </trkpt>
      <trkpt lat="46.72568" lon="5.44385">
        <ele>203.8</ele>
        <time>2022-05-07T12:09:27Z</time>
      </trkpt>
      <trkpt lat="46.7258" lon="5.44385">
        <ele>203.6</ele>
        <time>2022-05-07T12:09:29Z</time>
      </trkpt>
      <trkpt lat="46.72593" lon="5.44391">
        <ele>203.6</ele>
        <time>2022-05-07T12:09:31Z</time>
      </trkpt>
      <trkpt lat="46.72619" lon="5.44416">
        <ele>203.2</ele>
        <time>2022-05-07T12:09:36Z</time>
      </trkpt>
      <trkpt lat="46.72628" lon="5.44426">
        <ele>203</ele>
        <time>2022-05-07T12:09:38Z</time>
      </trkpt>
      <trkpt lat="46.72632" lon="5.44431">
        <ele>203</ele>
        <time>2022-05-07T12:09:39Z</time>
      </trkpt>
      <trkpt lat="46.72643" lon="5.4445">
        <ele>202.6</ele>
        <time>2022-05-07T12:09:42Z</time>
      </trkpt>
      <trkpt lat="46.72668" lon="5.44494">
        <ele>202.4</ele>
        <time>2022-05-07T12:09:49Z</time>
      </trkpt>
      <trkpt lat="46.72693" lon="5.44547">
        <ele>203.4</ele>
        <time>2022-05-07T12:09:57Z</time>
      </trkpt>
      <trkpt lat="46.72699" lon="5.4456">
        <ele>203.6</ele>
        <time>2022-05-07T12:09:59Z</time>
      </trkpt>
      <trkpt lat="46.72708" lon="5.4458">
        <ele>203.6</ele>
        <time>2022-05-07T12:10:02Z</time>
      </trkpt>
      <trkpt lat="46.72734" lon="5.44634">
        <ele>203.6</ele>
        <time>2022-05-07T12:10:10Z</time>
      </trkpt>
      <trkpt lat="46.72744" lon="5.44652">
        <ele>203.8</ele>
        <time>2022-05-07T12:10:13Z</time>
      </trkpt>
      <trkpt lat="46.72751" lon="5.44664">
        <ele>204</ele>
        <time>2022-05-07T12:10:15Z</time>
      </trkpt>
      <trkpt lat="46.72762" lon="5.44683">
        <ele>204.4</ele>
        <time>2022-05-07T12:10:18Z</time>
      </trkpt>
      <trkpt lat="46.72802" lon="5.44746">
        <ele>204.2</ele>
        <time>2022-05-07T12:10:29Z</time>
      </trkpt>
      <trkpt lat="46.72834" lon="5.44793">
        <ele>204</ele>
        <time>2022-05-07T12:10:37Z</time>
      </trkpt>
      <trkpt lat="46.72867" lon="5.44839">
        <ele>204.4</ele>
        <time>2022-05-07T12:10:45Z</time>
      </trkpt>
      <trkpt lat="46.72902" lon="5.44891">
        <ele>204.6</ele>
        <time>2022-05-07T12:10:54Z</time>
      </trkpt>
      <trkpt lat="46.72929" lon="5.44926">
        <ele>204.2</ele>
        <time>2022-05-07T12:11:00Z</time>
      </trkpt>
      <trkpt lat="46.72934" lon="5.4493">
        <ele>204.4</ele>
        <time>2022-05-07T12:11:01Z</time>
      </trkpt>
      <trkpt lat="46.72944" lon="5.44939">
        <ele>204.6</ele>
        <time>2022-05-07T12:11:03Z</time>
      </trkpt>
      <trkpt lat="46.72961" lon="5.44948">
        <ele>204.6</ele>
        <time>2022-05-07T12:11:06Z</time>
      </trkpt>
      <trkpt lat="46.73006" lon="5.44966">
        <ele>205</ele>
        <time>2022-05-07T12:11:14Z</time>
      </trkpt>
      <trkpt lat="46.73049" lon="5.44991">
        <ele>205.2</ele>
        <time>2022-05-07T12:11:22Z</time>
      </trkpt>
      <trkpt lat="46.73054" lon="5.44995">
        <ele>205.2</ele>
        <time>2022-05-07T12:11:23Z</time>
      </trkpt>
      <trkpt lat="46.7307" lon="5.4502">
        <ele>205</ele>
        <time>2022-05-07T12:11:27Z</time>
      </trkpt>
      <trkpt lat="46.73089" lon="5.45067">
        <ele>204</ele>
        <time>2022-05-07T12:11:34Z</time>
      </trkpt>
      <trkpt lat="46.7311" lon="5.45133">
        <ele>204.4</ele>
        <time>2022-05-07T12:11:44Z</time>
      </trkpt>
      <trkpt lat="46.73129" lon="5.45194">
        <ele>204.4</ele>
        <time>2022-05-07T12:11:53Z</time>
      </trkpt>
      <trkpt lat="46.73143" lon="5.4524">
        <ele>204</ele>
        <time>2022-05-07T12:12:00Z</time>
      </trkpt>
      <trkpt lat="46.73149" lon="5.4526">
        <ele>204</ele>
        <time>2022-05-07T12:12:03Z</time>
      </trkpt>
      <trkpt lat="46.73153" lon="5.45273">
        <ele>204</ele>
        <time>2022-05-07T12:12:05Z</time>
      </trkpt>
      <trkpt lat="46.73165" lon="5.45307">
        <ele>204.2</ele>
        <time>2022-05-07T12:12:10Z</time>
      </trkpt>
      <trkpt lat="46.73186" lon="5.45353">
        <ele>204.4</ele>
        <time>2022-05-07T12:12:17Z</time>
      </trkpt>
      <trkpt lat="46.73216" lon="5.45414">
        <ele>204.8</ele>
        <time>2022-05-07T12:12:27Z</time>
      </trkpt>
      <trkpt lat="46.73244" lon="5.45463">
        <ele>204.8</ele>
        <time>2022-05-07T12:12:35Z</time>
      </trkpt>
      <trkpt lat="46.73259" lon="5.45507">
        <ele>205.2</ele>
        <time>2022-05-07T12:12:41Z</time>
      </trkpt>
      <trkpt lat="46.7327" lon="5.45565">
        <ele>205</ele>
        <time>2022-05-07T12:12:48Z</time>
      </trkpt>
      <trkpt lat="46.73273" lon="5.4559">
        <ele>205.2</ele>
        <time>2022-05-07T12:12:51Z</time>
      </trkpt>
      <trkpt lat="46.73276" lon="5.45624">
        <ele>205.2</ele>
        <time>2022-05-07T12:12:55Z</time>
      </trkpt>
      <trkpt lat="46.73284" lon="5.45684">
        <ele>205.2</ele>
        <time>2022-05-07T12:13:02Z</time>
      </trkpt>
      <trkpt lat="46.73287" lon="5.45692">
        <ele>205.2</ele>
        <time>2022-05-07T12:13:03Z</time>
      </trkpt>
      <trkpt lat="46.73295" lon="5.45715">
        <ele>205.2</ele>
        <time>2022-05-07T12:13:06Z</time>
      </trkpt>
      <trkpt lat="46.73304" lon="5.45727">
        <ele>205.2</ele>
        <time>2022-05-07T12:13:08Z</time>
      </trkpt>
      <trkpt lat="46.73338" lon="5.45766">
        <ele>205</ele>
        <time>2022-05-07T12:13:16Z</time>
      </trkpt>
      <trkpt lat="46.73375" lon="5.45801">
        <ele>205.4</ele>
        <time>2022-05-07T12:13:24Z</time>
      </trkpt>
      <trkpt lat="46.73398" lon="5.45824">
        <ele>205.6</ele>
        <time>2022-05-07T12:13:29Z</time>
      </trkpt>
      <trkpt lat="46.73406" lon="5.45834">
        <ele>205.6</ele>
        <time>2022-05-07T12:13:31Z</time>
      </trkpt>
      <trkpt lat="46.73424" lon="5.45853">
        <ele>205.8</ele>
        <time>2022-05-07T12:13:35Z</time>
      </trkpt>
      <trkpt lat="46.73432" lon="5.45864">
        <ele>206</ele>
        <time>2022-05-07T12:13:37Z</time>
      </trkpt>
      <trkpt lat="46.73437" lon="5.45869">
        <ele>206.2</ele>
        <time>2022-05-07T12:13:38Z</time>
      </trkpt>
      <trkpt lat="46.73445" lon="5.45879">
        <ele>206.4</ele>
        <time>2022-05-07T12:13:40Z</time>
      </trkpt>
      <trkpt lat="46.73457" lon="5.45896">
        <ele>206.8</ele>
        <time>2022-05-07T12:13:43Z</time>
      </trkpt>
      <trkpt lat="46.73464" lon="5.45908">
        <ele>206.8</ele>
        <time>2022-05-07T12:13:45Z</time>
      </trkpt>
      <trkpt lat="46.73468" lon="5.45922">
        <ele>207</ele>
        <time>2022-05-07T12:13:47Z</time>
      </trkpt>
      <trkpt lat="46.7347" lon="5.45937">
        <ele>207</ele>
        <time>2022-05-07T12:13:49Z</time>
      </trkpt>
      <trkpt lat="46.73475" lon="5.4596">
        <ele>207</ele>
        <time>2022-05-07T12:13:52Z</time>
      </trkpt>
      <trkpt lat="46.73478" lon="5.45967">
        <ele>207</ele>
        <time>2022-05-07T12:13:53Z</time>
      </trkpt>
      <trkpt lat="46.73503" lon="5.4601">
        <ele>207.4</ele>
        <time>2022-05-07T12:14:00Z</time>
      </trkpt>
      <trkpt lat="46.73507" lon="5.46016">
        <ele>207.4</ele>
        <time>2022-05-07T12:14:01Z</time>
      </trkpt>
      <trkpt lat="46.73528" lon="5.46054">
        <ele>207.6</ele>
        <time>2022-05-07T12:14:07Z</time>
      </trkpt>
      <trkpt lat="46.73541" lon="5.4608">
        <ele>207.8</ele>
        <time>2022-05-07T12:14:11Z</time>
      </trkpt>
      <trkpt lat="46.73563" lon="5.46118">
        <ele>207.6</ele>
        <time>2022-05-07T12:14:17Z</time>
      </trkpt>
      <trkpt lat="46.73592" lon="5.46155">
        <ele>207.2</ele>
        <time>2022-05-07T12:14:24Z</time>
      </trkpt>
      <trkpt lat="46.73604" lon="5.46167">
        <ele>207.2</ele>
        <time>2022-05-07T12:14:27Z</time>
      </trkpt>
      <trkpt lat="46.73623" lon="5.46183">
        <ele>207.2</ele>
        <time>2022-05-07T12:14:31Z</time>
      </trkpt>
      <trkpt lat="46.73628" lon="5.46189">
        <ele>207.2</ele>
        <time>2022-05-07T12:14:32Z</time>
      </trkpt>
      <trkpt lat="46.73644" lon="5.46211">
        <ele>207.2</ele>
        <time>2022-05-07T12:14:36Z</time>
      </trkpt>
      <trkpt lat="46.73666" lon="5.46258">
        <ele>206.8</ele>
        <time>2022-05-07T12:14:43Z</time>
      </trkpt>
      <trkpt lat="46.73682" lon="5.46309">
        <ele>207</ele>
        <time>2022-05-07T12:14:50Z</time>
      </trkpt>
      <trkpt lat="46.7369" lon="5.46363">
        <ele>207.2</ele>
        <time>2022-05-07T12:14:57Z</time>
      </trkpt>
      <trkpt lat="46.73692" lon="5.46377">
        <ele>207.4</ele>
        <time>2022-05-07T12:14:59Z</time>
      </trkpt>
      <trkpt lat="46.73693" lon="5.46405">
        <ele>207.8</ele>
        <time>2022-05-07T12:15:03Z</time>
      </trkpt>
      <trkpt lat="46.7369" lon="5.46431">
        <ele>207.6</ele>
        <time>2022-05-07T12:15:08Z</time>
      </trkpt>
      <trkpt lat="46.7368" lon="5.46451">
        <ele>207.6</ele>
        <time>2022-05-07T12:15:11Z</time>
      </trkpt>
      <trkpt lat="46.73675" lon="5.4646">
        <ele>207.6</ele>
        <time>2022-05-07T12:15:12Z</time>
      </trkpt>
      <trkpt lat="46.73673" lon="5.46469">
        <ele>207.6</ele>
        <time>2022-05-07T12:15:13Z</time>
      </trkpt>
      <trkpt lat="46.73669" lon="5.46498">
        <ele>207.6</ele>
        <time>2022-05-07T12:15:16Z</time>
      </trkpt>
      <trkpt lat="46.73671" lon="5.46528">
        <ele>207.8</ele>
        <time>2022-05-07T12:15:19Z</time>
      </trkpt>
      <trkpt lat="46.73675" lon="5.46548">
        <ele>208.4</ele>
        <time>2022-05-07T12:15:21Z</time>
      </trkpt>
      <trkpt lat="46.73683" lon="5.46604">
        <ele>208.6</ele>
        <time>2022-05-07T12:15:27Z</time>
      </trkpt>
      <trkpt lat="46.73683" lon="5.46612">
        <ele>208.6</ele>
        <time>2022-05-07T12:15:28Z</time>
      </trkpt>
      <trkpt lat="46.73686" lon="5.46672">
        <ele>208.4</ele>
        <time>2022-05-07T12:15:34Z</time>
      </trkpt>
      <trkpt lat="46.73686" lon="5.46679">
        <ele>208.4</ele>
        <time>2022-05-07T12:15:35Z</time>
      </trkpt>
      <trkpt lat="46.73685" lon="5.46698">
        <ele>208.6</ele>
        <time>2022-05-07T12:15:37Z</time>
      </trkpt>
      <trkpt lat="46.73685" lon="5.46737">
        <ele>208.6</ele>
        <time>2022-05-07T12:15:41Z</time>
      </trkpt>
      <trkpt lat="46.73685" lon="5.46747">
        <ele>208.6</ele>
        <time>2022-05-07T12:15:42Z</time>
      </trkpt>
      <trkpt lat="46.73686" lon="5.46795">
        <ele>208.8</ele>
        <time>2022-05-07T12:15:47Z</time>
      </trkpt>
      <trkpt lat="46.73686" lon="5.46825">
        <ele>209</ele>
        <time>2022-05-07T12:15:50Z</time>
      </trkpt>
      <trkpt lat="46.73686" lon="5.46852">
        <ele>209.2</ele>
        <time>2022-05-07T12:15:53Z</time>
      </trkpt>
      <trkpt lat="46.73687" lon="5.46896">
        <ele>209.6</ele>
        <time>2022-05-07T12:15:58Z</time>
      </trkpt>
      <trkpt lat="46.73688" lon="5.46914">
        <ele>209.8</ele>
        <time>2022-05-07T12:16:00Z</time>
      </trkpt>
      <trkpt lat="46.73685" lon="5.46951">
        <ele>210.4</ele>
        <time>2022-05-07T12:16:04Z</time>
      </trkpt>
      <trkpt lat="46.73687" lon="5.46959">
        <ele>210.4</ele>
        <time>2022-05-07T12:16:05Z</time>
      </trkpt>
      <trkpt lat="46.73691" lon="5.46978">
        <ele>210.8</ele>
        <time>2022-05-07T12:16:07Z</time>
      </trkpt>
      <trkpt lat="46.73693" lon="5.47005">
        <ele>210.8</ele>
        <time>2022-05-07T12:16:10Z</time>
      </trkpt>
      <trkpt lat="46.73694" lon="5.47014">
        <ele>211</ele>
        <time>2022-05-07T12:16:11Z</time>
      </trkpt>
      <trkpt lat="46.73704" lon="5.4706">
        <ele>211.2</ele>
        <time>2022-05-07T12:16:16Z</time>
      </trkpt>
      <trkpt lat="46.73719" lon="5.47125">
        <ele>211.6</ele>
        <time>2022-05-07T12:16:23Z</time>
      </trkpt>
      <trkpt lat="46.7373" lon="5.4719">
        <ele>211.6</ele>
        <time>2022-05-07T12:16:30Z</time>
      </trkpt>
      <trkpt lat="46.7374" lon="5.47269">
        <ele>211.2</ele>
        <time>2022-05-07T12:16:39Z</time>
      </trkpt>
      <trkpt lat="46.73749" lon="5.47328">
        <ele>211.6</ele>
        <time>2022-05-07T12:16:46Z</time>
      </trkpt>
      <trkpt lat="46.73751" lon="5.47345">
        <ele>211.8</ele>
        <time>2022-05-07T12:16:48Z</time>
      </trkpt>
      <trkpt lat="46.73761" lon="5.47409">
        <ele>212.4</ele>
        <time>2022-05-07T12:16:55Z</time>
      </trkpt>
      <trkpt lat="46.7377" lon="5.47482">
        <ele>212.4</ele>
        <time>2022-05-07T12:17:03Z</time>
      </trkpt>
      <trkpt lat="46.73779" lon="5.47564">
        <ele>212.8</ele>
        <time>2022-05-07T12:17:12Z</time>
      </trkpt>
      <trkpt lat="46.7378" lon="5.47573">
        <ele>212.8</ele>
        <time>2022-05-07T12:17:13Z</time>
      </trkpt>
      <trkpt lat="46.73789" lon="5.47655">
        <ele>213</ele>
        <time>2022-05-07T12:17:22Z</time>
      </trkpt>
      <trkpt lat="46.73791" lon="5.47673">
        <ele>212.8</ele>
        <time>2022-05-07T12:17:24Z</time>
      </trkpt>
      <trkpt lat="46.73799" lon="5.47756">
        <ele>212.8</ele>
        <time>2022-05-07T12:17:33Z</time>
      </trkpt>
      <trkpt lat="46.73808" lon="5.47838">
        <ele>212.8</ele>
        <time>2022-05-07T12:17:43Z</time>
      </trkpt>
      <trkpt lat="46.73809" lon="5.47847">
        <ele>212.8</ele>
        <time>2022-05-07T12:17:44Z</time>
      </trkpt>
      <trkpt lat="46.73821" lon="5.47918">
        <ele>212.6</ele>
        <time>2022-05-07T12:17:52Z</time>
      </trkpt>
      <trkpt lat="46.73841" lon="5.4799">
        <ele>212.6</ele>
        <time>2022-05-07T12:18:01Z</time>
      </trkpt>
      <trkpt lat="46.73868" lon="5.48047">
        <ele>212.6</ele>
        <time>2022-05-07T12:18:09Z</time>
      </trkpt>
      <trkpt lat="46.73892" lon="5.48098">
        <ele>213.2</ele>
        <time>2022-05-07T12:18:16Z</time>
      </trkpt>
      <trkpt lat="46.73895" lon="5.48105">
        <ele>213.2</ele>
        <time>2022-05-07T12:18:17Z</time>
      </trkpt>
      <trkpt lat="46.7392" lon="5.48158">
        <ele>213.4</ele>
        <time>2022-05-07T12:18:24Z</time>
      </trkpt>
      <trkpt lat="46.73933" lon="5.48199">
        <ele>213.2</ele>
        <time>2022-05-07T12:18:29Z</time>
      </trkpt>
      <trkpt lat="46.7394" lon="5.48223">
        <ele>213.2</ele>
        <time>2022-05-07T12:18:32Z</time>
      </trkpt>
      <trkpt lat="46.73958" lon="5.48261">
        <ele>213.2</ele>
        <time>2022-05-07T12:18:37Z</time>
      </trkpt>
      <trkpt lat="46.73966" lon="5.48274">
        <ele>213.2</ele>
        <time>2022-05-07T12:18:39Z</time>
      </trkpt>
      <trkpt lat="46.73985" lon="5.48296">
        <ele>213.4</ele>
        <time>2022-05-07T12:18:43Z</time>
      </trkpt>
      <trkpt lat="46.74026" lon="5.48333">
        <ele>213.8</ele>
        <time>2022-05-07T12:18:51Z</time>
      </trkpt>
      <trkpt lat="46.74059" lon="5.48376">
        <ele>213.8</ele>
        <time>2022-05-07T12:18:58Z</time>
      </trkpt>
      <trkpt lat="46.74064" lon="5.48384">
        <ele>213.8</ele>
        <time>2022-05-07T12:18:59Z</time>
      </trkpt>
      <trkpt lat="46.74092" lon="5.48429">
        <ele>213.6</ele>
        <time>2022-05-07T12:19:06Z</time>
      </trkpt>
      <trkpt lat="46.74115" lon="5.48465">
        <ele>213.2</ele>
        <time>2022-05-07T12:19:12Z</time>
      </trkpt>
      <trkpt lat="46.74126" lon="5.48482">
        <ele>213.6</ele>
        <time>2022-05-07T12:19:16Z</time>
      </trkpt>
      <trkpt lat="46.74133" lon="5.48486">
        <ele>213.8</ele>
        <time>2022-05-07T12:19:18Z</time>
      </trkpt>
      <trkpt lat="46.74144" lon="5.48485">
        <ele>214</ele>
        <time>2022-05-07T12:19:20Z</time>
      </trkpt>
      <trkpt lat="46.74149" lon="5.48485">
        <ele>214</ele>
        <time>2022-05-07T12:19:21Z</time>
      </trkpt>
      <trkpt lat="46.74161" lon="5.48487">
        <ele>214</ele>
        <time>2022-05-07T12:19:23Z</time>
      </trkpt>
      <trkpt lat="46.74166" lon="5.48489">
        <ele>214.2</ele>
        <time>2022-05-07T12:19:24Z</time>
      </trkpt>
      <trkpt lat="46.74176" lon="5.48498">
        <ele>214.2</ele>
        <time>2022-05-07T12:19:26Z</time>
      </trkpt>
      <trkpt lat="46.74184" lon="5.48513">
        <ele>214</ele>
        <time>2022-05-07T12:19:28Z</time>
      </trkpt>
      <trkpt lat="46.74199" lon="5.48567">
        <ele>214</ele>
        <time>2022-05-07T12:19:34Z</time>
      </trkpt>
      <trkpt lat="46.74209" lon="5.48614">
        <ele>214.2</ele>
        <time>2022-05-07T12:19:39Z</time>
      </trkpt>
      <trkpt lat="46.7421" lon="5.48632">
        <ele>214.2</ele>
        <time>2022-05-07T12:19:41Z</time>
      </trkpt>
      <trkpt lat="46.74213" lon="5.48707">
        <ele>214.4</ele>
        <time>2022-05-07T12:19:49Z</time>
      </trkpt>
      <trkpt lat="46.74213" lon="5.48716">
        <ele>214.6</ele>
        <time>2022-05-07T12:19:50Z</time>
      </trkpt>
      <trkpt lat="46.74222" lon="5.48779">
        <ele>214.8</ele>
        <time>2022-05-07T12:19:57Z</time>
      </trkpt>
      <trkpt lat="46.74236" lon="5.48829">
        <ele>214.2</ele>
        <time>2022-05-07T12:20:03Z</time>
      </trkpt>
      <trkpt lat="46.74259" lon="5.48894">
        <ele>214.2</ele>
        <time>2022-05-07T12:20:11Z</time>
      </trkpt>
      <trkpt lat="46.74288" lon="5.4896">
        <ele>214.8</ele>
        <time>2022-05-07T12:20:20Z</time>
      </trkpt>
      <trkpt lat="46.74313" lon="5.49">
        <ele>215.2</ele>
        <time>2022-05-07T12:20:26Z</time>
      </trkpt>
      <trkpt lat="46.74335" lon="5.49043">
        <ele>215</ele>
        <time>2022-05-07T12:20:32Z</time>
      </trkpt>
      <trkpt lat="46.74338" lon="5.49052">
        <ele>214.8</ele>
        <time>2022-05-07T12:20:33Z</time>
      </trkpt>
      <trkpt lat="46.7436" lon="5.49115">
        <ele>214.6</ele>
        <time>2022-05-07T12:20:41Z</time>
      </trkpt>
      <trkpt lat="46.74378" lon="5.49162">
        <ele>214.8</ele>
        <time>2022-05-07T12:20:47Z</time>
      </trkpt>
      <trkpt lat="46.744" lon="5.4922">
        <ele>215</ele>
        <time>2022-05-07T12:20:55Z</time>
      </trkpt>
      <trkpt lat="46.74405" lon="5.49232">
        <ele>215.2</ele>
        <time>2022-05-07T12:20:57Z</time>
      </trkpt>
      <trkpt lat="46.74412" lon="5.49245">
        <ele>215.4</ele>
        <time>2022-05-07T12:21:00Z</time>
      </trkpt>
      <trkpt lat="46.74414" lon="5.49247">
        <ele>215.4</ele>
        <time>2022-05-07T12:21:01Z</time>
      </trkpt>
      <trkpt lat="46.74417" lon="5.49246">
        <ele>215.4</ele>
        <time>2022-05-07T12:21:02Z</time>
      </trkpt>
      <trkpt lat="46.74419" lon="5.49244">
        <ele>215.6</ele>
        <time>2022-05-07T12:21:03Z</time>
      </trkpt>
      <trkpt lat="46.74421" lon="5.49243">
        <ele>215.8</ele>
        <time>2022-05-07T12:21:04Z</time>
      </trkpt>
      <trkpt lat="46.74422" lon="5.49241">
        <ele>216</ele>
        <time>2022-05-07T12:21:07Z</time>
      </trkpt>
      <trkpt lat="46.74422" lon="5.49241">
        <ele>216.2</ele>
        <time>2022-05-07T12:21:08Z</time>
      </trkpt>
      <trkpt lat="46.74419" lon="5.49244">
        <ele>215.8</ele>
        <time>2022-05-07T12:23:01Z</time>
      </trkpt>
      <trkpt lat="46.74417" lon="5.49248">
        <ele>215.8</ele>
        <time>2022-05-07T12:23:03Z</time>
      </trkpt>
      <trkpt lat="46.74416" lon="5.49255">
        <ele>216</ele>
        <time>2022-05-07T12:23:05Z</time>
      </trkpt>
      <trkpt lat="46.74416" lon="5.49259">
        <ele>215.8</ele>
        <time>2022-05-07T12:23:06Z</time>
      </trkpt>
      <trkpt lat="46.74421" lon="5.4929">
        <ele>215.8</ele>
        <time>2022-05-07T12:23:11Z</time>
      </trkpt>
      <trkpt lat="46.74421" lon="5.49296">
        <ele>216</ele>
        <time>2022-05-07T12:23:12Z</time>
      </trkpt>
      <trkpt lat="46.74419" lon="5.49316">
        <ele>216</ele>
        <time>2022-05-07T12:23:15Z</time>
      </trkpt>
      <trkpt lat="46.74412" lon="5.4937">
        <ele>216.4</ele>
        <time>2022-05-07T12:23:22Z</time>
      </trkpt>
      <trkpt lat="46.74411" lon="5.49378">
        <ele>216.4</ele>
        <time>2022-05-07T12:23:23Z</time>
      </trkpt>
      <trkpt lat="46.74412" lon="5.49393">
        <ele>216.4</ele>
        <time>2022-05-07T12:23:25Z</time>
      </trkpt>
      <trkpt lat="46.74414" lon="5.49408">
        <ele>216.6</ele>
        <time>2022-05-07T12:23:27Z</time>
      </trkpt>
      <trkpt lat="46.74416" lon="5.49415">
        <ele>216.6</ele>
        <time>2022-05-07T12:23:28Z</time>
      </trkpt>
      <trkpt lat="46.74422" lon="5.49435">
        <ele>216.6</ele>
        <time>2022-05-07T12:23:31Z</time>
      </trkpt>
      <trkpt lat="46.74425" lon="5.49441">
        <ele>216.6</ele>
        <time>2022-05-07T12:23:32Z</time>
      </trkpt>
      <trkpt lat="46.74428" lon="5.49446">
        <ele>216.6</ele>
        <time>2022-05-07T12:23:33Z</time>
      </trkpt>
      <trkpt lat="46.74452" lon="5.49485">
        <ele>216.8</ele>
        <time>2022-05-07T12:23:40Z</time>
      </trkpt>
      <trkpt lat="46.74472" lon="5.49518">
        <ele>216.4</ele>
        <time>2022-05-07T12:23:46Z</time>
      </trkpt>
      <trkpt lat="46.74474" lon="5.49522">
        <ele>216.4</ele>
        <time>2022-05-07T12:23:47Z</time>
      </trkpt>
      <trkpt lat="46.74477" lon="5.49541">
        <ele>216.8</ele>
        <time>2022-05-07T12:23:51Z</time>
      </trkpt>
      <trkpt lat="46.74476" lon="5.49547">
        <ele>217</ele>
        <time>2022-05-07T12:23:52Z</time>
      </trkpt>
      <trkpt lat="46.7447" lon="5.49574">
        <ele>217.6</ele>
        <time>2022-05-07T12:23:56Z</time>
      </trkpt>
      <trkpt lat="46.74467" lon="5.49582">
        <ele>217.8</ele>
        <time>2022-05-07T12:23:57Z</time>
      </trkpt>
      <trkpt lat="46.74454" lon="5.49624">
        <ele>218</ele>
        <time>2022-05-07T12:24:03Z</time>
      </trkpt>
      <trkpt lat="46.74451" lon="5.49631">
        <ele>218</ele>
        <time>2022-05-07T12:24:04Z</time>
      </trkpt>
      <trkpt lat="46.74444" lon="5.49643">
        <ele>218</ele>
        <time>2022-05-07T12:24:06Z</time>
      </trkpt>
      <trkpt lat="46.74435" lon="5.49653">
        <ele>218</ele>
        <time>2022-05-07T12:24:08Z</time>
      </trkpt>
      <trkpt lat="46.74404" lon="5.49678">
        <ele>217.8</ele>
        <time>2022-05-07T12:24:14Z</time>
      </trkpt>
      <trkpt lat="46.74399" lon="5.4968">
        <ele>217.8</ele>
        <time>2022-05-07T12:24:15Z</time>
      </trkpt>
      <trkpt lat="46.74362" lon="5.49691">
        <ele>218</ele>
        <time>2022-05-07T12:24:21Z</time>
      </trkpt>
      <trkpt lat="46.74337" lon="5.49697">
        <ele>218.4</ele>
        <time>2022-05-07T12:24:25Z</time>
      </trkpt>
      <trkpt lat="46.74323" lon="5.49699">
        <ele>218.2</ele>
        <time>2022-05-07T12:24:27Z</time>
      </trkpt>
      <trkpt lat="46.74316" lon="5.497">
        <ele>218.2</ele>
        <time>2022-05-07T12:24:28Z</time>
      </trkpt>
      <trkpt lat="46.74284" lon="5.497">
        <ele>218</ele>
        <time>2022-05-07T12:24:32Z</time>
      </trkpt>
      <trkpt lat="46.74232" lon="5.49704">
        <ele>217.8</ele>
        <time>2022-05-07T12:24:39Z</time>
      </trkpt>
      <trkpt lat="46.74203" lon="5.49711">
        <ele>217.4</ele>
        <time>2022-05-07T12:24:43Z</time>
      </trkpt>
      <trkpt lat="46.74189" lon="5.49721">
        <ele>217.4</ele>
        <time>2022-05-07T12:24:45Z</time>
      </trkpt>
      <trkpt lat="46.74152" lon="5.49759">
        <ele>217.4</ele>
        <time>2022-05-07T12:24:51Z</time>
      </trkpt>
      <trkpt lat="46.74115" lon="5.49815">
        <ele>217</ele>
        <time>2022-05-07T12:24:58Z</time>
      </trkpt>
      <trkpt lat="46.74081" lon="5.49874">
        <ele>217</ele>
        <time>2022-05-07T12:25:05Z</time>
      </trkpt>
      <trkpt lat="46.74067" lon="5.49898">
        <ele>217</ele>
        <time>2022-05-07T12:25:08Z</time>
      </trkpt>
      <trkpt lat="46.74062" lon="5.49904">
        <ele>217</ele>
        <time>2022-05-07T12:25:09Z</time>
      </trkpt>
      <trkpt lat="46.74049" lon="5.49914">
        <ele>217</ele>
        <time>2022-05-07T12:25:11Z</time>
      </trkpt>
      <trkpt lat="46.74015" lon="5.49933">
        <ele>217.2</ele>
        <time>2022-05-07T12:25:16Z</time>
      </trkpt>
      <trkpt lat="46.73976" lon="5.49963">
        <ele>217.2</ele>
        <time>2022-05-07T12:25:22Z</time>
      </trkpt>
      <trkpt lat="46.73923" lon="5.50007">
        <ele>218.2</ele>
        <time>2022-05-07T12:25:30Z</time>
      </trkpt>
      <trkpt lat="46.73871" lon="5.50048">
        <ele>218.6</ele>
        <time>2022-05-07T12:25:38Z</time>
      </trkpt>
      <trkpt lat="46.73865" lon="5.50053">
        <ele>218.6</ele>
        <time>2022-05-07T12:25:39Z</time>
      </trkpt>
      <trkpt lat="46.73845" lon="5.50069">
        <ele>218.8</ele>
        <time>2022-05-07T12:25:42Z</time>
      </trkpt>
      <trkpt lat="46.73809" lon="5.50103">
        <ele>218.8</ele>
        <time>2022-05-07T12:25:48Z</time>
      </trkpt>
      <trkpt lat="46.73803" lon="5.50108">
        <ele>218.8</ele>
        <time>2022-05-07T12:25:49Z</time>
      </trkpt>
      <trkpt lat="46.73779" lon="5.50127">
        <ele>219</ele>
        <time>2022-05-07T12:25:53Z</time>
      </trkpt>
      <trkpt lat="46.73731" lon="5.50162">
        <ele>219</ele>
        <time>2022-05-07T12:26:00Z</time>
      </trkpt>
      <trkpt lat="46.73672" lon="5.50189">
        <ele>218.8</ele>
        <time>2022-05-07T12:26:08Z</time>
      </trkpt>
      <trkpt lat="46.73614" lon="5.50215">
        <ele>218.8</ele>
        <time>2022-05-07T12:26:16Z</time>
      </trkpt>
      <trkpt lat="46.73599" lon="5.50222">
        <ele>218.8</ele>
        <time>2022-05-07T12:26:18Z</time>
      </trkpt>
      <trkpt lat="46.73551" lon="5.50244">
        <ele>219.2</ele>
        <time>2022-05-07T12:26:25Z</time>
      </trkpt>
      <trkpt lat="46.73504" lon="5.50266">
        <ele>219.8</ele>
        <time>2022-05-07T12:26:32Z</time>
      </trkpt>
      <trkpt lat="46.73492" lon="5.50272">
        <ele>219.8</ele>
        <time>2022-05-07T12:26:34Z</time>
      </trkpt>
      <trkpt lat="46.73461" lon="5.50286">
        <ele>220.8</ele>
        <time>2022-05-07T12:26:39Z</time>
      </trkpt>
      <trkpt lat="46.73455" lon="5.50288">
        <ele>221</ele>
        <time>2022-05-07T12:26:40Z</time>
      </trkpt>
      <trkpt lat="46.73427" lon="5.50298">
        <ele>221.8</ele>
        <time>2022-05-07T12:26:45Z</time>
      </trkpt>
      <trkpt lat="46.73417" lon="5.503">
        <ele>222.4</ele>
        <time>2022-05-07T12:26:47Z</time>
      </trkpt>
      <trkpt lat="46.73396" lon="5.50303">
        <ele>223.8</ele>
        <time>2022-05-07T12:26:51Z</time>
      </trkpt>
      <trkpt lat="46.73391" lon="5.50304">
        <ele>224.2</ele>
        <time>2022-05-07T12:26:52Z</time>
      </trkpt>
      <trkpt lat="46.73381" lon="5.50304">
        <ele>225.2</ele>
        <time>2022-05-07T12:26:54Z</time>
      </trkpt>
      <trkpt lat="46.73362" lon="5.50306">
        <ele>226.4</ele>
        <time>2022-05-07T12:26:58Z</time>
      </trkpt>
      <trkpt lat="46.73348" lon="5.50308">
        <ele>227</ele>
        <time>2022-05-07T12:27:01Z</time>
      </trkpt>
      <trkpt lat="46.73338" lon="5.5031">
        <ele>227.6</ele>
        <time>2022-05-07T12:27:03Z</time>
      </trkpt>
      <trkpt lat="46.73319" lon="5.50313">
        <ele>228.6</ele>
        <time>2022-05-07T12:27:07Z</time>
      </trkpt>
      <trkpt lat="46.73305" lon="5.50317">
        <ele>229.4</ele>
        <time>2022-05-07T12:27:10Z</time>
      </trkpt>
      <trkpt lat="46.733" lon="5.50318">
        <ele>229.4</ele>
        <time>2022-05-07T12:27:11Z</time>
      </trkpt>
      <trkpt lat="46.73282" lon="5.50324">
        <ele>231</ele>
        <time>2022-05-07T12:27:15Z</time>
      </trkpt>
      <trkpt lat="46.73264" lon="5.50331">
        <ele>232</ele>
        <time>2022-05-07T12:27:19Z</time>
      </trkpt>
      <trkpt lat="46.73259" lon="5.50333">
        <ele>232.2</ele>
        <time>2022-05-07T12:27:20Z</time>
      </trkpt>
      <trkpt lat="46.73233" lon="5.5035">
        <ele>233.8</ele>
        <time>2022-05-07T12:27:26Z</time>
      </trkpt>
      <trkpt lat="46.73224" lon="5.50357">
        <ele>234.2</ele>
        <time>2022-05-07T12:27:28Z</time>
      </trkpt>
      <trkpt lat="46.73215" lon="5.50363">
        <ele>234.8</ele>
        <time>2022-05-07T12:27:30Z</time>
      </trkpt>
      <trkpt lat="46.73178" lon="5.50391">
        <ele>235.8</ele>
        <time>2022-05-07T12:27:38Z</time>
      </trkpt>
      <trkpt lat="46.73124" lon="5.5043">
        <ele>236.4</ele>
        <time>2022-05-07T12:27:48Z</time>
      </trkpt>
      <trkpt lat="46.73072" lon="5.50469">
        <ele>236.6</ele>
        <time>2022-05-07T12:27:57Z</time>
      </trkpt>
      <trkpt lat="46.73049" lon="5.50487">
        <ele>236.6</ele>
        <time>2022-05-07T12:28:01Z</time>
      </trkpt>
      <trkpt lat="46.73043" lon="5.50491">
        <ele>236.6</ele>
        <time>2022-05-07T12:28:02Z</time>
      </trkpt>
      <trkpt lat="46.73015" lon="5.50512">
        <ele>236.8</ele>
        <time>2022-05-07T12:28:07Z</time>
      </trkpt>
      <trkpt lat="46.73003" lon="5.50519">
        <ele>237</ele>
        <time>2022-05-07T12:28:09Z</time>
      </trkpt>
      <trkpt lat="46.72993" lon="5.50528">
        <ele>237</ele>
        <time>2022-05-07T12:28:11Z</time>
      </trkpt>
      <trkpt lat="46.72989" lon="5.50535">
        <ele>237</ele>
        <time>2022-05-07T12:28:12Z</time>
      </trkpt>
      <trkpt lat="46.72983" lon="5.50562">
        <ele>237.2</ele>
        <time>2022-05-07T12:28:15Z</time>
      </trkpt>
      <trkpt lat="46.73001" lon="5.50602">
        <ele>236.8</ele>
        <time>2022-05-07T12:28:19Z</time>
      </trkpt>
      <trkpt lat="46.73012" lon="5.50623">
        <ele>235.4</ele>
        <time>2022-05-07T12:28:21Z</time>
      </trkpt>
      <trkpt lat="46.73023" lon="5.50645">
        <ele>234</ele>
        <time>2022-05-07T12:28:23Z</time>
      </trkpt>
      <trkpt lat="46.73033" lon="5.50671">
        <ele>233.2</ele>
        <time>2022-05-07T12:28:25Z</time>
      </trkpt>
      <trkpt lat="46.73036" lon="5.50681">
        <ele>232.8</ele>
        <time>2022-05-07T12:28:26Z</time>
      </trkpt>
      <trkpt lat="46.73045" lon="5.50705">
        <ele>231.8</ele>
        <time>2022-05-07T12:28:28Z</time>
      </trkpt>
      <trkpt lat="46.73048" lon="5.50718">
        <ele>231.6</ele>
        <time>2022-05-07T12:28:29Z</time>
      </trkpt>
      <trkpt lat="46.7305" lon="5.5073">
        <ele>231.2</ele>
        <time>2022-05-07T12:28:30Z</time>
      </trkpt>
      <trkpt lat="46.7305" lon="5.50743">
        <ele>231</ele>
        <time>2022-05-07T12:28:31Z</time>
      </trkpt>
      <trkpt lat="46.7305" lon="5.50755">
        <ele>230.6</ele>
        <time>2022-05-07T12:28:32Z</time>
      </trkpt>
      <trkpt lat="46.7305" lon="5.50767">
        <ele>230.4</ele>
        <time>2022-05-07T12:28:33Z</time>
      </trkpt>
      <trkpt lat="46.73055" lon="5.50807">
        <ele>230</ele>
        <time>2022-05-07T12:28:37Z</time>
      </trkpt>
      <trkpt lat="46.73051" lon="5.50829">
        <ele>230</ele>
        <time>2022-05-07T12:28:39Z</time>
      </trkpt>
      <trkpt lat="46.73056" lon="5.50849">
        <ele>230</ele>
        <time>2022-05-07T12:28:41Z</time>
      </trkpt>
      <trkpt lat="46.73058" lon="5.50857">
        <ele>230.2</ele>
        <time>2022-05-07T12:28:42Z</time>
      </trkpt>
      <trkpt lat="46.73073" lon="5.50892">
        <ele>231.2</ele>
        <time>2022-05-07T12:28:47Z</time>
      </trkpt>
      <trkpt lat="46.73075" lon="5.50899">
        <ele>231.6</ele>
        <time>2022-05-07T12:28:48Z</time>
      </trkpt>
      <trkpt lat="46.73076" lon="5.50906">
        <ele>232.2</ele>
        <time>2022-05-07T12:28:49Z</time>
      </trkpt>
      <trkpt lat="46.73079" lon="5.50929">
        <ele>232.8</ele>
        <time>2022-05-07T12:28:52Z</time>
      </trkpt>
      <trkpt lat="46.73081" lon="5.50959">
        <ele>234</ele>
        <time>2022-05-07T12:28:56Z</time>
      </trkpt>
      <trkpt lat="46.73081" lon="5.50972">
        <ele>234.2</ele>
        <time>2022-05-07T12:28:58Z</time>
      </trkpt>
      <trkpt lat="46.73085" lon="5.51015">
        <ele>235.2</ele>
        <time>2022-05-07T12:29:04Z</time>
      </trkpt>
      <trkpt lat="46.73087" lon="5.51036">
        <ele>235.8</ele>
        <time>2022-05-07T12:29:07Z</time>
      </trkpt>
      <trkpt lat="46.7309" lon="5.51056">
        <ele>236.2</ele>
        <time>2022-05-07T12:29:10Z</time>
      </trkpt>
      <trkpt lat="46.73094" lon="5.51081">
        <ele>237</ele>
        <time>2022-05-07T12:29:14Z</time>
      </trkpt>
      <trkpt lat="46.73097" lon="5.51093">
        <ele>237.4</ele>
        <time>2022-05-07T12:29:16Z</time>
      </trkpt>
      <trkpt lat="46.73099" lon="5.51114">
        <ele>238.8</ele>
        <time>2022-05-07T12:29:19Z</time>
      </trkpt>
      <trkpt lat="46.73102" lon="5.51134">
        <ele>239.4</ele>
        <time>2022-05-07T12:29:22Z</time>
      </trkpt>
      <trkpt lat="46.73105" lon="5.51148">
        <ele>240</ele>
        <time>2022-05-07T12:29:24Z</time>
      </trkpt>
      <trkpt lat="46.73116" lon="5.5119">
        <ele>240.8</ele>
        <time>2022-05-07T12:29:30Z</time>
      </trkpt>
      <trkpt lat="46.73131" lon="5.51241">
        <ele>241.2</ele>
        <time>2022-05-07T12:29:38Z</time>
      </trkpt>
      <trkpt lat="46.73138" lon="5.51267">
        <ele>242.2</ele>
        <time>2022-05-07T12:29:42Z</time>
      </trkpt>
      <trkpt lat="46.73141" lon="5.51281">
        <ele>242.4</ele>
        <time>2022-05-07T12:29:44Z</time>
      </trkpt>
      <trkpt lat="46.73144" lon="5.51295">
        <ele>242.4</ele>
        <time>2022-05-07T12:29:46Z</time>
      </trkpt>
      <trkpt lat="46.73145" lon="5.51302">
        <ele>242.4</ele>
        <time>2022-05-07T12:29:47Z</time>
      </trkpt>
      <trkpt lat="46.73154" lon="5.51342">
        <ele>242.6</ele>
        <time>2022-05-07T12:29:53Z</time>
      </trkpt>
      <trkpt lat="46.73166" lon="5.51382">
        <ele>243.4</ele>
        <time>2022-05-07T12:29:59Z</time>
      </trkpt>
      <trkpt lat="46.73178" lon="5.51416">
        <ele>243.8</ele>
        <time>2022-05-07T12:30:04Z</time>
      </trkpt>
      <trkpt lat="46.73195" lon="5.51466">
        <ele>244</ele>
        <time>2022-05-07T12:30:11Z</time>
      </trkpt>
      <trkpt lat="46.73208" lon="5.51505">
        <ele>244.4</ele>
        <time>2022-05-07T12:30:16Z</time>
      </trkpt>
      <trkpt lat="46.73216" lon="5.51537">
        <ele>244.8</ele>
        <time>2022-05-07T12:30:20Z</time>
      </trkpt>
      <trkpt lat="46.73228" lon="5.51619">
        <ele>244.6</ele>
        <time>2022-05-07T12:30:29Z</time>
      </trkpt>
      <trkpt lat="46.73236" lon="5.51682">
        <ele>244.4</ele>
        <time>2022-05-07T12:30:36Z</time>
      </trkpt>
      <trkpt lat="46.73246" lon="5.51746">
        <ele>243.4</ele>
        <time>2022-05-07T12:30:43Z</time>
      </trkpt>
      <trkpt lat="46.73258" lon="5.51818">
        <ele>242.4</ele>
        <time>2022-05-07T12:30:50Z</time>
      </trkpt>
      <trkpt lat="46.73261" lon="5.51827">
        <ele>242.2</ele>
        <time>2022-05-07T12:30:51Z</time>
      </trkpt>
      <trkpt lat="46.73272" lon="5.51852">
        <ele>242</ele>
        <time>2022-05-07T12:30:54Z</time>
      </trkpt>
      <trkpt lat="46.73294" lon="5.51895">
        <ele>241.4</ele>
        <time>2022-05-07T12:30:59Z</time>
      </trkpt>
      <trkpt lat="46.73297" lon="5.51905">
        <ele>241.4</ele>
        <time>2022-05-07T12:31:00Z</time>
      </trkpt>
      <trkpt lat="46.733" lon="5.51917">
        <ele>241.4</ele>
        <time>2022-05-07T12:31:01Z</time>
      </trkpt>
      <trkpt lat="46.73312" lon="5.51976">
        <ele>241</ele>
        <time>2022-05-07T12:31:07Z</time>
      </trkpt>
      <trkpt lat="46.73326" lon="5.52039">
        <ele>241.2</ele>
        <time>2022-05-07T12:31:14Z</time>
      </trkpt>
      <trkpt lat="46.73331" lon="5.52063">
        <ele>241.6</ele>
        <time>2022-05-07T12:31:17Z</time>
      </trkpt>
      <trkpt lat="46.73334" lon="5.52079">
        <ele>242.2</ele>
        <time>2022-05-07T12:31:19Z</time>
      </trkpt>
      <trkpt lat="46.73334" lon="5.52085">
        <ele>242.4</ele>
        <time>2022-05-07T12:31:20Z</time>
      </trkpt>
      <trkpt lat="46.73336" lon="5.5211">
        <ele>243.4</ele>
        <time>2022-05-07T12:31:23Z</time>
      </trkpt>
      <trkpt lat="46.73335" lon="5.52132">
        <ele>244</ele>
        <time>2022-05-07T12:31:26Z</time>
      </trkpt>
      <trkpt lat="46.73333" lon="5.52155">
        <ele>244.4</ele>
        <time>2022-05-07T12:31:29Z</time>
      </trkpt>
      <trkpt lat="46.73333" lon="5.52163">
        <ele>244.6</ele>
        <time>2022-05-07T12:31:30Z</time>
      </trkpt>
      <trkpt lat="46.73333" lon="5.52172">
        <ele>244.6</ele>
        <time>2022-05-07T12:31:31Z</time>
      </trkpt>
      <trkpt lat="46.73334" lon="5.52182">
        <ele>244.8</ele>
        <time>2022-05-07T12:31:32Z</time>
      </trkpt>
      <trkpt lat="46.73335" lon="5.52191">
        <ele>244.8</ele>
        <time>2022-05-07T12:31:33Z</time>
      </trkpt>
      <trkpt lat="46.73339" lon="5.52205">
        <ele>245</ele>
        <time>2022-05-07T12:31:35Z</time>
      </trkpt>
      <trkpt lat="46.73342" lon="5.52211">
        <ele>245</ele>
        <time>2022-05-07T12:31:36Z</time>
      </trkpt>
      <trkpt lat="46.73381" lon="5.52271">
        <ele>244.8</ele>
        <time>2022-05-07T12:31:45Z</time>
      </trkpt>
      <trkpt lat="46.73411" lon="5.52324">
        <ele>244.8</ele>
        <time>2022-05-07T12:31:53Z</time>
      </trkpt>
      <trkpt lat="46.73433" lon="5.52368">
        <ele>245.6</ele>
        <time>2022-05-07T12:32:00Z</time>
      </trkpt>
      <trkpt lat="46.73435" lon="5.52374">
        <ele>245.6</ele>
        <time>2022-05-07T12:32:01Z</time>
      </trkpt>
      <trkpt lat="46.73451" lon="5.52413">
        <ele>245.6</ele>
        <time>2022-05-07T12:32:06Z</time>
      </trkpt>
      <trkpt lat="46.73456" lon="5.52439">
        <ele>245.2</ele>
        <time>2022-05-07T12:32:09Z</time>
      </trkpt>
      <trkpt lat="46.73459" lon="5.52458">
        <ele>244.8</ele>
        <time>2022-05-07T12:32:11Z</time>
      </trkpt>
      <trkpt lat="46.7346" lon="5.52468">
        <ele>244.6</ele>
        <time>2022-05-07T12:32:12Z</time>
      </trkpt>
      <trkpt lat="46.7346" lon="5.52478">
        <ele>244.4</ele>
        <time>2022-05-07T12:32:13Z</time>
      </trkpt>
      <trkpt lat="46.7346" lon="5.52489">
        <ele>244.4</ele>
        <time>2022-05-07T12:32:14Z</time>
      </trkpt>
      <trkpt lat="46.73457" lon="5.52506">
        <ele>244.4</ele>
        <time>2022-05-07T12:32:16Z</time>
      </trkpt>
      <trkpt lat="46.7345" lon="5.52521">
        <ele>244.4</ele>
        <time>2022-05-07T12:32:18Z</time>
      </trkpt>
      <trkpt lat="46.7344" lon="5.5253">
        <ele>244.4</ele>
        <time>2022-05-07T12:32:20Z</time>
      </trkpt>
      <trkpt lat="46.73434" lon="5.52534">
        <ele>244.4</ele>
        <time>2022-05-07T12:32:21Z</time>
      </trkpt>
      <trkpt lat="46.7343" lon="5.52539">
        <ele>244.4</ele>
        <time>2022-05-07T12:32:22Z</time>
      </trkpt>
      <trkpt lat="46.73426" lon="5.52552">
        <ele>244.6</ele>
        <time>2022-05-07T12:32:24Z</time>
      </trkpt>
      <trkpt lat="46.73415" lon="5.52583">
        <ele>245.2</ele>
        <time>2022-05-07T12:32:29Z</time>
      </trkpt>
      <trkpt lat="46.73406" lon="5.52599">
        <ele>245.8</ele>
        <time>2022-05-07T12:32:32Z</time>
      </trkpt>
      <trkpt lat="46.73402" lon="5.52608">
        <ele>246.2</ele>
        <time>2022-05-07T12:32:34Z</time>
      </trkpt>
      <trkpt lat="46.73399" lon="5.52613">
        <ele>247</ele>
        <time>2022-05-07T12:32:35Z</time>
      </trkpt>
      <trkpt lat="46.73387" lon="5.52635">
        <ele>248</ele>
        <time>2022-05-07T12:32:39Z</time>
      </trkpt>
      <trkpt lat="46.73385" lon="5.5264">
        <ele>248.2</ele>
        <time>2022-05-07T12:32:40Z</time>
      </trkpt>
      <trkpt lat="46.73382" lon="5.52646">
        <ele>248.4</ele>
        <time>2022-05-07T12:32:41Z</time>
      </trkpt>
      <trkpt lat="46.73376" lon="5.52656">
        <ele>248.6</ele>
        <time>2022-05-07T12:32:43Z</time>
      </trkpt>
      <trkpt lat="46.73367" lon="5.52676">
        <ele>249</ele>
        <time>2022-05-07T12:32:47Z</time>
      </trkpt>
      <trkpt lat="46.73365" lon="5.52682">
        <ele>249.2</ele>
        <time>2022-05-07T12:32:48Z</time>
      </trkpt>
      <trkpt lat="46.73361" lon="5.52694">
        <ele>249.8</ele>
        <time>2022-05-07T12:32:50Z</time>
      </trkpt>
      <trkpt lat="46.7336" lon="5.527">
        <ele>250.4</ele>
        <time>2022-05-07T12:32:51Z</time>
      </trkpt>
      <trkpt lat="46.73361" lon="5.52706">
        <ele>251</ele>
        <time>2022-05-07T12:32:52Z</time>
      </trkpt>
      <trkpt lat="46.73364" lon="5.52712">
        <ele>251.8</ele>
        <time>2022-05-07T12:32:53Z</time>
      </trkpt>
      <trkpt lat="46.73372" lon="5.5272">
        <ele>252.2</ele>
        <time>2022-05-07T12:32:55Z</time>
      </trkpt>
      <trkpt lat="46.73402" lon="5.52742">
        <ele>252.2</ele>
        <time>2022-05-07T12:33:01Z</time>
      </trkpt>
      <trkpt lat="46.73436" lon="5.52773">
        <ele>251.8</ele>
        <time>2022-05-07T12:33:08Z</time>
      </trkpt>
      <trkpt lat="46.73466" lon="5.52809">
        <ele>251.6</ele>
        <time>2022-05-07T12:33:14Z</time>
      </trkpt>
      <trkpt lat="46.73497" lon="5.52849">
        <ele>250.8</ele>
        <time>2022-05-07T12:33:21Z</time>
      </trkpt>
      <trkpt lat="46.73501" lon="5.52855">
        <ele>250.6</ele>
        <time>2022-05-07T12:33:22Z</time>
      </trkpt>
      <trkpt lat="46.73505" lon="5.5286">
        <ele>250.6</ele>
        <time>2022-05-07T12:33:23Z</time>
      </trkpt>
      <trkpt lat="46.73516" lon="5.52869">
        <ele>250.6</ele>
        <time>2022-05-07T12:33:25Z</time>
      </trkpt>
      <trkpt lat="46.73521" lon="5.52871">
        <ele>250.8</ele>
        <time>2022-05-07T12:33:26Z</time>
      </trkpt>
      <trkpt lat="46.73527" lon="5.52873">
        <ele>250.8</ele>
        <time>2022-05-07T12:33:27Z</time>
      </trkpt>
      <trkpt lat="46.7354" lon="5.52871">
        <ele>250.8</ele>
        <time>2022-05-07T12:33:29Z</time>
      </trkpt>
      <trkpt lat="46.73546" lon="5.52868">
        <ele>250.6</ele>
        <time>2022-05-07T12:33:30Z</time>
      </trkpt>
      <trkpt lat="46.73576" lon="5.52845">
        <ele>250.2</ele>
        <time>2022-05-07T12:33:35Z</time>
      </trkpt>
      <trkpt lat="46.73588" lon="5.52838">
        <ele>250</ele>
        <time>2022-05-07T12:33:37Z</time>
      </trkpt>
      <trkpt lat="46.73602" lon="5.52837">
        <ele>249.8</ele>
        <time>2022-05-07T12:33:39Z</time>
      </trkpt>
      <trkpt lat="46.73608" lon="5.52839">
        <ele>249.6</ele>
        <time>2022-05-07T12:33:40Z</time>
      </trkpt>
      <trkpt lat="46.73615" lon="5.52844">
        <ele>249.4</ele>
        <time>2022-05-07T12:33:41Z</time>
      </trkpt>
      <trkpt lat="46.7362" lon="5.52849">
        <ele>249.4</ele>
        <time>2022-05-07T12:33:42Z</time>
      </trkpt>
      <trkpt lat="46.73654" lon="5.52885">
        <ele>249.8</ele>
        <time>2022-05-07T12:33:49Z</time>
      </trkpt>
      <trkpt lat="46.73694" lon="5.5293">
        <ele>250.2</ele>
        <time>2022-05-07T12:33:58Z</time>
      </trkpt>
      <trkpt lat="46.73736" lon="5.52972">
        <ele>250</ele>
        <time>2022-05-07T12:34:06Z</time>
      </trkpt>
      <trkpt lat="46.7378" lon="5.53007">
        <ele>249.8</ele>
        <time>2022-05-07T12:34:14Z</time>
      </trkpt>
      <trkpt lat="46.73813" lon="5.5303">
        <ele>250.2</ele>
        <time>2022-05-07T12:34:20Z</time>
      </trkpt>
      <trkpt lat="46.73835" lon="5.53044">
        <ele>250.2</ele>
        <time>2022-05-07T12:34:24Z</time>
      </trkpt>
      <trkpt lat="46.73855" lon="5.53055">
        <ele>250.6</ele>
        <time>2022-05-07T12:34:28Z</time>
      </trkpt>
      <trkpt lat="46.73861" lon="5.53057">
        <ele>250.6</ele>
        <time>2022-05-07T12:34:29Z</time>
      </trkpt>
      <trkpt lat="46.73875" lon="5.53061">
        <ele>250.8</ele>
        <time>2022-05-07T12:34:32Z</time>
      </trkpt>
      <trkpt lat="46.73877" lon="5.53061">
        <ele>251</ele>
        <time>2022-05-07T12:34:33Z</time>
      </trkpt>
      <trkpt lat="46.73884" lon="5.53061">
        <ele>251.6</ele>
        <time>2022-05-07T12:34:37Z</time>
      </trkpt>
      <trkpt lat="46.73884" lon="5.53061">
        <ele>251.8</ele>
        <time>2022-05-07T12:34:38Z</time>
      </trkpt>
      <trkpt lat="46.73884" lon="5.53061">
        <ele>251.8</ele>
        <time>2022-05-07T12:34:39Z</time>
      </trkpt>
      <trkpt lat="46.73879" lon="5.53061">
        <ele>250.4</ele>
        <time>2022-05-07T12:35:56Z</time>
      </trkpt>
      <trkpt lat="46.73875" lon="5.5306">
        <ele>250.2</ele>
        <time>2022-05-07T12:35:57Z</time>
      </trkpt>
      <trkpt lat="46.73858" lon="5.53055">
        <ele>250.2</ele>
        <time>2022-05-07T12:36:01Z</time>
      </trkpt>
      <trkpt lat="46.73829" lon="5.53038">
        <ele>250</ele>
        <time>2022-05-07T12:36:08Z</time>
      </trkpt>
      <trkpt lat="46.73802" lon="5.53017">
        <ele>250</ele>
        <time>2022-05-07T12:36:16Z</time>
      </trkpt>
      <trkpt lat="46.73801" lon="5.53016">
        <ele>250</ele>
        <time>2022-05-07T12:36:20Z</time>
      </trkpt>
      <trkpt lat="46.73795" lon="5.53014">
        <ele>250.6</ele>
        <time>2022-05-07T12:38:45Z</time>
      </trkpt>
      <trkpt lat="46.73789" lon="5.53011">
        <ele>250.6</ele>
        <time>2022-05-07T12:38:47Z</time>
      </trkpt>
      <trkpt lat="46.7377" lon="5.52997">
        <ele>250.6</ele>
        <time>2022-05-07T12:38:51Z</time>
      </trkpt>
      <trkpt lat="46.73739" lon="5.52971">
        <ele>250.6</ele>
        <time>2022-05-07T12:38:57Z</time>
      </trkpt>
      <trkpt lat="46.73698" lon="5.5293">
        <ele>250.8</ele>
        <time>2022-05-07T12:39:05Z</time>
      </trkpt>
      <trkpt lat="46.73652" lon="5.5288">
        <ele>251.2</ele>
        <time>2022-05-07T12:39:14Z</time>
      </trkpt>
      <trkpt lat="46.73609" lon="5.52836">
        <ele>251</ele>
        <time>2022-05-07T12:39:22Z</time>
      </trkpt>
      <trkpt lat="46.73596" lon="5.52832">
        <ele>251</ele>
        <time>2022-05-07T12:39:24Z</time>
      </trkpt>
      <trkpt lat="46.73591" lon="5.52833">
        <ele>251</ele>
        <time>2022-05-07T12:39:25Z</time>
      </trkpt>
      <trkpt lat="46.73584" lon="5.52836">
        <ele>251</ele>
        <time>2022-05-07T12:39:26Z</time>
      </trkpt>
      <trkpt lat="46.73567" lon="5.52847">
        <ele>250.8</ele>
        <time>2022-05-07T12:39:29Z</time>
      </trkpt>
      <trkpt lat="46.73538" lon="5.52867">
        <ele>251.2</ele>
        <time>2022-05-07T12:39:34Z</time>
      </trkpt>
      <trkpt lat="46.73532" lon="5.52868">
        <ele>251.4</ele>
        <time>2022-05-07T12:39:35Z</time>
      </trkpt>
      <trkpt lat="46.73526" lon="5.52868">
        <ele>251.4</ele>
        <time>2022-05-07T12:39:36Z</time>
      </trkpt>
      <trkpt lat="46.73514" lon="5.52862">
        <ele>251.6</ele>
        <time>2022-05-07T12:39:38Z</time>
      </trkpt>
      <trkpt lat="46.73503" lon="5.52852">
        <ele>251.8</ele>
        <time>2022-05-07T12:39:40Z</time>
      </trkpt>
      <trkpt lat="46.73493" lon="5.52839">
        <ele>251.8</ele>
        <time>2022-05-07T12:39:42Z</time>
      </trkpt>
      <trkpt lat="46.73453" lon="5.5279">
        <ele>251.8</ele>
        <time>2022-05-07T12:39:50Z</time>
      </trkpt>
      <trkpt lat="46.73419" lon="5.52751">
        <ele>252</ele>
        <time>2022-05-07T12:39:57Z</time>
      </trkpt>
      <trkpt lat="46.73374" lon="5.52719">
        <ele>252.4</ele>
        <time>2022-05-07T12:40:05Z</time>
      </trkpt>
      <trkpt lat="46.7337" lon="5.52716">
        <ele>252.6</ele>
        <time>2022-05-07T12:40:06Z</time>
      </trkpt>
      <trkpt lat="46.73365" lon="5.52709">
        <ele>252.6</ele>
        <time>2022-05-07T12:40:07Z</time>
      </trkpt>
      <trkpt lat="46.73363" lon="5.52702">
        <ele>252.6</ele>
        <time>2022-05-07T12:40:08Z</time>
      </trkpt>
      <trkpt lat="46.73363" lon="5.52695">
        <ele>252.6</ele>
        <time>2022-05-07T12:40:09Z</time>
      </trkpt>
      <trkpt lat="46.73366" lon="5.52687">
        <ele>252.6</ele>
        <time>2022-05-07T12:40:10Z</time>
      </trkpt>
      <trkpt lat="46.7339" lon="5.52637">
        <ele>252.8</ele>
        <time>2022-05-07T12:40:16Z</time>
      </trkpt>
      <trkpt lat="46.73416" lon="5.52586">
        <ele>251.4</ele>
        <time>2022-05-07T12:40:21Z</time>
      </trkpt>
      <trkpt lat="46.73419" lon="5.52578">
        <ele>251.2</ele>
        <time>2022-05-07T12:40:22Z</time>
      </trkpt>
      <trkpt lat="46.73426" lon="5.5256">
        <ele>250.2</ele>
        <time>2022-05-07T12:40:24Z</time>
      </trkpt>
      <trkpt lat="46.73428" lon="5.52552">
        <ele>249.4</ele>
        <time>2022-05-07T12:40:25Z</time>
      </trkpt>
      <trkpt lat="46.73429" lon="5.52543">
        <ele>249</ele>
        <time>2022-05-07T12:40:26Z</time>
      </trkpt>
      <trkpt lat="46.73429" lon="5.52537">
        <ele>248.4</ele>
        <time>2022-05-07T12:40:27Z</time>
      </trkpt>
      <trkpt lat="46.73428" lon="5.5253">
        <ele>248</ele>
        <time>2022-05-07T12:40:28Z</time>
      </trkpt>
      <trkpt lat="46.73426" lon="5.52523">
        <ele>247.8</ele>
        <time>2022-05-07T12:40:29Z</time>
      </trkpt>
      <trkpt lat="46.73422" lon="5.52516">
        <ele>247.4</ele>
        <time>2022-05-07T12:40:30Z</time>
      </trkpt>
      <trkpt lat="46.73415" lon="5.52508">
        <ele>247.2</ele>
        <time>2022-05-07T12:40:32Z</time>
      </trkpt>
      <trkpt lat="46.73404" lon="5.52493">
        <ele>247</ele>
        <time>2022-05-07T12:40:35Z</time>
      </trkpt>
      <trkpt lat="46.73377" lon="5.52462">
        <ele>247.2</ele>
        <time>2022-05-07T12:40:41Z</time>
      </trkpt>
      <trkpt lat="46.73343" lon="5.52421">
        <ele>247.6</ele>
        <time>2022-05-07T12:40:48Z</time>
      </trkpt>
      <trkpt lat="46.73319" lon="5.52394">
        <ele>248.4</ele>
        <time>2022-05-07T12:40:53Z</time>
      </trkpt>
      <trkpt lat="46.73314" lon="5.52391">
        <ele>248.6</ele>
        <time>2022-05-07T12:40:54Z</time>
      </trkpt>
      <trkpt lat="46.73292" lon="5.52379">
        <ele>249</ele>
        <time>2022-05-07T12:40:58Z</time>
      </trkpt>
      <trkpt lat="46.7327" lon="5.52371">
        <ele>249.8</ele>
        <time>2022-05-07T12:41:02Z</time>
      </trkpt>
      <trkpt lat="46.73266" lon="5.52369">
        <ele>250.2</ele>
        <time>2022-05-07T12:41:03Z</time>
      </trkpt>
      <trkpt lat="46.73227" lon="5.52352">
        <ele>250.6</ele>
        <time>2022-05-07T12:41:10Z</time>
      </trkpt>
      <trkpt lat="46.73213" lon="5.52343">
        <ele>251.2</ele>
        <time>2022-05-07T12:41:13Z</time>
      </trkpt>
      <trkpt lat="46.73199" lon="5.52332">
        <ele>251.6</ele>
        <time>2022-05-07T12:41:16Z</time>
      </trkpt>
      <trkpt lat="46.7318" lon="5.52321">
        <ele>252.2</ele>
        <time>2022-05-07T12:41:20Z</time>
      </trkpt>
      <trkpt lat="46.7317" lon="5.52318">
        <ele>252.4</ele>
        <time>2022-05-07T12:41:22Z</time>
      </trkpt>
      <trkpt lat="46.73158" lon="5.52315">
        <ele>253.2</ele>
        <time>2022-05-07T12:41:25Z</time>
      </trkpt>
      <trkpt lat="46.73148" lon="5.52315">
        <ele>253.6</ele>
        <time>2022-05-07T12:41:28Z</time>
      </trkpt>
      <trkpt lat="46.73148" lon="5.52319">
        <ele>254</ele>
        <time>2022-05-07T12:41:30Z</time>
      </trkpt>
      <trkpt lat="46.73149" lon="5.5232">
        <ele>254</ele>
        <time>2022-05-07T12:41:31Z</time>
      </trkpt>
      <trkpt lat="46.73157" lon="5.5232">
        <ele>254.2</ele>
        <time>2022-05-07T12:41:33Z</time>
      </trkpt>
      <trkpt lat="46.73162" lon="5.52321">
        <ele>254.2</ele>
        <time>2022-05-07T12:41:34Z</time>
      </trkpt>
      <trkpt lat="46.73179" lon="5.52328">
        <ele>254.2</ele>
        <time>2022-05-07T12:41:37Z</time>
      </trkpt>
      <trkpt lat="46.73215" lon="5.52352">
        <ele>253.6</ele>
        <time>2022-05-07T12:41:43Z</time>
      </trkpt>
      <trkpt lat="46.73234" lon="5.52363">
        <ele>253.2</ele>
        <time>2022-05-07T12:41:46Z</time>
      </trkpt>
      <trkpt lat="46.73257" lon="5.52372">
        <ele>252.6</ele>
        <time>2022-05-07T12:41:49Z</time>
      </trkpt>
      <trkpt lat="46.73294" lon="5.52384">
        <ele>252</ele>
        <time>2022-05-07T12:41:54Z</time>
      </trkpt>
      <trkpt lat="46.73301" lon="5.52387">
        <ele>251.8</ele>
        <time>2022-05-07T12:41:55Z</time>
      </trkpt>
      <trkpt lat="46.73309" lon="5.52392">
        <ele>251.4</ele>
        <time>2022-05-07T12:41:56Z</time>
      </trkpt>
      <trkpt lat="46.73323" lon="5.52404">
        <ele>250.8</ele>
        <time>2022-05-07T12:41:58Z</time>
      </trkpt>
      <trkpt lat="46.73342" lon="5.52425">
        <ele>249.6</ele>
        <time>2022-05-07T12:42:01Z</time>
      </trkpt>
      <trkpt lat="46.73378" lon="5.52467">
        <ele>249</ele>
        <time>2022-05-07T12:42:07Z</time>
      </trkpt>
      <trkpt lat="46.73412" lon="5.52507">
        <ele>248.8</ele>
        <time>2022-05-07T12:42:13Z</time>
      </trkpt>
      <trkpt lat="46.73423" lon="5.52521">
        <ele>248.8</ele>
        <time>2022-05-07T12:42:15Z</time>
      </trkpt>
      <trkpt lat="46.7343" lon="5.52526">
        <ele>248.6</ele>
        <time>2022-05-07T12:42:16Z</time>
      </trkpt>
      <trkpt lat="46.73437" lon="5.52529">
        <ele>248.4</ele>
        <time>2022-05-07T12:42:17Z</time>
      </trkpt>
      <trkpt lat="46.73451" lon="5.52523">
        <ele>248.2</ele>
        <time>2022-05-07T12:42:19Z</time>
      </trkpt>
      <trkpt lat="46.73457" lon="5.52516">
        <ele>247.8</ele>
        <time>2022-05-07T12:42:20Z</time>
      </trkpt>
      <trkpt lat="46.73461" lon="5.52508">
        <ele>247.8</ele>
        <time>2022-05-07T12:42:21Z</time>
      </trkpt>
      <trkpt lat="46.73466" lon="5.5249">
        <ele>247.6</ele>
        <time>2022-05-07T12:42:23Z</time>
      </trkpt>
      <trkpt lat="46.73464" lon="5.52455">
        <ele>247</ele>
        <time>2022-05-07T12:42:26Z</time>
      </trkpt>
      <trkpt lat="46.73459" lon="5.52427">
        <ele>246.6</ele>
        <time>2022-05-07T12:42:29Z</time>
      </trkpt>
      <trkpt lat="46.73454" lon="5.52408">
        <ele>246.4</ele>
        <time>2022-05-07T12:42:31Z</time>
      </trkpt>
      <trkpt lat="46.73451" lon="5.52399">
        <ele>246.2</ele>
        <time>2022-05-07T12:42:32Z</time>
      </trkpt>
      <trkpt lat="46.73448" lon="5.52391">
        <ele>246.2</ele>
        <time>2022-05-07T12:42:33Z</time>
      </trkpt>
      <trkpt lat="46.73437" lon="5.52367">
        <ele>246.4</ele>
        <time>2022-05-07T12:42:36Z</time>
      </trkpt>
      <trkpt lat="46.73405" lon="5.52304">
        <ele>246.6</ele>
        <time>2022-05-07T12:42:44Z</time>
      </trkpt>
      <trkpt lat="46.73371" lon="5.5225">
        <ele>246.4</ele>
        <time>2022-05-07T12:42:51Z</time>
      </trkpt>
      <trkpt lat="46.73342" lon="5.52205">
        <ele>246</ele>
        <time>2022-05-07T12:42:57Z</time>
      </trkpt>
      <trkpt lat="46.73338" lon="5.52196">
        <ele>245.8</ele>
        <time>2022-05-07T12:42:58Z</time>
      </trkpt>
      <trkpt lat="46.73336" lon="5.52186">
        <ele>245.8</ele>
        <time>2022-05-07T12:42:59Z</time>
      </trkpt>
      <trkpt lat="46.73334" lon="5.52166">
        <ele>245.6</ele>
        <time>2022-05-07T12:43:01Z</time>
      </trkpt>
      <trkpt lat="46.73334" lon="5.52156">
        <ele>245.6</ele>
        <time>2022-05-07T12:43:02Z</time>
      </trkpt>
      <trkpt lat="46.73335" lon="5.52115">
        <ele>245.4</ele>
        <time>2022-05-07T12:43:06Z</time>
      </trkpt>
      <trkpt lat="46.73335" lon="5.52083">
        <ele>244.8</ele>
        <time>2022-05-07T12:43:09Z</time>
      </trkpt>
      <trkpt lat="46.73338" lon="5.52063">
        <ele>244.6</ele>
        <time>2022-05-07T12:43:11Z</time>
      </trkpt>
      <trkpt lat="46.73345" lon="5.52046">
        <ele>244.4</ele>
        <time>2022-05-07T12:43:13Z</time>
      </trkpt>
      <trkpt lat="46.7335" lon="5.52039">
        <ele>244.2</ele>
        <time>2022-05-07T12:43:14Z</time>
      </trkpt>
      <trkpt lat="46.73369" lon="5.52013">
        <ele>244.2</ele>
        <time>2022-05-07T12:43:18Z</time>
      </trkpt>
      <trkpt lat="46.73394" lon="5.51982">
        <ele>245.2</ele>
        <time>2022-05-07T12:43:24Z</time>
      </trkpt>
      <trkpt lat="46.73397" lon="5.51976">
        <ele>245.4</ele>
        <time>2022-05-07T12:43:25Z</time>
      </trkpt>
      <trkpt lat="46.73414" lon="5.51935">
        <ele>246.2</ele>
        <time>2022-05-07T12:43:31Z</time>
      </trkpt>
      <trkpt lat="46.73416" lon="5.5193">
        <ele>246.6</ele>
        <time>2022-05-07T12:43:32Z</time>
      </trkpt>
      <trkpt lat="46.73435" lon="5.51887">
        <ele>247.6</ele>
        <time>2022-05-07T12:43:39Z</time>
      </trkpt>
      <trkpt lat="46.7344" lon="5.51876">
        <ele>248</ele>
        <time>2022-05-07T12:43:41Z</time>
      </trkpt>
      <trkpt lat="46.73451" lon="5.51851">
        <ele>248.8</ele>
        <time>2022-05-07T12:43:46Z</time>
      </trkpt>
      <trkpt lat="46.73455" lon="5.51843">
        <ele>249.2</ele>
        <time>2022-05-07T12:43:48Z</time>
      </trkpt>
      <trkpt lat="46.73459" lon="5.5183">
        <ele>250.4</ele>
        <time>2022-05-07T12:43:51Z</time>
      </trkpt>
      <trkpt lat="46.7346" lon="5.5182">
        <ele>251.6</ele>
        <time>2022-05-07T12:43:53Z</time>
      </trkpt>
      <trkpt lat="46.7346" lon="5.51807">
        <ele>252.6</ele>
        <time>2022-05-07T12:43:56Z</time>
      </trkpt>
      <trkpt lat="46.73459" lon="5.51791">
        <ele>253.8</ele>
        <time>2022-05-07T12:44:00Z</time>
      </trkpt>
      <trkpt lat="46.73458" lon="5.5178">
        <ele>254.8</ele>
        <time>2022-05-07T12:44:03Z</time>
      </trkpt>
      <trkpt lat="46.73454" lon="5.51751">
        <ele>256.2</ele>
        <time>2022-05-07T12:44:10Z</time>
      </trkpt>
      <trkpt lat="46.73454" lon="5.51743">
        <ele>256.6</ele>
        <time>2022-05-07T12:44:12Z</time>
      </trkpt>
      <trkpt lat="46.73454" lon="5.51728">
        <ele>257.4</ele>
        <time>2022-05-07T12:44:16Z</time>
      </trkpt>
      <trkpt lat="46.73454" lon="5.51723">
        <ele>257.6</ele>
        <time>2022-05-07T12:44:17Z</time>
      </trkpt>
      <trkpt lat="46.73456" lon="5.51693">
        <ele>258.6</ele>
        <time>2022-05-07T12:44:23Z</time>
      </trkpt>
      <trkpt lat="46.73457" lon="5.51687">
        <ele>258.8</ele>
        <time>2022-05-07T12:44:24Z</time>
      </trkpt>
      <trkpt lat="46.73459" lon="5.51648">
        <ele>259</ele>
        <time>2022-05-07T12:44:30Z</time>
      </trkpt>
      <trkpt lat="46.73458" lon="5.51609">
        <ele>259</ele>
        <time>2022-05-07T12:44:35Z</time>
      </trkpt>
      <trkpt lat="46.73456" lon="5.51592">
        <ele>259</ele>
        <time>2022-05-07T12:44:37Z</time>
      </trkpt>
      <trkpt lat="46.73447" lon="5.51543">
        <ele>258.2</ele>
        <time>2022-05-07T12:44:43Z</time>
      </trkpt>
      <trkpt lat="46.73442" lon="5.51522">
        <ele>257.4</ele>
        <time>2022-05-07T12:44:45Z</time>
      </trkpt>
      <trkpt lat="46.73432" lon="5.51489">
        <ele>256.4</ele>
        <time>2022-05-07T12:44:48Z</time>
      </trkpt>
      <trkpt lat="46.73429" lon="5.51478">
        <ele>256.2</ele>
        <time>2022-05-07T12:44:49Z</time>
      </trkpt>
      <trkpt lat="46.73427" lon="5.51457">
        <ele>255.4</ele>
        <time>2022-05-07T12:44:51Z</time>
      </trkpt>
      <trkpt lat="46.73427" lon="5.51443">
        <ele>254.6</ele>
        <time>2022-05-07T12:44:52Z</time>
      </trkpt>
      <trkpt lat="46.73428" lon="5.51432">
        <ele>254.2</ele>
        <time>2022-05-07T12:44:53Z</time>
      </trkpt>
      <trkpt lat="46.73433" lon="5.5141">
        <ele>253.4</ele>
        <time>2022-05-07T12:44:55Z</time>
      </trkpt>
      <trkpt lat="46.73436" lon="5.51402">
        <ele>253</ele>
        <time>2022-05-07T12:44:56Z</time>
      </trkpt>
      <trkpt lat="46.73442" lon="5.5138">
        <ele>252.4</ele>
        <time>2022-05-07T12:44:58Z</time>
      </trkpt>
      <trkpt lat="46.73457" lon="5.51323">
        <ele>252.2</ele>
        <time>2022-05-07T12:45:04Z</time>
      </trkpt>
      <trkpt lat="46.73475" lon="5.51266">
        <ele>252.6</ele>
        <time>2022-05-07T12:45:11Z</time>
      </trkpt>
      <trkpt lat="46.73494" lon="5.5121">
        <ele>253.2</ele>
        <time>2022-05-07T12:45:18Z</time>
      </trkpt>
      <trkpt lat="46.73514" lon="5.51142">
        <ele>252.8</ele>
        <time>2022-05-07T12:45:25Z</time>
      </trkpt>
      <trkpt lat="46.73517" lon="5.5113">
        <ele>252.4</ele>
        <time>2022-05-07T12:45:26Z</time>
      </trkpt>
      <trkpt lat="46.73528" lon="5.51107">
        <ele>251.8</ele>
        <time>2022-05-07T12:45:28Z</time>
      </trkpt>
      <trkpt lat="46.73536" lon="5.51097">
        <ele>251.2</ele>
        <time>2022-05-07T12:45:29Z</time>
      </trkpt>
      <trkpt lat="46.73553" lon="5.51078">
        <ele>249.4</ele>
        <time>2022-05-07T12:45:31Z</time>
      </trkpt>
      <trkpt lat="46.73569" lon="5.51058">
        <ele>247.2</ele>
        <time>2022-05-07T12:45:33Z</time>
      </trkpt>
      <trkpt lat="46.73575" lon="5.51047">
        <ele>245.4</ele>
        <time>2022-05-07T12:45:34Z</time>
      </trkpt>
      <trkpt lat="46.7358" lon="5.51034">
        <ele>244.8</ele>
        <time>2022-05-07T12:45:35Z</time>
      </trkpt>
      <trkpt lat="46.73583" lon="5.51021">
        <ele>243.6</ele>
        <time>2022-05-07T12:45:36Z</time>
      </trkpt>
      <trkpt lat="46.7359" lon="5.50983">
        <ele>242.8</ele>
        <time>2022-05-07T12:45:39Z</time>
      </trkpt>
      <trkpt lat="46.73592" lon="5.5097">
        <ele>242.6</ele>
        <time>2022-05-07T12:45:40Z</time>
      </trkpt>
      <trkpt lat="46.73602" lon="5.50913">
        <ele>242.2</ele>
        <time>2022-05-07T12:45:45Z</time>
      </trkpt>
      <trkpt lat="46.73611" lon="5.50893">
        <ele>242</ele>
        <time>2022-05-07T12:45:47Z</time>
      </trkpt>
      <trkpt lat="46.73618" lon="5.50886">
        <ele>242</ele>
        <time>2022-05-07T12:45:48Z</time>
      </trkpt>
      <trkpt lat="46.73625" lon="5.50881">
        <ele>241.8</ele>
        <time>2022-05-07T12:45:49Z</time>
      </trkpt>
      <trkpt lat="46.73633" lon="5.50877">
        <ele>241.6</ele>
        <time>2022-05-07T12:45:50Z</time>
      </trkpt>
      <trkpt lat="46.73649" lon="5.5087">
        <ele>241</ele>
        <time>2022-05-07T12:45:52Z</time>
      </trkpt>
      <trkpt lat="46.73658" lon="5.50864">
        <ele>240.6</ele>
        <time>2022-05-07T12:45:53Z</time>
      </trkpt>
      <trkpt lat="46.73665" lon="5.50858">
        <ele>240</ele>
        <time>2022-05-07T12:45:54Z</time>
      </trkpt>
      <trkpt lat="46.73672" lon="5.5085">
        <ele>239.6</ele>
        <time>2022-05-07T12:45:55Z</time>
      </trkpt>
      <trkpt lat="46.73678" lon="5.50842">
        <ele>239</ele>
        <time>2022-05-07T12:45:56Z</time>
      </trkpt>
      <trkpt lat="46.73693" lon="5.50814">
        <ele>238</ele>
        <time>2022-05-07T12:45:59Z</time>
      </trkpt>
      <trkpt lat="46.73698" lon="5.50803">
        <ele>237.8</ele>
        <time>2022-05-07T12:46:00Z</time>
      </trkpt>
      <trkpt lat="46.73718" lon="5.50765">
        <ele>236.6</ele>
        <time>2022-05-07T12:46:04Z</time>
      </trkpt>
      <trkpt lat="46.73729" lon="5.50748">
        <ele>236.4</ele>
        <time>2022-05-07T12:46:06Z</time>
      </trkpt>
      <trkpt lat="46.73763" lon="5.50686">
        <ele>235.6</ele>
        <time>2022-05-07T12:46:13Z</time>
      </trkpt>
      <trkpt lat="46.73779" lon="5.50637">
        <ele>234.8</ele>
        <time>2022-05-07T12:46:17Z</time>
      </trkpt>
      <trkpt lat="46.73783" lon="5.50623">
        <ele>234.4</ele>
        <time>2022-05-07T12:46:18Z</time>
      </trkpt>
      <trkpt lat="46.73797" lon="5.5058">
        <ele>233.4</ele>
        <time>2022-05-07T12:46:21Z</time>
      </trkpt>
      <trkpt lat="46.73802" lon="5.50566">
        <ele>232.4</ele>
        <time>2022-05-07T12:46:22Z</time>
      </trkpt>
      <trkpt lat="46.73806" lon="5.50552">
        <ele>231.8</ele>
        <time>2022-05-07T12:46:23Z</time>
      </trkpt>
      <trkpt lat="46.73812" lon="5.50535">
        <ele>230.8</ele>
        <time>2022-05-07T12:46:24Z</time>
      </trkpt>
      <trkpt lat="46.73818" lon="5.5052">
        <ele>229.8</ele>
        <time>2022-05-07T12:46:25Z</time>
      </trkpt>
      <trkpt lat="46.73827" lon="5.50494">
        <ele>228.4</ele>
        <time>2022-05-07T12:46:27Z</time>
      </trkpt>
      <trkpt lat="46.73838" lon="5.50465">
        <ele>227.4</ele>
        <time>2022-05-07T12:46:29Z</time>
      </trkpt>
      <trkpt lat="46.73842" lon="5.50454">
        <ele>227.2</ele>
        <time>2022-05-07T12:46:30Z</time>
      </trkpt>
      <trkpt lat="46.73846" lon="5.50444">
        <ele>226.4</ele>
        <time>2022-05-07T12:46:31Z</time>
      </trkpt>
      <trkpt lat="46.73849" lon="5.50436">
        <ele>225.2</ele>
        <time>2022-05-07T12:46:32Z</time>
      </trkpt>
      <trkpt lat="46.73862" lon="5.50403">
        <ele>224</ele>
        <time>2022-05-07T12:46:35Z</time>
      </trkpt>
      <trkpt lat="46.73866" lon="5.50395">
        <ele>223.6</ele>
        <time>2022-05-07T12:46:36Z</time>
      </trkpt>
      <trkpt lat="46.73875" lon="5.50372">
        <ele>222.8</ele>
        <time>2022-05-07T12:46:38Z</time>
      </trkpt>
      <trkpt lat="46.73896" lon="5.50319">
        <ele>221.8</ele>
        <time>2022-05-07T12:46:43Z</time>
      </trkpt>
      <trkpt lat="46.73923" lon="5.50262">
        <ele>220.8</ele>
        <time>2022-05-07T12:46:49Z</time>
      </trkpt>
      <trkpt lat="46.73933" lon="5.50242">
        <ele>220.4</ele>
        <time>2022-05-07T12:46:51Z</time>
      </trkpt>
      <trkpt lat="46.73969" lon="5.50171">
        <ele>219.8</ele>
        <time>2022-05-07T12:46:59Z</time>
      </trkpt>
      <trkpt lat="46.74005" lon="5.50099">
        <ele>219.4</ele>
        <time>2022-05-07T12:47:07Z</time>
      </trkpt>
      <trkpt lat="46.74008" lon="5.50092">
        <ele>219.4</ele>
        <time>2022-05-07T12:47:08Z</time>
      </trkpt>
      <trkpt lat="46.7404" lon="5.50034">
        <ele>218.6</ele>
        <time>2022-05-07T12:47:15Z</time>
      </trkpt>
      <trkpt lat="46.74045" lon="5.50025">
        <ele>218.6</ele>
        <time>2022-05-07T12:47:16Z</time>
      </trkpt>
      <trkpt lat="46.74049" lon="5.50017">
        <ele>218.6</ele>
        <time>2022-05-07T12:47:17Z</time>
      </trkpt>
      <trkpt lat="46.74055" lon="5.50002">
        <ele>218.4</ele>
        <time>2022-05-07T12:47:19Z</time>
      </trkpt>
      <trkpt lat="46.74058" lon="5.49992">
        <ele>218.2</ele>
        <time>2022-05-07T12:47:20Z</time>
      </trkpt>
      <trkpt lat="46.74059" lon="5.49983">
        <ele>218.2</ele>
        <time>2022-05-07T12:47:21Z</time>
      </trkpt>
      <trkpt lat="46.7406" lon="5.4996">
        <ele>217.8</ele>
        <time>2022-05-07T12:47:24Z</time>
      </trkpt>
      <trkpt lat="46.74062" lon="5.49942">
        <ele>217.6</ele>
        <time>2022-05-07T12:47:26Z</time>
      </trkpt>
      <trkpt lat="46.74065" lon="5.49915">
        <ele>217.8</ele>
        <time>2022-05-07T12:47:29Z</time>
      </trkpt>
      <trkpt lat="46.74068" lon="5.49907">
        <ele>217.6</ele>
        <time>2022-05-07T12:47:30Z</time>
      </trkpt>
      <trkpt lat="46.74071" lon="5.499">
        <ele>217.6</ele>
        <time>2022-05-07T12:47:31Z</time>
      </trkpt>
      <trkpt lat="46.74084" lon="5.49876">
        <ele>217.8</ele>
        <time>2022-05-07T12:47:34Z</time>
      </trkpt>
      <trkpt lat="46.74114" lon="5.49824">
        <ele>217.8</ele>
        <time>2022-05-07T12:47:41Z</time>
      </trkpt>
      <trkpt lat="46.74132" lon="5.49795">
        <ele>218</ele>
        <time>2022-05-07T12:47:45Z</time>
      </trkpt>
      <trkpt lat="46.74142" lon="5.49779">
        <ele>218</ele>
        <time>2022-05-07T12:47:47Z</time>
      </trkpt>
      <trkpt lat="46.74182" lon="5.49732">
        <ele>218</ele>
        <time>2022-05-07T12:47:55Z</time>
      </trkpt>
      <trkpt lat="46.7421" lon="5.49713">
        <ele>217.8</ele>
        <time>2022-05-07T12:48:00Z</time>
      </trkpt>
      <trkpt lat="46.74216" lon="5.49711">
        <ele>217.8</ele>
        <time>2022-05-07T12:48:01Z</time>
      </trkpt>
      <trkpt lat="46.74269" lon="5.49705">
        <ele>217.6</ele>
        <time>2022-05-07T12:48:10Z</time>
      </trkpt>
      <trkpt lat="46.74315" lon="5.49706">
        <ele>218.4</ele>
        <time>2022-05-07T12:48:18Z</time>
      </trkpt>
      <trkpt lat="46.74319" lon="5.4971">
        <ele>218.4</ele>
        <time>2022-05-07T12:48:19Z</time>
      </trkpt>
      <trkpt lat="46.74321" lon="5.49716">
        <ele>218.4</ele>
        <time>2022-05-07T12:48:20Z</time>
      </trkpt>
      <trkpt lat="46.74325" lon="5.49733">
        <ele>218.6</ele>
        <time>2022-05-07T12:48:22Z</time>
      </trkpt>
      <trkpt lat="46.7433" lon="5.4975">
        <ele>218.6</ele>
        <time>2022-05-07T12:48:24Z</time>
      </trkpt>
      <trkpt lat="46.74334" lon="5.49768">
        <ele>218.6</ele>
        <time>2022-05-07T12:48:26Z</time>
      </trkpt>
      <trkpt lat="46.74337" lon="5.49776">
        <ele>218.6</ele>
        <time>2022-05-07T12:48:27Z</time>
      </trkpt>
      <trkpt lat="46.74342" lon="5.49794">
        <ele>218.4</ele>
        <time>2022-05-07T12:48:29Z</time>
      </trkpt>
      <trkpt lat="46.7435" lon="5.49827">
        <ele>218.2</ele>
        <time>2022-05-07T12:48:33Z</time>
      </trkpt>
      <trkpt lat="46.74363" lon="5.4989">
        <ele>218.4</ele>
        <time>2022-05-07T12:48:40Z</time>
      </trkpt>
      <trkpt lat="46.74377" lon="5.49969">
        <ele>218.6</ele>
        <time>2022-05-07T12:48:49Z</time>
      </trkpt>
      <trkpt lat="46.74378" lon="5.49985">
        <ele>218.6</ele>
        <time>2022-05-07T12:48:51Z</time>
      </trkpt>
      <trkpt lat="46.74378" lon="5.49994">
        <ele>219</ele>
        <time>2022-05-07T12:48:52Z</time>
      </trkpt>
      <trkpt lat="46.74377" lon="5.50002">
        <ele>219</ele>
        <time>2022-05-07T12:48:53Z</time>
      </trkpt>
      <trkpt lat="46.74375" lon="5.5001">
        <ele>219</ele>
        <time>2022-05-07T12:48:54Z</time>
      </trkpt>
      <trkpt lat="46.74373" lon="5.50018">
        <ele>219</ele>
        <time>2022-05-07T12:48:55Z</time>
      </trkpt>
      <trkpt lat="46.74368" lon="5.50032">
        <ele>219</ele>
        <time>2022-05-07T12:48:57Z</time>
      </trkpt>
      <trkpt lat="46.7436" lon="5.50046">
        <ele>219.6</ele>
        <time>2022-05-07T12:48:59Z</time>
      </trkpt>
      <trkpt lat="46.74352" lon="5.50061">
        <ele>220</ele>
        <time>2022-05-07T12:49:01Z</time>
      </trkpt>
      <trkpt lat="46.74328" lon="5.50107">
        <ele>219.8</ele>
        <time>2022-05-07T12:49:07Z</time>
      </trkpt>
      <trkpt lat="46.743" lon="5.50162">
        <ele>219.2</ele>
        <time>2022-05-07T12:49:14Z</time>
      </trkpt>
      <trkpt lat="46.74274" lon="5.50218">
        <ele>219.4</ele>
        <time>2022-05-07T12:49:21Z</time>
      </trkpt>
      <trkpt lat="46.74241" lon="5.50292">
        <ele>220.2</ele>
        <time>2022-05-07T12:49:30Z</time>
      </trkpt>
      <trkpt lat="46.74234" lon="5.50309">
        <ele>220.2</ele>
        <time>2022-05-07T12:49:32Z</time>
      </trkpt>
      <trkpt lat="46.74202" lon="5.50382">
        <ele>220.2</ele>
        <time>2022-05-07T12:49:41Z</time>
      </trkpt>
      <trkpt lat="46.74198" lon="5.5039">
        <ele>220.2</ele>
        <time>2022-05-07T12:49:42Z</time>
      </trkpt>
      <trkpt lat="46.74172" lon="5.50458">
        <ele>220.6</ele>
        <time>2022-05-07T12:49:50Z</time>
      </trkpt>
      <trkpt lat="46.74169" lon="5.50467">
        <ele>220.6</ele>
        <time>2022-05-07T12:49:51Z</time>
      </trkpt>
      <trkpt lat="46.74151" lon="5.50549">
        <ele>220.2</ele>
        <time>2022-05-07T12:50:00Z</time>
      </trkpt>
      <trkpt lat="46.74146" lon="5.50588">
        <ele>220.6</ele>
        <time>2022-05-07T12:50:05Z</time>
      </trkpt>
      <trkpt lat="46.74146" lon="5.50596">
        <ele>221</ele>
        <time>2022-05-07T12:50:06Z</time>
      </trkpt>
      <trkpt lat="46.74146" lon="5.50605">
        <ele>221.2</ele>
        <time>2022-05-07T12:50:07Z</time>
      </trkpt>
      <trkpt lat="46.74147" lon="5.50611">
        <ele>221.6</ele>
        <time>2022-05-07T12:50:08Z</time>
      </trkpt>
      <trkpt lat="46.74149" lon="5.50633">
        <ele>222.2</ele>
        <time>2022-05-07T12:50:11Z</time>
      </trkpt>
      <trkpt lat="46.74152" lon="5.50649">
        <ele>222.6</ele>
        <time>2022-05-07T12:50:13Z</time>
      </trkpt>
      <trkpt lat="46.74154" lon="5.50662">
        <ele>223.8</ele>
        <time>2022-05-07T12:50:15Z</time>
      </trkpt>
      <trkpt lat="46.7416" lon="5.50689">
        <ele>225</ele>
        <time>2022-05-07T12:50:19Z</time>
      </trkpt>
      <trkpt lat="46.74162" lon="5.50696">
        <ele>225.2</ele>
        <time>2022-05-07T12:50:20Z</time>
      </trkpt>
      <trkpt lat="46.74169" lon="5.50724">
        <ele>226</ele>
        <time>2022-05-07T12:50:24Z</time>
      </trkpt>
      <trkpt lat="46.74174" lon="5.50745">
        <ele>226.2</ele>
        <time>2022-05-07T12:50:27Z</time>
      </trkpt>
      <trkpt lat="46.74184" lon="5.50781">
        <ele>227</ele>
        <time>2022-05-07T12:50:32Z</time>
      </trkpt>
      <trkpt lat="46.74185" lon="5.50789">
        <ele>227</ele>
        <time>2022-05-07T12:50:33Z</time>
      </trkpt>
      <trkpt lat="46.74187" lon="5.50796">
        <ele>227.2</ele>
        <time>2022-05-07T12:50:34Z</time>
      </trkpt>
      <trkpt lat="46.74197" lon="5.50852">
        <ele>227.6</ele>
        <time>2022-05-07T12:50:41Z</time>
      </trkpt>
      <trkpt lat="46.74211" lon="5.50906">
        <ele>228.2</ele>
        <time>2022-05-07T12:50:48Z</time>
      </trkpt>
      <trkpt lat="46.74217" lon="5.50928">
        <ele>228.6</ele>
        <time>2022-05-07T12:50:51Z</time>
      </trkpt>
      <trkpt lat="46.74222" lon="5.50949">
        <ele>229.2</ele>
        <time>2022-05-07T12:50:54Z</time>
      </trkpt>
      <trkpt lat="46.74227" lon="5.50968">
        <ele>229.6</ele>
        <time>2022-05-07T12:50:57Z</time>
      </trkpt>
      <trkpt lat="46.74229" lon="5.50974">
        <ele>229.8</ele>
        <time>2022-05-07T12:50:58Z</time>
      </trkpt>
      <trkpt lat="46.74233" lon="5.50984">
        <ele>230.2</ele>
        <time>2022-05-07T12:51:00Z</time>
      </trkpt>
      <trkpt lat="46.74244" lon="5.51009">
        <ele>231.4</ele>
        <time>2022-05-07T12:51:05Z</time>
      </trkpt>
      <trkpt lat="46.74246" lon="5.51014">
        <ele>231.4</ele>
        <time>2022-05-07T12:51:06Z</time>
      </trkpt>
      <trkpt lat="46.74255" lon="5.51032">
        <ele>232.8</ele>
        <time>2022-05-07T12:51:10Z</time>
      </trkpt>
      <trkpt lat="46.74262" lon="5.51053">
        <ele>233.8</ele>
        <time>2022-05-07T12:51:14Z</time>
      </trkpt>
      <trkpt lat="46.74263" lon="5.51058">
        <ele>234</ele>
        <time>2022-05-07T12:51:15Z</time>
      </trkpt>
      <trkpt lat="46.74265" lon="5.51081">
        <ele>235</ele>
        <time>2022-05-07T12:51:19Z</time>
      </trkpt>
      <trkpt lat="46.74265" lon="5.511">
        <ele>235.4</ele>
        <time>2022-05-07T12:51:22Z</time>
      </trkpt>
      <trkpt lat="46.74264" lon="5.51142">
        <ele>236</ele>
        <time>2022-05-07T12:51:28Z</time>
      </trkpt>
      <trkpt lat="46.74264" lon="5.51165">
        <ele>236</ele>
        <time>2022-05-07T12:51:31Z</time>
      </trkpt>
      <trkpt lat="46.74263" lon="5.5122">
        <ele>235.4</ele>
        <time>2022-05-07T12:51:37Z</time>
      </trkpt>
      <trkpt lat="46.74264" lon="5.51266">
        <ele>235</ele>
        <time>2022-05-07T12:51:42Z</time>
      </trkpt>
      <trkpt lat="46.74265" lon="5.51282">
        <ele>235</ele>
        <time>2022-05-07T12:51:44Z</time>
      </trkpt>
      <trkpt lat="46.74267" lon="5.51348">
        <ele>235.2</ele>
        <time>2022-05-07T12:51:52Z</time>
      </trkpt>
      <trkpt lat="46.7427" lon="5.51413">
        <ele>235.8</ele>
        <time>2022-05-07T12:52:00Z</time>
      </trkpt>
      <trkpt lat="46.74272" lon="5.51436">
        <ele>236.2</ele>
        <time>2022-05-07T12:52:03Z</time>
      </trkpt>
      <trkpt lat="46.74271" lon="5.51475">
        <ele>236.8</ele>
        <time>2022-05-07T12:52:08Z</time>
      </trkpt>
      <trkpt lat="46.74269" lon="5.51514">
        <ele>237.2</ele>
        <time>2022-05-07T12:52:13Z</time>
      </trkpt>
      <trkpt lat="46.74271" lon="5.51545">
        <ele>237.6</ele>
        <time>2022-05-07T12:52:17Z</time>
      </trkpt>
      <trkpt lat="46.74277" lon="5.51558">
        <ele>237.8</ele>
        <time>2022-05-07T12:52:19Z</time>
      </trkpt>
      <trkpt lat="46.74284" lon="5.5157">
        <ele>238.2</ele>
        <time>2022-05-07T12:52:21Z</time>
      </trkpt>
      <trkpt lat="46.74302" lon="5.51596">
        <ele>239.4</ele>
        <time>2022-05-07T12:52:26Z</time>
      </trkpt>
      <trkpt lat="46.74312" lon="5.51614">
        <ele>239.8</ele>
        <time>2022-05-07T12:52:29Z</time>
      </trkpt>
      <trkpt lat="46.74329" lon="5.5164">
        <ele>240.8</ele>
        <time>2022-05-07T12:52:34Z</time>
      </trkpt>
      <trkpt lat="46.74344" lon="5.51657">
        <ele>241.6</ele>
        <time>2022-05-07T12:52:38Z</time>
      </trkpt>
      <trkpt lat="46.74347" lon="5.51661">
        <ele>241.8</ele>
        <time>2022-05-07T12:52:39Z</time>
      </trkpt>
      <trkpt lat="46.74378" lon="5.51692">
        <ele>243</ele>
        <time>2022-05-07T12:52:47Z</time>
      </trkpt>
      <trkpt lat="46.74394" lon="5.51708">
        <ele>244.2</ele>
        <time>2022-05-07T12:52:51Z</time>
      </trkpt>
      <trkpt lat="46.74414" lon="5.51726">
        <ele>245.2</ele>
        <time>2022-05-07T12:52:56Z</time>
      </trkpt>
      <trkpt lat="46.74418" lon="5.5173">
        <ele>245.4</ele>
        <time>2022-05-07T12:52:57Z</time>
      </trkpt>
      <trkpt lat="46.74447" lon="5.51754">
        <ele>246.4</ele>
        <time>2022-05-07T12:53:04Z</time>
      </trkpt>
      <trkpt lat="46.74482" lon="5.51779">
        <ele>247.2</ele>
        <time>2022-05-07T12:53:12Z</time>
      </trkpt>
      <trkpt lat="46.74511" lon="5.51797">
        <ele>247.2</ele>
        <time>2022-05-07T12:53:19Z</time>
      </trkpt>
      <trkpt lat="46.74515" lon="5.518">
        <ele>247.2</ele>
        <time>2022-05-07T12:53:20Z</time>
      </trkpt>
      <trkpt lat="46.74565" lon="5.51828">
        <ele>247.2</ele>
        <time>2022-05-07T12:53:31Z</time>
      </trkpt>
      <trkpt lat="46.74593" lon="5.51843">
        <ele>247.4</ele>
        <time>2022-05-07T12:53:37Z</time>
      </trkpt>
      <trkpt lat="46.74621" lon="5.5186">
        <ele>247.8</ele>
        <time>2022-05-07T12:53:43Z</time>
      </trkpt>
      <trkpt lat="46.74675" lon="5.51895">
        <ele>247.8</ele>
        <time>2022-05-07T12:53:54Z</time>
      </trkpt>
      <trkpt lat="46.74696" lon="5.51916">
        <ele>247.8</ele>
        <time>2022-05-07T12:53:58Z</time>
      </trkpt>
      <trkpt lat="46.74715" lon="5.51943">
        <ele>247.8</ele>
        <time>2022-05-07T12:54:02Z</time>
      </trkpt>
      <trkpt lat="46.7473" lon="5.51961">
        <ele>247.8</ele>
        <time>2022-05-07T12:54:05Z</time>
      </trkpt>
      <trkpt lat="46.74761" lon="5.51994">
        <ele>247.6</ele>
        <time>2022-05-07T12:54:11Z</time>
      </trkpt>
      <trkpt lat="46.74772" lon="5.52004">
        <ele>247.4</ele>
        <time>2022-05-07T12:54:13Z</time>
      </trkpt>
      <trkpt lat="46.74813" lon="5.52032">
        <ele>246.8</ele>
        <time>2022-05-07T12:54:20Z</time>
      </trkpt>
      <trkpt lat="46.74849" lon="5.52051">
        <ele>246.4</ele>
        <time>2022-05-07T12:54:26Z</time>
      </trkpt>
      <trkpt lat="46.74874" lon="5.52062">
        <ele>246</ele>
        <time>2022-05-07T12:54:30Z</time>
      </trkpt>
      <trkpt lat="46.74913" lon="5.52084">
        <ele>245.2</ele>
        <time>2022-05-07T12:54:36Z</time>
      </trkpt>
      <trkpt lat="46.74943" lon="5.52105">
        <ele>244</ele>
        <time>2022-05-07T12:54:40Z</time>
      </trkpt>
      <trkpt lat="46.74951" lon="5.52111">
        <ele>243.4</ele>
        <time>2022-05-07T12:54:41Z</time>
      </trkpt>
      <trkpt lat="46.74959" lon="5.52116">
        <ele>242.6</ele>
        <time>2022-05-07T12:54:42Z</time>
      </trkpt>
      <trkpt lat="46.75002" lon="5.5214">
        <ele>241.6</ele>
        <time>2022-05-07T12:54:48Z</time>
      </trkpt>
      <trkpt lat="46.75036" lon="5.52157">
        <ele>241.4</ele>
        <time>2022-05-07T12:54:53Z</time>
      </trkpt>
      <trkpt lat="46.75047" lon="5.52169">
        <ele>241.6</ele>
        <time>2022-05-07T12:54:55Z</time>
      </trkpt>
      <trkpt lat="46.7506" lon="5.52197">
        <ele>241.6</ele>
        <time>2022-05-07T12:54:59Z</time>
      </trkpt>
      <trkpt lat="46.75062" lon="5.52204">
        <ele>241.8</ele>
        <time>2022-05-07T12:55:00Z</time>
      </trkpt>
      <trkpt lat="46.75067" lon="5.52227">
        <ele>242.2</ele>
        <time>2022-05-07T12:55:03Z</time>
      </trkpt>
      <trkpt lat="46.75069" lon="5.52235">
        <ele>242.2</ele>
        <time>2022-05-07T12:55:04Z</time>
      </trkpt>
      <trkpt lat="46.75072" lon="5.52242">
        <ele>242.6</ele>
        <time>2022-05-07T12:55:05Z</time>
      </trkpt>
      <trkpt lat="46.7508" lon="5.52257">
        <ele>243</ele>
        <time>2022-05-07T12:55:07Z</time>
      </trkpt>
      <trkpt lat="46.75084" lon="5.52264">
        <ele>243</ele>
        <time>2022-05-07T12:55:08Z</time>
      </trkpt>
      <trkpt lat="46.751" lon="5.52288">
        <ele>243.2</ele>
        <time>2022-05-07T12:55:12Z</time>
      </trkpt>
      <trkpt lat="46.7512" lon="5.52315">
        <ele>243.6</ele>
        <time>2022-05-07T12:55:17Z</time>
      </trkpt>
      <trkpt lat="46.75125" lon="5.52319">
        <ele>243.6</ele>
        <time>2022-05-07T12:55:18Z</time>
      </trkpt>
      <trkpt lat="46.75153" lon="5.52348">
        <ele>244.6</ele>
        <time>2022-05-07T12:55:24Z</time>
      </trkpt>
      <trkpt lat="46.75157" lon="5.52353">
        <ele>244.6</ele>
        <time>2022-05-07T12:55:25Z</time>
      </trkpt>
      <trkpt lat="46.75195" lon="5.52394">
        <ele>245.8</ele>
        <time>2022-05-07T12:55:33Z</time>
      </trkpt>
      <trkpt lat="46.75223" lon="5.52416">
        <ele>246</ele>
        <time>2022-05-07T12:55:38Z</time>
      </trkpt>
      <trkpt lat="46.75249" lon="5.52433">
        <ele>245.6</ele>
        <time>2022-05-07T12:55:42Z</time>
      </trkpt>
      <trkpt lat="46.75261" lon="5.52443">
        <ele>245.2</ele>
        <time>2022-05-07T12:55:44Z</time>
      </trkpt>
      <trkpt lat="46.75267" lon="5.52449">
        <ele>244.8</ele>
        <time>2022-05-07T12:55:45Z</time>
      </trkpt>
      <trkpt lat="46.75286" lon="5.52466">
        <ele>244.2</ele>
        <time>2022-05-07T12:55:48Z</time>
      </trkpt>
      <trkpt lat="46.75307" lon="5.52484">
        <ele>243.6</ele>
        <time>2022-05-07T12:55:51Z</time>
      </trkpt>
      <trkpt lat="46.75342" lon="5.52512">
        <ele>243</ele>
        <time>2022-05-07T12:55:56Z</time>
      </trkpt>
      <trkpt lat="46.75372" lon="5.52535">
        <ele>243.2</ele>
        <time>2022-05-07T12:56:01Z</time>
      </trkpt>
      <trkpt lat="46.75399" lon="5.52557">
        <ele>244.6</ele>
        <time>2022-05-07T12:56:06Z</time>
      </trkpt>
      <trkpt lat="46.75408" lon="5.52567">
        <ele>245.4</ele>
        <time>2022-05-07T12:56:08Z</time>
      </trkpt>
      <trkpt lat="46.75416" lon="5.52576">
        <ele>245.8</ele>
        <time>2022-05-07T12:56:10Z</time>
      </trkpt>
      <trkpt lat="46.75422" lon="5.52583">
        <ele>246.4</ele>
        <time>2022-05-07T12:56:12Z</time>
      </trkpt>
      <trkpt lat="46.7543" lon="5.52592">
        <ele>247.2</ele>
        <time>2022-05-07T12:56:15Z</time>
      </trkpt>
      <trkpt lat="46.75434" lon="5.52595">
        <ele>247.6</ele>
        <time>2022-05-07T12:56:16Z</time>
      </trkpt>
      <trkpt lat="46.75444" lon="5.52605">
        <ele>248.8</ele>
        <time>2022-05-07T12:56:19Z</time>
      </trkpt>
      <trkpt lat="46.75451" lon="5.5261">
        <ele>249.4</ele>
        <time>2022-05-07T12:56:21Z</time>
      </trkpt>
      <trkpt lat="46.75454" lon="5.52614">
        <ele>249.8</ele>
        <time>2022-05-07T12:56:22Z</time>
      </trkpt>
      <trkpt lat="46.75475" lon="5.52634">
        <ele>250.8</ele>
        <time>2022-05-07T12:56:28Z</time>
      </trkpt>
      <trkpt lat="46.75498" lon="5.52657">
        <ele>251.2</ele>
        <time>2022-05-07T12:56:33Z</time>
      </trkpt>
      <trkpt lat="46.75529" lon="5.52679">
        <ele>250.8</ele>
        <time>2022-05-07T12:56:38Z</time>
      </trkpt>
      <trkpt lat="46.75563" lon="5.527">
        <ele>249.8</ele>
        <time>2022-05-07T12:56:43Z</time>
      </trkpt>
      <trkpt lat="46.75576" lon="5.52708">
        <ele>249.4</ele>
        <time>2022-05-07T12:56:45Z</time>
      </trkpt>
      <trkpt lat="46.7559" lon="5.52717">
        <ele>248.8</ele>
        <time>2022-05-07T12:56:47Z</time>
      </trkpt>
      <trkpt lat="46.75611" lon="5.52732">
        <ele>247.6</ele>
        <time>2022-05-07T12:56:50Z</time>
      </trkpt>
      <trkpt lat="46.75618" lon="5.52738">
        <ele>247.4</ele>
        <time>2022-05-07T12:56:51Z</time>
      </trkpt>
      <trkpt lat="46.75624" lon="5.52745">
        <ele>247</ele>
        <time>2022-05-07T12:56:52Z</time>
      </trkpt>
      <trkpt lat="46.7563" lon="5.52753">
        <ele>246.8</ele>
        <time>2022-05-07T12:56:53Z</time>
      </trkpt>
      <trkpt lat="46.75634" lon="5.52759">
        <ele>246.4</ele>
        <time>2022-05-07T12:56:54Z</time>
      </trkpt>
      <trkpt lat="46.7565" lon="5.52784">
        <ele>246</ele>
        <time>2022-05-07T12:56:57Z</time>
      </trkpt>
      <trkpt lat="46.75668" lon="5.52806">
        <ele>245.6</ele>
        <time>2022-05-07T12:57:00Z</time>
      </trkpt>
      <trkpt lat="46.75686" lon="5.52822">
        <ele>245.4</ele>
        <time>2022-05-07T12:57:03Z</time>
      </trkpt>
      <trkpt lat="46.75726" lon="5.52858">
        <ele>245.4</ele>
        <time>2022-05-07T12:57:10Z</time>
      </trkpt>
      <trkpt lat="46.75748" lon="5.52881">
        <ele>246.6</ele>
        <time>2022-05-07T12:57:15Z</time>
      </trkpt>
      <trkpt lat="46.75752" lon="5.52887">
        <ele>247</ele>
        <time>2022-05-07T12:57:16Z</time>
      </trkpt>
      <trkpt lat="46.75772" lon="5.52911">
        <ele>247.8</ele>
        <time>2022-05-07T12:57:21Z</time>
      </trkpt>
      <trkpt lat="46.75775" lon="5.52917">
        <ele>248</ele>
        <time>2022-05-07T12:57:22Z</time>
      </trkpt>
      <trkpt lat="46.75778" lon="5.52923">
        <ele>248.2</ele>
        <time>2022-05-07T12:57:23Z</time>
      </trkpt>
      <trkpt lat="46.75785" lon="5.52944">
        <ele>248.8</ele>
        <time>2022-05-07T12:57:26Z</time>
      </trkpt>
      <trkpt lat="46.75786" lon="5.52952">
        <ele>249</ele>
        <time>2022-05-07T12:57:27Z</time>
      </trkpt>
      <trkpt lat="46.75798" lon="5.53013">
        <ele>249</ele>
        <time>2022-05-07T12:57:34Z</time>
      </trkpt>
      <trkpt lat="46.75801" lon="5.53022">
        <ele>248.8</ele>
        <time>2022-05-07T12:57:35Z</time>
      </trkpt>
      <trkpt lat="46.75808" lon="5.53041">
        <ele>248.4</ele>
        <time>2022-05-07T12:57:37Z</time>
      </trkpt>
      <trkpt lat="46.75814" lon="5.53049">
        <ele>248</ele>
        <time>2022-05-07T12:57:38Z</time>
      </trkpt>
      <trkpt lat="46.7582" lon="5.53053">
        <ele>247.8</ele>
        <time>2022-05-07T12:57:39Z</time>
      </trkpt>
      <trkpt lat="46.75828" lon="5.53055">
        <ele>247.4</ele>
        <time>2022-05-07T12:57:40Z</time>
      </trkpt>
      <trkpt lat="46.75837" lon="5.53056">
        <ele>246.6</ele>
        <time>2022-05-07T12:57:41Z</time>
      </trkpt>
      <trkpt lat="46.75857" lon="5.53057">
        <ele>245.6</ele>
        <time>2022-05-07T12:57:43Z</time>
      </trkpt>
      <trkpt lat="46.7588" lon="5.53059">
        <ele>244.4</ele>
        <time>2022-05-07T12:57:45Z</time>
      </trkpt>
      <trkpt lat="46.7589" lon="5.53059">
        <ele>243.2</ele>
        <time>2022-05-07T12:57:46Z</time>
      </trkpt>
      <trkpt lat="46.75911" lon="5.5306">
        <ele>241.4</ele>
        <time>2022-05-07T12:57:48Z</time>
      </trkpt>
      <trkpt lat="46.75922" lon="5.53061">
        <ele>240.8</ele>
        <time>2022-05-07T12:57:49Z</time>
      </trkpt>
      <trkpt lat="46.75933" lon="5.53062">
        <ele>239.6</ele>
        <time>2022-05-07T12:57:50Z</time>
      </trkpt>
      <trkpt lat="46.75944" lon="5.53062">
        <ele>238.4</ele>
        <time>2022-05-07T12:57:51Z</time>
      </trkpt>
      <trkpt lat="46.75955" lon="5.53063">
        <ele>237.2</ele>
        <time>2022-05-07T12:57:52Z</time>
      </trkpt>
      <trkpt lat="46.75966" lon="5.53064">
        <ele>235.4</ele>
        <time>2022-05-07T12:57:53Z</time>
      </trkpt>
      <trkpt lat="46.75986" lon="5.53066">
        <ele>233.6</ele>
        <time>2022-05-07T12:57:55Z</time>
      </trkpt>
      <trkpt lat="46.75995" lon="5.53068">
        <ele>233.4</ele>
        <time>2022-05-07T12:57:56Z</time>
      </trkpt>
      <trkpt lat="46.76012" lon="5.53072">
        <ele>232.4</ele>
        <time>2022-05-07T12:57:58Z</time>
      </trkpt>
      <trkpt lat="46.76025" lon="5.53076">
        <ele>231.6</ele>
        <time>2022-05-07T12:58:00Z</time>
      </trkpt>
      <trkpt lat="46.7603" lon="5.53078">
        <ele>231.4</ele>
        <time>2022-05-07T12:58:01Z</time>
      </trkpt>
      <trkpt lat="46.76033" lon="5.5308">
        <ele>231</ele>
        <time>2022-05-07T12:58:02Z</time>
      </trkpt>
      <trkpt lat="46.76033" lon="5.53082">
        <ele>231</ele>
        <time>2022-05-07T12:58:03Z</time>
      </trkpt>
      <trkpt lat="46.76034" lon="5.53082">
        <ele>230.6</ele>
        <time>2022-05-07T12:58:05Z</time>
      </trkpt>
      <trkpt lat="46.76033" lon="5.53091">
        <ele>230.6</ele>
        <time>2022-05-07T12:58:09Z</time>
      </trkpt>
      <trkpt lat="46.76026" lon="5.53112">
        <ele>230.8</ele>
        <time>2022-05-07T12:58:13Z</time>
      </trkpt>
      <trkpt lat="46.76014" lon="5.53147">
        <ele>231</ele>
        <time>2022-05-07T12:58:18Z</time>
      </trkpt>
      <trkpt lat="46.76005" lon="5.5318">
        <ele>231.2</ele>
        <time>2022-05-07T12:58:22Z</time>
      </trkpt>
      <trkpt lat="46.76002" lon="5.53198">
        <ele>231.2</ele>
        <time>2022-05-07T12:58:24Z</time>
      </trkpt>
      <trkpt lat="46.75998" lon="5.53246">
        <ele>231.4</ele>
        <time>2022-05-07T12:58:29Z</time>
      </trkpt>
      <trkpt lat="46.75992" lon="5.53314">
        <ele>231.6</ele>
        <time>2022-05-07T12:58:36Z</time>
      </trkpt>
      <trkpt lat="46.75986" lon="5.53393">
        <ele>231.8</ele>
        <time>2022-05-07T12:58:44Z</time>
      </trkpt>
      <trkpt lat="46.75985" lon="5.53412">
        <ele>231.8</ele>
        <time>2022-05-07T12:58:46Z</time>
      </trkpt>
      <trkpt lat="46.75983" lon="5.53472">
        <ele>232.2</ele>
        <time>2022-05-07T12:58:53Z</time>
      </trkpt>
      <trkpt lat="46.75984" lon="5.53496">
        <ele>232.4</ele>
        <time>2022-05-07T12:58:56Z</time>
      </trkpt>
      <trkpt lat="46.75983" lon="5.5351">
        <ele>232.6</ele>
        <time>2022-05-07T12:58:58Z</time>
      </trkpt>
      <trkpt lat="46.75984" lon="5.53524">
        <ele>232.8</ele>
        <time>2022-05-07T12:59:00Z</time>
      </trkpt>
      <trkpt lat="46.75984" lon="5.53531">
        <ele>233</ele>
        <time>2022-05-07T12:59:01Z</time>
      </trkpt>
      <trkpt lat="46.75979" lon="5.53551">
        <ele>233.4</ele>
        <time>2022-05-07T12:59:04Z</time>
      </trkpt>
      <trkpt lat="46.75976" lon="5.53565">
        <ele>234.2</ele>
        <time>2022-05-07T12:59:06Z</time>
      </trkpt>
      <trkpt lat="46.75976" lon="5.53572">
        <ele>234.8</ele>
        <time>2022-05-07T12:59:07Z</time>
      </trkpt>
      <trkpt lat="46.75974" lon="5.53595">
        <ele>235</ele>
        <time>2022-05-07T12:59:10Z</time>
      </trkpt>
      <trkpt lat="46.75974" lon="5.53603">
        <ele>235.2</ele>
        <time>2022-05-07T12:59:11Z</time>
      </trkpt>
      <trkpt lat="46.75974" lon="5.53619">
        <ele>235.4</ele>
        <time>2022-05-07T12:59:13Z</time>
      </trkpt>
      <trkpt lat="46.75974" lon="5.53636">
        <ele>235.6</ele>
        <time>2022-05-07T12:59:15Z</time>
      </trkpt>
      <trkpt lat="46.75976" lon="5.53644">
        <ele>235.8</ele>
        <time>2022-05-07T12:59:16Z</time>
      </trkpt>
      <trkpt lat="46.75977" lon="5.53652">
        <ele>236.2</ele>
        <time>2022-05-07T12:59:17Z</time>
      </trkpt>
      <trkpt lat="46.75982" lon="5.53667">
        <ele>236.8</ele>
        <time>2022-05-07T12:59:19Z</time>
      </trkpt>
      <trkpt lat="46.75993" lon="5.53709">
        <ele>237</ele>
        <time>2022-05-07T12:59:24Z</time>
      </trkpt>
      <trkpt lat="46.75994" lon="5.5372">
        <ele>236.8</ele>
        <time>2022-05-07T12:59:25Z</time>
      </trkpt>
      <trkpt lat="46.75992" lon="5.53755">
        <ele>235.4</ele>
        <time>2022-05-07T12:59:28Z</time>
      </trkpt>
      <trkpt lat="46.75991" lon="5.53767">
        <ele>235</ele>
        <time>2022-05-07T12:59:29Z</time>
      </trkpt>
      <trkpt lat="46.7599" lon="5.53778">
        <ele>234.8</ele>
        <time>2022-05-07T12:59:30Z</time>
      </trkpt>
      <trkpt lat="46.75987" lon="5.53801">
        <ele>234.2</ele>
        <time>2022-05-07T12:59:32Z</time>
      </trkpt>
      <trkpt lat="46.75985" lon="5.53812">
        <ele>234</ele>
        <time>2022-05-07T12:59:33Z</time>
      </trkpt>
      <trkpt lat="46.75978" lon="5.53881">
        <ele>233.6</ele>
        <time>2022-05-07T12:59:39Z</time>
      </trkpt>
      <trkpt lat="46.75972" lon="5.53925">
        <ele>233.8</ele>
        <time>2022-05-07T12:59:43Z</time>
      </trkpt>
      <trkpt lat="46.75967" lon="5.53945">
        <ele>234</ele>
        <time>2022-05-07T12:59:45Z</time>
      </trkpt>
      <trkpt lat="46.75961" lon="5.53994">
        <ele>234.8</ele>
        <time>2022-05-07T12:59:50Z</time>
      </trkpt>
      <trkpt lat="46.75958" lon="5.54011">
        <ele>235.4</ele>
        <time>2022-05-07T12:59:52Z</time>
      </trkpt>
      <trkpt lat="46.75955" lon="5.54029">
        <ele>236</ele>
        <time>2022-05-07T12:59:54Z</time>
      </trkpt>
      <trkpt lat="46.75955" lon="5.54038">
        <ele>236.2</ele>
        <time>2022-05-07T12:59:55Z</time>
      </trkpt>
      <trkpt lat="46.75956" lon="5.54047">
        <ele>236.6</ele>
        <time>2022-05-07T12:59:56Z</time>
      </trkpt>
      <trkpt lat="46.7596" lon="5.54081">
        <ele>237.4</ele>
        <time>2022-05-07T13:00:00Z</time>
      </trkpt>
      <trkpt lat="46.75962" lon="5.54091">
        <ele>237.6</ele>
        <time>2022-05-07T13:00:01Z</time>
      </trkpt>
      <trkpt lat="46.75969" lon="5.5414">
        <ele>237.8</ele>
        <time>2022-05-07T13:00:06Z</time>
      </trkpt>
      <trkpt lat="46.75976" lon="5.54194">
        <ele>237.8</ele>
        <time>2022-05-07T13:00:11Z</time>
      </trkpt>
      <trkpt lat="46.75978" lon="5.54205">
        <ele>237.6</ele>
        <time>2022-05-07T13:00:12Z</time>
      </trkpt>
      <trkpt lat="46.75986" lon="5.54259">
        <ele>236.6</ele>
        <time>2022-05-07T13:00:17Z</time>
      </trkpt>
      <trkpt lat="46.75992" lon="5.54303">
        <ele>236</ele>
        <time>2022-05-07T13:00:21Z</time>
      </trkpt>
      <trkpt lat="46.76001" lon="5.54369">
        <ele>235.4</ele>
        <time>2022-05-07T13:00:27Z</time>
      </trkpt>
      <trkpt lat="46.76003" lon="5.54391">
        <ele>235</ele>
        <time>2022-05-07T13:00:29Z</time>
      </trkpt>
      <trkpt lat="46.76012" lon="5.54474">
        <ele>235.2</ele>
        <time>2022-05-07T13:00:37Z</time>
      </trkpt>
      <trkpt lat="46.76018" lon="5.54518">
        <ele>235.6</ele>
        <time>2022-05-07T13:00:42Z</time>
      </trkpt>
      <trkpt lat="46.76024" lon="5.54578">
        <ele>236.2</ele>
        <time>2022-05-07T13:00:49Z</time>
      </trkpt>
      <trkpt lat="46.76026" lon="5.54595">
        <ele>236.6</ele>
        <time>2022-05-07T13:00:51Z</time>
      </trkpt>
      <trkpt lat="46.76027" lon="5.54646">
        <ele>237.4</ele>
        <time>2022-05-07T13:00:57Z</time>
      </trkpt>
      <trkpt lat="46.76026" lon="5.54663">
        <ele>237.8</ele>
        <time>2022-05-07T13:00:59Z</time>
      </trkpt>
      <trkpt lat="46.7602" lon="5.54708">
        <ele>238.8</ele>
        <time>2022-05-07T13:01:04Z</time>
      </trkpt>
      <trkpt lat="46.76009" lon="5.5479">
        <ele>238.2</ele>
        <time>2022-05-07T13:01:13Z</time>
      </trkpt>
      <trkpt lat="46.75999" lon="5.54864">
        <ele>238.2</ele>
        <time>2022-05-07T13:01:21Z</time>
      </trkpt>
      <trkpt lat="46.75997" lon="5.54925">
        <ele>238.2</ele>
        <time>2022-05-07T13:01:27Z</time>
      </trkpt>
      <trkpt lat="46.75998" lon="5.55011">
        <ele>238.8</ele>
        <time>2022-05-07T13:01:36Z</time>
      </trkpt>
      <trkpt lat="46.75999" lon="5.55021">
        <ele>239</ele>
        <time>2022-05-07T13:01:37Z</time>
      </trkpt>
      <trkpt lat="46.75999" lon="5.5503">
        <ele>239.2</ele>
        <time>2022-05-07T13:01:38Z</time>
      </trkpt>
      <trkpt lat="46.76" lon="5.55115">
        <ele>239.8</ele>
        <time>2022-05-07T13:01:47Z</time>
      </trkpt>
      <trkpt lat="46.76" lon="5.55124">
        <ele>240</ele>
        <time>2022-05-07T13:01:48Z</time>
      </trkpt>
      <trkpt lat="46.76001" lon="5.55199">
        <ele>240.8</ele>
        <time>2022-05-07T13:01:56Z</time>
      </trkpt>
      <trkpt lat="46.76001" lon="5.55208">
        <ele>241</ele>
        <time>2022-05-07T13:01:57Z</time>
      </trkpt>
      <trkpt lat="46.76002" lon="5.55291">
        <ele>241.8</ele>
        <time>2022-05-07T13:02:06Z</time>
      </trkpt>
      <trkpt lat="46.76003" lon="5.553">
        <ele>242</ele>
        <time>2022-05-07T13:02:07Z</time>
      </trkpt>
      <trkpt lat="46.76003" lon="5.55334">
        <ele>242.4</ele>
        <time>2022-05-07T13:02:11Z</time>
      </trkpt>
      <trkpt lat="46.76002" lon="5.55377">
        <ele>242.8</ele>
        <time>2022-05-07T13:02:16Z</time>
      </trkpt>
      <trkpt lat="46.76001" lon="5.55396">
        <ele>243</ele>
        <time>2022-05-07T13:02:18Z</time>
      </trkpt>
      <trkpt lat="46.75997" lon="5.55449">
        <ele>243.6</ele>
        <time>2022-05-07T13:02:24Z</time>
      </trkpt>
      <trkpt lat="46.75989" lon="5.55531">
        <ele>244</ele>
        <time>2022-05-07T13:02:33Z</time>
      </trkpt>
      <trkpt lat="46.75988" lon="5.5554">
        <ele>244</ele>
        <time>2022-05-07T13:02:34Z</time>
      </trkpt>
      <trkpt lat="46.75986" lon="5.55577">
        <ele>244</ele>
        <time>2022-05-07T13:02:38Z</time>
      </trkpt>
      <trkpt lat="46.75985" lon="5.55595">
        <ele>244.2</ele>
        <time>2022-05-07T13:02:40Z</time>
      </trkpt>
      <trkpt lat="46.75981" lon="5.55658">
        <ele>244.2</ele>
        <time>2022-05-07T13:02:47Z</time>
      </trkpt>
      <trkpt lat="46.75979" lon="5.55694">
        <ele>244.6</ele>
        <time>2022-05-07T13:02:51Z</time>
      </trkpt>
      <trkpt lat="46.75974" lon="5.55729">
        <ele>245</ele>
        <time>2022-05-07T13:02:55Z</time>
      </trkpt>
      <trkpt lat="46.75973" lon="5.55737">
        <ele>245</ele>
        <time>2022-05-07T13:02:56Z</time>
      </trkpt>
      <trkpt lat="46.7597" lon="5.55755">
        <ele>245.4</ele>
        <time>2022-05-07T13:02:58Z</time>
      </trkpt>
      <trkpt lat="46.75961" lon="5.55798">
        <ele>245.6</ele>
        <time>2022-05-07T13:03:03Z</time>
      </trkpt>
      <trkpt lat="46.75958" lon="5.55815">
        <ele>245.8</ele>
        <time>2022-05-07T13:03:05Z</time>
      </trkpt>
      <trkpt lat="46.7595" lon="5.55837">
        <ele>246.4</ele>
        <time>2022-05-07T13:03:08Z</time>
      </trkpt>
      <trkpt lat="46.75945" lon="5.5585">
        <ele>246.8</ele>
        <time>2022-05-07T13:03:10Z</time>
      </trkpt>
      <trkpt lat="46.75938" lon="5.55869">
        <ele>247.4</ele>
        <time>2022-05-07T13:03:13Z</time>
      </trkpt>
      <trkpt lat="46.75936" lon="5.55876">
        <ele>247.4</ele>
        <time>2022-05-07T13:03:14Z</time>
      </trkpt>
      <trkpt lat="46.75935" lon="5.55889">
        <ele>247.6</ele>
        <time>2022-05-07T13:03:16Z</time>
      </trkpt>
      <trkpt lat="46.7594" lon="5.55901">
        <ele>247.8</ele>
        <time>2022-05-07T13:03:18Z</time>
      </trkpt>
      <trkpt lat="46.75944" lon="5.55905">
        <ele>247.8</ele>
        <time>2022-05-07T13:03:19Z</time>
      </trkpt>
      <trkpt lat="46.75949" lon="5.55908">
        <ele>248</ele>
        <time>2022-05-07T13:03:20Z</time>
      </trkpt>
      <trkpt lat="46.75972" lon="5.55921">
        <ele>248</ele>
        <time>2022-05-07T13:03:24Z</time>
      </trkpt>
      <trkpt lat="46.7598" lon="5.55929">
        <ele>248</ele>
        <time>2022-05-07T13:03:26Z</time>
      </trkpt>
      <trkpt lat="46.75982" lon="5.55934">
        <ele>247.6</ele>
        <time>2022-05-07T13:03:27Z</time>
      </trkpt>
      <trkpt lat="46.75981" lon="5.55939">
        <ele>247.2</ele>
        <time>2022-05-07T13:03:28Z</time>
      </trkpt>
      <trkpt lat="46.75977" lon="5.55947">
        <ele>246.8</ele>
        <time>2022-05-07T13:03:30Z</time>
      </trkpt>
      <trkpt lat="46.75971" lon="5.55953">
        <ele>246.8</ele>
        <time>2022-05-07T13:03:32Z</time>
      </trkpt>
      <trkpt lat="46.75958" lon="5.55969">
        <ele>246.6</ele>
        <time>2022-05-07T13:03:36Z</time>
      </trkpt>
      <trkpt lat="46.75951" lon="5.55979">
        <ele>246.8</ele>
        <time>2022-05-07T13:03:38Z</time>
      </trkpt>
      <trkpt lat="46.75946" lon="5.55988">
        <ele>247</ele>
        <time>2022-05-07T13:03:40Z</time>
      </trkpt>
      <trkpt lat="46.75941" lon="5.55997">
        <ele>247.8</ele>
        <time>2022-05-07T13:03:42Z</time>
      </trkpt>
      <trkpt lat="46.75936" lon="5.56006">
        <ele>248.2</ele>
        <time>2022-05-07T13:03:44Z</time>
      </trkpt>
      <trkpt lat="46.75934" lon="5.56011">
        <ele>248.4</ele>
        <time>2022-05-07T13:03:45Z</time>
      </trkpt>
      <trkpt lat="46.75925" lon="5.56028">
        <ele>249.2</ele>
        <time>2022-05-07T13:03:49Z</time>
      </trkpt>
      <trkpt lat="46.7592" lon="5.56035">
        <ele>249.8</ele>
        <time>2022-05-07T13:03:51Z</time>
      </trkpt>
      <trkpt lat="46.7591" lon="5.56044">
        <ele>250.4</ele>
        <time>2022-05-07T13:03:54Z</time>
      </trkpt>
      <trkpt lat="46.75903" lon="5.56052">
        <ele>251</ele>
        <time>2022-05-07T13:03:56Z</time>
      </trkpt>
      <trkpt lat="46.75892" lon="5.56065">
        <ele>251.8</ele>
        <time>2022-05-07T13:03:59Z</time>
      </trkpt>
      <trkpt lat="46.75889" lon="5.56068">
        <ele>252.4</ele>
        <time>2022-05-07T13:04:00Z</time>
      </trkpt>
      <trkpt lat="46.75879" lon="5.56086">
        <ele>253</ele>
        <time>2022-05-07T13:04:04Z</time>
      </trkpt>
      <trkpt lat="46.75875" lon="5.56095">
        <ele>253.4</ele>
        <time>2022-05-07T13:04:06Z</time>
      </trkpt>
      <trkpt lat="46.7587" lon="5.56112">
        <ele>254.6</ele>
        <time>2022-05-07T13:04:09Z</time>
      </trkpt>
      <trkpt lat="46.75869" lon="5.56119">
        <ele>255</ele>
        <time>2022-05-07T13:04:10Z</time>
      </trkpt>
      <trkpt lat="46.75871" lon="5.56151">
        <ele>255.8</ele>
        <time>2022-05-07T13:04:16Z</time>
      </trkpt>
      <trkpt lat="46.75873" lon="5.56166">
        <ele>256.8</ele>
        <time>2022-05-07T13:04:19Z</time>
      </trkpt>
      <trkpt lat="46.75875" lon="5.56178">
        <ele>257.4</ele>
        <time>2022-05-07T13:04:21Z</time>
      </trkpt>
      <trkpt lat="46.75878" lon="5.56188">
        <ele>258</ele>
        <time>2022-05-07T13:04:23Z</time>
      </trkpt>
      <trkpt lat="46.75885" lon="5.56195">
        <ele>258</ele>
        <time>2022-05-07T13:04:25Z</time>
      </trkpt>
      <trkpt lat="46.75905" lon="5.56213">
        <ele>258.6</ele>
        <time>2022-05-07T13:04:30Z</time>
      </trkpt>
      <trkpt lat="46.75909" lon="5.56217">
        <ele>258.8</ele>
        <time>2022-05-07T13:04:31Z</time>
      </trkpt>
      <trkpt lat="46.75917" lon="5.56223">
        <ele>259</ele>
        <time>2022-05-07T13:04:33Z</time>
      </trkpt>
      <trkpt lat="46.75934" lon="5.56238">
        <ele>259.4</ele>
        <time>2022-05-07T13:04:37Z</time>
      </trkpt>
      <trkpt lat="46.75938" lon="5.56245">
        <ele>259.6</ele>
        <time>2022-05-07T13:04:38Z</time>
      </trkpt>
      <trkpt lat="46.75943" lon="5.56259">
        <ele>259.4</ele>
        <time>2022-05-07T13:04:40Z</time>
      </trkpt>
      <trkpt lat="46.7595" lon="5.56283">
        <ele>259.4</ele>
        <time>2022-05-07T13:04:43Z</time>
      </trkpt>
      <trkpt lat="46.75955" lon="5.56299">
        <ele>259.2</ele>
        <time>2022-05-07T13:04:45Z</time>
      </trkpt>
      <trkpt lat="46.75959" lon="5.56318">
        <ele>258.8</ele>
        <time>2022-05-07T13:04:47Z</time>
      </trkpt>
      <trkpt lat="46.75961" lon="5.56338">
        <ele>258.4</ele>
        <time>2022-05-07T13:04:49Z</time>
      </trkpt>
      <trkpt lat="46.7596" lon="5.56362">
        <ele>258</ele>
        <time>2022-05-07T13:04:51Z</time>
      </trkpt>
      <trkpt lat="46.75957" lon="5.56374">
        <ele>257.8</ele>
        <time>2022-05-07T13:04:52Z</time>
      </trkpt>
      <trkpt lat="46.75948" lon="5.5641">
        <ele>256.6</ele>
        <time>2022-05-07T13:04:55Z</time>
      </trkpt>
      <trkpt lat="46.75946" lon="5.56422">
        <ele>256</ele>
        <time>2022-05-07T13:04:56Z</time>
      </trkpt>
      <trkpt lat="46.75939" lon="5.56448">
        <ele>254.8</ele>
        <time>2022-05-07T13:04:58Z</time>
      </trkpt>
      <trkpt lat="46.75928" lon="5.56486">
        <ele>253.2</ele>
        <time>2022-05-07T13:05:01Z</time>
      </trkpt>
      <trkpt lat="46.75914" lon="5.56533">
        <ele>252.2</ele>
        <time>2022-05-07T13:05:05Z</time>
      </trkpt>
      <trkpt lat="46.75901" lon="5.56579">
        <ele>251.6</ele>
        <time>2022-05-07T13:05:09Z</time>
      </trkpt>
      <trkpt lat="46.75892" lon="5.56608">
        <ele>251.2</ele>
        <time>2022-05-07T13:05:12Z</time>
      </trkpt>
      <trkpt lat="46.75889" lon="5.56616">
        <ele>251.2</ele>
        <time>2022-05-07T13:05:13Z</time>
      </trkpt>
      <trkpt lat="46.75875" lon="5.56665">
        <ele>251.4</ele>
        <time>2022-05-07T13:05:18Z</time>
      </trkpt>
      <trkpt lat="46.75874" lon="5.56694">
        <ele>252.2</ele>
        <time>2022-05-07T13:05:21Z</time>
      </trkpt>
      <trkpt lat="46.75874" lon="5.56704">
        <ele>252.2</ele>
        <time>2022-05-07T13:05:22Z</time>
      </trkpt>
      <trkpt lat="46.75885" lon="5.5679">
        <ele>253</ele>
        <time>2022-05-07T13:05:30Z</time>
      </trkpt>
      <trkpt lat="46.75887" lon="5.56798">
        <ele>252.8</ele>
        <time>2022-05-07T13:05:31Z</time>
      </trkpt>
      <trkpt lat="46.759" lon="5.56868">
        <ele>252</ele>
        <time>2022-05-07T13:05:38Z</time>
      </trkpt>
      <trkpt lat="46.75903" lon="5.56886">
        <ele>251.2</ele>
        <time>2022-05-07T13:05:40Z</time>
      </trkpt>
      <trkpt lat="46.75904" lon="5.56899">
        <ele>251.2</ele>
        <time>2022-05-07T13:05:41Z</time>
      </trkpt>
      <trkpt lat="46.75902" lon="5.5691">
        <ele>251</ele>
        <time>2022-05-07T13:05:42Z</time>
      </trkpt>
      <trkpt lat="46.759" lon="5.56921">
        <ele>250.8</ele>
        <time>2022-05-07T13:05:43Z</time>
      </trkpt>
      <trkpt lat="46.7589" lon="5.56938">
        <ele>250.4</ele>
        <time>2022-05-07T13:05:45Z</time>
      </trkpt>
      <trkpt lat="46.75877" lon="5.56952">
        <ele>250.2</ele>
        <time>2022-05-07T13:05:47Z</time>
      </trkpt>
      <trkpt lat="46.7584" lon="5.56989">
        <ele>249.6</ele>
        <time>2022-05-07T13:05:53Z</time>
      </trkpt>
      <trkpt lat="46.75833" lon="5.56995">
        <ele>249.8</ele>
        <time>2022-05-07T13:05:54Z</time>
      </trkpt>
      <trkpt lat="46.75823" lon="5.57011">
        <ele>249.6</ele>
        <time>2022-05-07T13:05:56Z</time>
      </trkpt>
      <trkpt lat="46.75818" lon="5.57021">
        <ele>249.4</ele>
        <time>2022-05-07T13:05:57Z</time>
      </trkpt>
      <trkpt lat="46.75815" lon="5.5703">
        <ele>249.2</ele>
        <time>2022-05-07T13:05:58Z</time>
      </trkpt>
      <trkpt lat="46.75812" lon="5.57041">
        <ele>249</ele>
        <time>2022-05-07T13:05:59Z</time>
      </trkpt>
      <trkpt lat="46.75808" lon="5.57062">
        <ele>249</ele>
        <time>2022-05-07T13:06:01Z</time>
      </trkpt>
      <trkpt lat="46.75799" lon="5.57129">
        <ele>247.8</ele>
        <time>2022-05-07T13:06:07Z</time>
      </trkpt>
      <trkpt lat="46.75797" lon="5.57144">
        <ele>247.4</ele>
        <time>2022-05-07T13:06:08Z</time>
      </trkpt>
      <trkpt lat="46.75794" lon="5.57171">
        <ele>246.8</ele>
        <time>2022-05-07T13:06:10Z</time>
      </trkpt>
      <trkpt lat="46.7579" lon="5.57196">
        <ele>246.4</ele>
        <time>2022-05-07T13:06:12Z</time>
      </trkpt>
      <trkpt lat="46.75786" lon="5.57206">
        <ele>245.8</ele>
        <time>2022-05-07T13:06:13Z</time>
      </trkpt>
      <trkpt lat="46.7578" lon="5.57214">
        <ele>245.4</ele>
        <time>2022-05-07T13:06:14Z</time>
      </trkpt>
      <trkpt lat="46.75773" lon="5.57219">
        <ele>245</ele>
        <time>2022-05-07T13:06:15Z</time>
      </trkpt>
      <trkpt lat="46.75758" lon="5.57226">
        <ele>244.6</ele>
        <time>2022-05-07T13:06:17Z</time>
      </trkpt>
      <trkpt lat="46.75743" lon="5.57233">
        <ele>244.6</ele>
        <time>2022-05-07T13:06:19Z</time>
      </trkpt>
      <trkpt lat="46.75738" lon="5.57236">
        <ele>244.6</ele>
        <time>2022-05-07T13:06:20Z</time>
      </trkpt>
      <trkpt lat="46.75712" lon="5.57254">
        <ele>246.6</ele>
        <time>2022-05-07T13:06:24Z</time>
      </trkpt>
      <trkpt lat="46.75707" lon="5.57257">
        <ele>247.2</ele>
        <time>2022-05-07T13:06:25Z</time>
      </trkpt>
      <trkpt lat="46.75695" lon="5.57265">
        <ele>248</ele>
        <time>2022-05-07T13:06:27Z</time>
      </trkpt>
      <trkpt lat="46.75672" lon="5.57279">
        <ele>249.8</ele>
        <time>2022-05-07T13:06:31Z</time>
      </trkpt>
      <trkpt lat="46.75662" lon="5.57287">
        <ele>250.8</ele>
        <time>2022-05-07T13:06:33Z</time>
      </trkpt>
      <trkpt lat="46.75658" lon="5.5729">
        <ele>251.2</ele>
        <time>2022-05-07T13:06:34Z</time>
      </trkpt>
      <trkpt lat="46.75649" lon="5.57301">
        <ele>251.6</ele>
        <time>2022-05-07T13:06:36Z</time>
      </trkpt>
      <trkpt lat="46.75626" lon="5.5734">
        <ele>252</ele>
        <time>2022-05-07T13:06:42Z</time>
      </trkpt>
      <trkpt lat="46.75591" lon="5.574">
        <ele>251.8</ele>
        <time>2022-05-07T13:06:52Z</time>
      </trkpt>
      <trkpt lat="46.75584" lon="5.57409">
        <ele>252</ele>
        <time>2022-05-07T13:06:54Z</time>
      </trkpt>
      <trkpt lat="46.75582" lon="5.57414">
        <ele>252</ele>
        <time>2022-05-07T13:06:55Z</time>
      </trkpt>
      <trkpt lat="46.75581" lon="5.57421">
        <ele>252</ele>
        <time>2022-05-07T13:06:56Z</time>
      </trkpt>
      <trkpt lat="46.75582" lon="5.57435">
        <ele>252</ele>
        <time>2022-05-07T13:06:58Z</time>
      </trkpt>
      <trkpt lat="46.75582" lon="5.57443">
        <ele>252</ele>
        <time>2022-05-07T13:06:59Z</time>
      </trkpt>
      <trkpt lat="46.75584" lon="5.57468">
        <ele>252</ele>
        <time>2022-05-07T13:07:02Z</time>
      </trkpt>
      <trkpt lat="46.75589" lon="5.57483">
        <ele>251.8</ele>
        <time>2022-05-07T13:07:04Z</time>
      </trkpt>
      <trkpt lat="46.75596" lon="5.57497">
        <ele>251.8</ele>
        <time>2022-05-07T13:07:06Z</time>
      </trkpt>
      <trkpt lat="46.75604" lon="5.57507">
        <ele>252</ele>
        <time>2022-05-07T13:07:08Z</time>
      </trkpt>
      <trkpt lat="46.75613" lon="5.57514">
        <ele>252.2</ele>
        <time>2022-05-07T13:07:10Z</time>
      </trkpt>
      <trkpt lat="46.75618" lon="5.57519">
        <ele>252.2</ele>
        <time>2022-05-07T13:07:11Z</time>
      </trkpt>
      <trkpt lat="46.75622" lon="5.57523">
        <ele>252.2</ele>
        <time>2022-05-07T13:07:12Z</time>
      </trkpt>
      <trkpt lat="46.75627" lon="5.57527">
        <ele>252.4</ele>
        <time>2022-05-07T13:07:13Z</time>
      </trkpt>
      <trkpt lat="46.75649" lon="5.57546">
        <ele>253</ele>
        <time>2022-05-07T13:07:18Z</time>
      </trkpt>
      <trkpt lat="46.75652" lon="5.57549">
        <ele>253</ele>
        <time>2022-05-07T13:07:19Z</time>
      </trkpt>
      <trkpt lat="46.75661" lon="5.57558">
        <ele>253.2</ele>
        <time>2022-05-07T13:07:21Z</time>
      </trkpt>
      <trkpt lat="46.75685" lon="5.57579">
        <ele>253.2</ele>
        <time>2022-05-07T13:07:27Z</time>
      </trkpt>
      <trkpt lat="46.75694" lon="5.57586">
        <ele>253.6</ele>
        <time>2022-05-07T13:07:29Z</time>
      </trkpt>
      <trkpt lat="46.75717" lon="5.57605">
        <ele>253.8</ele>
        <time>2022-05-07T13:07:34Z</time>
      </trkpt>
      <trkpt lat="46.75739" lon="5.57626">
        <ele>254.4</ele>
        <time>2022-05-07T13:07:39Z</time>
      </trkpt>
      <trkpt lat="46.75743" lon="5.57631">
        <ele>254.4</ele>
        <time>2022-05-07T13:07:40Z</time>
      </trkpt>
      <trkpt lat="46.75766" lon="5.57663">
        <ele>255.4</ele>
        <time>2022-05-07T13:07:46Z</time>
      </trkpt>
      <trkpt lat="46.7578" lon="5.57683">
        <ele>255.8</ele>
        <time>2022-05-07T13:07:50Z</time>
      </trkpt>
      <trkpt lat="46.75808" lon="5.57723">
        <ele>256.2</ele>
        <time>2022-05-07T13:07:58Z</time>
      </trkpt>
      <trkpt lat="46.75824" lon="5.5775">
        <ele>256.4</ele>
        <time>2022-05-07T13:08:03Z</time>
      </trkpt>
      <trkpt lat="46.75834" lon="5.57766">
        <ele>256.2</ele>
        <time>2022-05-07T13:08:06Z</time>
      </trkpt>
      <trkpt lat="46.75854" lon="5.57792">
        <ele>256.2</ele>
        <time>2022-05-07T13:08:11Z</time>
      </trkpt>
      <trkpt lat="46.75861" lon="5.57803">
        <ele>256.2</ele>
        <time>2022-05-07T13:08:13Z</time>
      </trkpt>
      <trkpt lat="46.75881" lon="5.57835">
        <ele>256.6</ele>
        <time>2022-05-07T13:08:19Z</time>
      </trkpt>
      <trkpt lat="46.75889" lon="5.57846">
        <ele>256.8</ele>
        <time>2022-05-07T13:08:21Z</time>
      </trkpt>
      <trkpt lat="46.75899" lon="5.5786">
        <ele>257</ele>
        <time>2022-05-07T13:08:24Z</time>
      </trkpt>
      <trkpt lat="46.7591" lon="5.57876">
        <ele>257.2</ele>
        <time>2022-05-07T13:08:27Z</time>
      </trkpt>
      <trkpt lat="46.75913" lon="5.57881">
        <ele>257.4</ele>
        <time>2022-05-07T13:08:28Z</time>
      </trkpt>
      <trkpt lat="46.75921" lon="5.57893">
        <ele>257.6</ele>
        <time>2022-05-07T13:08:30Z</time>
      </trkpt>
      <trkpt lat="46.75931" lon="5.57907">
        <ele>257.8</ele>
        <time>2022-05-07T13:08:33Z</time>
      </trkpt>
      <trkpt lat="46.75968" lon="5.57964">
        <ele>258</ele>
        <time>2022-05-07T13:08:43Z</time>
      </trkpt>
      <trkpt lat="46.75996" lon="5.58005">
        <ele>258</ele>
        <time>2022-05-07T13:08:50Z</time>
      </trkpt>
      <trkpt lat="46.76003" lon="5.58017">
        <ele>258</ele>
        <time>2022-05-07T13:08:52Z</time>
      </trkpt>
      <trkpt lat="46.76014" lon="5.58035">
        <ele>258</ele>
        <time>2022-05-07T13:08:55Z</time>
      </trkpt>
      <trkpt lat="46.76028" lon="5.58053">
        <ele>258</ele>
        <time>2022-05-07T13:08:58Z</time>
      </trkpt>
      <trkpt lat="46.76039" lon="5.58073">
        <ele>258</ele>
        <time>2022-05-07T13:09:01Z</time>
      </trkpt>
      <trkpt lat="46.76067" lon="5.58121">
        <ele>257.6</ele>
        <time>2022-05-07T13:09:09Z</time>
      </trkpt>
      <trkpt lat="46.76071" lon="5.58126">
        <ele>257.6</ele>
        <time>2022-05-07T13:09:10Z</time>
      </trkpt>
      <trkpt lat="46.76083" lon="5.5814">
        <ele>257.6</ele>
        <time>2022-05-07T13:09:13Z</time>
      </trkpt>
      <trkpt lat="46.76086" lon="5.58155">
        <ele>258</ele>
        <time>2022-05-07T13:09:15Z</time>
      </trkpt>
      <trkpt lat="46.76088" lon="5.58171">
        <ele>258</ele>
        <time>2022-05-07T13:09:17Z</time>
      </trkpt>
      <trkpt lat="46.76092" lon="5.58186">
        <ele>258.2</ele>
        <time>2022-05-07T13:09:19Z</time>
      </trkpt>
      <trkpt lat="46.76095" lon="5.58194">
        <ele>258.2</ele>
        <time>2022-05-07T13:09:20Z</time>
      </trkpt>
      <trkpt lat="46.76119" lon="5.58269">
        <ele>258.2</ele>
        <time>2022-05-07T13:09:30Z</time>
      </trkpt>
      <trkpt lat="46.76138" lon="5.5835">
        <ele>258.6</ele>
        <time>2022-05-07T13:09:40Z</time>
      </trkpt>
      <trkpt lat="46.76154" lon="5.58419">
        <ele>258</ele>
        <time>2022-05-07T13:09:48Z</time>
      </trkpt>
      <trkpt lat="46.76169" lon="5.58472">
        <ele>258.2</ele>
        <time>2022-05-07T13:09:55Z</time>
      </trkpt>
      <trkpt lat="46.76183" lon="5.5852">
        <ele>258.8</ele>
        <time>2022-05-07T13:10:02Z</time>
      </trkpt>
      <trkpt lat="46.76187" lon="5.58533">
        <ele>259.2</ele>
        <time>2022-05-07T13:10:04Z</time>
      </trkpt>
      <trkpt lat="46.76202" lon="5.58598">
        <ele>259.6</ele>
        <time>2022-05-07T13:10:13Z</time>
      </trkpt>
      <trkpt lat="46.76213" lon="5.58649">
        <ele>260</ele>
        <time>2022-05-07T13:10:20Z</time>
      </trkpt>
      <trkpt lat="46.76218" lon="5.58669">
        <ele>260.2</ele>
        <time>2022-05-07T13:10:23Z</time>
      </trkpt>
      <trkpt lat="46.7623" lon="5.58728">
        <ele>259.8</ele>
        <time>2022-05-07T13:10:31Z</time>
      </trkpt>
      <trkpt lat="46.76246" lon="5.58807">
        <ele>260.2</ele>
        <time>2022-05-07T13:10:41Z</time>
      </trkpt>
      <trkpt lat="46.76259" lon="5.58867">
        <ele>260.6</ele>
        <time>2022-05-07T13:10:48Z</time>
      </trkpt>
      <trkpt lat="46.76277" lon="5.5894">
        <ele>260.6</ele>
        <time>2022-05-07T13:10:57Z</time>
      </trkpt>
      <trkpt lat="46.76291" lon="5.59009">
        <ele>260.6</ele>
        <time>2022-05-07T13:11:05Z</time>
      </trkpt>
      <trkpt lat="46.76309" lon="5.59087">
        <ele>261</ele>
        <time>2022-05-07T13:11:14Z</time>
      </trkpt>
      <trkpt lat="46.76311" lon="5.59096">
        <ele>261.2</ele>
        <time>2022-05-07T13:11:15Z</time>
      </trkpt>
      <trkpt lat="46.76328" lon="5.59169">
        <ele>261.2</ele>
        <time>2022-05-07T13:11:23Z</time>
      </trkpt>
      <trkpt lat="46.76346" lon="5.59245">
        <ele>260.4</ele>
        <time>2022-05-07T13:11:32Z</time>
      </trkpt>
      <trkpt lat="46.76348" lon="5.59254">
        <ele>260.4</ele>
        <time>2022-05-07T13:11:33Z</time>
      </trkpt>
      <trkpt lat="46.76364" lon="5.59334">
        <ele>260.8</ele>
        <time>2022-05-07T13:11:42Z</time>
      </trkpt>
      <trkpt lat="46.76375" lon="5.59385">
        <ele>260.8</ele>
        <time>2022-05-07T13:11:48Z</time>
      </trkpt>
      <trkpt lat="46.76378" lon="5.59392">
        <ele>260.8</ele>
        <time>2022-05-07T13:11:49Z</time>
      </trkpt>
      <trkpt lat="46.76388" lon="5.59415">
        <ele>261.4</ele>
        <time>2022-05-07T13:11:54Z</time>
      </trkpt>
      <trkpt lat="46.76389" lon="5.59417">
        <ele>261.8</ele>
        <time>2022-05-07T13:11:55Z</time>
      </trkpt>
      <trkpt lat="46.7639" lon="5.59428">
        <ele>262</ele>
        <time>2022-05-07T13:11:58Z</time>
      </trkpt>
      <trkpt lat="46.76388" lon="5.59466">
        <ele>262</ele>
        <time>2022-05-07T13:12:03Z</time>
      </trkpt>
      <trkpt lat="46.76384" lon="5.59527">
        <ele>261.4</ele>
        <time>2022-05-07T13:12:10Z</time>
      </trkpt>
      <trkpt lat="46.76376" lon="5.59597">
        <ele>261</ele>
        <time>2022-05-07T13:12:17Z</time>
      </trkpt>
      <trkpt lat="46.76365" lon="5.59676">
        <ele>260.4</ele>
        <time>2022-05-07T13:12:25Z</time>
      </trkpt>
      <trkpt lat="46.76363" lon="5.59685">
        <ele>260.6</ele>
        <time>2022-05-07T13:12:26Z</time>
      </trkpt>
      <trkpt lat="46.76349" lon="5.5975">
        <ele>261</ele>
        <time>2022-05-07T13:12:33Z</time>
      </trkpt>
      <trkpt lat="46.76342" lon="5.59776">
        <ele>261.2</ele>
        <time>2022-05-07T13:12:36Z</time>
      </trkpt>
      <trkpt lat="46.76337" lon="5.59792">
        <ele>261.4</ele>
        <time>2022-05-07T13:12:38Z</time>
      </trkpt>
      <trkpt lat="46.76322" lon="5.59846">
        <ele>261.8</ele>
        <time>2022-05-07T13:12:44Z</time>
      </trkpt>
      <trkpt lat="46.76298" lon="5.59922">
        <ele>261.2</ele>
        <time>2022-05-07T13:12:52Z</time>
      </trkpt>
      <trkpt lat="46.76294" lon="5.59931">
        <ele>261.2</ele>
        <time>2022-05-07T13:12:53Z</time>
      </trkpt>
      <trkpt lat="46.76264" lon="5.60001">
        <ele>261.6</ele>
        <time>2022-05-07T13:13:01Z</time>
      </trkpt>
      <trkpt lat="46.76234" lon="5.60067">
        <ele>262</ele>
        <time>2022-05-07T13:13:09Z</time>
      </trkpt>
      <trkpt lat="46.7623" lon="5.60076">
        <ele>262</ele>
        <time>2022-05-07T13:13:10Z</time>
      </trkpt>
      <trkpt lat="46.76203" lon="5.6013">
        <ele>262.2</ele>
        <time>2022-05-07T13:13:17Z</time>
      </trkpt>
      <trkpt lat="46.76184" lon="5.60168">
        <ele>262.6</ele>
        <time>2022-05-07T13:13:22Z</time>
      </trkpt>
      <trkpt lat="46.7615" lon="5.60231">
        <ele>262.6</ele>
        <time>2022-05-07T13:13:30Z</time>
      </trkpt>
      <trkpt lat="46.76141" lon="5.60249">
        <ele>262.4</ele>
        <time>2022-05-07T13:13:32Z</time>
      </trkpt>
      <trkpt lat="46.76106" lon="5.60316">
        <ele>261.4</ele>
        <time>2022-05-07T13:13:39Z</time>
      </trkpt>
      <trkpt lat="46.76096" lon="5.60337">
        <ele>261.2</ele>
        <time>2022-05-07T13:13:41Z</time>
      </trkpt>
      <trkpt lat="46.76069" lon="5.60401">
        <ele>259.8</ele>
        <time>2022-05-07T13:13:47Z</time>
      </trkpt>
      <trkpt lat="46.7605" lon="5.60459">
        <ele>258.8</ele>
        <time>2022-05-07T13:13:52Z</time>
      </trkpt>
      <trkpt lat="46.76041" lon="5.60493">
        <ele>258</ele>
        <time>2022-05-07T13:13:55Z</time>
      </trkpt>
      <trkpt lat="46.76036" lon="5.60517">
        <ele>257.6</ele>
        <time>2022-05-07T13:13:57Z</time>
      </trkpt>
      <trkpt lat="46.76022" lon="5.60587">
        <ele>257.4</ele>
        <time>2022-05-07T13:14:03Z</time>
      </trkpt>
      <trkpt lat="46.76006" lon="5.60661">
        <ele>257.6</ele>
        <time>2022-05-07T13:14:10Z</time>
      </trkpt>
      <trkpt lat="46.75982" lon="5.60727">
        <ele>258</ele>
        <time>2022-05-07T13:14:17Z</time>
      </trkpt>
      <trkpt lat="46.75955" lon="5.60775">
        <ele>258</ele>
        <time>2022-05-07T13:14:23Z</time>
      </trkpt>
      <trkpt lat="46.75916" lon="5.60826">
        <ele>258.6</ele>
        <time>2022-05-07T13:14:31Z</time>
      </trkpt>
      <trkpt lat="46.75896" lon="5.60849">
        <ele>258.8</ele>
        <time>2022-05-07T13:14:35Z</time>
      </trkpt>
      <trkpt lat="46.7588" lon="5.60865">
        <ele>259.2</ele>
        <time>2022-05-07T13:14:38Z</time>
      </trkpt>
      <trkpt lat="46.75841" lon="5.60902">
        <ele>259.6</ele>
        <time>2022-05-07T13:14:45Z</time>
      </trkpt>
      <trkpt lat="46.75805" lon="5.60932">
        <ele>259.2</ele>
        <time>2022-05-07T13:14:52Z</time>
      </trkpt>
      <trkpt lat="46.75756" lon="5.60967">
        <ele>259.6</ele>
        <time>2022-05-07T13:15:01Z</time>
      </trkpt>
      <trkpt lat="46.75717" lon="5.60995">
        <ele>260</ele>
        <time>2022-05-07T13:15:08Z</time>
      </trkpt>
      <trkpt lat="46.7569" lon="5.61015">
        <ele>261</ele>
        <time>2022-05-07T13:15:13Z</time>
      </trkpt>
      <trkpt lat="46.75669" lon="5.61035">
        <ele>261.6</ele>
        <time>2022-05-07T13:15:17Z</time>
      </trkpt>
      <trkpt lat="46.75649" lon="5.61054">
        <ele>262</ele>
        <time>2022-05-07T13:15:21Z</time>
      </trkpt>
      <trkpt lat="46.75628" lon="5.61074">
        <ele>262.6</ele>
        <time>2022-05-07T13:15:25Z</time>
      </trkpt>
      <trkpt lat="46.75604" lon="5.61098">
        <ele>263.2</ele>
        <time>2022-05-07T13:15:30Z</time>
      </trkpt>
      <trkpt lat="46.75589" lon="5.61113">
        <ele>263.4</ele>
        <time>2022-05-07T13:15:33Z</time>
      </trkpt>
      <trkpt lat="46.7556" lon="5.61141">
        <ele>264</ele>
        <time>2022-05-07T13:15:39Z</time>
      </trkpt>
      <trkpt lat="46.75548" lon="5.61155">
        <ele>264.2</ele>
        <time>2022-05-07T13:15:42Z</time>
      </trkpt>
      <trkpt lat="46.7554" lon="5.61162">
        <ele>264.4</ele>
        <time>2022-05-07T13:15:44Z</time>
      </trkpt>
      <trkpt lat="46.75509" lon="5.61182">
        <ele>264.8</ele>
        <time>2022-05-07T13:15:50Z</time>
      </trkpt>
      <trkpt lat="46.75481" lon="5.61203">
        <ele>264.8</ele>
        <time>2022-05-07T13:15:55Z</time>
      </trkpt>
      <trkpt lat="46.75471" lon="5.61214">
        <ele>264.8</ele>
        <time>2022-05-07T13:15:57Z</time>
      </trkpt>
      <trkpt lat="46.75439" lon="5.61248">
        <ele>265</ele>
        <time>2022-05-07T13:16:04Z</time>
      </trkpt>
      <trkpt lat="46.75429" lon="5.61254">
        <ele>265.2</ele>
        <time>2022-05-07T13:16:06Z</time>
      </trkpt>
      <trkpt lat="46.75422" lon="5.61258">
        <ele>265.4</ele>
        <time>2022-05-07T13:16:07Z</time>
      </trkpt>
      <trkpt lat="46.75413" lon="5.61266">
        <ele>265.6</ele>
        <time>2022-05-07T13:16:09Z</time>
      </trkpt>
      <trkpt lat="46.75384" lon="5.61302">
        <ele>266</ele>
        <time>2022-05-07T13:16:15Z</time>
      </trkpt>
      <trkpt lat="46.75375" lon="5.61317">
        <ele>266.4</ele>
        <time>2022-05-07T13:16:17Z</time>
      </trkpt>
      <trkpt lat="46.75351" lon="5.61352">
        <ele>266.2</ele>
        <time>2022-05-07T13:16:22Z</time>
      </trkpt>
      <trkpt lat="46.75337" lon="5.61372">
        <ele>266</ele>
        <time>2022-05-07T13:16:25Z</time>
      </trkpt>
      <trkpt lat="46.75331" lon="5.61389">
        <ele>266</ele>
        <time>2022-05-07T13:16:27Z</time>
      </trkpt>
      <trkpt lat="46.75327" lon="5.61427">
        <ele>266</ele>
        <time>2022-05-07T13:16:31Z</time>
      </trkpt>
      <trkpt lat="46.75324" lon="5.61446">
        <ele>266</ele>
        <time>2022-05-07T13:16:33Z</time>
      </trkpt>
      <trkpt lat="46.75318" lon="5.61475">
        <ele>266.2</ele>
        <time>2022-05-07T13:16:36Z</time>
      </trkpt>
      <trkpt lat="46.75301" lon="5.61546">
        <ele>267.2</ele>
        <time>2022-05-07T13:16:44Z</time>
      </trkpt>
      <trkpt lat="46.75289" lon="5.616">
        <ele>267.6</ele>
        <time>2022-05-07T13:16:50Z</time>
      </trkpt>
      <trkpt lat="46.75286" lon="5.61611">
        <ele>267.6</ele>
        <time>2022-05-07T13:16:51Z</time>
      </trkpt>
      <trkpt lat="46.75268" lon="5.61653">
        <ele>267.8</ele>
        <time>2022-05-07T13:16:56Z</time>
      </trkpt>
      <trkpt lat="46.75264" lon="5.61658">
        <ele>267.8</ele>
        <time>2022-05-07T13:16:57Z</time>
      </trkpt>
      <trkpt lat="46.75258" lon="5.61665">
        <ele>267.8</ele>
        <time>2022-05-07T13:16:58Z</time>
      </trkpt>
      <trkpt lat="46.75235" lon="5.61684">
        <ele>267.8</ele>
        <time>2022-05-07T13:17:02Z</time>
      </trkpt>
      <trkpt lat="46.75191" lon="5.6172">
        <ele>268.2</ele>
        <time>2022-05-07T13:17:10Z</time>
      </trkpt>
      <trkpt lat="46.75164" lon="5.61749">
        <ele>268.6</ele>
        <time>2022-05-07T13:17:15Z</time>
      </trkpt>
      <trkpt lat="46.75155" lon="5.61763">
        <ele>268.6</ele>
        <time>2022-05-07T13:17:17Z</time>
      </trkpt>
      <trkpt lat="46.75114" lon="5.61826">
        <ele>269.2</ele>
        <time>2022-05-07T13:17:26Z</time>
      </trkpt>
      <trkpt lat="46.75078" lon="5.61869">
        <ele>269.2</ele>
        <time>2022-05-07T13:17:33Z</time>
      </trkpt>
      <trkpt lat="46.75049" lon="5.61897">
        <ele>269.8</ele>
        <time>2022-05-07T13:17:38Z</time>
      </trkpt>
      <trkpt lat="46.75025" lon="5.61919">
        <ele>269.8</ele>
        <time>2022-05-07T13:17:42Z</time>
      </trkpt>
      <trkpt lat="46.74979" lon="5.6197">
        <ele>269.8</ele>
        <time>2022-05-07T13:17:50Z</time>
      </trkpt>
      <trkpt lat="46.7496" lon="5.62001">
        <ele>270.4</ele>
        <time>2022-05-07T13:17:54Z</time>
      </trkpt>
      <trkpt lat="46.74952" lon="5.62019">
        <ele>270.6</ele>
        <time>2022-05-07T13:17:56Z</time>
      </trkpt>
      <trkpt lat="46.74944" lon="5.62034">
        <ele>270.8</ele>
        <time>2022-05-07T13:17:58Z</time>
      </trkpt>
      <trkpt lat="46.74925" lon="5.62061">
        <ele>270.6</ele>
        <time>2022-05-07T13:18:01Z</time>
      </trkpt>
      <trkpt lat="46.74887" lon="5.62102">
        <ele>269.8</ele>
        <time>2022-05-07T13:18:07Z</time>
      </trkpt>
      <trkpt lat="46.74881" lon="5.62108">
        <ele>269.6</ele>
        <time>2022-05-07T13:18:08Z</time>
      </trkpt>
      <trkpt lat="46.74862" lon="5.62129">
        <ele>269.4</ele>
        <time>2022-05-07T13:18:11Z</time>
      </trkpt>
      <trkpt lat="46.74852" lon="5.62145">
        <ele>269.4</ele>
        <time>2022-05-07T13:18:13Z</time>
      </trkpt>
      <trkpt lat="46.74814" lon="5.62214">
        <ele>269.4</ele>
        <time>2022-05-07T13:18:21Z</time>
      </trkpt>
      <trkpt lat="46.74779" lon="5.62281">
        <ele>270.2</ele>
        <time>2022-05-07T13:18:29Z</time>
      </trkpt>
      <trkpt lat="46.74764" lon="5.62331">
        <ele>270.6</ele>
        <time>2022-05-07T13:18:34Z</time>
      </trkpt>
      <trkpt lat="46.7476" lon="5.62351">
        <ele>270.8</ele>
        <time>2022-05-07T13:18:36Z</time>
      </trkpt>
      <trkpt lat="46.7475" lon="5.6239">
        <ele>271</ele>
        <time>2022-05-07T13:18:40Z</time>
      </trkpt>
      <trkpt lat="46.74729" lon="5.62448">
        <ele>271.6</ele>
        <time>2022-05-07T13:18:46Z</time>
      </trkpt>
      <trkpt lat="46.74719" lon="5.62468">
        <ele>272</ele>
        <time>2022-05-07T13:18:48Z</time>
      </trkpt>
      <trkpt lat="46.74708" lon="5.62485">
        <ele>272.4</ele>
        <time>2022-05-07T13:18:50Z</time>
      </trkpt>
      <trkpt lat="46.74697" lon="5.62499">
        <ele>272.4</ele>
        <time>2022-05-07T13:18:52Z</time>
      </trkpt>
      <trkpt lat="46.74655" lon="5.62541">
        <ele>273</ele>
        <time>2022-05-07T13:18:59Z</time>
      </trkpt>
      <trkpt lat="46.74631" lon="5.62561">
        <ele>273.2</ele>
        <time>2022-05-07T13:19:03Z</time>
      </trkpt>
      <trkpt lat="46.74612" lon="5.62574">
        <ele>273.6</ele>
        <time>2022-05-07T13:19:06Z</time>
      </trkpt>
      <trkpt lat="46.74592" lon="5.62585">
        <ele>274.2</ele>
        <time>2022-05-07T13:19:09Z</time>
      </trkpt>
      <trkpt lat="46.74557" lon="5.62601">
        <ele>274.4</ele>
        <time>2022-05-07T13:19:14Z</time>
      </trkpt>
      <trkpt lat="46.74506" lon="5.62627">
        <ele>273.6</ele>
        <time>2022-05-07T13:19:21Z</time>
      </trkpt>
      <trkpt lat="46.74468" lon="5.62666">
        <ele>273.6</ele>
        <time>2022-05-07T13:19:27Z</time>
      </trkpt>
      <trkpt lat="46.74435" lon="5.62705">
        <ele>274</ele>
        <time>2022-05-07T13:19:33Z</time>
      </trkpt>
      <trkpt lat="46.74415" lon="5.62717">
        <ele>274.6</ele>
        <time>2022-05-07T13:19:36Z</time>
      </trkpt>
      <trkpt lat="46.74409" lon="5.62719">
        <ele>274.8</ele>
        <time>2022-05-07T13:19:37Z</time>
      </trkpt>
      <trkpt lat="46.74395" lon="5.62724">
        <ele>275.2</ele>
        <time>2022-05-07T13:19:39Z</time>
      </trkpt>
      <trkpt lat="46.7439" lon="5.62725">
        <ele>275.4</ele>
        <time>2022-05-07T13:19:40Z</time>
      </trkpt>
      <trkpt lat="46.74375" lon="5.62731">
        <ele>275.8</ele>
        <time>2022-05-07T13:19:42Z</time>
      </trkpt>
      <trkpt lat="46.74368" lon="5.62735">
        <ele>276.2</ele>
        <time>2022-05-07T13:19:43Z</time>
      </trkpt>
      <trkpt lat="46.74362" lon="5.62739">
        <ele>276.4</ele>
        <time>2022-05-07T13:19:44Z</time>
      </trkpt>
      <trkpt lat="46.74324" lon="5.62761">
        <ele>277.2</ele>
        <time>2022-05-07T13:19:50Z</time>
      </trkpt>
      <trkpt lat="46.74314" lon="5.6277">
        <ele>277.2</ele>
        <time>2022-05-07T13:19:52Z</time>
      </trkpt>
      <trkpt lat="46.74305" lon="5.6278">
        <ele>277.4</ele>
        <time>2022-05-07T13:19:54Z</time>
      </trkpt>
      <trkpt lat="46.74302" lon="5.62786">
        <ele>277.6</ele>
        <time>2022-05-07T13:19:55Z</time>
      </trkpt>
      <trkpt lat="46.74299" lon="5.62792">
        <ele>277.6</ele>
        <time>2022-05-07T13:19:56Z</time>
      </trkpt>
      <trkpt lat="46.74295" lon="5.62804">
        <ele>278.2</ele>
        <time>2022-05-07T13:19:58Z</time>
      </trkpt>
      <trkpt lat="46.74287" lon="5.62829">
        <ele>278.8</ele>
        <time>2022-05-07T13:20:02Z</time>
      </trkpt>
      <trkpt lat="46.74285" lon="5.62838">
        <ele>279.2</ele>
        <time>2022-05-07T13:20:04Z</time>
      </trkpt>
      <trkpt lat="46.74283" lon="5.62848">
        <ele>279.8</ele>
        <time>2022-05-07T13:20:06Z</time>
      </trkpt>
      <trkpt lat="46.74275" lon="5.62869">
        <ele>280.6</ele>
        <time>2022-05-07T13:20:09Z</time>
      </trkpt>
      <trkpt lat="46.74272" lon="5.62876">
        <ele>281.2</ele>
        <time>2022-05-07T13:20:10Z</time>
      </trkpt>
      <trkpt lat="46.7426" lon="5.629">
        <ele>282.4</ele>
        <time>2022-05-07T13:20:14Z</time>
      </trkpt>
      <trkpt lat="46.74247" lon="5.62927">
        <ele>283.6</ele>
        <time>2022-05-07T13:20:18Z</time>
      </trkpt>
      <trkpt lat="46.7424" lon="5.62942">
        <ele>284.4</ele>
        <time>2022-05-07T13:20:20Z</time>
      </trkpt>
      <trkpt lat="46.74236" lon="5.6295">
        <ele>284.6</ele>
        <time>2022-05-07T13:20:21Z</time>
      </trkpt>
      <trkpt lat="46.74231" lon="5.62956">
        <ele>284.8</ele>
        <time>2022-05-07T13:20:22Z</time>
      </trkpt>
      <trkpt lat="46.74213" lon="5.62977">
        <ele>285.6</ele>
        <time>2022-05-07T13:20:26Z</time>
      </trkpt>
      <trkpt lat="46.74188" lon="5.63004">
        <ele>286.6</ele>
        <time>2022-05-07T13:20:32Z</time>
      </trkpt>
      <trkpt lat="46.74183" lon="5.63009">
        <ele>286.8</ele>
        <time>2022-05-07T13:20:33Z</time>
      </trkpt>
      <trkpt lat="46.74166" lon="5.63022">
        <ele>286.8</ele>
        <time>2022-05-07T13:20:36Z</time>
      </trkpt>
      <trkpt lat="46.74154" lon="5.63033">
        <ele>286.8</ele>
        <time>2022-05-07T13:20:38Z</time>
      </trkpt>
      <trkpt lat="46.7412" lon="5.63068">
        <ele>286.4</ele>
        <time>2022-05-07T13:20:44Z</time>
      </trkpt>
      <trkpt lat="46.74082" lon="5.63095">
        <ele>286.6</ele>
        <time>2022-05-07T13:20:50Z</time>
      </trkpt>
      <trkpt lat="46.74039" lon="5.63125">
        <ele>286.8</ele>
        <time>2022-05-07T13:20:57Z</time>
      </trkpt>
      <trkpt lat="46.7401" lon="5.63144">
        <ele>287.8</ele>
        <time>2022-05-07T13:21:02Z</time>
      </trkpt>
      <trkpt lat="46.74004" lon="5.63148">
        <ele>288</ele>
        <time>2022-05-07T13:21:03Z</time>
      </trkpt>
      <trkpt lat="46.73979" lon="5.63161">
        <ele>288.4</ele>
        <time>2022-05-07T13:21:07Z</time>
      </trkpt>
      <trkpt lat="46.73966" lon="5.63171">
        <ele>288.4</ele>
        <time>2022-05-07T13:21:09Z</time>
      </trkpt>
      <trkpt lat="46.73952" lon="5.63183">
        <ele>288.2</ele>
        <time>2022-05-07T13:21:11Z</time>
      </trkpt>
      <trkpt lat="46.73945" lon="5.63191">
        <ele>288.2</ele>
        <time>2022-05-07T13:21:12Z</time>
      </trkpt>
      <trkpt lat="46.73935" lon="5.63211">
        <ele>287.6</ele>
        <time>2022-05-07T13:21:14Z</time>
      </trkpt>
      <trkpt lat="46.73921" lon="5.63245">
        <ele>286.6</ele>
        <time>2022-05-07T13:21:17Z</time>
      </trkpt>
      <trkpt lat="46.73915" lon="5.63255">
        <ele>286.4</ele>
        <time>2022-05-07T13:21:18Z</time>
      </trkpt>
      <trkpt lat="46.73875" lon="5.63311">
        <ele>285.6</ele>
        <time>2022-05-07T13:21:24Z</time>
      </trkpt>
      <trkpt lat="46.73863" lon="5.63327">
        <ele>285.6</ele>
        <time>2022-05-07T13:21:26Z</time>
      </trkpt>
      <trkpt lat="46.73816" lon="5.63384">
        <ele>287</ele>
        <time>2022-05-07T13:21:33Z</time>
      </trkpt>
      <trkpt lat="46.73766" lon="5.63436">
        <ele>286.8</ele>
        <time>2022-05-07T13:21:40Z</time>
      </trkpt>
      <trkpt lat="46.73758" lon="5.63445">
        <ele>286.6</ele>
        <time>2022-05-07T13:21:41Z</time>
      </trkpt>
      <trkpt lat="46.73734" lon="5.63466">
        <ele>285.6</ele>
        <time>2022-05-07T13:21:44Z</time>
      </trkpt>
      <trkpt lat="46.73718" lon="5.63477">
        <ele>285.2</ele>
        <time>2022-05-07T13:21:46Z</time>
      </trkpt>
      <trkpt lat="46.73701" lon="5.63484">
        <ele>285.2</ele>
        <time>2022-05-07T13:21:48Z</time>
      </trkpt>
      <trkpt lat="46.73684" lon="5.63486">
        <ele>285</ele>
        <time>2022-05-07T13:21:50Z</time>
      </trkpt>
      <trkpt lat="46.73638" lon="5.63485">
        <ele>285</ele>
        <time>2022-05-07T13:21:56Z</time>
      </trkpt>
      <trkpt lat="46.73604" lon="5.63474">
        <ele>285.4</ele>
        <time>2022-05-07T13:22:01Z</time>
      </trkpt>
      <trkpt lat="46.73563" lon="5.63458">
        <ele>286.4</ele>
        <time>2022-05-07T13:22:08Z</time>
      </trkpt>
      <trkpt lat="46.73551" lon="5.63456">
        <ele>286.6</ele>
        <time>2022-05-07T13:22:10Z</time>
      </trkpt>
      <trkpt lat="46.73531" lon="5.63458">
        <ele>287.2</ele>
        <time>2022-05-07T13:22:13Z</time>
      </trkpt>
      <trkpt lat="46.73494" lon="5.63471">
        <ele>287.6</ele>
        <time>2022-05-07T13:22:19Z</time>
      </trkpt>
      <trkpt lat="46.73488" lon="5.63475">
        <ele>287.6</ele>
        <time>2022-05-07T13:22:20Z</time>
      </trkpt>
      <trkpt lat="46.73444" lon="5.63504">
        <ele>287.8</ele>
        <time>2022-05-07T13:22:27Z</time>
      </trkpt>
      <trkpt lat="46.73394" lon="5.63541">
        <ele>287.4</ele>
        <time>2022-05-07T13:22:35Z</time>
      </trkpt>
      <trkpt lat="46.73381" lon="5.63552">
        <ele>287.8</ele>
        <time>2022-05-07T13:22:37Z</time>
      </trkpt>
      <trkpt lat="46.73348" lon="5.63591">
        <ele>288</ele>
        <time>2022-05-07T13:22:43Z</time>
      </trkpt>
      <trkpt lat="46.73307" lon="5.63634">
        <ele>288.8</ele>
        <time>2022-05-07T13:22:50Z</time>
      </trkpt>
      <trkpt lat="46.73265" lon="5.63653">
        <ele>289.6</ele>
        <time>2022-05-07T13:22:56Z</time>
      </trkpt>
      <trkpt lat="46.73251" lon="5.63655">
        <ele>289.8</ele>
        <time>2022-05-07T13:22:58Z</time>
      </trkpt>
      <trkpt lat="46.73213" lon="5.63654">
        <ele>290</ele>
        <time>2022-05-07T13:23:03Z</time>
      </trkpt>
      <trkpt lat="46.73157" lon="5.63652">
        <ele>289.6</ele>
        <time>2022-05-07T13:23:10Z</time>
      </trkpt>
      <trkpt lat="46.73148" lon="5.63652">
        <ele>289.6</ele>
        <time>2022-05-07T13:23:11Z</time>
      </trkpt>
      <trkpt lat="46.73087" lon="5.63646">
        <ele>288.8</ele>
        <time>2022-05-07T13:23:18Z</time>
      </trkpt>
      <trkpt lat="46.73027" lon="5.63632">
        <ele>288</ele>
        <time>2022-05-07T13:23:25Z</time>
      </trkpt>
      <trkpt lat="46.73019" lon="5.63631">
        <ele>288</ele>
        <time>2022-05-07T13:23:26Z</time>
      </trkpt>
      <trkpt lat="46.7298" lon="5.63636">
        <ele>288.2</ele>
        <time>2022-05-07T13:23:31Z</time>
      </trkpt>
      <trkpt lat="46.72941" lon="5.63656">
        <ele>288.6</ele>
        <time>2022-05-07T13:23:36Z</time>
      </trkpt>
      <trkpt lat="46.72934" lon="5.63662">
        <ele>288.8</ele>
        <time>2022-05-07T13:23:37Z</time>
      </trkpt>
      <trkpt lat="46.72904" lon="5.63695">
        <ele>289.2</ele>
        <time>2022-05-07T13:23:42Z</time>
      </trkpt>
      <trkpt lat="46.72869" lon="5.63737">
        <ele>289.8</ele>
        <time>2022-05-07T13:23:48Z</time>
      </trkpt>
      <trkpt lat="46.72862" lon="5.63743">
        <ele>289.8</ele>
        <time>2022-05-07T13:23:49Z</time>
      </trkpt>
      <trkpt lat="46.72856" lon="5.63749">
        <ele>289.8</ele>
        <time>2022-05-07T13:23:50Z</time>
      </trkpt>
      <trkpt lat="46.7283" lon="5.63765">
        <ele>289.8</ele>
        <time>2022-05-07T13:23:54Z</time>
      </trkpt>
      <trkpt lat="46.72792" lon="5.63779">
        <ele>290</ele>
        <time>2022-05-07T13:24:00Z</time>
      </trkpt>
      <trkpt lat="46.72762" lon="5.63789">
        <ele>291</ele>
        <time>2022-05-07T13:24:05Z</time>
      </trkpt>
      <trkpt lat="46.7275" lon="5.63793">
        <ele>291.2</ele>
        <time>2022-05-07T13:24:07Z</time>
      </trkpt>
      <trkpt lat="46.72722" lon="5.63802">
        <ele>292</ele>
        <time>2022-05-07T13:24:12Z</time>
      </trkpt>
      <trkpt lat="46.72705" lon="5.63806">
        <ele>292.2</ele>
        <time>2022-05-07T13:24:15Z</time>
      </trkpt>
      <trkpt lat="46.72681" lon="5.63805">
        <ele>293.2</ele>
        <time>2022-05-07T13:24:19Z</time>
      </trkpt>
      <trkpt lat="46.72669" lon="5.63804">
        <ele>293.8</ele>
        <time>2022-05-07T13:24:21Z</time>
      </trkpt>
      <trkpt lat="46.72629" lon="5.63792">
        <ele>293.8</ele>
        <time>2022-05-07T13:24:27Z</time>
      </trkpt>
      <trkpt lat="46.72584" lon="5.63774">
        <ele>293.2</ele>
        <time>2022-05-07T13:24:34Z</time>
      </trkpt>
      <trkpt lat="46.72552" lon="5.6376">
        <ele>293.2</ele>
        <time>2022-05-07T13:24:39Z</time>
      </trkpt>
      <trkpt lat="46.72498" lon="5.63738">
        <ele>294</ele>
        <time>2022-05-07T13:24:48Z</time>
      </trkpt>
      <trkpt lat="46.72492" lon="5.63736">
        <ele>294.2</ele>
        <time>2022-05-07T13:24:49Z</time>
      </trkpt>
      <trkpt lat="46.72486" lon="5.63733">
        <ele>294.2</ele>
        <time>2022-05-07T13:24:50Z</time>
      </trkpt>
      <trkpt lat="46.72448" lon="5.63705">
        <ele>295</ele>
        <time>2022-05-07T13:24:57Z</time>
      </trkpt>
      <trkpt lat="46.72437" lon="5.63696">
        <ele>295.2</ele>
        <time>2022-05-07T13:24:59Z</time>
      </trkpt>
      <trkpt lat="46.72408" lon="5.63668">
        <ele>296.2</ele>
        <time>2022-05-07T13:25:05Z</time>
      </trkpt>
      <trkpt lat="46.72403" lon="5.63664">
        <ele>296.4</ele>
        <time>2022-05-07T13:25:06Z</time>
      </trkpt>
      <trkpt lat="46.72358" lon="5.63618">
        <ele>297.2</ele>
        <time>2022-05-07T13:25:15Z</time>
      </trkpt>
      <trkpt lat="46.72323" lon="5.63571">
        <ele>296.4</ele>
        <time>2022-05-07T13:25:22Z</time>
      </trkpt>
      <trkpt lat="46.72305" lon="5.63549">
        <ele>296</ele>
        <time>2022-05-07T13:25:26Z</time>
      </trkpt>
      <trkpt lat="46.72289" lon="5.63534">
        <ele>296.2</ele>
        <time>2022-05-07T13:25:29Z</time>
      </trkpt>
      <trkpt lat="46.72248" lon="5.63493">
        <ele>296.8</ele>
        <time>2022-05-07T13:25:36Z</time>
      </trkpt>
      <trkpt lat="46.72218" lon="5.63463">
        <ele>296.8</ele>
        <time>2022-05-07T13:25:41Z</time>
      </trkpt>
      <trkpt lat="46.72187" lon="5.63435">
        <ele>297.4</ele>
        <time>2022-05-07T13:25:47Z</time>
      </trkpt>
      <trkpt lat="46.7218" lon="5.6343">
        <ele>297.6</ele>
        <time>2022-05-07T13:25:48Z</time>
      </trkpt>
      <trkpt lat="46.72151" lon="5.63412">
        <ele>298.4</ele>
        <time>2022-05-07T13:25:53Z</time>
      </trkpt>
      <trkpt lat="46.72145" lon="5.63409">
        <ele>298.4</ele>
        <time>2022-05-07T13:25:54Z</time>
      </trkpt>
      <trkpt lat="46.72107" lon="5.63398">
        <ele>298.4</ele>
        <time>2022-05-07T13:26:00Z</time>
      </trkpt>
      <trkpt lat="46.72067" lon="5.63388">
        <ele>298.6</ele>
        <time>2022-05-07T13:26:06Z</time>
      </trkpt>
      <trkpt lat="46.72061" lon="5.63384">
        <ele>298.8</ele>
        <time>2022-05-07T13:26:07Z</time>
      </trkpt>
      <trkpt lat="46.72025" lon="5.63354">
        <ele>298.8</ele>
        <time>2022-05-07T13:26:13Z</time>
      </trkpt>
      <trkpt lat="46.71986" lon="5.63316">
        <ele>299.4</ele>
        <time>2022-05-07T13:26:20Z</time>
      </trkpt>
      <trkpt lat="46.71975" lon="5.63307">
        <ele>299.6</ele>
        <time>2022-05-07T13:26:22Z</time>
      </trkpt>
      <trkpt lat="46.71946" lon="5.63293">
        <ele>300.4</ele>
        <time>2022-05-07T13:26:26Z</time>
      </trkpt>
      <trkpt lat="46.71946" lon="5.63293">
        <ele>300.8</ele>
        <time>2022-05-07T13:26:27Z</time>
      </trkpt>
      <trkpt lat="46.7194" lon="5.63292">
        <ele>301</ele>
        <time>2022-05-07T13:26:28Z</time>
      </trkpt>
      <trkpt lat="46.71928" lon="5.6329">
        <ele>301.2</ele>
        <time>2022-05-07T13:26:30Z</time>
      </trkpt>
      <trkpt lat="46.71902" lon="5.6329">
        <ele>301.4</ele>
        <time>2022-05-07T13:26:34Z</time>
      </trkpt>
      <trkpt lat="46.71857" lon="5.63286">
        <ele>300.8</ele>
        <time>2022-05-07T13:26:40Z</time>
      </trkpt>
      <trkpt lat="46.71826" lon="5.63273">
        <ele>299.8</ele>
        <time>2022-05-07T13:26:44Z</time>
      </trkpt>
      <trkpt lat="46.71812" lon="5.63265">
        <ele>299.4</ele>
        <time>2022-05-07T13:26:46Z</time>
      </trkpt>
      <trkpt lat="46.71798" lon="5.63256">
        <ele>299.4</ele>
        <time>2022-05-07T13:26:48Z</time>
      </trkpt>
      <trkpt lat="46.71779" lon="5.63237">
        <ele>299.2</ele>
        <time>2022-05-07T13:26:51Z</time>
      </trkpt>
      <trkpt lat="46.71763" lon="5.63216">
        <ele>299.2</ele>
        <time>2022-05-07T13:26:54Z</time>
      </trkpt>
      <trkpt lat="46.7174" lon="5.6319">
        <ele>299</ele>
        <time>2022-05-07T13:26:57Z</time>
      </trkpt>
      <trkpt lat="46.71714" lon="5.63171">
        <ele>298.8</ele>
        <time>2022-05-07T13:27:01Z</time>
      </trkpt>
      <trkpt lat="46.71707" lon="5.63168">
        <ele>298.8</ele>
        <time>2022-05-07T13:27:02Z</time>
      </trkpt>
      <trkpt lat="46.71672" lon="5.63166">
        <ele>299</ele>
        <time>2022-05-07T13:27:07Z</time>
      </trkpt>
      <trkpt lat="46.71637" lon="5.6318">
        <ele>299.6</ele>
        <time>2022-05-07T13:27:12Z</time>
      </trkpt>
      <trkpt lat="46.71582" lon="5.63212">
        <ele>299.6</ele>
        <time>2022-05-07T13:27:20Z</time>
      </trkpt>
      <trkpt lat="46.7155" lon="5.63234">
        <ele>299.8</ele>
        <time>2022-05-07T13:27:26Z</time>
      </trkpt>
      <trkpt lat="46.71544" lon="5.63239">
        <ele>300</ele>
        <time>2022-05-07T13:27:27Z</time>
      </trkpt>
      <trkpt lat="46.71515" lon="5.63266">
        <ele>300.2</ele>
        <time>2022-05-07T13:27:31Z</time>
      </trkpt>
      <trkpt lat="46.71487" lon="5.63299">
        <ele>300.8</ele>
        <time>2022-05-07T13:27:36Z</time>
      </trkpt>
      <trkpt lat="46.71466" lon="5.63326">
        <ele>301</ele>
        <time>2022-05-07T13:27:40Z</time>
      </trkpt>
      <trkpt lat="46.71425" lon="5.6339">
        <ele>301</ele>
        <time>2022-05-07T13:27:48Z</time>
      </trkpt>
      <trkpt lat="46.71396" lon="5.63435">
        <ele>301.4</ele>
        <time>2022-05-07T13:27:55Z</time>
      </trkpt>
      <trkpt lat="46.71361" lon="5.63496">
        <ele>301.2</ele>
        <time>2022-05-07T13:28:02Z</time>
      </trkpt>
      <trkpt lat="46.71354" lon="5.6351">
        <ele>301.4</ele>
        <time>2022-05-07T13:28:04Z</time>
      </trkpt>
      <trkpt lat="46.71341" lon="5.6353">
        <ele>302</ele>
        <time>2022-05-07T13:28:07Z</time>
      </trkpt>
      <trkpt lat="46.7132" lon="5.63566">
        <ele>303</ele>
        <time>2022-05-07T13:28:12Z</time>
      </trkpt>
      <trkpt lat="46.71313" lon="5.6358">
        <ele>303.4</ele>
        <time>2022-05-07T13:28:14Z</time>
      </trkpt>
      <trkpt lat="46.71297" lon="5.63603">
        <ele>303.8</ele>
        <time>2022-05-07T13:28:18Z</time>
      </trkpt>
      <trkpt lat="46.71284" lon="5.63609">
        <ele>303.8</ele>
        <time>2022-05-07T13:28:20Z</time>
      </trkpt>
      <trkpt lat="46.71278" lon="5.63606">
        <ele>303.8</ele>
        <time>2022-05-07T13:28:21Z</time>
      </trkpt>
      <trkpt lat="46.71256" lon="5.63596">
        <ele>303.4</ele>
        <time>2022-05-07T13:28:25Z</time>
      </trkpt>
      <trkpt lat="46.71256" lon="5.63596">
        <ele>303.2</ele>
        <time>2022-05-07T13:28:26Z</time>
      </trkpt>
      <trkpt lat="46.71242" lon="5.63587">
        <ele>303.4</ele>
        <time>2022-05-07T13:28:29Z</time>
      </trkpt>
      <trkpt lat="46.7124" lon="5.63583">
        <ele>303.4</ele>
        <time>2022-05-07T13:28:30Z</time>
      </trkpt>
      <trkpt lat="46.71237" lon="5.63571">
        <ele>303.4</ele>
        <time>2022-05-07T13:28:32Z</time>
      </trkpt>
      <trkpt lat="46.71237" lon="5.63565">
        <ele>303.4</ele>
        <time>2022-05-07T13:28:33Z</time>
      </trkpt>
      <trkpt lat="46.71239" lon="5.63552">
        <ele>303.4</ele>
        <time>2022-05-07T13:28:35Z</time>
      </trkpt>
      <trkpt lat="46.71244" lon="5.63514">
        <ele>302.6</ele>
        <time>2022-05-07T13:28:39Z</time>
      </trkpt>
      <trkpt lat="46.71245" lon="5.63503">
        <ele>302.2</ele>
        <time>2022-05-07T13:28:40Z</time>
      </trkpt>
      <trkpt lat="46.71247" lon="5.63478">
        <ele>301.6</ele>
        <time>2022-05-07T13:28:43Z</time>
      </trkpt>
      <trkpt lat="46.71246" lon="5.63469">
        <ele>301.2</ele>
        <time>2022-05-07T13:28:44Z</time>
      </trkpt>
      <trkpt lat="46.71244" lon="5.63459">
        <ele>301</ele>
        <time>2022-05-07T13:28:45Z</time>
      </trkpt>
      <trkpt lat="46.71237" lon="5.63437">
        <ele>300.6</ele>
        <time>2022-05-07T13:28:48Z</time>
      </trkpt>
      <trkpt lat="46.71233" lon="5.6343">
        <ele>300.6</ele>
        <time>2022-05-07T13:28:49Z</time>
      </trkpt>
      <trkpt lat="46.71214" lon="5.63381">
        <ele>300.4</ele>
        <time>2022-05-07T13:28:56Z</time>
      </trkpt>
      <trkpt lat="46.71209" lon="5.63366">
        <ele>300.6</ele>
        <time>2022-05-07T13:28:58Z</time>
      </trkpt>
      <trkpt lat="46.71207" lon="5.63352">
        <ele>300.8</ele>
        <time>2022-05-07T13:29:00Z</time>
      </trkpt>
      <trkpt lat="46.71207" lon="5.63344">
        <ele>300.8</ele>
        <time>2022-05-07T13:29:01Z</time>
      </trkpt>
      <trkpt lat="46.71206" lon="5.63333">
        <ele>300.8</ele>
        <time>2022-05-07T13:29:02Z</time>
      </trkpt>
      <trkpt lat="46.71209" lon="5.63291">
        <ele>301.2</ele>
        <time>2022-05-07T13:29:07Z</time>
      </trkpt>
      <trkpt lat="46.71208" lon="5.63256">
        <ele>301.6</ele>
        <time>2022-05-07T13:29:11Z</time>
      </trkpt>
      <trkpt lat="46.71205" lon="5.63239">
        <ele>301.8</ele>
        <time>2022-05-07T13:29:13Z</time>
      </trkpt>
      <trkpt lat="46.712" lon="5.63225">
        <ele>302.4</ele>
        <time>2022-05-07T13:29:15Z</time>
      </trkpt>
      <trkpt lat="46.71192" lon="5.63211">
        <ele>302.8</ele>
        <time>2022-05-07T13:29:17Z</time>
      </trkpt>
      <trkpt lat="46.71179" lon="5.63198">
        <ele>303.4</ele>
        <time>2022-05-07T13:29:20Z</time>
      </trkpt>
      <trkpt lat="46.71166" lon="5.63187">
        <ele>304.4</ele>
        <time>2022-05-07T13:29:23Z</time>
      </trkpt>
      <trkpt lat="46.71161" lon="5.63183">
        <ele>304.6</ele>
        <time>2022-05-07T13:29:24Z</time>
      </trkpt>
      <trkpt lat="46.7115" lon="5.63173">
        <ele>306</ele>
        <time>2022-05-07T13:29:27Z</time>
      </trkpt>
      <trkpt lat="46.71146" lon="5.6317">
        <ele>307</ele>
        <time>2022-05-07T13:29:29Z</time>
      </trkpt>
      <trkpt lat="46.71142" lon="5.63167">
        <ele>307.2</ele>
        <time>2022-05-07T13:29:30Z</time>
      </trkpt>
      <trkpt lat="46.71128" lon="5.63155">
        <ele>308</ele>
        <time>2022-05-07T13:29:33Z</time>
      </trkpt>
      <trkpt lat="46.71125" lon="5.63151">
        <ele>308.2</ele>
        <time>2022-05-07T13:29:34Z</time>
      </trkpt>
      <trkpt lat="46.71111" lon="5.6314">
        <ele>309.4</ele>
        <time>2022-05-07T13:29:38Z</time>
      </trkpt>
      <trkpt lat="46.711" lon="5.63133">
        <ele>310.6</ele>
        <time>2022-05-07T13:29:41Z</time>
      </trkpt>
      <trkpt lat="46.711" lon="5.63133">
        <ele>311</ele>
        <time>2022-05-07T13:29:42Z</time>
      </trkpt>
      <trkpt lat="46.71087" lon="5.63127">
        <ele>311.6</ele>
        <time>2022-05-07T13:29:45Z</time>
      </trkpt>
      <trkpt lat="46.71084" lon="5.63126">
        <ele>311.6</ele>
        <time>2022-05-07T13:29:46Z</time>
      </trkpt>
      <trkpt lat="46.71074" lon="5.63122">
        <ele>312.4</ele>
        <time>2022-05-07T13:29:49Z</time>
      </trkpt>
      <trkpt lat="46.71071" lon="5.63121">
        <ele>312.8</ele>
        <time>2022-05-07T13:29:50Z</time>
      </trkpt>
      <trkpt lat="46.71061" lon="5.63114">
        <ele>313.8</ele>
        <time>2022-05-07T13:29:53Z</time>
      </trkpt>
      <trkpt lat="46.71052" lon="5.63111">
        <ele>314.8</ele>
        <time>2022-05-07T13:29:56Z</time>
      </trkpt>
      <trkpt lat="46.71049" lon="5.6311">
        <ele>315</ele>
        <time>2022-05-07T13:29:57Z</time>
      </trkpt>
      <trkpt lat="46.71028" lon="5.63098">
        <ele>316.2</ele>
        <time>2022-05-07T13:30:03Z</time>
      </trkpt>
      <trkpt lat="46.71025" lon="5.63097">
        <ele>316.4</ele>
        <time>2022-05-07T13:30:04Z</time>
      </trkpt>
      <trkpt lat="46.71011" lon="5.63088">
        <ele>317.6</ele>
        <time>2022-05-07T13:30:08Z</time>
      </trkpt>
      <trkpt lat="46.71002" lon="5.63079">
        <ele>318</ele>
        <time>2022-05-07T13:30:11Z</time>
      </trkpt>
      <trkpt lat="46.70993" lon="5.6307">
        <ele>318.6</ele>
        <time>2022-05-07T13:30:14Z</time>
      </trkpt>
      <trkpt lat="46.70985" lon="5.63068">
        <ele>319</ele>
        <time>2022-05-07T13:30:16Z</time>
      </trkpt>
      <trkpt lat="46.70978" lon="5.63067">
        <ele>319.8</ele>
        <time>2022-05-07T13:30:18Z</time>
      </trkpt>
      <trkpt lat="46.70968" lon="5.63065">
        <ele>320.6</ele>
        <time>2022-05-07T13:30:21Z</time>
      </trkpt>
      <trkpt lat="46.70964" lon="5.63064">
        <ele>321</ele>
        <time>2022-05-07T13:30:22Z</time>
      </trkpt>
      <trkpt lat="46.7095" lon="5.63062">
        <ele>322</ele>
        <time>2022-05-07T13:30:26Z</time>
      </trkpt>
      <trkpt lat="46.70943" lon="5.63059">
        <ele>322.4</ele>
        <time>2022-05-07T13:30:28Z</time>
      </trkpt>
      <trkpt lat="46.70936" lon="5.63057">
        <ele>323.2</ele>
        <time>2022-05-07T13:30:30Z</time>
      </trkpt>
      <trkpt lat="46.70917" lon="5.63045">
        <ele>324.2</ele>
        <time>2022-05-07T13:30:36Z</time>
      </trkpt>
      <trkpt lat="46.70905" lon="5.63031">
        <ele>325.2</ele>
        <time>2022-05-07T13:30:40Z</time>
      </trkpt>
      <trkpt lat="46.70901" lon="5.63024">
        <ele>325.6</ele>
        <time>2022-05-07T13:30:42Z</time>
      </trkpt>
      <trkpt lat="46.70893" lon="5.63012">
        <ele>326.4</ele>
        <time>2022-05-07T13:30:45Z</time>
      </trkpt>
      <trkpt lat="46.7088" lon="5.62988">
        <ele>327.6</ele>
        <time>2022-05-07T13:30:50Z</time>
      </trkpt>
      <trkpt lat="46.70877" lon="5.62983">
        <ele>327.6</ele>
        <time>2022-05-07T13:30:51Z</time>
      </trkpt>
      <trkpt lat="46.70865" lon="5.62961">
        <ele>328.2</ele>
        <time>2022-05-07T13:30:55Z</time>
      </trkpt>
      <trkpt lat="46.70859" lon="5.62953">
        <ele>328.2</ele>
        <time>2022-05-07T13:30:57Z</time>
      </trkpt>
      <trkpt lat="46.70853" lon="5.62947">
        <ele>328.6</ele>
        <time>2022-05-07T13:30:59Z</time>
      </trkpt>
      <trkpt lat="46.70849" lon="5.62945">
        <ele>328.8</ele>
        <time>2022-05-07T13:31:00Z</time>
      </trkpt>
      <trkpt lat="46.70841" lon="5.62942">
        <ele>329.6</ele>
        <time>2022-05-07T13:31:02Z</time>
      </trkpt>
      <trkpt lat="46.70837" lon="5.6294">
        <ele>329.8</ele>
        <time>2022-05-07T13:31:03Z</time>
      </trkpt>
      <trkpt lat="46.70827" lon="5.62938">
        <ele>331</ele>
        <time>2022-05-07T13:31:06Z</time>
      </trkpt>
      <trkpt lat="46.7081" lon="5.62934">
        <ele>332.2</ele>
        <time>2022-05-07T13:31:11Z</time>
      </trkpt>
      <trkpt lat="46.70806" lon="5.62933">
        <ele>332.4</ele>
        <time>2022-05-07T13:31:12Z</time>
      </trkpt>
      <trkpt lat="46.70796" lon="5.62931">
        <ele>333.4</ele>
        <time>2022-05-07T13:31:15Z</time>
      </trkpt>
      <trkpt lat="46.70778" lon="5.62924">
        <ele>334.8</ele>
        <time>2022-05-07T13:31:20Z</time>
      </trkpt>
      <trkpt lat="46.70775" lon="5.62922">
        <ele>335</ele>
        <time>2022-05-07T13:31:21Z</time>
      </trkpt>
      <trkpt lat="46.70764" lon="5.62909">
        <ele>336</ele>
        <time>2022-05-07T13:31:25Z</time>
      </trkpt>
      <trkpt lat="46.70756" lon="5.629">
        <ele>336.4</ele>
        <time>2022-05-07T13:31:28Z</time>
      </trkpt>
      <trkpt lat="46.70746" lon="5.62898">
        <ele>337.4</ele>
        <time>2022-05-07T13:31:31Z</time>
      </trkpt>
      <trkpt lat="46.70742" lon="5.629">
        <ele>337.6</ele>
        <time>2022-05-07T13:31:32Z</time>
      </trkpt>
      <trkpt lat="46.70735" lon="5.62905">
        <ele>338.6</ele>
        <time>2022-05-07T13:31:34Z</time>
      </trkpt>
      <trkpt lat="46.70724" lon="5.62911">
        <ele>339.2</ele>
        <time>2022-05-07T13:31:37Z</time>
      </trkpt>
      <trkpt lat="46.7072" lon="5.62912">
        <ele>340</ele>
        <time>2022-05-07T13:31:38Z</time>
      </trkpt>
      <trkpt lat="46.70706" lon="5.62916">
        <ele>341</ele>
        <time>2022-05-07T13:31:42Z</time>
      </trkpt>
      <trkpt lat="46.70699" lon="5.62918">
        <ele>341.2</ele>
        <time>2022-05-07T13:31:44Z</time>
      </trkpt>
      <trkpt lat="46.70683" lon="5.62919">
        <ele>342.2</ele>
        <time>2022-05-07T13:31:49Z</time>
      </trkpt>
      <trkpt lat="46.70681" lon="5.6292">
        <ele>342.6</ele>
        <time>2022-05-07T13:31:50Z</time>
      </trkpt>
      <trkpt lat="46.70669" lon="5.62921">
        <ele>343.2</ele>
        <time>2022-05-07T13:31:53Z</time>
      </trkpt>
      <trkpt lat="46.70661" lon="5.6292">
        <ele>343.6</ele>
        <time>2022-05-07T13:31:55Z</time>
      </trkpt>
      <trkpt lat="46.70653" lon="5.6292">
        <ele>344.2</ele>
        <time>2022-05-07T13:31:57Z</time>
      </trkpt>
      <trkpt lat="46.70649" lon="5.6292">
        <ele>344.4</ele>
        <time>2022-05-07T13:31:58Z</time>
      </trkpt>
      <trkpt lat="46.70628" lon="5.62923">
        <ele>345.8</ele>
        <time>2022-05-07T13:32:04Z</time>
      </trkpt>
      <trkpt lat="46.70624" lon="5.62923">
        <ele>346.2</ele>
        <time>2022-05-07T13:32:05Z</time>
      </trkpt>
      <trkpt lat="46.70618" lon="5.62923">
        <ele>347.2</ele>
        <time>2022-05-07T13:32:07Z</time>
      </trkpt>
      <trkpt lat="46.70603" lon="5.62921">
        <ele>348.4</ele>
        <time>2022-05-07T13:32:11Z</time>
      </trkpt>
      <trkpt lat="46.70588" lon="5.62919">
        <ele>349.6</ele>
        <time>2022-05-07T13:32:15Z</time>
      </trkpt>
      <trkpt lat="46.70574" lon="5.62912">
        <ele>350.8</ele>
        <time>2022-05-07T13:32:19Z</time>
      </trkpt>
      <trkpt lat="46.70568" lon="5.62906">
        <ele>351.6</ele>
        <time>2022-05-07T13:32:21Z</time>
      </trkpt>
      <trkpt lat="46.70562" lon="5.62899">
        <ele>351.8</ele>
        <time>2022-05-07T13:32:23Z</time>
      </trkpt>
      <trkpt lat="46.70553" lon="5.62883">
        <ele>352.4</ele>
        <time>2022-05-07T13:32:27Z</time>
      </trkpt>
      <trkpt lat="46.70548" lon="5.62875">
        <ele>353</ele>
        <time>2022-05-07T13:32:29Z</time>
      </trkpt>
      <trkpt lat="46.70537" lon="5.62855">
        <ele>354.2</ele>
        <time>2022-05-07T13:32:34Z</time>
      </trkpt>
      <trkpt lat="46.70524" lon="5.62837">
        <ele>355.4</ele>
        <time>2022-05-07T13:32:39Z</time>
      </trkpt>
      <trkpt lat="46.70512" lon="5.62824">
        <ele>356.4</ele>
        <time>2022-05-07T13:32:43Z</time>
      </trkpt>
      <trkpt lat="46.70509" lon="5.62821">
        <ele>356.6</ele>
        <time>2022-05-07T13:32:44Z</time>
      </trkpt>
      <trkpt lat="46.70491" lon="5.62807">
        <ele>357.6</ele>
        <time>2022-05-07T13:32:50Z</time>
      </trkpt>
      <trkpt lat="46.70485" lon="5.62802">
        <ele>358.8</ele>
        <time>2022-05-07T13:32:52Z</time>
      </trkpt>
      <trkpt lat="46.70479" lon="5.62797">
        <ele>359.2</ele>
        <time>2022-05-07T13:32:54Z</time>
      </trkpt>
      <trkpt lat="46.70473" lon="5.62793">
        <ele>359.8</ele>
        <time>2022-05-07T13:32:56Z</time>
      </trkpt>
      <trkpt lat="46.70465" lon="5.62785">
        <ele>360.4</ele>
        <time>2022-05-07T13:32:59Z</time>
      </trkpt>
      <trkpt lat="46.70459" lon="5.62781">
        <ele>360.8</ele>
        <time>2022-05-07T13:33:01Z</time>
      </trkpt>
      <trkpt lat="46.7045" lon="5.62774">
        <ele>362.2</ele>
        <time>2022-05-07T13:33:04Z</time>
      </trkpt>
      <trkpt lat="46.70448" lon="5.62772">
        <ele>362.4</ele>
        <time>2022-05-07T13:33:05Z</time>
      </trkpt>
      <trkpt lat="46.70439" lon="5.62761">
        <ele>363.2</ele>
        <time>2022-05-07T13:33:09Z</time>
      </trkpt>
      <trkpt lat="46.70439" lon="5.62761">
        <ele>363.2</ele>
        <time>2022-05-07T13:33:10Z</time>
      </trkpt>
      <trkpt lat="46.70428" lon="5.6275">
        <ele>364.2</ele>
        <time>2022-05-07T13:33:13Z</time>
      </trkpt>
      <trkpt lat="46.70425" lon="5.62749">
        <ele>364.6</ele>
        <time>2022-05-07T13:33:14Z</time>
      </trkpt>
      <trkpt lat="46.70421" lon="5.62749">
        <ele>364.8</ele>
        <time>2022-05-07T13:33:15Z</time>
      </trkpt>
      <trkpt lat="46.70414" lon="5.62747">
        <ele>365.2</ele>
        <time>2022-05-07T13:33:17Z</time>
      </trkpt>
      <trkpt lat="46.70409" lon="5.62751">
        <ele>366</ele>
        <time>2022-05-07T13:33:19Z</time>
      </trkpt>
      <trkpt lat="46.70403" lon="5.62754">
        <ele>366.4</ele>
        <time>2022-05-07T13:33:21Z</time>
      </trkpt>
      <trkpt lat="46.70394" lon="5.62769">
        <ele>367.4</ele>
        <time>2022-05-07T13:33:25Z</time>
      </trkpt>
      <trkpt lat="46.70392" lon="5.62774">
        <ele>367.8</ele>
        <time>2022-05-07T13:33:26Z</time>
      </trkpt>
      <trkpt lat="46.70382" lon="5.62797">
        <ele>368.8</ele>
        <time>2022-05-07T13:33:31Z</time>
      </trkpt>
      <trkpt lat="46.70372" lon="5.62814">
        <ele>370.2</ele>
        <time>2022-05-07T13:33:35Z</time>
      </trkpt>
      <trkpt lat="46.70362" lon="5.62825">
        <ele>371.2</ele>
        <time>2022-05-07T13:33:39Z</time>
      </trkpt>
      <trkpt lat="46.7036" lon="5.6283">
        <ele>371.6</ele>
        <time>2022-05-07T13:33:40Z</time>
      </trkpt>
      <trkpt lat="46.70355" lon="5.62837">
        <ele>372.2</ele>
        <time>2022-05-07T13:33:42Z</time>
      </trkpt>
      <trkpt lat="46.7034" lon="5.62847">
        <ele>373.4</ele>
        <time>2022-05-07T13:33:46Z</time>
      </trkpt>
      <trkpt lat="46.70331" lon="5.62852">
        <ele>374.6</ele>
        <time>2022-05-07T13:33:49Z</time>
      </trkpt>
      <trkpt lat="46.70321" lon="5.62853">
        <ele>375.2</ele>
        <time>2022-05-07T13:33:51Z</time>
      </trkpt>
      <trkpt lat="46.70309" lon="5.62852">
        <ele>375.8</ele>
        <time>2022-05-07T13:33:54Z</time>
      </trkpt>
      <trkpt lat="46.70297" lon="5.6285">
        <ele>376.6</ele>
        <time>2022-05-07T13:33:58Z</time>
      </trkpt>
      <trkpt lat="46.70294" lon="5.62849">
        <ele>376.8</ele>
        <time>2022-05-07T13:33:59Z</time>
      </trkpt>
      <trkpt lat="46.70284" lon="5.62848">
        <ele>378</ele>
        <time>2022-05-07T13:34:03Z</time>
      </trkpt>
      <trkpt lat="46.7028" lon="5.62847">
        <ele>378.2</ele>
        <time>2022-05-07T13:34:04Z</time>
      </trkpt>
      <trkpt lat="46.70272" lon="5.62842">
        <ele>379.2</ele>
        <time>2022-05-07T13:34:07Z</time>
      </trkpt>
      <trkpt lat="46.7027" lon="5.6284">
        <ele>379.4</ele>
        <time>2022-05-07T13:34:08Z</time>
      </trkpt>
      <trkpt lat="46.70261" lon="5.62834">
        <ele>380.2</ele>
        <time>2022-05-07T13:34:11Z</time>
      </trkpt>
      <trkpt lat="46.70258" lon="5.62832">
        <ele>380.4</ele>
        <time>2022-05-07T13:34:12Z</time>
      </trkpt>
      <trkpt lat="46.70255" lon="5.62829">
        <ele>380.6</ele>
        <time>2022-05-07T13:34:13Z</time>
      </trkpt>
      <trkpt lat="46.70248" lon="5.62823">
        <ele>381.4</ele>
        <time>2022-05-07T13:34:15Z</time>
      </trkpt>
      <trkpt lat="46.70233" lon="5.6281">
        <ele>381.8</ele>
        <time>2022-05-07T13:34:20Z</time>
      </trkpt>
      <trkpt lat="46.70221" lon="5.62804">
        <ele>382.6</ele>
        <time>2022-05-07T13:34:23Z</time>
      </trkpt>
      <trkpt lat="46.70211" lon="5.62803">
        <ele>383.6</ele>
        <time>2022-05-07T13:34:26Z</time>
      </trkpt>
      <trkpt lat="46.70207" lon="5.62802">
        <ele>383.6</ele>
        <time>2022-05-07T13:34:27Z</time>
      </trkpt>
      <trkpt lat="46.70192" lon="5.62801">
        <ele>384.8</ele>
        <time>2022-05-07T13:34:31Z</time>
      </trkpt>
      <trkpt lat="46.70189" lon="5.62801">
        <ele>384.8</ele>
        <time>2022-05-07T13:34:32Z</time>
      </trkpt>
      <trkpt lat="46.70172" lon="5.628">
        <ele>386</ele>
        <time>2022-05-07T13:34:36Z</time>
      </trkpt>
      <trkpt lat="46.70165" lon="5.62802">
        <ele>386.8</ele>
        <time>2022-05-07T13:34:38Z</time>
      </trkpt>
      <trkpt lat="46.70157" lon="5.628">
        <ele>387.2</ele>
        <time>2022-05-07T13:34:40Z</time>
      </trkpt>
      <trkpt lat="46.70154" lon="5.62799">
        <ele>387.4</ele>
        <time>2022-05-07T13:34:41Z</time>
      </trkpt>
      <trkpt lat="46.70135" lon="5.62802">
        <ele>388.2</ele>
        <time>2022-05-07T13:34:46Z</time>
      </trkpt>
      <trkpt lat="46.7012" lon="5.62804">
        <ele>389.4</ele>
        <time>2022-05-07T13:34:50Z</time>
      </trkpt>
      <trkpt lat="46.70116" lon="5.62804">
        <ele>389.6</ele>
        <time>2022-05-07T13:34:51Z</time>
      </trkpt>
      <trkpt lat="46.70105" lon="5.628">
        <ele>390.4</ele>
        <time>2022-05-07T13:34:55Z</time>
      </trkpt>
      <trkpt lat="46.70099" lon="5.62795">
        <ele>391.4</ele>
        <time>2022-05-07T13:34:58Z</time>
      </trkpt>
      <trkpt lat="46.70096" lon="5.62793">
        <ele>391.6</ele>
        <time>2022-05-07T13:34:59Z</time>
      </trkpt>
      <trkpt lat="46.70082" lon="5.62785">
        <ele>392</ele>
        <time>2022-05-07T13:35:04Z</time>
      </trkpt>
      <trkpt lat="46.70067" lon="5.62783">
        <ele>393.2</ele>
        <time>2022-05-07T13:35:08Z</time>
      </trkpt>
      <trkpt lat="46.70056" lon="5.62783">
        <ele>394.4</ele>
        <time>2022-05-07T13:35:12Z</time>
      </trkpt>
      <trkpt lat="46.70037" lon="5.62781">
        <ele>395.6</ele>
        <time>2022-05-07T13:35:18Z</time>
      </trkpt>
      <trkpt lat="46.70034" lon="5.6278">
        <ele>395.8</ele>
        <time>2022-05-07T13:35:19Z</time>
      </trkpt>
      <trkpt lat="46.70023" lon="5.62775">
        <ele>396.6</ele>
        <time>2022-05-07T13:35:22Z</time>
      </trkpt>
      <trkpt lat="46.70011" lon="5.6277">
        <ele>397.2</ele>
        <time>2022-05-07T13:35:25Z</time>
      </trkpt>
      <trkpt lat="46.70003" lon="5.62766">
        <ele>397.8</ele>
        <time>2022-05-07T13:35:27Z</time>
      </trkpt>
      <trkpt lat="46.69993" lon="5.62766">
        <ele>398.2</ele>
        <time>2022-05-07T13:35:30Z</time>
      </trkpt>
      <trkpt lat="46.69983" lon="5.6277">
        <ele>398.8</ele>
        <time>2022-05-07T13:35:33Z</time>
      </trkpt>
      <trkpt lat="46.69977" lon="5.62772">
        <ele>399.6</ele>
        <time>2022-05-07T13:35:35Z</time>
      </trkpt>
      <trkpt lat="46.69971" lon="5.62772">
        <ele>400</ele>
        <time>2022-05-07T13:35:37Z</time>
      </trkpt>
      <trkpt lat="46.69961" lon="5.6277">
        <ele>400.8</ele>
        <time>2022-05-07T13:35:40Z</time>
      </trkpt>
      <trkpt lat="46.69958" lon="5.62769">
        <ele>401</ele>
        <time>2022-05-07T13:35:41Z</time>
      </trkpt>
      <trkpt lat="46.69938" lon="5.62763">
        <ele>402</ele>
        <time>2022-05-07T13:35:47Z</time>
      </trkpt>
      <trkpt lat="46.69934" lon="5.62762">
        <ele>402.2</ele>
        <time>2022-05-07T13:35:48Z</time>
      </trkpt>
      <trkpt lat="46.69912" lon="5.62759">
        <ele>403.2</ele>
        <time>2022-05-07T13:35:54Z</time>
      </trkpt>
      <trkpt lat="46.69906" lon="5.6276">
        <ele>403.8</ele>
        <time>2022-05-07T13:35:56Z</time>
      </trkpt>
      <trkpt lat="46.69903" lon="5.62761">
        <ele>404.4</ele>
        <time>2022-05-07T13:35:57Z</time>
      </trkpt>
      <trkpt lat="46.69894" lon="5.62767">
        <ele>405.4</ele>
        <time>2022-05-07T13:36:00Z</time>
      </trkpt>
      <trkpt lat="46.69883" lon="5.62774">
        <ele>406</ele>
        <time>2022-05-07T13:36:04Z</time>
      </trkpt>
      <trkpt lat="46.69873" lon="5.62779">
        <ele>406.6</ele>
        <time>2022-05-07T13:36:07Z</time>
      </trkpt>
      <trkpt lat="46.69864" lon="5.62783">
        <ele>407.4</ele>
        <time>2022-05-07T13:36:10Z</time>
      </trkpt>
      <trkpt lat="46.69862" lon="5.62787">
        <ele>407.6</ele>
        <time>2022-05-07T13:36:11Z</time>
      </trkpt>
      <trkpt lat="46.69857" lon="5.628">
        <ele>408.8</ele>
        <time>2022-05-07T13:36:14Z</time>
      </trkpt>
      <trkpt lat="46.69847" lon="5.6282">
        <ele>409.6</ele>
        <time>2022-05-07T13:36:20Z</time>
      </trkpt>
      <trkpt lat="46.69843" lon="5.62826">
        <ele>410.2</ele>
        <time>2022-05-07T13:36:22Z</time>
      </trkpt>
      <trkpt lat="46.69834" lon="5.62837">
        <ele>411.4</ele>
        <time>2022-05-07T13:36:26Z</time>
      </trkpt>
      <trkpt lat="46.69829" lon="5.62842">
        <ele>411.8</ele>
        <time>2022-05-07T13:36:28Z</time>
      </trkpt>
      <trkpt lat="46.6982" lon="5.62847">
        <ele>412.6</ele>
        <time>2022-05-07T13:36:31Z</time>
      </trkpt>
      <trkpt lat="46.69813" lon="5.62848">
        <ele>413</ele>
        <time>2022-05-07T13:36:33Z</time>
      </trkpt>
      <trkpt lat="46.6981" lon="5.62848">
        <ele>413.6</ele>
        <time>2022-05-07T13:36:34Z</time>
      </trkpt>
      <trkpt lat="46.69798" lon="5.62843">
        <ele>414.6</ele>
        <time>2022-05-07T13:36:38Z</time>
      </trkpt>
      <trkpt lat="46.69792" lon="5.62842">
        <ele>414.8</ele>
        <time>2022-05-07T13:36:40Z</time>
      </trkpt>
      <trkpt lat="46.69779" lon="5.62847">
        <ele>415.6</ele>
        <time>2022-05-07T13:36:44Z</time>
      </trkpt>
      <trkpt lat="46.69776" lon="5.6285">
        <ele>415.8</ele>
        <time>2022-05-07T13:36:45Z</time>
      </trkpt>
      <trkpt lat="46.69765" lon="5.62866">
        <ele>417</ele>
        <time>2022-05-07T13:36:50Z</time>
      </trkpt>
      <trkpt lat="46.69761" lon="5.62873">
        <ele>417.6</ele>
        <time>2022-05-07T13:36:52Z</time>
      </trkpt>
      <trkpt lat="46.69757" lon="5.62881">
        <ele>418</ele>
        <time>2022-05-07T13:36:54Z</time>
      </trkpt>
      <trkpt lat="46.69752" lon="5.62893">
        <ele>419.2</ele>
        <time>2022-05-07T13:36:57Z</time>
      </trkpt>
      <trkpt lat="46.69742" lon="5.62915">
        <ele>419.8</ele>
        <time>2022-05-07T13:37:03Z</time>
      </trkpt>
      <trkpt lat="46.69738" lon="5.62917">
        <ele>420.6</ele>
        <time>2022-05-07T13:37:05Z</time>
      </trkpt>
      <trkpt lat="46.69733" lon="5.62914">
        <ele>420.8</ele>
        <time>2022-05-07T13:37:07Z</time>
      </trkpt>
      <trkpt lat="46.69734" lon="5.629">
        <ele>421.4</ele>
        <time>2022-05-07T13:37:10Z</time>
      </trkpt>
      <trkpt lat="46.69736" lon="5.62894">
        <ele>421.6</ele>
        <time>2022-05-07T13:37:11Z</time>
      </trkpt>
      <trkpt lat="46.69738" lon="5.62866">
        <ele>422.8</ele>
        <time>2022-05-07T13:37:16Z</time>
      </trkpt>
      <trkpt lat="46.69736" lon="5.62841">
        <ele>423.8</ele>
        <time>2022-05-07T13:37:21Z</time>
      </trkpt>
      <trkpt lat="46.69734" lon="5.6283">
        <ele>424.2</ele>
        <time>2022-05-07T13:37:23Z</time>
      </trkpt>
      <trkpt lat="46.69732" lon="5.62805">
        <ele>425.6</ele>
        <time>2022-05-07T13:37:28Z</time>
      </trkpt>
      <trkpt lat="46.69733" lon="5.628">
        <ele>425.8</ele>
        <time>2022-05-07T13:37:29Z</time>
      </trkpt>
      <trkpt lat="46.6974" lon="5.62783">
        <ele>426.8</ele>
        <time>2022-05-07T13:37:33Z</time>
      </trkpt>
      <trkpt lat="46.69746" lon="5.6277">
        <ele>427.2</ele>
        <time>2022-05-07T13:37:36Z</time>
      </trkpt>
      <trkpt lat="46.69756" lon="5.6275">
        <ele>428</ele>
        <time>2022-05-07T13:37:41Z</time>
      </trkpt>
      <trkpt lat="46.69761" lon="5.62734">
        <ele>429</ele>
        <time>2022-05-07T13:37:45Z</time>
      </trkpt>
      <trkpt lat="46.69762" lon="5.62729">
        <ele>429.4</ele>
        <time>2022-05-07T13:37:46Z</time>
      </trkpt>
      <trkpt lat="46.69766" lon="5.62708">
        <ele>430.8</ele>
        <time>2022-05-07T13:37:51Z</time>
      </trkpt>
      <trkpt lat="46.69769" lon="5.6269">
        <ele>431.8</ele>
        <time>2022-05-07T13:37:55Z</time>
      </trkpt>
      <trkpt lat="46.6977" lon="5.62685">
        <ele>432</ele>
        <time>2022-05-07T13:37:56Z</time>
      </trkpt>
      <trkpt lat="46.69775" lon="5.62668">
        <ele>433</ele>
        <time>2022-05-07T13:38:00Z</time>
      </trkpt>
      <trkpt lat="46.69782" lon="5.62651">
        <ele>434.2</ele>
        <time>2022-05-07T13:38:04Z</time>
      </trkpt>
      <trkpt lat="46.69789" lon="5.62636">
        <ele>435.4</ele>
        <time>2022-05-07T13:38:08Z</time>
      </trkpt>
      <trkpt lat="46.69795" lon="5.62625">
        <ele>436.2</ele>
        <time>2022-05-07T13:38:11Z</time>
      </trkpt>
      <trkpt lat="46.69797" lon="5.62622">
        <ele>436.6</ele>
        <time>2022-05-07T13:38:12Z</time>
      </trkpt>
      <trkpt lat="46.69804" lon="5.62608">
        <ele>437.6</ele>
        <time>2022-05-07T13:38:16Z</time>
      </trkpt>
      <trkpt lat="46.69811" lon="5.62599">
        <ele>438</ele>
        <time>2022-05-07T13:38:19Z</time>
      </trkpt>
      <trkpt lat="46.69818" lon="5.62591">
        <ele>438.8</ele>
        <time>2022-05-07T13:38:22Z</time>
      </trkpt>
      <trkpt lat="46.69832" lon="5.62575">
        <ele>439.8</ele>
        <time>2022-05-07T13:38:27Z</time>
      </trkpt>
      <trkpt lat="46.69841" lon="5.62561">
        <ele>440.4</ele>
        <time>2022-05-07T13:38:31Z</time>
      </trkpt>
      <trkpt lat="46.69846" lon="5.62554">
        <ele>440.8</ele>
        <time>2022-05-07T13:38:33Z</time>
      </trkpt>
      <trkpt lat="46.69858" lon="5.62536">
        <ele>442</ele>
        <time>2022-05-07T13:38:38Z</time>
      </trkpt>
      <trkpt lat="46.69864" lon="5.62529">
        <ele>442.4</ele>
        <time>2022-05-07T13:38:40Z</time>
      </trkpt>
      <trkpt lat="46.69873" lon="5.62519">
        <ele>443</ele>
        <time>2022-05-07T13:38:43Z</time>
      </trkpt>
      <trkpt lat="46.69882" lon="5.62512">
        <ele>443.6</ele>
        <time>2022-05-07T13:38:46Z</time>
      </trkpt>
      <trkpt lat="46.6989" lon="5.62507">
        <ele>444.2</ele>
        <time>2022-05-07T13:38:49Z</time>
      </trkpt>
      <trkpt lat="46.699" lon="5.62501">
        <ele>445</ele>
        <time>2022-05-07T13:38:52Z</time>
      </trkpt>
      <trkpt lat="46.69902" lon="5.625">
        <ele>445.2</ele>
        <time>2022-05-07T13:38:53Z</time>
      </trkpt>
      <trkpt lat="46.69906" lon="5.62493">
        <ele>445.6</ele>
        <time>2022-05-07T13:38:55Z</time>
      </trkpt>
      <trkpt lat="46.69907" lon="5.62489">
        <ele>445.8</ele>
        <time>2022-05-07T13:38:56Z</time>
      </trkpt>
      <trkpt lat="46.69906" lon="5.62486">
        <ele>446</ele>
        <time>2022-05-07T13:38:57Z</time>
      </trkpt>
      <trkpt lat="46.699" lon="5.62484">
        <ele>446.2</ele>
        <time>2022-05-07T13:38:59Z</time>
      </trkpt>
      <trkpt lat="46.69886" lon="5.62485">
        <ele>447.4</ele>
        <time>2022-05-07T13:39:03Z</time>
      </trkpt>
      <trkpt lat="46.69874" lon="5.6249">
        <ele>448.2</ele>
        <time>2022-05-07T13:39:06Z</time>
      </trkpt>
      <trkpt lat="46.6987" lon="5.62492">
        <ele>448.4</ele>
        <time>2022-05-07T13:39:07Z</time>
      </trkpt>
      <trkpt lat="46.69853" lon="5.62498">
        <ele>449.4</ele>
        <time>2022-05-07T13:39:11Z</time>
      </trkpt>
      <trkpt lat="46.69849" lon="5.62499">
        <ele>449.4</ele>
        <time>2022-05-07T13:39:12Z</time>
      </trkpt>
      <trkpt lat="46.69831" lon="5.62504">
        <ele>450.4</ele>
        <time>2022-05-07T13:39:16Z</time>
      </trkpt>
      <trkpt lat="46.69827" lon="5.62508">
        <ele>450.8</ele>
        <time>2022-05-07T13:39:17Z</time>
      </trkpt>
      <trkpt lat="46.69812" lon="5.62523">
        <ele>451.8</ele>
        <time>2022-05-07T13:39:22Z</time>
      </trkpt>
      <trkpt lat="46.69801" lon="5.62527">
        <ele>452.6</ele>
        <time>2022-05-07T13:39:25Z</time>
      </trkpt>
      <trkpt lat="46.69798" lon="5.62529">
        <ele>453</ele>
        <time>2022-05-07T13:39:26Z</time>
      </trkpt>
      <trkpt lat="46.69785" lon="5.62536">
        <ele>454.4</ele>
        <time>2022-05-07T13:39:29Z</time>
      </trkpt>
      <trkpt lat="46.69774" lon="5.62546">
        <ele>455</ele>
        <time>2022-05-07T13:39:32Z</time>
      </trkpt>
      <trkpt lat="46.69767" lon="5.62553">
        <ele>455.6</ele>
        <time>2022-05-07T13:39:34Z</time>
      </trkpt>
      <trkpt lat="46.69761" lon="5.62556">
        <ele>456.2</ele>
        <time>2022-05-07T13:39:36Z</time>
      </trkpt>
      <trkpt lat="46.69753" lon="5.62559">
        <ele>456.6</ele>
        <time>2022-05-07T13:39:38Z</time>
      </trkpt>
      <trkpt lat="46.69734" lon="5.6257">
        <ele>457.8</ele>
        <time>2022-05-07T13:39:43Z</time>
      </trkpt>
      <trkpt lat="46.69716" lon="5.6258">
        <ele>459</ele>
        <time>2022-05-07T13:39:48Z</time>
      </trkpt>
      <trkpt lat="46.69706" lon="5.62584">
        <ele>459.4</ele>
        <time>2022-05-07T13:39:51Z</time>
      </trkpt>
      <trkpt lat="46.697" lon="5.62587">
        <ele>460.2</ele>
        <time>2022-05-07T13:39:53Z</time>
      </trkpt>
      <trkpt lat="46.69681" lon="5.62601">
        <ele>461.2</ele>
        <time>2022-05-07T13:39:59Z</time>
      </trkpt>
      <trkpt lat="46.69668" lon="5.62613">
        <ele>462.2</ele>
        <time>2022-05-07T13:40:03Z</time>
      </trkpt>
      <trkpt lat="46.69665" lon="5.62616">
        <ele>462.4</ele>
        <time>2022-05-07T13:40:04Z</time>
      </trkpt>
      <trkpt lat="46.69657" lon="5.62625">
        <ele>463.2</ele>
        <time>2022-05-07T13:40:07Z</time>
      </trkpt>
      <trkpt lat="46.69654" lon="5.62628">
        <ele>463.4</ele>
        <time>2022-05-07T13:40:08Z</time>
      </trkpt>
      <trkpt lat="46.69639" lon="5.62648">
        <ele>464.6</ele>
        <time>2022-05-07T13:40:14Z</time>
      </trkpt>
      <trkpt lat="46.69635" lon="5.6266">
        <ele>465.6</ele>
        <time>2022-05-07T13:40:17Z</time>
      </trkpt>
      <trkpt lat="46.69631" lon="5.62669">
        <ele>466</ele>
        <time>2022-05-07T13:40:19Z</time>
      </trkpt>
      <trkpt lat="46.69625" lon="5.62683">
        <ele>466.6</ele>
        <time>2022-05-07T13:40:22Z</time>
      </trkpt>
      <trkpt lat="46.69615" lon="5.62702">
        <ele>467.6</ele>
        <time>2022-05-07T13:40:26Z</time>
      </trkpt>
      <trkpt lat="46.69613" lon="5.62707">
        <ele>467.8</ele>
        <time>2022-05-07T13:40:27Z</time>
      </trkpt>
      <trkpt lat="46.69602" lon="5.62724">
        <ele>469</ele>
        <time>2022-05-07T13:40:31Z</time>
      </trkpt>
      <trkpt lat="46.69598" lon="5.62732">
        <ele>469.6</ele>
        <time>2022-05-07T13:40:33Z</time>
      </trkpt>
      <trkpt lat="46.69593" lon="5.6274">
        <ele>470.2</ele>
        <time>2022-05-07T13:40:35Z</time>
      </trkpt>
      <trkpt lat="46.69583" lon="5.62756">
        <ele>471.4</ele>
        <time>2022-05-07T13:40:39Z</time>
      </trkpt>
      <trkpt lat="46.69575" lon="5.62769">
        <ele>472.4</ele>
        <time>2022-05-07T13:40:42Z</time>
      </trkpt>
      <trkpt lat="46.69561" lon="5.62788">
        <ele>473.4</ele>
        <time>2022-05-07T13:40:47Z</time>
      </trkpt>
      <trkpt lat="46.69551" lon="5.62804">
        <ele>475</ele>
        <time>2022-05-07T13:40:51Z</time>
      </trkpt>
      <trkpt lat="46.69538" lon="5.62831">
        <ele>476.4</ele>
        <time>2022-05-07T13:40:57Z</time>
      </trkpt>
      <trkpt lat="46.69535" lon="5.6284">
        <ele>476.8</ele>
        <time>2022-05-07T13:40:59Z</time>
      </trkpt>
      <trkpt lat="46.69533" lon="5.62845">
        <ele>477.4</ele>
        <time>2022-05-07T13:41:00Z</time>
      </trkpt>
      <trkpt lat="46.69529" lon="5.62869">
        <ele>478.4</ele>
        <time>2022-05-07T13:41:05Z</time>
      </trkpt>
      <trkpt lat="46.69528" lon="5.62874">
        <ele>478.8</ele>
        <time>2022-05-07T13:41:06Z</time>
      </trkpt>
      <trkpt lat="46.69527" lon="5.6289">
        <ele>479.8</ele>
        <time>2022-05-07T13:41:09Z</time>
      </trkpt>
      <trkpt lat="46.6953" lon="5.62908">
        <ele>480.8</ele>
        <time>2022-05-07T13:41:13Z</time>
      </trkpt>
      <trkpt lat="46.69531" lon="5.62912">
        <ele>481</ele>
        <time>2022-05-07T13:41:14Z</time>
      </trkpt>
      <trkpt lat="46.69536" lon="5.62922">
        <ele>482.2</ele>
        <time>2022-05-07T13:41:18Z</time>
      </trkpt>
      <trkpt lat="46.69546" lon="5.62932">
        <ele>483</ele>
        <time>2022-05-07T13:41:23Z</time>
      </trkpt>
      <trkpt lat="46.69548" lon="5.62934">
        <ele>483.4</ele>
        <time>2022-05-07T13:41:24Z</time>
      </trkpt>
      <trkpt lat="46.69558" lon="5.62941">
        <ele>484.2</ele>
        <time>2022-05-07T13:41:27Z</time>
      </trkpt>
      <trkpt lat="46.69566" lon="5.62947">
        <ele>485.4</ele>
        <time>2022-05-07T13:41:30Z</time>
      </trkpt>
      <trkpt lat="46.69569" lon="5.62949">
        <ele>485.6</ele>
        <time>2022-05-07T13:41:31Z</time>
      </trkpt>
      <trkpt lat="46.69585" lon="5.6296">
        <ele>486.4</ele>
        <time>2022-05-07T13:41:36Z</time>
      </trkpt>
      <trkpt lat="46.69588" lon="5.62962">
        <ele>486.6</ele>
        <time>2022-05-07T13:41:37Z</time>
      </trkpt>
      <trkpt lat="46.69604" lon="5.62975">
        <ele>487.8</ele>
        <time>2022-05-07T13:41:42Z</time>
      </trkpt>
      <trkpt lat="46.69611" lon="5.6298">
        <ele>488.4</ele>
        <time>2022-05-07T13:41:44Z</time>
      </trkpt>
      <trkpt lat="46.69617" lon="5.62985">
        <ele>488.8</ele>
        <time>2022-05-07T13:41:46Z</time>
      </trkpt>
      <trkpt lat="46.69627" lon="5.62996">
        <ele>489.4</ele>
        <time>2022-05-07T13:41:50Z</time>
      </trkpt>
      <trkpt lat="46.6963" lon="5.62999">
        <ele>489.6</ele>
        <time>2022-05-07T13:41:51Z</time>
      </trkpt>
      <trkpt lat="46.69644" lon="5.63016">
        <ele>490.4</ele>
        <time>2022-05-07T13:41:56Z</time>
      </trkpt>
      <trkpt lat="46.6965" lon="5.63025">
        <ele>490.8</ele>
        <time>2022-05-07T13:41:58Z</time>
      </trkpt>
      <trkpt lat="46.69656" lon="5.63048">
        <ele>492</ele>
        <time>2022-05-07T13:42:03Z</time>
      </trkpt>
      <trkpt lat="46.69652" lon="5.63069">
        <ele>492.6</ele>
        <time>2022-05-07T13:42:07Z</time>
      </trkpt>
      <trkpt lat="46.69648" lon="5.63091">
        <ele>493.2</ele>
        <time>2022-05-07T13:42:12Z</time>
      </trkpt>
      <trkpt lat="46.69646" lon="5.63095">
        <ele>493.4</ele>
        <time>2022-05-07T13:42:13Z</time>
      </trkpt>
      <trkpt lat="46.69643" lon="5.631">
        <ele>493.8</ele>
        <time>2022-05-07T13:42:15Z</time>
      </trkpt>
      <trkpt lat="46.69641" lon="5.63103">
        <ele>494.4</ele>
        <time>2022-05-07T13:42:16Z</time>
      </trkpt>
      <trkpt lat="46.69638" lon="5.6311">
        <ele>494.8</ele>
        <time>2022-05-07T13:42:18Z</time>
      </trkpt>
      <trkpt lat="46.69636" lon="5.63112">
        <ele>495.4</ele>
        <time>2022-05-07T13:42:19Z</time>
      </trkpt>
      <trkpt lat="46.69627" lon="5.63124">
        <ele>495.8</ele>
        <time>2022-05-07T13:42:23Z</time>
      </trkpt>
      <trkpt lat="46.69621" lon="5.63134">
        <ele>496.6</ele>
        <time>2022-05-07T13:42:26Z</time>
      </trkpt>
      <trkpt lat="46.69619" lon="5.63138">
        <ele>496.8</ele>
        <time>2022-05-07T13:42:27Z</time>
      </trkpt>
      <trkpt lat="46.69618" lon="5.63143">
        <ele>497.2</ele>
        <time>2022-05-07T13:42:28Z</time>
      </trkpt>
      <trkpt lat="46.69614" lon="5.63153">
        <ele>498</ele>
        <time>2022-05-07T13:42:30Z</time>
      </trkpt>
      <trkpt lat="46.69613" lon="5.63157">
        <ele>498.4</ele>
        <time>2022-05-07T13:42:31Z</time>
      </trkpt>
      <trkpt lat="46.6961" lon="5.63166">
        <ele>498.8</ele>
        <time>2022-05-07T13:42:33Z</time>
      </trkpt>
      <trkpt lat="46.69608" lon="5.6317">
        <ele>499</ele>
        <time>2022-05-07T13:42:34Z</time>
      </trkpt>
      <trkpt lat="46.69602" lon="5.6319">
        <ele>500</ele>
        <time>2022-05-07T13:42:38Z</time>
      </trkpt>
      <trkpt lat="46.696" lon="5.63195">
        <ele>500</ele>
        <time>2022-05-07T13:42:39Z</time>
      </trkpt>
      <trkpt lat="46.69595" lon="5.63221">
        <ele>501.2</ele>
        <time>2022-05-07T13:42:44Z</time>
      </trkpt>
      <trkpt lat="46.69594" lon="5.63225">
        <ele>501.4</ele>
        <time>2022-05-07T13:42:45Z</time>
      </trkpt>
      <trkpt lat="46.69592" lon="5.63229">
        <ele>501.8</ele>
        <time>2022-05-07T13:42:46Z</time>
      </trkpt>
      <trkpt lat="46.69589" lon="5.63239">
        <ele>502.4</ele>
        <time>2022-05-07T13:42:48Z</time>
      </trkpt>
      <trkpt lat="46.69585" lon="5.63249">
        <ele>503.6</ele>
        <time>2022-05-07T13:42:51Z</time>
      </trkpt>
      <trkpt lat="46.69581" lon="5.63256">
        <ele>504.2</ele>
        <time>2022-05-07T13:42:53Z</time>
      </trkpt>
      <trkpt lat="46.69579" lon="5.63263">
        <ele>504.6</ele>
        <time>2022-05-07T13:42:55Z</time>
      </trkpt>
      <trkpt lat="46.69579" lon="5.63267">
        <ele>504.8</ele>
        <time>2022-05-07T13:42:56Z</time>
      </trkpt>
      <trkpt lat="46.69571" lon="5.63284">
        <ele>506</ele>
        <time>2022-05-07T13:43:00Z</time>
      </trkpt>
      <trkpt lat="46.69568" lon="5.63292">
        <ele>506.4</ele>
        <time>2022-05-07T13:43:02Z</time>
      </trkpt>
      <trkpt lat="46.69558" lon="5.63325">
        <ele>506.8</ele>
        <time>2022-05-07T13:43:09Z</time>
      </trkpt>
      <trkpt lat="46.69555" lon="5.63337">
        <ele>507.2</ele>
        <time>2022-05-07T13:43:12Z</time>
      </trkpt>
      <trkpt lat="46.69552" lon="5.63347">
        <ele>508.4</ele>
        <time>2022-05-07T13:43:15Z</time>
      </trkpt>
      <trkpt lat="46.6955" lon="5.63352">
        <ele>508.6</ele>
        <time>2022-05-07T13:43:16Z</time>
      </trkpt>
      <trkpt lat="46.69545" lon="5.63371">
        <ele>509.6</ele>
        <time>2022-05-07T13:43:21Z</time>
      </trkpt>
      <trkpt lat="46.69543" lon="5.63378">
        <ele>510.2</ele>
        <time>2022-05-07T13:43:23Z</time>
      </trkpt>
      <trkpt lat="46.69542" lon="5.63382">
        <ele>510.4</ele>
        <time>2022-05-07T13:43:24Z</time>
      </trkpt>
      <trkpt lat="46.69541" lon="5.63386">
        <ele>510.6</ele>
        <time>2022-05-07T13:43:25Z</time>
      </trkpt>
      <trkpt lat="46.69538" lon="5.63398">
        <ele>511.2</ele>
        <time>2022-05-07T13:43:28Z</time>
      </trkpt>
      <trkpt lat="46.69535" lon="5.6341">
        <ele>512</ele>
        <time>2022-05-07T13:43:31Z</time>
      </trkpt>
      <trkpt lat="46.69532" lon="5.63425">
        <ele>513</ele>
        <time>2022-05-07T13:43:34Z</time>
      </trkpt>
      <trkpt lat="46.6953" lon="5.63439">
        <ele>513.8</ele>
        <time>2022-05-07T13:43:37Z</time>
      </trkpt>
      <trkpt lat="46.6953" lon="5.63448">
        <ele>514.2</ele>
        <time>2022-05-07T13:43:39Z</time>
      </trkpt>
      <trkpt lat="46.69529" lon="5.63463">
        <ele>514.6</ele>
        <time>2022-05-07T13:43:42Z</time>
      </trkpt>
      <trkpt lat="46.69529" lon="5.63478">
        <ele>515.2</ele>
        <time>2022-05-07T13:43:45Z</time>
      </trkpt>
      <trkpt lat="46.69528" lon="5.63503">
        <ele>515.8</ele>
        <time>2022-05-07T13:43:50Z</time>
      </trkpt>
      <trkpt lat="46.69527" lon="5.63509">
        <ele>515.8</ele>
        <time>2022-05-07T13:43:51Z</time>
      </trkpt>
      <trkpt lat="46.69522" lon="5.63519">
        <ele>516</ele>
        <time>2022-05-07T13:43:53Z</time>
      </trkpt>
      <trkpt lat="46.69519" lon="5.63521">
        <ele>516.2</ele>
        <time>2022-05-07T13:43:54Z</time>
      </trkpt>
      <trkpt lat="46.69514" lon="5.63522">
        <ele>516.4</ele>
        <time>2022-05-07T13:43:56Z</time>
      </trkpt>
      <trkpt lat="46.69507" lon="5.63516">
        <ele>516.8</ele>
        <time>2022-05-07T13:43:58Z</time>
      </trkpt>
      <trkpt lat="46.69496" lon="5.63506">
        <ele>517.2</ele>
        <time>2022-05-07T13:44:01Z</time>
      </trkpt>
      <trkpt lat="46.69488" lon="5.63501">
        <ele>517.4</ele>
        <time>2022-05-07T13:44:03Z</time>
      </trkpt>
      <trkpt lat="46.69484" lon="5.63499">
        <ele>517.4</ele>
        <time>2022-05-07T13:44:04Z</time>
      </trkpt>
      <trkpt lat="46.69467" lon="5.63496">
        <ele>517.8</ele>
        <time>2022-05-07T13:44:08Z</time>
      </trkpt>
      <trkpt lat="46.69453" lon="5.63495">
        <ele>518.4</ele>
        <time>2022-05-07T13:44:11Z</time>
      </trkpt>
      <trkpt lat="46.69434" lon="5.63489">
        <ele>518.8</ele>
        <time>2022-05-07T13:44:15Z</time>
      </trkpt>
      <trkpt lat="46.69429" lon="5.63486">
        <ele>518.8</ele>
        <time>2022-05-07T13:44:16Z</time>
      </trkpt>
      <trkpt lat="46.69379" lon="5.63455">
        <ele>519</ele>
        <time>2022-05-07T13:44:26Z</time>
      </trkpt>
      <trkpt lat="46.69341" lon="5.63435">
        <ele>518.8</ele>
        <time>2022-05-07T13:44:33Z</time>
      </trkpt>
      <trkpt lat="46.69309" lon="5.63428">
        <ele>519.6</ele>
        <time>2022-05-07T13:44:39Z</time>
      </trkpt>
      <trkpt lat="46.69276" lon="5.63426">
        <ele>520.6</ele>
        <time>2022-05-07T13:44:45Z</time>
      </trkpt>
      <trkpt lat="46.69271" lon="5.63426">
        <ele>520.8</ele>
        <time>2022-05-07T13:44:46Z</time>
      </trkpt>
      <trkpt lat="46.69261" lon="5.6343">
        <ele>521.2</ele>
        <time>2022-05-07T13:44:48Z</time>
      </trkpt>
      <trkpt lat="46.69252" lon="5.63435">
        <ele>521.6</ele>
        <time>2022-05-07T13:44:50Z</time>
      </trkpt>
      <trkpt lat="46.69248" lon="5.63439">
        <ele>521.6</ele>
        <time>2022-05-07T13:44:51Z</time>
      </trkpt>
      <trkpt lat="46.6924" lon="5.63446">
        <ele>522.6</ele>
        <time>2022-05-07T13:44:53Z</time>
      </trkpt>
      <trkpt lat="46.6923" lon="5.63457">
        <ele>523.4</ele>
        <time>2022-05-07T13:44:56Z</time>
      </trkpt>
      <trkpt lat="46.69226" lon="5.63461">
        <ele>524</ele>
        <time>2022-05-07T13:44:57Z</time>
      </trkpt>
      <trkpt lat="46.69219" lon="5.63468">
        <ele>524.4</ele>
        <time>2022-05-07T13:44:59Z</time>
      </trkpt>
      <trkpt lat="46.69211" lon="5.63472">
        <ele>524.8</ele>
        <time>2022-05-07T13:45:01Z</time>
      </trkpt>
      <trkpt lat="46.69207" lon="5.63474">
        <ele>525</ele>
        <time>2022-05-07T13:45:02Z</time>
      </trkpt>
      <trkpt lat="46.69203" lon="5.63476">
        <ele>525.4</ele>
        <time>2022-05-07T13:45:03Z</time>
      </trkpt>
      <trkpt lat="46.69188" lon="5.63478">
        <ele>526.2</ele>
        <time>2022-05-07T13:45:06Z</time>
      </trkpt>
      <trkpt lat="46.69183" lon="5.63479">
        <ele>526.4</ele>
        <time>2022-05-07T13:45:07Z</time>
      </trkpt>
      <trkpt lat="46.69177" lon="5.63481">
        <ele>526.6</ele>
        <time>2022-05-07T13:45:08Z</time>
      </trkpt>
      <trkpt lat="46.69172" lon="5.63482">
        <ele>526.8</ele>
        <time>2022-05-07T13:45:09Z</time>
      </trkpt>
      <trkpt lat="46.69153" lon="5.63484">
        <ele>526.8</ele>
        <time>2022-05-07T13:45:12Z</time>
      </trkpt>
      <trkpt lat="46.6914" lon="5.63487">
        <ele>526.8</ele>
        <time>2022-05-07T13:45:14Z</time>
      </trkpt>
      <trkpt lat="46.69113" lon="5.63495">
        <ele>526.2</ele>
        <time>2022-05-07T13:45:18Z</time>
      </trkpt>
      <trkpt lat="46.69107" lon="5.63498">
        <ele>526.2</ele>
        <time>2022-05-07T13:45:19Z</time>
      </trkpt>
      <trkpt lat="46.69084" lon="5.63505">
        <ele>525.6</ele>
        <time>2022-05-07T13:45:22Z</time>
      </trkpt>
      <trkpt lat="46.69069" lon="5.63514">
        <ele>525.4</ele>
        <time>2022-05-07T13:45:24Z</time>
      </trkpt>
      <trkpt lat="46.69062" lon="5.63521">
        <ele>525.2</ele>
        <time>2022-05-07T13:45:25Z</time>
      </trkpt>
      <trkpt lat="46.69049" lon="5.63535">
        <ele>525</ele>
        <time>2022-05-07T13:45:27Z</time>
      </trkpt>
      <trkpt lat="46.69039" lon="5.63556">
        <ele>524.8</ele>
        <time>2022-05-07T13:45:29Z</time>
      </trkpt>
      <trkpt lat="46.69023" lon="5.63592">
        <ele>524</ele>
        <time>2022-05-07T13:45:32Z</time>
      </trkpt>
      <trkpt lat="46.69011" lon="5.63617">
        <ele>523.4</ele>
        <time>2022-05-07T13:45:34Z</time>
      </trkpt>
      <trkpt lat="46.68997" lon="5.63641">
        <ele>522.6</ele>
        <time>2022-05-07T13:45:36Z</time>
      </trkpt>
      <trkpt lat="46.68988" lon="5.63651">
        <ele>522.2</ele>
        <time>2022-05-07T13:45:37Z</time>
      </trkpt>
      <trkpt lat="46.68967" lon="5.63668">
        <ele>521</ele>
        <time>2022-05-07T13:45:39Z</time>
      </trkpt>
      <trkpt lat="46.68946" lon="5.63685">
        <ele>519.6</ele>
        <time>2022-05-07T13:45:41Z</time>
      </trkpt>
      <trkpt lat="46.68935" lon="5.63692">
        <ele>519.2</ele>
        <time>2022-05-07T13:45:42Z</time>
      </trkpt>
      <trkpt lat="46.68924" lon="5.63696">
        <ele>518.4</ele>
        <time>2022-05-07T13:45:43Z</time>
      </trkpt>
      <trkpt lat="46.68914" lon="5.637">
        <ele>517</ele>
        <time>2022-05-07T13:45:44Z</time>
      </trkpt>
      <trkpt lat="46.68892" lon="5.63708">
        <ele>515.6</ele>
        <time>2022-05-07T13:45:46Z</time>
      </trkpt>
      <trkpt lat="46.68863" lon="5.63717">
        <ele>515</ele>
        <time>2022-05-07T13:45:49Z</time>
      </trkpt>
      <trkpt lat="46.68853" lon="5.63722">
        <ele>514.6</ele>
        <time>2022-05-07T13:45:50Z</time>
      </trkpt>
      <trkpt lat="46.68844" lon="5.63727">
        <ele>514.6</ele>
        <time>2022-05-07T13:45:51Z</time>
      </trkpt>
      <trkpt lat="46.68828" lon="5.63742">
        <ele>514.2</ele>
        <time>2022-05-07T13:45:53Z</time>
      </trkpt>
      <trkpt lat="46.68815" lon="5.6376">
        <ele>514</ele>
        <time>2022-05-07T13:45:55Z</time>
      </trkpt>
      <trkpt lat="46.68811" lon="5.6377">
        <ele>513.8</ele>
        <time>2022-05-07T13:45:56Z</time>
      </trkpt>
      <trkpt lat="46.68809" lon="5.63781">
        <ele>513.4</ele>
        <time>2022-05-07T13:45:57Z</time>
      </trkpt>
      <trkpt lat="46.68809" lon="5.63804">
        <ele>513.4</ele>
        <time>2022-05-07T13:45:59Z</time>
      </trkpt>
      <trkpt lat="46.6881" lon="5.63824">
        <ele>513.2</ele>
        <time>2022-05-07T13:46:01Z</time>
      </trkpt>
      <trkpt lat="46.68808" lon="5.63843">
        <ele>513.4</ele>
        <time>2022-05-07T13:46:03Z</time>
      </trkpt>
      <trkpt lat="46.68803" lon="5.63886">
        <ele>514.6</ele>
        <time>2022-05-07T13:46:07Z</time>
      </trkpt>
      <trkpt lat="46.68799" lon="5.63908">
        <ele>514.6</ele>
        <time>2022-05-07T13:46:09Z</time>
      </trkpt>
      <trkpt lat="46.68789" lon="5.6395">
        <ele>515</ele>
        <time>2022-05-07T13:46:13Z</time>
      </trkpt>
      <trkpt lat="46.68789" lon="5.63972">
        <ele>514.8</ele>
        <time>2022-05-07T13:46:15Z</time>
      </trkpt>
      <trkpt lat="46.68792" lon="5.63994">
        <ele>514.6</ele>
        <time>2022-05-07T13:46:17Z</time>
      </trkpt>
      <trkpt lat="46.68805" lon="5.64059">
        <ele>513.2</ele>
        <time>2022-05-07T13:46:23Z</time>
      </trkpt>
      <trkpt lat="46.68808" lon="5.6407">
        <ele>513</ele>
        <time>2022-05-07T13:46:24Z</time>
      </trkpt>
      <trkpt lat="46.68821" lon="5.64139">
        <ele>512</ele>
        <time>2022-05-07T13:46:30Z</time>
      </trkpt>
      <trkpt lat="46.68823" lon="5.6415">
        <ele>511.8</ele>
        <time>2022-05-07T13:46:31Z</time>
      </trkpt>
      <trkpt lat="46.6883" lon="5.642">
        <ele>511.6</ele>
        <time>2022-05-07T13:46:36Z</time>
      </trkpt>
      <trkpt lat="46.68828" lon="5.64235">
        <ele>511.6</ele>
        <time>2022-05-07T13:46:40Z</time>
      </trkpt>
      <trkpt lat="46.68826" lon="5.64243">
        <ele>511.6</ele>
        <time>2022-05-07T13:46:41Z</time>
      </trkpt>
      <trkpt lat="46.68823" lon="5.64251">
        <ele>511.6</ele>
        <time>2022-05-07T13:46:42Z</time>
      </trkpt>
      <trkpt lat="46.68816" lon="5.64266">
        <ele>511.4</ele>
        <time>2022-05-07T13:46:44Z</time>
      </trkpt>
      <trkpt lat="46.68812" lon="5.64273">
        <ele>511.4</ele>
        <time>2022-05-07T13:46:45Z</time>
      </trkpt>
      <trkpt lat="46.68807" lon="5.6428">
        <ele>511.4</ele>
        <time>2022-05-07T13:46:46Z</time>
      </trkpt>
      <trkpt lat="46.68783" lon="5.64311">
        <ele>511.4</ele>
        <time>2022-05-07T13:46:51Z</time>
      </trkpt>
      <trkpt lat="46.68761" lon="5.64335">
        <ele>511.4</ele>
        <time>2022-05-07T13:46:55Z</time>
      </trkpt>
      <trkpt lat="46.68748" lon="5.64344">
        <ele>511.4</ele>
        <time>2022-05-07T13:46:57Z</time>
      </trkpt>
      <trkpt lat="46.68721" lon="5.64373">
        <ele>511.4</ele>
        <time>2022-05-07T13:47:02Z</time>
      </trkpt>
      <trkpt lat="46.68702" lon="5.64415">
        <ele>511.4</ele>
        <time>2022-05-07T13:47:07Z</time>
      </trkpt>
      <trkpt lat="46.68685" lon="5.64461">
        <ele>511.6</ele>
        <time>2022-05-07T13:47:13Z</time>
      </trkpt>
      <trkpt lat="46.68672" lon="5.64501">
        <ele>512.6</ele>
        <time>2022-05-07T13:47:19Z</time>
      </trkpt>
      <trkpt lat="46.68665" lon="5.64516">
        <ele>513.4</ele>
        <time>2022-05-07T13:47:22Z</time>
      </trkpt>
      <trkpt lat="46.68663" lon="5.64521">
        <ele>514.4</ele>
        <time>2022-05-07T13:47:24Z</time>
      </trkpt>
      <trkpt lat="46.68661" lon="5.64527">
        <ele>514.6</ele>
        <time>2022-05-07T13:47:26Z</time>
      </trkpt>
      <trkpt lat="46.68657" lon="5.64535">
        <ele>514.8</ele>
        <time>2022-05-07T13:47:28Z</time>
      </trkpt>
      <trkpt lat="46.68656" lon="5.64541">
        <ele>514.8</ele>
        <time>2022-05-07T13:47:29Z</time>
      </trkpt>
      <trkpt lat="46.68658" lon="5.64555">
        <ele>514.8</ele>
        <time>2022-05-07T13:47:31Z</time>
      </trkpt>
      <trkpt lat="46.68664" lon="5.64612">
        <ele>514.8</ele>
        <time>2022-05-07T13:47:38Z</time>
      </trkpt>
      <trkpt lat="46.6867" lon="5.64668">
        <ele>515</ele>
        <time>2022-05-07T13:47:45Z</time>
      </trkpt>
      <trkpt lat="46.68675" lon="5.64707">
        <ele>515.4</ele>
        <time>2022-05-07T13:47:50Z</time>
      </trkpt>
      <trkpt lat="46.68679" lon="5.64746">
        <ele>516.4</ele>
        <time>2022-05-07T13:47:55Z</time>
      </trkpt>
      <trkpt lat="46.68681" lon="5.64754">
        <ele>516.4</ele>
        <time>2022-05-07T13:47:56Z</time>
      </trkpt>
      <trkpt lat="46.6869" lon="5.64825">
        <ele>517.4</ele>
        <time>2022-05-07T13:48:05Z</time>
      </trkpt>
      <trkpt lat="46.68691" lon="5.64833">
        <ele>517.4</ele>
        <time>2022-05-07T13:48:06Z</time>
      </trkpt>
      <trkpt lat="46.687" lon="5.64909">
        <ele>518.2</ele>
        <time>2022-05-07T13:48:15Z</time>
      </trkpt>
      <trkpt lat="46.68702" lon="5.64926">
        <ele>518.6</ele>
        <time>2022-05-07T13:48:17Z</time>
      </trkpt>
      <trkpt lat="46.68711" lon="5.64993">
        <ele>519.2</ele>
        <time>2022-05-07T13:48:25Z</time>
      </trkpt>
      <trkpt lat="46.68721" lon="5.65075">
        <ele>519.2</ele>
        <time>2022-05-07T13:48:35Z</time>
      </trkpt>
      <trkpt lat="46.6873" lon="5.65142">
        <ele>519.8</ele>
        <time>2022-05-07T13:48:43Z</time>
      </trkpt>
      <trkpt lat="46.68733" lon="5.65169">
        <ele>520.2</ele>
        <time>2022-05-07T13:48:46Z</time>
      </trkpt>
      <trkpt lat="46.68742" lon="5.65238">
        <ele>520.6</ele>
        <time>2022-05-07T13:48:53Z</time>
      </trkpt>
      <trkpt lat="46.68751" lon="5.65316">
        <ele>520.4</ele>
        <time>2022-05-07T13:49:01Z</time>
      </trkpt>
      <trkpt lat="46.68757" lon="5.65362">
        <ele>521</ele>
        <time>2022-05-07T13:49:06Z</time>
      </trkpt>
      <trkpt lat="46.6876" lon="5.65379">
        <ele>521.2</ele>
        <time>2022-05-07T13:49:08Z</time>
      </trkpt>
      <trkpt lat="46.68766" lon="5.65439">
        <ele>522</ele>
        <time>2022-05-07T13:49:15Z</time>
      </trkpt>
      <trkpt lat="46.68774" lon="5.65498">
        <ele>523.2</ele>
        <time>2022-05-07T13:49:22Z</time>
      </trkpt>
      <trkpt lat="46.68776" lon="5.65516">
        <ele>523.6</ele>
        <time>2022-05-07T13:49:24Z</time>
      </trkpt>
      <trkpt lat="46.68782" lon="5.65575">
        <ele>523.8</ele>
        <time>2022-05-07T13:49:30Z</time>
      </trkpt>
      <trkpt lat="46.6879" lon="5.65653">
        <ele>523.2</ele>
        <time>2022-05-07T13:49:37Z</time>
      </trkpt>
      <trkpt lat="46.68798" lon="5.65735">
        <ele>522.2</ele>
        <time>2022-05-07T13:49:44Z</time>
      </trkpt>
      <trkpt lat="46.68799" lon="5.65747">
        <ele>522.2</ele>
        <time>2022-05-07T13:49:45Z</time>
      </trkpt>
      <trkpt lat="46.688" lon="5.65759">
        <ele>522</ele>
        <time>2022-05-07T13:49:46Z</time>
      </trkpt>
      <trkpt lat="46.68807" lon="5.65826">
        <ele>521</ele>
        <time>2022-05-07T13:49:52Z</time>
      </trkpt>
      <trkpt lat="46.68809" lon="5.65857">
        <ele>520.6</ele>
        <time>2022-05-07T13:49:55Z</time>
      </trkpt>
      <trkpt lat="46.68815" lon="5.65924">
        <ele>520.8</ele>
        <time>2022-05-07T13:50:02Z</time>
      </trkpt>
      <trkpt lat="46.68822" lon="5.66">
        <ele>521</ele>
        <time>2022-05-07T13:50:10Z</time>
      </trkpt>
      <trkpt lat="46.68817" lon="5.66018">
        <ele>521</ele>
        <time>2022-05-07T13:50:12Z</time>
      </trkpt>
      <trkpt lat="46.68813" lon="5.66025">
        <ele>521</ele>
        <time>2022-05-07T13:50:13Z</time>
      </trkpt>
      <trkpt lat="46.68808" lon="5.66032">
        <ele>521</ele>
        <time>2022-05-07T13:50:14Z</time>
      </trkpt>
      <trkpt lat="46.68798" lon="5.66044">
        <ele>521</ele>
        <time>2022-05-07T13:50:16Z</time>
      </trkpt>
      <trkpt lat="46.68792" lon="5.66047">
        <ele>521</ele>
        <time>2022-05-07T13:50:17Z</time>
      </trkpt>
      <trkpt lat="46.68785" lon="5.66048">
        <ele>520.8</ele>
        <time>2022-05-07T13:50:18Z</time>
      </trkpt>
      <trkpt lat="46.68772" lon="5.66046">
        <ele>520.8</ele>
        <time>2022-05-07T13:50:20Z</time>
      </trkpt>
      <trkpt lat="46.68746" lon="5.6604">
        <ele>520.6</ele>
        <time>2022-05-07T13:50:24Z</time>
      </trkpt>
      <trkpt lat="46.68733" lon="5.66038">
        <ele>520.6</ele>
        <time>2022-05-07T13:50:26Z</time>
      </trkpt>
      <trkpt lat="46.68678" lon="5.66028">
        <ele>521.8</ele>
        <time>2022-05-07T13:50:34Z</time>
      </trkpt>
      <trkpt lat="46.68635" lon="5.66007">
        <ele>521.6</ele>
        <time>2022-05-07T13:50:40Z</time>
      </trkpt>
      <trkpt lat="46.68596" lon="5.65988">
        <ele>521.8</ele>
        <time>2022-05-07T13:50:46Z</time>
      </trkpt>
      <trkpt lat="46.68572" lon="5.65972">
        <ele>522.2</ele>
        <time>2022-05-07T13:50:50Z</time>
      </trkpt>
      <trkpt lat="46.68554" lon="5.65956">
        <ele>522.2</ele>
        <time>2022-05-07T13:50:53Z</time>
      </trkpt>
      <trkpt lat="46.68531" lon="5.6593">
        <ele>521.8</ele>
        <time>2022-05-07T13:50:57Z</time>
      </trkpt>
      <trkpt lat="46.68527" lon="5.65922">
        <ele>521.8</ele>
        <time>2022-05-07T13:50:58Z</time>
      </trkpt>
      <trkpt lat="46.68525" lon="5.65912">
        <ele>521.6</ele>
        <time>2022-05-07T13:50:59Z</time>
      </trkpt>
      <trkpt lat="46.68518" lon="5.65879">
        <ele>521</ele>
        <time>2022-05-07T13:51:02Z</time>
      </trkpt>
      <trkpt lat="46.68515" lon="5.65869">
        <ele>521</ele>
        <time>2022-05-07T13:51:03Z</time>
      </trkpt>
      <trkpt lat="46.68504" lon="5.65854">
        <ele>520.6</ele>
        <time>2022-05-07T13:51:05Z</time>
      </trkpt>
      <trkpt lat="46.68471" lon="5.6584">
        <ele>520</ele>
        <time>2022-05-07T13:51:09Z</time>
      </trkpt>
      <trkpt lat="46.68423" lon="5.65826">
        <ele>518.6</ele>
        <time>2022-05-07T13:51:14Z</time>
      </trkpt>
      <trkpt lat="46.68413" lon="5.65823">
        <ele>518.4</ele>
        <time>2022-05-07T13:51:15Z</time>
      </trkpt>
      <trkpt lat="46.68393" lon="5.65816">
        <ele>517.4</ele>
        <time>2022-05-07T13:51:17Z</time>
      </trkpt>
      <trkpt lat="46.68374" lon="5.65808">
        <ele>516</ele>
        <time>2022-05-07T13:51:19Z</time>
      </trkpt>
      <trkpt lat="46.68355" lon="5.65802">
        <ele>514.8</ele>
        <time>2022-05-07T13:51:21Z</time>
      </trkpt>
      <trkpt lat="46.68319" lon="5.65798">
        <ele>513.6</ele>
        <time>2022-05-07T13:51:25Z</time>
      </trkpt>
      <trkpt lat="46.6831" lon="5.65797">
        <ele>513.2</ele>
        <time>2022-05-07T13:51:26Z</time>
      </trkpt>
      <trkpt lat="46.68277" lon="5.65797">
        <ele>512.8</ele>
        <time>2022-05-07T13:51:30Z</time>
      </trkpt>
      <trkpt lat="46.68269" lon="5.65797">
        <ele>512.6</ele>
        <time>2022-05-07T13:51:31Z</time>
      </trkpt>
      <trkpt lat="46.6822" lon="5.658">
        <ele>512.6</ele>
        <time>2022-05-07T13:51:37Z</time>
      </trkpt>
      <trkpt lat="46.68212" lon="5.65798">
        <ele>512.8</ele>
        <time>2022-05-07T13:51:38Z</time>
      </trkpt>
      <trkpt lat="46.68166" lon="5.65783">
        <ele>513</ele>
        <time>2022-05-07T13:51:44Z</time>
      </trkpt>
      <trkpt lat="46.68158" lon="5.6578">
        <ele>513.2</ele>
        <time>2022-05-07T13:51:45Z</time>
      </trkpt>
      <trkpt lat="46.68134" lon="5.65771">
        <ele>513.4</ele>
        <time>2022-05-07T13:51:48Z</time>
      </trkpt>
      <trkpt lat="46.68118" lon="5.6576">
        <ele>513.6</ele>
        <time>2022-05-07T13:51:50Z</time>
      </trkpt>
      <trkpt lat="46.68081" lon="5.65728">
        <ele>513.8</ele>
        <time>2022-05-07T13:51:55Z</time>
      </trkpt>
      <trkpt lat="46.68044" lon="5.65711">
        <ele>514.4</ele>
        <time>2022-05-07T13:52:00Z</time>
      </trkpt>
      <trkpt lat="46.67989" lon="5.65693">
        <ele>514.6</ele>
        <time>2022-05-07T13:52:07Z</time>
      </trkpt>
      <trkpt lat="46.67981" lon="5.6569">
        <ele>514.6</ele>
        <time>2022-05-07T13:52:08Z</time>
      </trkpt>
      <trkpt lat="46.67938" lon="5.65667">
        <ele>515</ele>
        <time>2022-05-07T13:52:14Z</time>
      </trkpt>
      <trkpt lat="46.67924" lon="5.6566">
        <ele>515.2</ele>
        <time>2022-05-07T13:52:16Z</time>
      </trkpt>
      <trkpt lat="46.67911" lon="5.65652">
        <ele>515.6</ele>
        <time>2022-05-07T13:52:18Z</time>
      </trkpt>
      <trkpt lat="46.67897" lon="5.65644">
        <ele>516</ele>
        <time>2022-05-07T13:52:20Z</time>
      </trkpt>
      <trkpt lat="46.67871" lon="5.65628">
        <ele>516.2</ele>
        <time>2022-05-07T13:52:24Z</time>
      </trkpt>
      <trkpt lat="46.67817" lon="5.65592">
        <ele>516.6</ele>
        <time>2022-05-07T13:52:32Z</time>
      </trkpt>
      <trkpt lat="46.67811" lon="5.65588">
        <ele>516.6</ele>
        <time>2022-05-07T13:52:33Z</time>
      </trkpt>
      <trkpt lat="46.67766" lon="5.65555">
        <ele>517</ele>
        <time>2022-05-07T13:52:40Z</time>
      </trkpt>
      <trkpt lat="46.67754" lon="5.65546">
        <ele>517</ele>
        <time>2022-05-07T13:52:42Z</time>
      </trkpt>
      <trkpt lat="46.67747" lon="5.65542">
        <ele>517</ele>
        <time>2022-05-07T13:52:43Z</time>
      </trkpt>
      <trkpt lat="46.67721" lon="5.65534">
        <ele>517.4</ele>
        <time>2022-05-07T13:52:47Z</time>
      </trkpt>
      <trkpt lat="46.67693" lon="5.65531">
        <ele>518</ele>
        <time>2022-05-07T13:52:51Z</time>
      </trkpt>
      <trkpt lat="46.67682" lon="5.65529">
        <ele>518.4</ele>
        <time>2022-05-07T13:52:53Z</time>
      </trkpt>
      <trkpt lat="46.67663" lon="5.65522">
        <ele>519</ele>
        <time>2022-05-07T13:52:56Z</time>
      </trkpt>
      <trkpt lat="46.67657" lon="5.65519">
        <ele>519.2</ele>
        <time>2022-05-07T13:52:57Z</time>
      </trkpt>
      <trkpt lat="46.67637" lon="5.65507">
        <ele>520</ele>
        <time>2022-05-07T13:53:00Z</time>
      </trkpt>
      <trkpt lat="46.67623" lon="5.65499">
        <ele>520.2</ele>
        <time>2022-05-07T13:53:02Z</time>
      </trkpt>
      <trkpt lat="46.67593" lon="5.65483">
        <ele>520.4</ele>
        <time>2022-05-07T13:53:06Z</time>
      </trkpt>
      <trkpt lat="46.67546" lon="5.65458">
        <ele>519.4</ele>
        <time>2022-05-07T13:53:12Z</time>
      </trkpt>
      <trkpt lat="46.6753" lon="5.65446">
        <ele>519.2</ele>
        <time>2022-05-07T13:53:14Z</time>
      </trkpt>
      <trkpt lat="46.67499" lon="5.65417">
        <ele>518.8</ele>
        <time>2022-05-07T13:53:18Z</time>
      </trkpt>
      <trkpt lat="46.67465" lon="5.6539">
        <ele>518</ele>
        <time>2022-05-07T13:53:22Z</time>
      </trkpt>
      <trkpt lat="46.67457" lon="5.65385">
        <ele>518</ele>
        <time>2022-05-07T13:53:23Z</time>
      </trkpt>
      <trkpt lat="46.67424" lon="5.65366">
        <ele>517</ele>
        <time>2022-05-07T13:53:27Z</time>
      </trkpt>
      <trkpt lat="46.67371" lon="5.65336">
        <ele>516</ele>
        <time>2022-05-07T13:53:33Z</time>
      </trkpt>
      <trkpt lat="46.67361" lon="5.65331">
        <ele>515.8</ele>
        <time>2022-05-07T13:53:34Z</time>
      </trkpt>
      <trkpt lat="46.67309" lon="5.65307">
        <ele>514.8</ele>
        <time>2022-05-07T13:53:40Z</time>
      </trkpt>
      <trkpt lat="46.67253" lon="5.65295">
        <ele>514.6</ele>
        <time>2022-05-07T13:53:46Z</time>
      </trkpt>
      <trkpt lat="46.67228" lon="5.6529">
        <ele>514.6</ele>
        <time>2022-05-07T13:53:49Z</time>
      </trkpt>
      <trkpt lat="46.67173" lon="5.6528">
        <ele>514.6</ele>
        <time>2022-05-07T13:53:55Z</time>
      </trkpt>
      <trkpt lat="46.6713" lon="5.65271">
        <ele>514.6</ele>
        <time>2022-05-07T13:54:00Z</time>
      </trkpt>
      <trkpt lat="46.67073" lon="5.65262">
        <ele>515.6</ele>
        <time>2022-05-07T13:54:07Z</time>
      </trkpt>
      <trkpt lat="46.67065" lon="5.65262">
        <ele>515.8</ele>
        <time>2022-05-07T13:54:08Z</time>
      </trkpt>
      <trkpt lat="46.67041" lon="5.65257">
        <ele>516</ele>
        <time>2022-05-07T13:54:11Z</time>
      </trkpt>
      <trkpt lat="46.67034" lon="5.65255">
        <ele>516</ele>
        <time>2022-05-07T13:54:12Z</time>
      </trkpt>
      <trkpt lat="46.67026" lon="5.65251">
        <ele>516.2</ele>
        <time>2022-05-07T13:54:13Z</time>
      </trkpt>
      <trkpt lat="46.67012" lon="5.65244">
        <ele>516.6</ele>
        <time>2022-05-07T13:54:15Z</time>
      </trkpt>
      <trkpt lat="46.66998" lon="5.65234">
        <ele>517.2</ele>
        <time>2022-05-07T13:54:17Z</time>
      </trkpt>
      <trkpt lat="46.66991" lon="5.6523">
        <ele>517.6</ele>
        <time>2022-05-07T13:54:18Z</time>
      </trkpt>
      <trkpt lat="46.66985" lon="5.65226">
        <ele>517.8</ele>
        <time>2022-05-07T13:54:19Z</time>
      </trkpt>
      <trkpt lat="46.66964" lon="5.6522">
        <ele>518.4</ele>
        <time>2022-05-07T13:54:22Z</time>
      </trkpt>
      <trkpt lat="46.66944" lon="5.65215">
        <ele>519.4</ele>
        <time>2022-05-07T13:54:25Z</time>
      </trkpt>
      <trkpt lat="46.66924" lon="5.65214">
        <ele>520.4</ele>
        <time>2022-05-07T13:54:28Z</time>
      </trkpt>
      <trkpt lat="46.66918" lon="5.65215">
        <ele>520.6</ele>
        <time>2022-05-07T13:54:29Z</time>
      </trkpt>
      <trkpt lat="46.66884" lon="5.65224">
        <ele>521</ele>
        <time>2022-05-07T13:54:34Z</time>
      </trkpt>
      <trkpt lat="46.66854" lon="5.65238">
        <ele>520.6</ele>
        <time>2022-05-07T13:54:38Z</time>
      </trkpt>
      <trkpt lat="46.66847" lon="5.65244">
        <ele>520.2</ele>
        <time>2022-05-07T13:54:39Z</time>
      </trkpt>
      <trkpt lat="46.66818" lon="5.6527">
        <ele>519.6</ele>
        <time>2022-05-07T13:54:43Z</time>
      </trkpt>
      <trkpt lat="46.66804" lon="5.65278">
        <ele>519.4</ele>
        <time>2022-05-07T13:54:45Z</time>
      </trkpt>
      <trkpt lat="46.66781" lon="5.65283">
        <ele>519.2</ele>
        <time>2022-05-07T13:54:48Z</time>
      </trkpt>
      <trkpt lat="46.66773" lon="5.65283">
        <ele>519.2</ele>
        <time>2022-05-07T13:54:49Z</time>
      </trkpt>
      <trkpt lat="46.66751" lon="5.6528">
        <ele>519.2</ele>
        <time>2022-05-07T13:54:52Z</time>
      </trkpt>
      <trkpt lat="46.66743" lon="5.65277">
        <ele>519.2</ele>
        <time>2022-05-07T13:54:53Z</time>
      </trkpt>
      <trkpt lat="46.66736" lon="5.65274">
        <ele>519.4</ele>
        <time>2022-05-07T13:54:54Z</time>
      </trkpt>
      <trkpt lat="46.66711" lon="5.65257">
        <ele>519.4</ele>
        <time>2022-05-07T13:54:58Z</time>
      </trkpt>
      <trkpt lat="46.66688" lon="5.65241">
        <ele>520.6</ele>
        <time>2022-05-07T13:55:02Z</time>
      </trkpt>
      <trkpt lat="46.66677" lon="5.65234">
        <ele>521.4</ele>
        <time>2022-05-07T13:55:04Z</time>
      </trkpt>
      <trkpt lat="46.66667" lon="5.65226">
        <ele>522</ele>
        <time>2022-05-07T13:55:06Z</time>
      </trkpt>
      <trkpt lat="46.66639" lon="5.65205">
        <ele>522.4</ele>
        <time>2022-05-07T13:55:12Z</time>
      </trkpt>
      <trkpt lat="46.66635" lon="5.65202">
        <ele>522.6</ele>
        <time>2022-05-07T13:55:13Z</time>
      </trkpt>
      <trkpt lat="46.66629" lon="5.65193">
        <ele>523</ele>
        <time>2022-05-07T13:55:15Z</time>
      </trkpt>
      <trkpt lat="46.66627" lon="5.65187">
        <ele>523.2</ele>
        <time>2022-05-07T13:55:16Z</time>
      </trkpt>
      <trkpt lat="46.66625" lon="5.6518">
        <ele>523.4</ele>
        <time>2022-05-07T13:55:17Z</time>
      </trkpt>
      <trkpt lat="46.66614" lon="5.65148">
        <ele>523.8</ele>
        <time>2022-05-07T13:55:21Z</time>
      </trkpt>
      <trkpt lat="46.66605" lon="5.65132">
        <ele>524</ele>
        <time>2022-05-07T13:55:23Z</time>
      </trkpt>
      <trkpt lat="46.6659" lon="5.6511">
        <ele>524.2</ele>
        <time>2022-05-07T13:55:26Z</time>
      </trkpt>
      <trkpt lat="46.66556" lon="5.65067">
        <ele>524</ele>
        <time>2022-05-07T13:55:32Z</time>
      </trkpt>
      <trkpt lat="46.66535" lon="5.65047">
        <ele>524</ele>
        <time>2022-05-07T13:55:36Z</time>
      </trkpt>
      <trkpt lat="46.66529" lon="5.65043">
        <ele>524</ele>
        <time>2022-05-07T13:55:37Z</time>
      </trkpt>
      <trkpt lat="46.66492" lon="5.65021">
        <ele>523.8</ele>
        <time>2022-05-07T13:55:43Z</time>
      </trkpt>
      <trkpt lat="46.66464" lon="5.64994">
        <ele>524.2</ele>
        <time>2022-05-07T13:55:48Z</time>
      </trkpt>
      <trkpt lat="46.66458" lon="5.6498">
        <ele>524.4</ele>
        <time>2022-05-07T13:55:50Z</time>
      </trkpt>
      <trkpt lat="46.66458" lon="5.64972">
        <ele>524.4</ele>
        <time>2022-05-07T13:55:51Z</time>
      </trkpt>
      <trkpt lat="46.66457" lon="5.64921">
        <ele>524.6</ele>
        <time>2022-05-07T13:55:56Z</time>
      </trkpt>
      <trkpt lat="46.66457" lon="5.64884">
        <ele>524.8</ele>
        <time>2022-05-07T13:56:00Z</time>
      </trkpt>
      <trkpt lat="46.66456" lon="5.64866">
        <ele>525.2</ele>
        <time>2022-05-07T13:56:02Z</time>
      </trkpt>
      <trkpt lat="46.66452" lon="5.64852">
        <ele>525.4</ele>
        <time>2022-05-07T13:56:04Z</time>
      </trkpt>
      <trkpt lat="46.66447" lon="5.64839">
        <ele>525.6</ele>
        <time>2022-05-07T13:56:06Z</time>
      </trkpt>
      <trkpt lat="46.66441" lon="5.64824">
        <ele>526.2</ele>
        <time>2022-05-07T13:56:08Z</time>
      </trkpt>
      <trkpt lat="46.66436" lon="5.64799">
        <ele>526.8</ele>
        <time>2022-05-07T13:56:11Z</time>
      </trkpt>
      <trkpt lat="46.66434" lon="5.64782">
        <ele>527.4</ele>
        <time>2022-05-07T13:56:13Z</time>
      </trkpt>
      <trkpt lat="46.66433" lon="5.64773">
        <ele>527.8</ele>
        <time>2022-05-07T13:56:14Z</time>
      </trkpt>
      <trkpt lat="46.66429" lon="5.64758">
        <ele>528</ele>
        <time>2022-05-07T13:56:16Z</time>
      </trkpt>
      <trkpt lat="46.66423" lon="5.64745">
        <ele>528.6</ele>
        <time>2022-05-07T13:56:18Z</time>
      </trkpt>
      <trkpt lat="46.66413" lon="5.64735">
        <ele>528.8</ele>
        <time>2022-05-07T13:56:20Z</time>
      </trkpt>
      <trkpt lat="46.66366" lon="5.64695">
        <ele>529.4</ele>
        <time>2022-05-07T13:56:28Z</time>
      </trkpt>
      <trkpt lat="46.6636" lon="5.6469">
        <ele>529.4</ele>
        <time>2022-05-07T13:56:29Z</time>
      </trkpt>
      <trkpt lat="46.66326" lon="5.6467">
        <ele>529</ele>
        <time>2022-05-07T13:56:34Z</time>
      </trkpt>
      <trkpt lat="46.6627" lon="5.64644">
        <ele>528.6</ele>
        <time>2022-05-07T13:56:42Z</time>
      </trkpt>
      <trkpt lat="46.6621" lon="5.64623">
        <ele>529</ele>
        <time>2022-05-07T13:56:50Z</time>
      </trkpt>
      <trkpt lat="46.66202" lon="5.6462">
        <ele>529</ele>
        <time>2022-05-07T13:56:51Z</time>
      </trkpt>
      <trkpt lat="46.66176" lon="5.64608">
        <ele>528.6</ele>
        <time>2022-05-07T13:56:54Z</time>
      </trkpt>
      <trkpt lat="46.66158" lon="5.64596">
        <ele>528.2</ele>
        <time>2022-05-07T13:56:56Z</time>
      </trkpt>
      <trkpt lat="46.66129" lon="5.64568">
        <ele>527.6</ele>
        <time>2022-05-07T13:57:00Z</time>
      </trkpt>
      <trkpt lat="46.66122" lon="5.6456">
        <ele>527.6</ele>
        <time>2022-05-07T13:57:01Z</time>
      </trkpt>
      <trkpt lat="46.66073" lon="5.64511">
        <ele>527</ele>
        <time>2022-05-07T13:57:08Z</time>
      </trkpt>
      <trkpt lat="46.66066" lon="5.64505">
        <ele>526.8</ele>
        <time>2022-05-07T13:57:09Z</time>
      </trkpt>
      <trkpt lat="46.66032" lon="5.64485">
        <ele>528</ele>
        <time>2022-05-07T13:57:14Z</time>
      </trkpt>
      <trkpt lat="46.6601" lon="5.64481">
        <ele>528.8</ele>
        <time>2022-05-07T13:57:17Z</time>
      </trkpt>
      <trkpt lat="46.65994" lon="5.64481">
        <ele>529.8</ele>
        <time>2022-05-07T13:57:19Z</time>
      </trkpt>
      <trkpt lat="46.65977" lon="5.64479">
        <ele>530</ele>
        <time>2022-05-07T13:57:21Z</time>
      </trkpt>
      <trkpt lat="46.65939" lon="5.64475">
        <ele>530.4</ele>
        <time>2022-05-07T13:57:25Z</time>
      </trkpt>
      <trkpt lat="46.6588" lon="5.64465">
        <ele>528.8</ele>
        <time>2022-05-07T13:57:31Z</time>
      </trkpt>
      <trkpt lat="46.65869" lon="5.64463">
        <ele>528.4</ele>
        <time>2022-05-07T13:57:32Z</time>
      </trkpt>
      <trkpt lat="46.65859" lon="5.64461">
        <ele>527.8</ele>
        <time>2022-05-07T13:57:33Z</time>
      </trkpt>
      <trkpt lat="46.65838" lon="5.64458">
        <ele>526.8</ele>
        <time>2022-05-07T13:57:35Z</time>
      </trkpt>
      <trkpt lat="46.65816" lon="5.64456">
        <ele>526.2</ele>
        <time>2022-05-07T13:57:37Z</time>
      </trkpt>
      <trkpt lat="46.65802" lon="5.64456">
        <ele>525.8</ele>
        <time>2022-05-07T13:57:38Z</time>
      </trkpt>
      <trkpt lat="46.65794" lon="5.64456">
        <ele>525</ele>
        <time>2022-05-07T13:57:39Z</time>
      </trkpt>
      <trkpt lat="46.65761" lon="5.64457">
        <ele>523.6</ele>
        <time>2022-05-07T13:57:42Z</time>
      </trkpt>
      <trkpt lat="46.65739" lon="5.64458">
        <ele>522.2</ele>
        <time>2022-05-07T13:57:44Z</time>
      </trkpt>
      <trkpt lat="46.65717" lon="5.64457">
        <ele>521.2</ele>
        <time>2022-05-07T13:57:46Z</time>
      </trkpt>
      <trkpt lat="46.65673" lon="5.64452">
        <ele>520</ele>
        <time>2022-05-07T13:57:50Z</time>
      </trkpt>
      <trkpt lat="46.6563" lon="5.64447">
        <ele>518.8</ele>
        <time>2022-05-07T13:57:54Z</time>
      </trkpt>
      <trkpt lat="46.6562" lon="5.64447">
        <ele>518.6</ele>
        <time>2022-05-07T13:57:55Z</time>
      </trkpt>
      <trkpt lat="46.65599" lon="5.6445">
        <ele>518.2</ele>
        <time>2022-05-07T13:57:57Z</time>
      </trkpt>
      <trkpt lat="46.65568" lon="5.64458">
        <ele>518.2</ele>
        <time>2022-05-07T13:58:00Z</time>
      </trkpt>
      <trkpt lat="46.65548" lon="5.64457">
        <ele>518.2</ele>
        <time>2022-05-07T13:58:02Z</time>
      </trkpt>
      <trkpt lat="46.65515" lon="5.64441">
        <ele>518</ele>
        <time>2022-05-07T13:58:06Z</time>
      </trkpt>
      <trkpt lat="46.65478" lon="5.64424">
        <ele>518.6</ele>
        <time>2022-05-07T13:58:11Z</time>
      </trkpt>
      <trkpt lat="46.65471" lon="5.64422">
        <ele>518.8</ele>
        <time>2022-05-07T13:58:12Z</time>
      </trkpt>
      <trkpt lat="46.65449" lon="5.64422">
        <ele>519.8</ele>
        <time>2022-05-07T13:58:15Z</time>
      </trkpt>
      <trkpt lat="46.65412" lon="5.64428">
        <ele>521</ele>
        <time>2022-05-07T13:58:20Z</time>
      </trkpt>
      <trkpt lat="46.6539" lon="5.64427">
        <ele>521.6</ele>
        <time>2022-05-07T13:58:23Z</time>
      </trkpt>
      <trkpt lat="46.65382" lon="5.64425">
        <ele>521.8</ele>
        <time>2022-05-07T13:58:24Z</time>
      </trkpt>
      <trkpt lat="46.65361" lon="5.64412">
        <ele>521.8</ele>
        <time>2022-05-07T13:58:27Z</time>
      </trkpt>
      <trkpt lat="46.6535" lon="5.64397">
        <ele>522</ele>
        <time>2022-05-07T13:58:29Z</time>
      </trkpt>
      <trkpt lat="46.65345" lon="5.64388">
        <ele>522</ele>
        <time>2022-05-07T13:58:30Z</time>
      </trkpt>
      <trkpt lat="46.65324" lon="5.64345">
        <ele>521.8</ele>
        <time>2022-05-07T13:58:35Z</time>
      </trkpt>
      <trkpt lat="46.65319" lon="5.64338">
        <ele>522</ele>
        <time>2022-05-07T13:58:36Z</time>
      </trkpt>
      <trkpt lat="46.65313" lon="5.64333">
        <ele>522</ele>
        <time>2022-05-07T13:58:37Z</time>
      </trkpt>
      <trkpt lat="46.65292" lon="5.64321">
        <ele>522.2</ele>
        <time>2022-05-07T13:58:40Z</time>
      </trkpt>
      <trkpt lat="46.65236" lon="5.64304">
        <ele>522.4</ele>
        <time>2022-05-07T13:58:48Z</time>
      </trkpt>
      <trkpt lat="46.65223" lon="5.643">
        <ele>522.6</ele>
        <time>2022-05-07T13:58:50Z</time>
      </trkpt>
      <trkpt lat="46.65177" lon="5.64285">
        <ele>523.2</ele>
        <time>2022-05-07T13:58:57Z</time>
      </trkpt>
      <trkpt lat="46.65119" lon="5.64269">
        <ele>524</ele>
        <time>2022-05-07T13:59:05Z</time>
      </trkpt>
      <trkpt lat="46.6507" lon="5.64267">
        <ele>524</ele>
        <time>2022-05-07T13:59:11Z</time>
      </trkpt>
      <trkpt lat="46.65026" lon="5.64273">
        <ele>523.6</ele>
        <time>2022-05-07T13:59:16Z</time>
      </trkpt>
      <trkpt lat="46.64978" lon="5.64291">
        <ele>522.6</ele>
        <time>2022-05-07T13:59:21Z</time>
      </trkpt>
      <trkpt lat="46.64947" lon="5.64306">
        <ele>521.6</ele>
        <time>2022-05-07T13:59:24Z</time>
      </trkpt>
      <trkpt lat="46.64916" lon="5.6432">
        <ele>519.6</ele>
        <time>2022-05-07T13:59:27Z</time>
      </trkpt>
      <trkpt lat="46.64906" lon="5.64324">
        <ele>519</ele>
        <time>2022-05-07T13:59:28Z</time>
      </trkpt>
      <trkpt lat="46.64896" lon="5.64326">
        <ele>518.2</ele>
        <time>2022-05-07T13:59:29Z</time>
      </trkpt>
      <trkpt lat="46.64876" lon="5.64328">
        <ele>517.8</ele>
        <time>2022-05-07T13:59:31Z</time>
      </trkpt>
      <trkpt lat="46.64866" lon="5.64326">
        <ele>517.4</ele>
        <time>2022-05-07T13:59:32Z</time>
      </trkpt>
      <trkpt lat="46.64856" lon="5.64324">
        <ele>517.2</ele>
        <time>2022-05-07T13:59:33Z</time>
      </trkpt>
      <trkpt lat="46.64846" lon="5.64319">
        <ele>517.2</ele>
        <time>2022-05-07T13:59:34Z</time>
      </trkpt>
      <trkpt lat="46.64828" lon="5.64309">
        <ele>517</ele>
        <time>2022-05-07T13:59:36Z</time>
      </trkpt>
      <trkpt lat="46.64772" lon="5.6428">
        <ele>516.2</ele>
        <time>2022-05-07T13:59:42Z</time>
      </trkpt>
      <trkpt lat="46.64762" lon="5.64277">
        <ele>516</ele>
        <time>2022-05-07T13:59:43Z</time>
      </trkpt>
      <trkpt lat="46.64752" lon="5.64276">
        <ele>516</ele>
        <time>2022-05-07T13:59:44Z</time>
      </trkpt>
      <trkpt lat="46.64733" lon="5.64277">
        <ele>515.4</ele>
        <time>2022-05-07T13:59:46Z</time>
      </trkpt>
      <trkpt lat="46.64676" lon="5.64284">
        <ele>515.2</ele>
        <time>2022-05-07T13:59:52Z</time>
      </trkpt>
      <trkpt lat="46.64642" lon="5.64277">
        <ele>515.4</ele>
        <time>2022-05-07T13:59:56Z</time>
      </trkpt>
      <trkpt lat="46.64597" lon="5.6426">
        <ele>516.4</ele>
        <time>2022-05-07T14:00:02Z</time>
      </trkpt>
      <trkpt lat="46.64568" lon="5.64255">
        <ele>517.2</ele>
        <time>2022-05-07T14:00:06Z</time>
      </trkpt>
      <trkpt lat="46.64561" lon="5.64256">
        <ele>517.2</ele>
        <time>2022-05-07T14:00:07Z</time>
      </trkpt>
      <trkpt lat="46.64535" lon="5.64264">
        <ele>518.4</ele>
        <time>2022-05-07T14:00:11Z</time>
      </trkpt>
      <trkpt lat="46.64529" lon="5.64268">
        <ele>518.8</ele>
        <time>2022-05-07T14:00:12Z</time>
      </trkpt>
      <trkpt lat="46.64523" lon="5.64272">
        <ele>519.2</ele>
        <time>2022-05-07T14:00:13Z</time>
      </trkpt>
      <trkpt lat="46.64518" lon="5.64277">
        <ele>519.4</ele>
        <time>2022-05-07T14:00:14Z</time>
      </trkpt>
      <trkpt lat="46.64507" lon="5.64287">
        <ele>520.4</ele>
        <time>2022-05-07T14:00:16Z</time>
      </trkpt>
      <trkpt lat="46.64502" lon="5.64293">
        <ele>520.4</ele>
        <time>2022-05-07T14:00:17Z</time>
      </trkpt>
      <trkpt lat="46.64497" lon="5.64299">
        <ele>520.8</ele>
        <time>2022-05-07T14:00:18Z</time>
      </trkpt>
      <trkpt lat="46.64489" lon="5.64312">
        <ele>521.8</ele>
        <time>2022-05-07T14:00:20Z</time>
      </trkpt>
      <trkpt lat="46.64476" lon="5.64331">
        <ele>523</ele>
        <time>2022-05-07T14:00:23Z</time>
      </trkpt>
      <trkpt lat="46.64465" lon="5.64352">
        <ele>523.8</ele>
        <time>2022-05-07T14:00:26Z</time>
      </trkpt>
      <trkpt lat="46.64462" lon="5.64359">
        <ele>524.2</ele>
        <time>2022-05-07T14:00:27Z</time>
      </trkpt>
      <trkpt lat="46.64454" lon="5.6438">
        <ele>525.4</ele>
        <time>2022-05-07T14:00:30Z</time>
      </trkpt>
      <trkpt lat="46.64447" lon="5.64402">
        <ele>525.8</ele>
        <time>2022-05-07T14:00:33Z</time>
      </trkpt>
      <trkpt lat="46.64442" lon="5.64418">
        <ele>526.6</ele>
        <time>2022-05-07T14:00:35Z</time>
      </trkpt>
      <trkpt lat="46.64426" lon="5.64465">
        <ele>527.8</ele>
        <time>2022-05-07T14:00:41Z</time>
      </trkpt>
      <trkpt lat="46.64422" lon="5.64472">
        <ele>527.8</ele>
        <time>2022-05-07T14:00:42Z</time>
      </trkpt>
      <trkpt lat="46.64406" lon="5.64497">
        <ele>528.8</ele>
        <time>2022-05-07T14:00:46Z</time>
      </trkpt>
      <trkpt lat="46.64396" lon="5.64507">
        <ele>529.2</ele>
        <time>2022-05-07T14:00:48Z</time>
      </trkpt>
      <trkpt lat="46.6437" lon="5.64526">
        <ele>529.6</ele>
        <time>2022-05-07T14:00:53Z</time>
      </trkpt>
      <trkpt lat="46.64364" lon="5.64528">
        <ele>530</ele>
        <time>2022-05-07T14:00:54Z</time>
      </trkpt>
      <trkpt lat="46.64345" lon="5.64533">
        <ele>530.4</ele>
        <time>2022-05-07T14:00:57Z</time>
      </trkpt>
      <trkpt lat="46.64319" lon="5.6454">
        <ele>531.4</ele>
        <time>2022-05-07T14:01:01Z</time>
      </trkpt>
      <trkpt lat="46.64312" lon="5.64542">
        <ele>531.6</ele>
        <time>2022-05-07T14:01:02Z</time>
      </trkpt>
      <trkpt lat="46.64268" lon="5.64561">
        <ele>531</ele>
        <time>2022-05-07T14:01:08Z</time>
      </trkpt>
      <trkpt lat="46.64245" lon="5.64571">
        <ele>530.4</ele>
        <time>2022-05-07T14:01:11Z</time>
      </trkpt>
      <trkpt lat="46.64207" lon="5.64587">
        <ele>530</ele>
        <time>2022-05-07T14:01:16Z</time>
      </trkpt>
      <trkpt lat="46.6419" lon="5.64591">
        <ele>530</ele>
        <time>2022-05-07T14:01:18Z</time>
      </trkpt>
      <trkpt lat="46.64174" lon="5.64591">
        <ele>529.8</ele>
        <time>2022-05-07T14:01:20Z</time>
      </trkpt>
      <trkpt lat="46.64135" lon="5.64578">
        <ele>529.8</ele>
        <time>2022-05-07T14:01:25Z</time>
      </trkpt>
      <trkpt lat="46.64086" lon="5.64563">
        <ele>530.8</ele>
        <time>2022-05-07T14:01:32Z</time>
      </trkpt>
      <trkpt lat="46.64072" lon="5.64563">
        <ele>531.2</ele>
        <time>2022-05-07T14:01:34Z</time>
      </trkpt>
      <trkpt lat="46.6405" lon="5.64568">
        <ele>531.6</ele>
        <time>2022-05-07T14:01:37Z</time>
      </trkpt>
      <trkpt lat="46.64009" lon="5.6458">
        <ele>532</ele>
        <time>2022-05-07T14:01:42Z</time>
      </trkpt>
      <trkpt lat="46.63963" lon="5.64578">
        <ele>530.8</ele>
        <time>2022-05-07T14:01:47Z</time>
      </trkpt>
      <trkpt lat="46.63953" lon="5.64576">
        <ele>530.4</ele>
        <time>2022-05-07T14:01:48Z</time>
      </trkpt>
      <trkpt lat="46.63927" lon="5.64563">
        <ele>529.4</ele>
        <time>2022-05-07T14:01:51Z</time>
      </trkpt>
      <trkpt lat="46.63919" lon="5.64558">
        <ele>529.4</ele>
        <time>2022-05-07T14:01:52Z</time>
      </trkpt>
      <trkpt lat="46.63882" lon="5.6453">
        <ele>529.4</ele>
        <time>2022-05-07T14:01:57Z</time>
      </trkpt>
      <trkpt lat="46.63857" lon="5.64508">
        <ele>530.4</ele>
        <time>2022-05-07T14:02:01Z</time>
      </trkpt>
      <trkpt lat="46.63846" lon="5.64499">
        <ele>531.2</ele>
        <time>2022-05-07T14:02:03Z</time>
      </trkpt>
      <trkpt lat="46.63835" lon="5.6449">
        <ele>531.6</ele>
        <time>2022-05-07T14:02:05Z</time>
      </trkpt>
      <trkpt lat="46.63813" lon="5.64474">
        <ele>532.8</ele>
        <time>2022-05-07T14:02:09Z</time>
      </trkpt>
      <trkpt lat="46.63808" lon="5.64469">
        <ele>533.4</ele>
        <time>2022-05-07T14:02:10Z</time>
      </trkpt>
      <trkpt lat="46.63798" lon="5.6446">
        <ele>534</ele>
        <time>2022-05-07T14:02:12Z</time>
      </trkpt>
      <trkpt lat="46.63779" lon="5.64442">
        <ele>535</ele>
        <time>2022-05-07T14:02:16Z</time>
      </trkpt>
      <trkpt lat="46.63765" lon="5.64429">
        <ele>535.8</ele>
        <time>2022-05-07T14:02:19Z</time>
      </trkpt>
      <trkpt lat="46.63756" lon="5.64419">
        <ele>536.2</ele>
        <time>2022-05-07T14:02:21Z</time>
      </trkpt>
      <trkpt lat="46.63731" lon="5.64401">
        <ele>537.2</ele>
        <time>2022-05-07T14:02:26Z</time>
      </trkpt>
      <trkpt lat="46.63726" lon="5.64397">
        <ele>537.4</ele>
        <time>2022-05-07T14:02:27Z</time>
      </trkpt>
      <trkpt lat="46.63697" lon="5.6438">
        <ele>538.6</ele>
        <time>2022-05-07T14:02:33Z</time>
      </trkpt>
      <trkpt lat="46.63682" lon="5.64371">
        <ele>539</ele>
        <time>2022-05-07T14:02:36Z</time>
      </trkpt>
      <trkpt lat="46.63663" lon="5.64359">
        <ele>539.6</ele>
        <time>2022-05-07T14:02:40Z</time>
      </trkpt>
      <trkpt lat="46.6364" lon="5.64343">
        <ele>540.8</ele>
        <time>2022-05-07T14:02:45Z</time>
      </trkpt>
      <trkpt lat="46.63635" lon="5.64339">
        <ele>541</ele>
        <time>2022-05-07T14:02:46Z</time>
      </trkpt>
      <trkpt lat="46.63621" lon="5.64327">
        <ele>541.8</ele>
        <time>2022-05-07T14:02:49Z</time>
      </trkpt>
      <trkpt lat="46.63594" lon="5.64305">
        <ele>542.2</ele>
        <time>2022-05-07T14:02:54Z</time>
      </trkpt>
      <trkpt lat="46.63556" lon="5.64273">
        <ele>541.6</ele>
        <time>2022-05-07T14:03:01Z</time>
      </trkpt>
      <trkpt lat="46.63522" lon="5.64253">
        <ele>541.8</ele>
        <time>2022-05-07T14:03:07Z</time>
      </trkpt>
      <trkpt lat="46.63506" lon="5.64245">
        <ele>542.2</ele>
        <time>2022-05-07T14:03:10Z</time>
      </trkpt>
      <trkpt lat="46.63496" lon="5.64236">
        <ele>542.6</ele>
        <time>2022-05-07T14:03:12Z</time>
      </trkpt>
      <trkpt lat="46.63492" lon="5.64229">
        <ele>542.8</ele>
        <time>2022-05-07T14:03:13Z</time>
      </trkpt>
      <trkpt lat="46.63487" lon="5.64222">
        <ele>543.2</ele>
        <time>2022-05-07T14:03:14Z</time>
      </trkpt>
      <trkpt lat="46.63467" lon="5.64182">
        <ele>543.4</ele>
        <time>2022-05-07T14:03:19Z</time>
      </trkpt>
      <trkpt lat="46.63442" lon="5.64127">
        <ele>542</ele>
        <time>2022-05-07T14:03:26Z</time>
      </trkpt>
      <trkpt lat="46.63435" lon="5.64115">
        <ele>541.6</ele>
        <time>2022-05-07T14:03:28Z</time>
      </trkpt>
      <trkpt lat="46.63427" lon="5.64109">
        <ele>541.4</ele>
        <time>2022-05-07T14:03:30Z</time>
      </trkpt>
      <trkpt lat="46.63423" lon="5.64109">
        <ele>541.4</ele>
        <time>2022-05-07T14:03:31Z</time>
      </trkpt>
      <trkpt lat="46.63419" lon="5.64112">
        <ele>541.4</ele>
        <time>2022-05-07T14:03:32Z</time>
      </trkpt>
      <trkpt lat="46.63412" lon="5.64122">
        <ele>541.8</ele>
        <time>2022-05-07T14:03:34Z</time>
      </trkpt>
      <trkpt lat="46.63388" lon="5.64163">
        <ele>542.6</ele>
        <time>2022-05-07T14:03:40Z</time>
      </trkpt>
      <trkpt lat="46.63351" lon="5.64223">
        <ele>542.8</ele>
        <time>2022-05-07T14:03:48Z</time>
      </trkpt>
      <trkpt lat="46.63347" lon="5.6423">
        <ele>542.8</ele>
        <time>2022-05-07T14:03:49Z</time>
      </trkpt>
      <trkpt lat="46.63341" lon="5.64236">
        <ele>542.8</ele>
        <time>2022-05-07T14:03:50Z</time>
      </trkpt>
      <trkpt lat="46.63324" lon="5.64249">
        <ele>543</ele>
        <time>2022-05-07T14:03:53Z</time>
      </trkpt>
      <trkpt lat="46.633" lon="5.64263">
        <ele>543.2</ele>
        <time>2022-05-07T14:03:57Z</time>
      </trkpt>
      <trkpt lat="46.63288" lon="5.64273">
        <ele>543.8</ele>
        <time>2022-05-07T14:03:59Z</time>
      </trkpt>
      <trkpt lat="46.63268" lon="5.64295">
        <ele>544.4</ele>
        <time>2022-05-07T14:04:03Z</time>
      </trkpt>
      <trkpt lat="46.63257" lon="5.64307">
        <ele>544.6</ele>
        <time>2022-05-07T14:04:05Z</time>
      </trkpt>
      <trkpt lat="46.6324" lon="5.64324">
        <ele>545</ele>
        <time>2022-05-07T14:04:08Z</time>
      </trkpt>
      <trkpt lat="46.63226" lon="5.64332">
        <ele>545</ele>
        <time>2022-05-07T14:04:10Z</time>
      </trkpt>
      <trkpt lat="46.63197" lon="5.64333">
        <ele>544.8</ele>
        <time>2022-05-07T14:04:14Z</time>
      </trkpt>
      <trkpt lat="46.6316" lon="5.64331">
        <ele>545.6</ele>
        <time>2022-05-07T14:04:20Z</time>
      </trkpt>
      <trkpt lat="46.63137" lon="5.64333">
        <ele>547</ele>
        <time>2022-05-07T14:04:24Z</time>
      </trkpt>
      <trkpt lat="46.63126" lon="5.64335">
        <ele>547.4</ele>
        <time>2022-05-07T14:04:26Z</time>
      </trkpt>
      <trkpt lat="46.63109" lon="5.64337">
        <ele>548</ele>
        <time>2022-05-07T14:04:29Z</time>
      </trkpt>
      <trkpt lat="46.63104" lon="5.64338">
        <ele>548</ele>
        <time>2022-05-07T14:04:30Z</time>
      </trkpt>
      <trkpt lat="46.63087" lon="5.64335">
        <ele>549.4</ele>
        <time>2022-05-07T14:04:33Z</time>
      </trkpt>
      <trkpt lat="46.63052" lon="5.64329">
        <ele>550.6</ele>
        <time>2022-05-07T14:04:38Z</time>
      </trkpt>
      <trkpt lat="46.62994" lon="5.64321">
        <ele>548.2</ele>
        <time>2022-05-07T14:04:45Z</time>
      </trkpt>
      <trkpt lat="46.62975" lon="5.64319">
        <ele>547</ele>
        <time>2022-05-07T14:04:47Z</time>
      </trkpt>
      <trkpt lat="46.62947" lon="5.64314">
        <ele>545.6</ele>
        <time>2022-05-07T14:04:50Z</time>
      </trkpt>
      <trkpt lat="46.62937" lon="5.64313">
        <ele>545.4</ele>
        <time>2022-05-07T14:04:51Z</time>
      </trkpt>
      <trkpt lat="46.62909" lon="5.64309">
        <ele>544.4</ele>
        <time>2022-05-07T14:04:54Z</time>
      </trkpt>
      <trkpt lat="46.6288" lon="5.64304">
        <ele>543.2</ele>
        <time>2022-05-07T14:04:57Z</time>
      </trkpt>
      <trkpt lat="46.6286" lon="5.64301">
        <ele>542.6</ele>
        <time>2022-05-07T14:04:59Z</time>
      </trkpt>
      <trkpt lat="46.62841" lon="5.64299">
        <ele>542</ele>
        <time>2022-05-07T14:05:01Z</time>
      </trkpt>
      <trkpt lat="46.62785" lon="5.64287">
        <ele>541.2</ele>
        <time>2022-05-07T14:05:07Z</time>
      </trkpt>
      <trkpt lat="46.62767" lon="5.64279">
        <ele>540.8</ele>
        <time>2022-05-07T14:05:09Z</time>
      </trkpt>
      <trkpt lat="46.6274" lon="5.64261">
        <ele>540.2</ele>
        <time>2022-05-07T14:05:12Z</time>
      </trkpt>
      <trkpt lat="46.6273" lon="5.64255">
        <ele>539.6</ele>
        <time>2022-05-07T14:05:13Z</time>
      </trkpt>
      <trkpt lat="46.62693" lon="5.64237">
        <ele>538.6</ele>
        <time>2022-05-07T14:05:17Z</time>
      </trkpt>
      <trkpt lat="46.62646" lon="5.64231">
        <ele>538.4</ele>
        <time>2022-05-07T14:05:22Z</time>
      </trkpt>
      <trkpt lat="46.62604" lon="5.6423">
        <ele>539</ele>
        <time>2022-05-07T14:05:27Z</time>
      </trkpt>
      <trkpt lat="46.62574" lon="5.6423">
        <ele>540</ele>
        <time>2022-05-07T14:05:31Z</time>
      </trkpt>
      <trkpt lat="46.62552" lon="5.6423">
        <ele>541</ele>
        <time>2022-05-07T14:05:34Z</time>
      </trkpt>
      <trkpt lat="46.62545" lon="5.64228">
        <ele>541.2</ele>
        <time>2022-05-07T14:05:35Z</time>
      </trkpt>
      <trkpt lat="46.62538" lon="5.64225">
        <ele>541.4</ele>
        <time>2022-05-07T14:05:36Z</time>
      </trkpt>
      <trkpt lat="46.62526" lon="5.64216">
        <ele>542.2</ele>
        <time>2022-05-07T14:05:38Z</time>
      </trkpt>
      <trkpt lat="46.62504" lon="5.64192">
        <ele>543.2</ele>
        <time>2022-05-07T14:05:42Z</time>
      </trkpt>
      <trkpt lat="46.62494" lon="5.64179">
        <ele>544.2</ele>
        <time>2022-05-07T14:05:44Z</time>
      </trkpt>
      <trkpt lat="46.62483" lon="5.64169">
        <ele>545.4</ele>
        <time>2022-05-07T14:05:46Z</time>
      </trkpt>
      <trkpt lat="46.62463" lon="5.6415">
        <ele>546.4</ele>
        <time>2022-05-07T14:05:50Z</time>
      </trkpt>
      <trkpt lat="46.62454" lon="5.64142">
        <ele>546.8</ele>
        <time>2022-05-07T14:05:52Z</time>
      </trkpt>
      <trkpt lat="46.62439" lon="5.64129">
        <ele>547.6</ele>
        <time>2022-05-07T14:05:55Z</time>
      </trkpt>
      <trkpt lat="46.6242" lon="5.64112">
        <ele>548.8</ele>
        <time>2022-05-07T14:05:59Z</time>
      </trkpt>
      <trkpt lat="46.62404" lon="5.64099">
        <ele>549.6</ele>
        <time>2022-05-07T14:06:02Z</time>
      </trkpt>
      <trkpt lat="46.62366" lon="5.64074">
        <ele>549.8</ele>
        <time>2022-05-07T14:06:08Z</time>
      </trkpt>
      <trkpt lat="46.6232" lon="5.64051">
        <ele>549.4</ele>
        <time>2022-05-07T14:06:14Z</time>
      </trkpt>
      <trkpt lat="46.62304" lon="5.64047">
        <ele>548.8</ele>
        <time>2022-05-07T14:06:16Z</time>
      </trkpt>
      <trkpt lat="46.62278" lon="5.64047">
        <ele>548.2</ele>
        <time>2022-05-07T14:06:19Z</time>
      </trkpt>
      <trkpt lat="46.62264" lon="5.6405">
        <ele>548</ele>
        <time>2022-05-07T14:06:21Z</time>
      </trkpt>
      <trkpt lat="46.62244" lon="5.64059">
        <ele>548.2</ele>
        <time>2022-05-07T14:06:24Z</time>
      </trkpt>
      <trkpt lat="46.62208" lon="5.64083">
        <ele>550</ele>
        <time>2022-05-07T14:06:29Z</time>
      </trkpt>
      <trkpt lat="46.62202" lon="5.64088">
        <ele>550</ele>
        <time>2022-05-07T14:06:30Z</time>
      </trkpt>
      <trkpt lat="46.62184" lon="5.64098">
        <ele>550.2</ele>
        <time>2022-05-07T14:06:32Z</time>
      </trkpt>
      <trkpt lat="46.62166" lon="5.64102">
        <ele>550</ele>
        <time>2022-05-07T14:06:34Z</time>
      </trkpt>
      <trkpt lat="46.62114" lon="5.64101">
        <ele>549.6</ele>
        <time>2022-05-07T14:06:40Z</time>
      </trkpt>
      <trkpt lat="46.62097" lon="5.64104">
        <ele>549.6</ele>
        <time>2022-05-07T14:06:42Z</time>
      </trkpt>
      <trkpt lat="46.62073" lon="5.64114">
        <ele>549.6</ele>
        <time>2022-05-07T14:06:45Z</time>
      </trkpt>
      <trkpt lat="46.62016" lon="5.6413">
        <ele>550.2</ele>
        <time>2022-05-07T14:06:52Z</time>
      </trkpt>
      <trkpt lat="46.61993" lon="5.64131">
        <ele>550.8</ele>
        <time>2022-05-07T14:06:55Z</time>
      </trkpt>
      <trkpt lat="46.61978" lon="5.64132">
        <ele>551</ele>
        <time>2022-05-07T14:06:57Z</time>
      </trkpt>
      <trkpt lat="46.61942" lon="5.64135">
        <ele>552.2</ele>
        <time>2022-05-07T14:07:02Z</time>
      </trkpt>
      <trkpt lat="46.61921" lon="5.64138">
        <ele>553.4</ele>
        <time>2022-05-07T14:07:05Z</time>
      </trkpt>
      <trkpt lat="46.61898" lon="5.6414">
        <ele>554.6</ele>
        <time>2022-05-07T14:07:08Z</time>
      </trkpt>
      <trkpt lat="46.61875" lon="5.64142">
        <ele>555.6</ele>
        <time>2022-05-07T14:07:11Z</time>
      </trkpt>
      <trkpt lat="46.61841" lon="5.64142">
        <ele>556</ele>
        <time>2022-05-07T14:07:16Z</time>
      </trkpt>
      <trkpt lat="46.6181" lon="5.64144">
        <ele>556.8</ele>
        <time>2022-05-07T14:07:21Z</time>
      </trkpt>
      <trkpt lat="46.61798" lon="5.64144">
        <ele>557.4</ele>
        <time>2022-05-07T14:07:23Z</time>
      </trkpt>
      <trkpt lat="46.61784" lon="5.64145">
        <ele>558</ele>
        <time>2022-05-07T14:07:25Z</time>
      </trkpt>
      <trkpt lat="46.61736" lon="5.64153">
        <ele>559</ele>
        <time>2022-05-07T14:07:33Z</time>
      </trkpt>
      <trkpt lat="46.61726" lon="5.64161">
        <ele>559.6</ele>
        <time>2022-05-07T14:07:35Z</time>
      </trkpt>
      <trkpt lat="46.61716" lon="5.64174">
        <ele>560</ele>
        <time>2022-05-07T14:07:37Z</time>
      </trkpt>
      <trkpt lat="46.617" lon="5.642">
        <ele>560.2</ele>
        <time>2022-05-07T14:07:40Z</time>
      </trkpt>
      <trkpt lat="46.61688" lon="5.64225">
        <ele>560.2</ele>
        <time>2022-05-07T14:07:43Z</time>
      </trkpt>
      <trkpt lat="46.61664" lon="5.64267">
        <ele>559</ele>
        <time>2022-05-07T14:07:48Z</time>
      </trkpt>
      <trkpt lat="46.61659" lon="5.64274">
        <ele>558.8</ele>
        <time>2022-05-07T14:07:49Z</time>
      </trkpt>
      <trkpt lat="46.61628" lon="5.64301">
        <ele>558.8</ele>
        <time>2022-05-07T14:07:54Z</time>
      </trkpt>
      <trkpt lat="46.61591" lon="5.64311">
        <ele>558.8</ele>
        <time>2022-05-07T14:07:59Z</time>
      </trkpt>
      <trkpt lat="46.61576" lon="5.64316">
        <ele>558.8</ele>
        <time>2022-05-07T14:08:01Z</time>
      </trkpt>
      <trkpt lat="46.6156" lon="5.64325">
        <ele>558.8</ele>
        <time>2022-05-07T14:08:03Z</time>
      </trkpt>
      <trkpt lat="46.61553" lon="5.6433">
        <ele>558.6</ele>
        <time>2022-05-07T14:08:04Z</time>
      </trkpt>
      <trkpt lat="46.61525" lon="5.64357">
        <ele>557.8</ele>
        <time>2022-05-07T14:08:08Z</time>
      </trkpt>
      <trkpt lat="46.61518" lon="5.64365">
        <ele>557.6</ele>
        <time>2022-05-07T14:08:09Z</time>
      </trkpt>
      <trkpt lat="46.61484" lon="5.644">
        <ele>556.6</ele>
        <time>2022-05-07T14:08:14Z</time>
      </trkpt>
      <trkpt lat="46.61476" lon="5.64406">
        <ele>556.6</ele>
        <time>2022-05-07T14:08:15Z</time>
      </trkpt>
      <trkpt lat="46.61459" lon="5.64416">
        <ele>556</ele>
        <time>2022-05-07T14:08:17Z</time>
      </trkpt>
      <trkpt lat="46.61441" lon="5.64423">
        <ele>555.6</ele>
        <time>2022-05-07T14:08:19Z</time>
      </trkpt>
      <trkpt lat="46.61397" lon="5.64434">
        <ele>554.4</ele>
        <time>2022-05-07T14:08:24Z</time>
      </trkpt>
      <trkpt lat="46.61372" lon="5.64438">
        <ele>554</ele>
        <time>2022-05-07T14:08:27Z</time>
      </trkpt>
      <trkpt lat="46.61324" lon="5.64446">
        <ele>554.4</ele>
        <time>2022-05-07T14:08:33Z</time>
      </trkpt>
      <trkpt lat="46.61288" lon="5.64443">
        <ele>555.4</ele>
        <time>2022-05-07T14:08:38Z</time>
      </trkpt>
      <trkpt lat="46.61282" lon="5.64442">
        <ele>555.4</ele>
        <time>2022-05-07T14:08:39Z</time>
      </trkpt>
      <trkpt lat="46.61257" lon="5.64438">
        <ele>556.6</ele>
        <time>2022-05-07T14:08:43Z</time>
      </trkpt>
      <trkpt lat="46.61252" lon="5.64436">
        <ele>557</ele>
        <time>2022-05-07T14:08:44Z</time>
      </trkpt>
      <trkpt lat="46.61241" lon="5.64433">
        <ele>557.6</ele>
        <time>2022-05-07T14:08:46Z</time>
      </trkpt>
      <trkpt lat="46.61227" lon="5.64424">
        <ele>558.6</ele>
        <time>2022-05-07T14:08:49Z</time>
      </trkpt>
      <trkpt lat="46.61222" lon="5.64419">
        <ele>558.8</ele>
        <time>2022-05-07T14:08:50Z</time>
      </trkpt>
      <trkpt lat="46.61209" lon="5.64405">
        <ele>559.8</ele>
        <time>2022-05-07T14:08:53Z</time>
      </trkpt>
      <trkpt lat="46.61204" lon="5.64401">
        <ele>560.4</ele>
        <time>2022-05-07T14:08:54Z</time>
      </trkpt>
      <trkpt lat="46.612" lon="5.64396">
        <ele>560.6</ele>
        <time>2022-05-07T14:08:55Z</time>
      </trkpt>
      <trkpt lat="46.61195" lon="5.64391">
        <ele>560.8</ele>
        <time>2022-05-07T14:08:56Z</time>
      </trkpt>
      <trkpt lat="46.61191" lon="5.64386">
        <ele>561</ele>
        <time>2022-05-07T14:08:57Z</time>
      </trkpt>
      <trkpt lat="46.61184" lon="5.64373">
        <ele>561.2</ele>
        <time>2022-05-07T14:08:59Z</time>
      </trkpt>
      <trkpt lat="46.6118" lon="5.64366">
        <ele>561.2</ele>
        <time>2022-05-07T14:09:00Z</time>
      </trkpt>
      <trkpt lat="46.61176" lon="5.64352">
        <ele>561.6</ele>
        <time>2022-05-07T14:09:02Z</time>
      </trkpt>
      <trkpt lat="46.61175" lon="5.64344">
        <ele>562</ele>
        <time>2022-05-07T14:09:03Z</time>
      </trkpt>
      <trkpt lat="46.61174" lon="5.64337">
        <ele>562.2</ele>
        <time>2022-05-07T14:09:04Z</time>
      </trkpt>
      <trkpt lat="46.61176" lon="5.64307">
        <ele>563</ele>
        <time>2022-05-07T14:09:08Z</time>
      </trkpt>
      <trkpt lat="46.61179" lon="5.6428">
        <ele>564</ele>
        <time>2022-05-07T14:09:12Z</time>
      </trkpt>
      <trkpt lat="46.61182" lon="5.64254">
        <ele>565.2</ele>
        <time>2022-05-07T14:09:16Z</time>
      </trkpt>
      <trkpt lat="46.61184" lon="5.64236">
        <ele>565.8</ele>
        <time>2022-05-07T14:09:19Z</time>
      </trkpt>
      <trkpt lat="46.61183" lon="5.64225">
        <ele>566.6</ele>
        <time>2022-05-07T14:09:21Z</time>
      </trkpt>
      <trkpt lat="46.61181" lon="5.6422">
        <ele>567</ele>
        <time>2022-05-07T14:09:22Z</time>
      </trkpt>
      <trkpt lat="46.61176" lon="5.64209">
        <ele>567.6</ele>
        <time>2022-05-07T14:09:24Z</time>
      </trkpt>
      <trkpt lat="46.6117" lon="5.642">
        <ele>567.8</ele>
        <time>2022-05-07T14:09:26Z</time>
      </trkpt>
      <trkpt lat="46.61167" lon="5.64196">
        <ele>568</ele>
        <time>2022-05-07T14:09:27Z</time>
      </trkpt>
      <trkpt lat="46.61162" lon="5.64192">
        <ele>568.2</ele>
        <time>2022-05-07T14:09:28Z</time>
      </trkpt>
      <trkpt lat="46.61154" lon="5.64185">
        <ele>568.8</ele>
        <time>2022-05-07T14:09:30Z</time>
      </trkpt>
      <trkpt lat="46.61134" lon="5.64165">
        <ele>570</ele>
        <time>2022-05-07T14:09:35Z</time>
      </trkpt>
      <trkpt lat="46.6113" lon="5.64162">
        <ele>570.4</ele>
        <time>2022-05-07T14:09:36Z</time>
      </trkpt>
      <trkpt lat="46.61113" lon="5.64151">
        <ele>571.2</ele>
        <time>2022-05-07T14:09:40Z</time>
      </trkpt>
      <trkpt lat="46.61104" lon="5.64147">
        <ele>571.6</ele>
        <time>2022-05-07T14:09:42Z</time>
      </trkpt>
      <trkpt lat="46.61099" lon="5.64146">
        <ele>571.6</ele>
        <time>2022-05-07T14:09:43Z</time>
      </trkpt>
      <trkpt lat="46.61088" lon="5.64145">
        <ele>571.8</ele>
        <time>2022-05-07T14:09:45Z</time>
      </trkpt>
      <trkpt lat="46.6107" lon="5.64145">
        <ele>571.8</ele>
        <time>2022-05-07T14:09:48Z</time>
      </trkpt>
      <trkpt lat="46.61024" lon="5.64151">
        <ele>571.6</ele>
        <time>2022-05-07T14:09:55Z</time>
      </trkpt>
      <trkpt lat="46.60969" lon="5.64155">
        <ele>571</ele>
        <time>2022-05-07T14:10:02Z</time>
      </trkpt>
      <trkpt lat="46.60918" lon="5.64152">
        <ele>570.2</ele>
        <time>2022-05-07T14:10:08Z</time>
      </trkpt>
      <trkpt lat="46.60909" lon="5.64151">
        <ele>570.2</ele>
        <time>2022-05-07T14:10:09Z</time>
      </trkpt>
      <trkpt lat="46.60872" lon="5.64149">
        <ele>569.6</ele>
        <time>2022-05-07T14:10:13Z</time>
      </trkpt>
      <trkpt lat="46.60843" lon="5.64149">
        <ele>569</ele>
        <time>2022-05-07T14:10:16Z</time>
      </trkpt>
      <trkpt lat="46.60824" lon="5.6415">
        <ele>567.8</ele>
        <time>2022-05-07T14:10:18Z</time>
      </trkpt>
      <trkpt lat="46.60815" lon="5.64152">
        <ele>567.6</ele>
        <time>2022-05-07T14:10:19Z</time>
      </trkpt>
      <trkpt lat="46.6076" lon="5.64159">
        <ele>566.6</ele>
        <time>2022-05-07T14:10:25Z</time>
      </trkpt>
      <trkpt lat="46.60743" lon="5.6416">
        <ele>566.6</ele>
        <time>2022-05-07T14:10:27Z</time>
      </trkpt>
      <trkpt lat="46.60701" lon="5.64153">
        <ele>567.6</ele>
        <time>2022-05-07T14:10:32Z</time>
      </trkpt>
      <trkpt lat="46.60659" lon="5.64139">
        <ele>567.8</ele>
        <time>2022-05-07T14:10:37Z</time>
      </trkpt>
      <trkpt lat="46.60625" lon="5.64133">
        <ele>567.6</ele>
        <time>2022-05-07T14:10:41Z</time>
      </trkpt>
      <trkpt lat="46.60586" lon="5.64139">
        <ele>567</ele>
        <time>2022-05-07T14:10:45Z</time>
      </trkpt>
      <trkpt lat="46.60559" lon="5.64146">
        <ele>566.2</ele>
        <time>2022-05-07T14:10:48Z</time>
      </trkpt>
      <trkpt lat="46.60539" lon="5.64147">
        <ele>565.8</ele>
        <time>2022-05-07T14:10:50Z</time>
      </trkpt>
      <trkpt lat="46.60518" lon="5.64146">
        <ele>564.8</ele>
        <time>2022-05-07T14:10:52Z</time>
      </trkpt>
      <trkpt lat="46.60498" lon="5.64145">
        <ele>564</ele>
        <time>2022-05-07T14:10:54Z</time>
      </trkpt>
      <trkpt lat="46.60478" lon="5.64142">
        <ele>563.8</ele>
        <time>2022-05-07T14:10:56Z</time>
      </trkpt>
      <trkpt lat="46.60431" lon="5.64128">
        <ele>562.8</ele>
        <time>2022-05-07T14:11:01Z</time>
      </trkpt>
      <trkpt lat="46.6042" lon="5.64124">
        <ele>562.6</ele>
        <time>2022-05-07T14:11:02Z</time>
      </trkpt>
      <trkpt lat="46.60364" lon="5.64107">
        <ele>562.2</ele>
        <time>2022-05-07T14:11:08Z</time>
      </trkpt>
      <trkpt lat="46.60357" lon="5.64105">
        <ele>561.8</ele>
        <time>2022-05-07T14:11:09Z</time>
      </trkpt>
      <trkpt lat="46.60301" lon="5.64089">
        <ele>561.2</ele>
        <time>2022-05-07T14:11:15Z</time>
      </trkpt>
      <trkpt lat="46.60276" lon="5.64082">
        <ele>561.2</ele>
        <time>2022-05-07T14:11:18Z</time>
      </trkpt>
      <trkpt lat="46.60232" lon="5.64078">
        <ele>561.4</ele>
        <time>2022-05-07T14:11:23Z</time>
      </trkpt>
      <trkpt lat="46.6017" lon="5.64074">
        <ele>561.6</ele>
        <time>2022-05-07T14:11:30Z</time>
      </trkpt>
      <trkpt lat="46.60154" lon="5.6407">
        <ele>561.8</ele>
        <time>2022-05-07T14:11:32Z</time>
      </trkpt>
      <trkpt lat="46.60106" lon="5.64064">
        <ele>562.2</ele>
        <time>2022-05-07T14:11:38Z</time>
      </trkpt>
      <trkpt lat="46.60092" lon="5.64056">
        <ele>562.6</ele>
        <time>2022-05-07T14:11:40Z</time>
      </trkpt>
      <trkpt lat="46.60086" lon="5.6405">
        <ele>563</ele>
        <time>2022-05-07T14:11:41Z</time>
      </trkpt>
      <trkpt lat="46.60079" lon="5.64043">
        <ele>563</ele>
        <time>2022-05-07T14:11:42Z</time>
      </trkpt>
      <trkpt lat="46.60066" lon="5.64036">
        <ele>563.2</ele>
        <time>2022-05-07T14:11:44Z</time>
      </trkpt>
      <trkpt lat="46.60059" lon="5.64034">
        <ele>563.4</ele>
        <time>2022-05-07T14:11:45Z</time>
      </trkpt>
      <trkpt lat="46.60023" lon="5.64022">
        <ele>563.4</ele>
        <time>2022-05-07T14:11:50Z</time>
      </trkpt>
      <trkpt lat="46.60018" lon="5.6402">
        <ele>563.2</ele>
        <time>2022-05-07T14:11:51Z</time>
      </trkpt>
      <trkpt lat="46.60009" lon="5.64017">
        <ele>563.2</ele>
        <time>2022-05-07T14:11:53Z</time>
      </trkpt>
      <trkpt lat="46.60007" lon="5.64015">
        <ele>563</ele>
        <time>2022-05-07T14:11:54Z</time>
      </trkpt>
      <trkpt lat="46.60006" lon="5.64013">
        <ele>562.8</ele>
        <time>2022-05-07T14:11:55Z</time>
      </trkpt>
      <trkpt lat="46.60005" lon="5.64012">
        <ele>562.2</ele>
        <time>2022-05-07T14:11:57Z</time>
      </trkpt>
      <trkpt lat="46.60005" lon="5.64011">
        <ele>561.8</ele>
        <time>2022-05-07T14:11:58Z</time>
      </trkpt>
      <trkpt lat="46.60005" lon="5.64009">
        <ele>561.8</ele>
        <time>2022-05-07T14:11:59Z</time>
      </trkpt>
      <trkpt lat="46.60006" lon="5.64003">
        <ele>561.6</ele>
        <time>2022-05-07T14:12:01Z</time>
      </trkpt>
      <trkpt lat="46.60016" lon="5.63986">
        <ele>561</ele>
        <time>2022-05-07T14:12:05Z</time>
      </trkpt>
      <trkpt lat="46.60019" lon="5.63981">
        <ele>560.8</ele>
        <time>2022-05-07T14:12:06Z</time>
      </trkpt>
      <trkpt lat="46.60034" lon="5.63952">
        <ele>560.6</ele>
        <time>2022-05-07T14:12:10Z</time>
      </trkpt>
      <trkpt lat="46.6005" lon="5.63919">
        <ele>560.4</ele>
        <time>2022-05-07T14:12:14Z</time>
      </trkpt>
      <trkpt lat="46.60052" lon="5.63909">
        <ele>560.2</ele>
        <time>2022-05-07T14:12:15Z</time>
      </trkpt>
      <trkpt lat="46.60051" lon="5.63899">
        <ele>560.2</ele>
        <time>2022-05-07T14:12:16Z</time>
      </trkpt>
      <trkpt lat="46.60049" lon="5.6389">
        <ele>560</ele>
        <time>2022-05-07T14:12:17Z</time>
      </trkpt>
      <trkpt lat="46.60044" lon="5.63882">
        <ele>560</ele>
        <time>2022-05-07T14:12:18Z</time>
      </trkpt>
      <trkpt lat="46.60031" lon="5.63868">
        <ele>559.8</ele>
        <time>2022-05-07T14:12:20Z</time>
      </trkpt>
      <trkpt lat="46.59987" lon="5.63825">
        <ele>559</ele>
        <time>2022-05-07T14:12:26Z</time>
      </trkpt>
      <trkpt lat="46.59955" lon="5.63794">
        <ele>558.6</ele>
        <time>2022-05-07T14:12:30Z</time>
      </trkpt>
      <trkpt lat="46.59939" lon="5.63776">
        <ele>558</ele>
        <time>2022-05-07T14:12:32Z</time>
      </trkpt>
      <trkpt lat="46.59924" lon="5.63757">
        <ele>557.6</ele>
        <time>2022-05-07T14:12:34Z</time>
      </trkpt>
      <trkpt lat="46.59911" lon="5.63735">
        <ele>556.6</ele>
        <time>2022-05-07T14:12:36Z</time>
      </trkpt>
      <trkpt lat="46.59905" lon="5.63724">
        <ele>555.8</ele>
        <time>2022-05-07T14:12:37Z</time>
      </trkpt>
      <trkpt lat="46.59887" lon="5.63675">
        <ele>554.8</ele>
        <time>2022-05-07T14:12:41Z</time>
      </trkpt>
      <trkpt lat="46.59863" lon="5.63607">
        <ele>555.2</ele>
        <time>2022-05-07T14:12:47Z</time>
      </trkpt>
      <trkpt lat="46.5985" lon="5.63577">
        <ele>555.4</ele>
        <time>2022-05-07T14:12:50Z</time>
      </trkpt>
      <trkpt lat="46.5984" lon="5.63561">
        <ele>555.6</ele>
        <time>2022-05-07T14:12:52Z</time>
      </trkpt>
      <trkpt lat="46.59833" lon="5.63555">
        <ele>555.8</ele>
        <time>2022-05-07T14:12:53Z</time>
      </trkpt>
      <trkpt lat="46.59812" lon="5.63543">
        <ele>557</ele>
        <time>2022-05-07T14:12:56Z</time>
      </trkpt>
      <trkpt lat="46.59769" lon="5.6351">
        <ele>557.8</ele>
        <time>2022-05-07T14:13:02Z</time>
      </trkpt>
      <trkpt lat="46.59756" lon="5.63493">
        <ele>557.8</ele>
        <time>2022-05-07T14:13:04Z</time>
      </trkpt>
      <trkpt lat="46.59745" lon="5.6347">
        <ele>557.8</ele>
        <time>2022-05-07T14:13:06Z</time>
      </trkpt>
      <trkpt lat="46.5974" lon="5.63443">
        <ele>557.4</ele>
        <time>2022-05-07T14:13:08Z</time>
      </trkpt>
      <trkpt lat="46.5974" lon="5.63429">
        <ele>557.2</ele>
        <time>2022-05-07T14:13:09Z</time>
      </trkpt>
      <trkpt lat="46.59741" lon="5.63415">
        <ele>556.8</ele>
        <time>2022-05-07T14:13:10Z</time>
      </trkpt>
      <trkpt lat="46.59746" lon="5.63387">
        <ele>556</ele>
        <time>2022-05-07T14:13:12Z</time>
      </trkpt>
      <trkpt lat="46.59748" lon="5.63373">
        <ele>555.8</ele>
        <time>2022-05-07T14:13:13Z</time>
      </trkpt>
      <trkpt lat="46.5975" lon="5.63359">
        <ele>555</ele>
        <time>2022-05-07T14:13:14Z</time>
      </trkpt>
      <trkpt lat="46.59755" lon="5.63315">
        <ele>553.8</ele>
        <time>2022-05-07T14:13:17Z</time>
      </trkpt>
      <trkpt lat="46.59756" lon="5.63286">
        <ele>553.2</ele>
        <time>2022-05-07T14:13:19Z</time>
      </trkpt>
      <trkpt lat="46.59755" lon="5.63271">
        <ele>552.8</ele>
        <time>2022-05-07T14:13:20Z</time>
      </trkpt>
      <trkpt lat="46.5975" lon="5.63201">
        <ele>551.8</ele>
        <time>2022-05-07T14:13:25Z</time>
      </trkpt>
      <trkpt lat="46.59749" lon="5.63187">
        <ele>551.8</ele>
        <time>2022-05-07T14:13:26Z</time>
      </trkpt>
      <trkpt lat="46.59748" lon="5.63121">
        <ele>551.4</ele>
        <time>2022-05-07T14:13:31Z</time>
      </trkpt>
      <trkpt lat="46.59752" lon="5.63086">
        <ele>551.4</ele>
        <time>2022-05-07T14:13:34Z</time>
      </trkpt>
      <trkpt lat="46.59752" lon="5.63075">
        <ele>551.2</ele>
        <time>2022-05-07T14:13:35Z</time>
      </trkpt>
      <trkpt lat="46.59751" lon="5.63063">
        <ele>551.2</ele>
        <time>2022-05-07T14:13:36Z</time>
      </trkpt>
      <trkpt lat="46.59746" lon="5.63041">
        <ele>551</ele>
        <time>2022-05-07T14:13:38Z</time>
      </trkpt>
      <trkpt lat="46.59733" lon="5.63027">
        <ele>551</ele>
        <time>2022-05-07T14:13:40Z</time>
      </trkpt>
      <trkpt lat="46.59726" lon="5.63025">
        <ele>551</ele>
        <time>2022-05-07T14:13:41Z</time>
      </trkpt>
      <trkpt lat="46.59711" lon="5.63024">
        <ele>550.8</ele>
        <time>2022-05-07T14:13:43Z</time>
      </trkpt>
      <trkpt lat="46.59696" lon="5.63019">
        <ele>550.2</ele>
        <time>2022-05-07T14:13:45Z</time>
      </trkpt>
      <trkpt lat="46.59681" lon="5.63013">
        <ele>549.8</ele>
        <time>2022-05-07T14:13:47Z</time>
      </trkpt>
      <trkpt lat="46.59675" lon="5.63008">
        <ele>549.8</ele>
        <time>2022-05-07T14:13:48Z</time>
      </trkpt>
      <trkpt lat="46.59669" lon="5.63002">
        <ele>549.6</ele>
        <time>2022-05-07T14:13:49Z</time>
      </trkpt>
      <trkpt lat="46.59648" lon="5.62968">
        <ele>549.6</ele>
        <time>2022-05-07T14:13:54Z</time>
      </trkpt>
      <trkpt lat="46.59636" lon="5.6295">
        <ele>549.6</ele>
        <time>2022-05-07T14:13:57Z</time>
      </trkpt>
      <trkpt lat="46.5963" lon="5.62941">
        <ele>549.8</ele>
        <time>2022-05-07T14:13:59Z</time>
      </trkpt>
      <trkpt lat="46.59622" lon="5.62935">
        <ele>549.8</ele>
        <time>2022-05-07T14:14:01Z</time>
      </trkpt>
      <trkpt lat="46.59612" lon="5.62934">
        <ele>549.8</ele>
        <time>2022-05-07T14:14:03Z</time>
      </trkpt>
      <trkpt lat="46.59572" lon="5.62942">
        <ele>549.6</ele>
        <time>2022-05-07T14:14:09Z</time>
      </trkpt>
      <trkpt lat="46.59518" lon="5.62952">
        <ele>549.8</ele>
        <time>2022-05-07T14:14:16Z</time>
      </trkpt>
      <trkpt lat="46.59465" lon="5.62962">
        <ele>550.4</ele>
        <time>2022-05-07T14:14:23Z</time>
      </trkpt>
      <trkpt lat="46.59407" lon="5.62972">
        <ele>551</ele>
        <time>2022-05-07T14:14:31Z</time>
      </trkpt>
      <trkpt lat="46.59354" lon="5.62982">
        <ele>551.8</ele>
        <time>2022-05-07T14:14:38Z</time>
      </trkpt>
      <trkpt lat="46.59297" lon="5.62991">
        <ele>552</ele>
        <time>2022-05-07T14:14:45Z</time>
      </trkpt>
      <trkpt lat="46.59288" lon="5.62992">
        <ele>552</ele>
        <time>2022-05-07T14:14:46Z</time>
      </trkpt>
      <trkpt lat="46.59279" lon="5.62993">
        <ele>552</ele>
        <time>2022-05-07T14:14:47Z</time>
      </trkpt>
      <trkpt lat="46.59216" lon="5.6299">
        <ele>551.2</ele>
        <time>2022-05-07T14:14:54Z</time>
      </trkpt>
      <trkpt lat="46.59157" lon="5.62982">
        <ele>550.8</ele>
        <time>2022-05-07T14:15:00Z</time>
      </trkpt>
      <trkpt lat="46.59128" lon="5.62978">
        <ele>550.6</ele>
        <time>2022-05-07T14:15:03Z</time>
      </trkpt>
      <trkpt lat="46.59082" lon="5.62973">
        <ele>550</ele>
        <time>2022-05-07T14:15:08Z</time>
      </trkpt>
      <trkpt lat="46.59063" lon="5.62969">
        <ele>549.8</ele>
        <time>2022-05-07T14:15:10Z</time>
      </trkpt>
      <trkpt lat="46.59003" lon="5.62961">
        <ele>549.2</ele>
        <time>2022-05-07T14:15:16Z</time>
      </trkpt>
      <trkpt lat="46.58982" lon="5.62958">
        <ele>549.2</ele>
        <time>2022-05-07T14:15:18Z</time>
      </trkpt>
      <trkpt lat="46.58939" lon="5.62953">
        <ele>549</ele>
        <time>2022-05-07T14:15:22Z</time>
      </trkpt>
      <trkpt lat="46.58896" lon="5.62946">
        <ele>548.8</ele>
        <time>2022-05-07T14:15:26Z</time>
      </trkpt>
      <trkpt lat="46.58841" lon="5.62939">
        <ele>548.4</ele>
        <time>2022-05-07T14:15:31Z</time>
      </trkpt>
      <trkpt lat="46.58809" lon="5.62934">
        <ele>548.4</ele>
        <time>2022-05-07T14:15:34Z</time>
      </trkpt>
      <trkpt lat="46.58755" lon="5.62925">
        <ele>548.4</ele>
        <time>2022-05-07T14:15:39Z</time>
      </trkpt>
      <trkpt lat="46.58731" lon="5.6292">
        <ele>548.4</ele>
        <time>2022-05-07T14:15:41Z</time>
      </trkpt>
      <trkpt lat="46.58697" lon="5.62911">
        <ele>548</ele>
        <time>2022-05-07T14:15:44Z</time>
      </trkpt>
      <trkpt lat="46.58675" lon="5.62905">
        <ele>547.8</ele>
        <time>2022-05-07T14:15:46Z</time>
      </trkpt>
      <trkpt lat="46.58618" lon="5.62888">
        <ele>547.4</ele>
        <time>2022-05-07T14:15:51Z</time>
      </trkpt>
      <trkpt lat="46.58584" lon="5.6288">
        <ele>547.2</ele>
        <time>2022-05-07T14:15:54Z</time>
      </trkpt>
      <trkpt lat="46.58572" lon="5.62879">
        <ele>546.8</ele>
        <time>2022-05-07T14:15:55Z</time>
      </trkpt>
      <trkpt lat="46.5855" lon="5.6288">
        <ele>546.2</ele>
        <time>2022-05-07T14:15:57Z</time>
      </trkpt>
      <trkpt lat="46.58541" lon="5.62882">
        <ele>546</ele>
        <time>2022-05-07T14:15:58Z</time>
      </trkpt>
      <trkpt lat="46.58528" lon="5.62887">
        <ele>546</ele>
        <time>2022-05-07T14:15:59Z</time>
      </trkpt>
      <trkpt lat="46.58507" lon="5.62896">
        <ele>545.6</ele>
        <time>2022-05-07T14:16:01Z</time>
      </trkpt>
      <trkpt lat="46.58485" lon="5.62906">
        <ele>545.4</ele>
        <time>2022-05-07T14:16:03Z</time>
      </trkpt>
      <trkpt lat="46.58442" lon="5.62929">
        <ele>544.6</ele>
        <time>2022-05-07T14:16:07Z</time>
      </trkpt>
      <trkpt lat="46.58401" lon="5.62949">
        <ele>543.4</ele>
        <time>2022-05-07T14:16:11Z</time>
      </trkpt>
      <trkpt lat="46.5835" lon="5.62974">
        <ele>542.4</ele>
        <time>2022-05-07T14:16:16Z</time>
      </trkpt>
      <trkpt lat="46.58308" lon="5.62993">
        <ele>541.8</ele>
        <time>2022-05-07T14:16:20Z</time>
      </trkpt>
      <trkpt lat="46.58268" lon="5.63013">
        <ele>541</ele>
        <time>2022-05-07T14:16:24Z</time>
      </trkpt>
      <trkpt lat="46.58216" lon="5.63038">
        <ele>540.2</ele>
        <time>2022-05-07T14:16:29Z</time>
      </trkpt>
      <trkpt lat="46.58206" lon="5.63042">
        <ele>540</ele>
        <time>2022-05-07T14:16:30Z</time>
      </trkpt>
      <trkpt lat="46.58195" lon="5.63045">
        <ele>540</ele>
        <time>2022-05-07T14:16:31Z</time>
      </trkpt>
      <trkpt lat="46.58173" lon="5.63044">
        <ele>539.6</ele>
        <time>2022-05-07T14:16:33Z</time>
      </trkpt>
      <trkpt lat="46.58151" lon="5.63037">
        <ele>538.8</ele>
        <time>2022-05-07T14:16:35Z</time>
      </trkpt>
      <trkpt lat="46.5814" lon="5.6303">
        <ele>538.6</ele>
        <time>2022-05-07T14:16:36Z</time>
      </trkpt>
      <trkpt lat="46.58112" lon="5.63003">
        <ele>537.6</ele>
        <time>2022-05-07T14:16:39Z</time>
      </trkpt>
      <trkpt lat="46.58103" lon="5.62992">
        <ele>537.4</ele>
        <time>2022-05-07T14:16:40Z</time>
      </trkpt>
      <trkpt lat="46.58086" lon="5.6297">
        <ele>536.6</ele>
        <time>2022-05-07T14:16:42Z</time>
      </trkpt>
      <trkpt lat="46.58052" lon="5.62929">
        <ele>535.6</ele>
        <time>2022-05-07T14:16:46Z</time>
      </trkpt>
      <trkpt lat="46.58034" lon="5.62911">
        <ele>535.2</ele>
        <time>2022-05-07T14:16:48Z</time>
      </trkpt>
      <trkpt lat="46.58015" lon="5.62896">
        <ele>534.6</ele>
        <time>2022-05-07T14:16:50Z</time>
      </trkpt>
      <trkpt lat="46.57975" lon="5.62867">
        <ele>533.8</ele>
        <time>2022-05-07T14:16:54Z</time>
      </trkpt>
      <trkpt lat="46.57965" lon="5.62862">
        <ele>533.6</ele>
        <time>2022-05-07T14:16:55Z</time>
      </trkpt>
      <trkpt lat="46.57923" lon="5.62844">
        <ele>532.8</ele>
        <time>2022-05-07T14:16:59Z</time>
      </trkpt>
      <trkpt lat="46.57902" lon="5.62837">
        <ele>532.4</ele>
        <time>2022-05-07T14:17:01Z</time>
      </trkpt>
      <trkpt lat="46.57847" lon="5.62822">
        <ele>531.6</ele>
        <time>2022-05-07T14:17:06Z</time>
      </trkpt>
      <trkpt lat="46.57836" lon="5.62819">
        <ele>531</ele>
        <time>2022-05-07T14:17:07Z</time>
      </trkpt>
      <trkpt lat="46.57781" lon="5.62802">
        <ele>529.8</ele>
        <time>2022-05-07T14:17:12Z</time>
      </trkpt>
      <trkpt lat="46.57758" lon="5.62792">
        <ele>529.2</ele>
        <time>2022-05-07T14:17:14Z</time>
      </trkpt>
      <trkpt lat="46.57725" lon="5.62776">
        <ele>528.8</ele>
        <time>2022-05-07T14:17:17Z</time>
      </trkpt>
      <trkpt lat="46.5768" lon="5.62754">
        <ele>527.4</ele>
        <time>2022-05-07T14:17:21Z</time>
      </trkpt>
      <trkpt lat="46.57625" lon="5.62727">
        <ele>526.4</ele>
        <time>2022-05-07T14:17:26Z</time>
      </trkpt>
      <trkpt lat="46.57591" lon="5.62709">
        <ele>525.4</ele>
        <time>2022-05-07T14:17:29Z</time>
      </trkpt>
      <trkpt lat="46.57579" lon="5.62702">
        <ele>525</ele>
        <time>2022-05-07T14:17:30Z</time>
      </trkpt>
      <trkpt lat="46.57536" lon="5.62669">
        <ele>524.2</ele>
        <time>2022-05-07T14:17:34Z</time>
      </trkpt>
      <trkpt lat="46.57526" lon="5.62659">
        <ele>524</ele>
        <time>2022-05-07T14:17:35Z</time>
      </trkpt>
      <trkpt lat="46.57497" lon="5.62632">
        <ele>522.6</ele>
        <time>2022-05-07T14:17:38Z</time>
      </trkpt>
      <trkpt lat="46.57458" lon="5.62597">
        <ele>521.6</ele>
        <time>2022-05-07T14:17:42Z</time>
      </trkpt>
      <trkpt lat="46.57413" lon="5.62555">
        <ele>521.2</ele>
        <time>2022-05-07T14:17:47Z</time>
      </trkpt>
      <trkpt lat="46.57394" lon="5.62541">
        <ele>521.2</ele>
        <time>2022-05-07T14:17:49Z</time>
      </trkpt>
      <trkpt lat="46.57344" lon="5.6252">
        <ele>521.2</ele>
        <time>2022-05-07T14:17:54Z</time>
      </trkpt>
      <trkpt lat="46.57284" lon="5.62501">
        <ele>521.4</ele>
        <time>2022-05-07T14:18:00Z</time>
      </trkpt>
      <trkpt lat="46.57263" lon="5.62495">
        <ele>521.4</ele>
        <time>2022-05-07T14:18:02Z</time>
      </trkpt>
      <trkpt lat="46.57244" lon="5.6249">
        <ele>521.6</ele>
        <time>2022-05-07T14:18:04Z</time>
      </trkpt>
      <trkpt lat="46.57213" lon="5.6249">
        <ele>522.2</ele>
        <time>2022-05-07T14:18:07Z</time>
      </trkpt>
      <trkpt lat="46.57162" lon="5.62496">
        <ele>522.6</ele>
        <time>2022-05-07T14:18:12Z</time>
      </trkpt>
      <trkpt lat="46.57142" lon="5.62494">
        <ele>522.6</ele>
        <time>2022-05-07T14:18:14Z</time>
      </trkpt>
      <trkpt lat="46.57122" lon="5.62486">
        <ele>523</ele>
        <time>2022-05-07T14:18:16Z</time>
      </trkpt>
      <trkpt lat="46.57086" lon="5.62457">
        <ele>523</ele>
        <time>2022-05-07T14:18:20Z</time>
      </trkpt>
      <trkpt lat="46.57035" lon="5.62409">
        <ele>523.2</ele>
        <time>2022-05-07T14:18:26Z</time>
      </trkpt>
      <trkpt lat="46.57009" lon="5.62386">
        <ele>523.2</ele>
        <time>2022-05-07T14:18:29Z</time>
      </trkpt>
      <trkpt lat="46.56958" lon="5.62339">
        <ele>523.6</ele>
        <time>2022-05-07T14:18:35Z</time>
      </trkpt>
      <trkpt lat="46.5695" lon="5.6233">
        <ele>523.6</ele>
        <time>2022-05-07T14:18:36Z</time>
      </trkpt>
      <trkpt lat="46.56899" lon="5.62281">
        <ele>523.2</ele>
        <time>2022-05-07T14:18:42Z</time>
      </trkpt>
      <trkpt lat="46.56882" lon="5.62265">
        <ele>522.6</ele>
        <time>2022-05-07T14:18:44Z</time>
      </trkpt>
      <trkpt lat="46.56874" lon="5.62257">
        <ele>522.2</ele>
        <time>2022-05-07T14:18:45Z</time>
      </trkpt>
      <trkpt lat="46.56824" lon="5.62211">
        <ele>521.4</ele>
        <time>2022-05-07T14:18:51Z</time>
      </trkpt>
      <trkpt lat="46.56791" lon="5.62179">
        <ele>521.2</ele>
        <time>2022-05-07T14:18:55Z</time>
      </trkpt>
      <trkpt lat="46.56782" lon="5.62171">
        <ele>521</ele>
        <time>2022-05-07T14:18:56Z</time>
      </trkpt>
      <trkpt lat="46.56739" lon="5.62131">
        <ele>519.8</ele>
        <time>2022-05-07T14:19:01Z</time>
      </trkpt>
      <trkpt lat="46.56704" lon="5.62098">
        <ele>519</ele>
        <time>2022-05-07T14:19:05Z</time>
      </trkpt>
      <trkpt lat="46.56677" lon="5.62073">
        <ele>518.8</ele>
        <time>2022-05-07T14:19:08Z</time>
      </trkpt>
      <trkpt lat="46.56627" lon="5.62026">
        <ele>518.6</ele>
        <time>2022-05-07T14:19:14Z</time>
      </trkpt>
      <trkpt lat="46.56578" lon="5.61979">
        <ele>518.2</ele>
        <time>2022-05-07T14:19:20Z</time>
      </trkpt>
      <trkpt lat="46.56561" lon="5.61963">
        <ele>518</ele>
        <time>2022-05-07T14:19:22Z</time>
      </trkpt>
      <trkpt lat="46.56528" lon="5.61932">
        <ele>517.8</ele>
        <time>2022-05-07T14:19:26Z</time>
      </trkpt>
      <trkpt lat="46.56503" lon="5.61908">
        <ele>517.8</ele>
        <time>2022-05-07T14:19:29Z</time>
      </trkpt>
      <trkpt lat="46.56495" lon="5.61901">
        <ele>517.8</ele>
        <time>2022-05-07T14:19:30Z</time>
      </trkpt>
      <trkpt lat="46.56448" lon="5.61858">
        <ele>518.8</ele>
        <time>2022-05-07T14:19:36Z</time>
      </trkpt>
      <trkpt lat="46.56426" lon="5.61837">
        <ele>519.6</ele>
        <time>2022-05-07T14:19:39Z</time>
      </trkpt>
      <trkpt lat="46.56412" lon="5.61822">
        <ele>520</ele>
        <time>2022-05-07T14:19:41Z</time>
      </trkpt>
      <trkpt lat="46.56387" lon="5.61792">
        <ele>521</ele>
        <time>2022-05-07T14:19:45Z</time>
      </trkpt>
      <trkpt lat="46.56345" lon="5.61738">
        <ele>522.2</ele>
        <time>2022-05-07T14:19:52Z</time>
      </trkpt>
      <trkpt lat="46.56339" lon="5.61731">
        <ele>522.4</ele>
        <time>2022-05-07T14:19:53Z</time>
      </trkpt>
      <trkpt lat="46.56297" lon="5.61678">
        <ele>522.2</ele>
        <time>2022-05-07T14:20:00Z</time>
      </trkpt>
      <trkpt lat="46.56285" lon="5.61662">
        <ele>522</ele>
        <time>2022-05-07T14:20:02Z</time>
      </trkpt>
      <trkpt lat="46.56245" lon="5.61606">
        <ele>521.6</ele>
        <time>2022-05-07T14:20:09Z</time>
      </trkpt>
      <trkpt lat="46.5624" lon="5.61597">
        <ele>521.6</ele>
        <time>2022-05-07T14:20:10Z</time>
      </trkpt>
      <trkpt lat="46.56225" lon="5.61571">
        <ele>521.2</ele>
        <time>2022-05-07T14:20:13Z</time>
      </trkpt>
      <trkpt lat="46.56196" lon="5.61515">
        <ele>521</ele>
        <time>2022-05-07T14:20:19Z</time>
      </trkpt>
      <trkpt lat="46.56163" lon="5.61445">
        <ele>521.6</ele>
        <time>2022-05-07T14:20:26Z</time>
      </trkpt>
      <trkpt lat="46.56158" lon="5.61435">
        <ele>521.8</ele>
        <time>2022-05-07T14:20:27Z</time>
      </trkpt>
      <trkpt lat="46.56148" lon="5.61415">
        <ele>522.4</ele>
        <time>2022-05-07T14:20:29Z</time>
      </trkpt>
      <trkpt lat="46.56115" lon="5.61347">
        <ele>523</ele>
        <time>2022-05-07T14:20:36Z</time>
      </trkpt>
      <trkpt lat="46.56083" lon="5.6128">
        <ele>522</ele>
        <time>2022-05-07T14:20:43Z</time>
      </trkpt>
      <trkpt lat="46.5605" lon="5.61216">
        <ele>522.6</ele>
        <time>2022-05-07T14:20:50Z</time>
      </trkpt>
      <trkpt lat="46.56046" lon="5.61207">
        <ele>522.8</ele>
        <time>2022-05-07T14:20:51Z</time>
      </trkpt>
      <trkpt lat="46.56017" lon="5.61148">
        <ele>523.4</ele>
        <time>2022-05-07T14:20:58Z</time>
      </trkpt>
      <trkpt lat="46.55994" lon="5.611">
        <ele>524.6</ele>
        <time>2022-05-07T14:21:04Z</time>
      </trkpt>
      <trkpt lat="46.55976" lon="5.61052">
        <ele>525.6</ele>
        <time>2022-05-07T14:21:10Z</time>
      </trkpt>
      <trkpt lat="46.55974" lon="5.61045">
        <ele>525.6</ele>
        <time>2022-05-07T14:21:11Z</time>
      </trkpt>
      <trkpt lat="46.55971" lon="5.61039">
        <ele>525.8</ele>
        <time>2022-05-07T14:21:12Z</time>
      </trkpt>
      <trkpt lat="46.55967" lon="5.61031">
        <ele>525.8</ele>
        <time>2022-05-07T14:21:14Z</time>
      </trkpt>
      <trkpt lat="46.55965" lon="5.61028">
        <ele>526</ele>
        <time>2022-05-07T14:21:17Z</time>
      </trkpt>
      <trkpt lat="46.55965" lon="5.61028">
        <ele>526</ele>
        <time>2022-05-07T14:21:18Z</time>
      </trkpt>
      <trkpt lat="46.55965" lon="5.61021">
        <ele>526.4</ele>
        <time>2022-05-07T14:22:28Z</time>
      </trkpt>
      <trkpt lat="46.55964" lon="5.61012">
        <ele>526.4</ele>
        <time>2022-05-07T14:22:30Z</time>
      </trkpt>
      <trkpt lat="46.55958" lon="5.60978">
        <ele>526.4</ele>
        <time>2022-05-07T14:22:35Z</time>
      </trkpt>
      <trkpt lat="46.55945" lon="5.6092">
        <ele>526.6</ele>
        <time>2022-05-07T14:22:42Z</time>
      </trkpt>
      <trkpt lat="46.55944" lon="5.60913">
        <ele>526.6</ele>
        <time>2022-05-07T14:22:43Z</time>
      </trkpt>
      <trkpt lat="46.55942" lon="5.60904">
        <ele>526.8</ele>
        <time>2022-05-07T14:22:44Z</time>
      </trkpt>
      <trkpt lat="46.55938" lon="5.60887">
        <ele>527</ele>
        <time>2022-05-07T14:22:46Z</time>
      </trkpt>
      <trkpt lat="46.55937" lon="5.60878">
        <ele>527.2</ele>
        <time>2022-05-07T14:22:47Z</time>
      </trkpt>
      <trkpt lat="46.55931" lon="5.60802">
        <ele>527.6</ele>
        <time>2022-05-07T14:22:55Z</time>
      </trkpt>
      <trkpt lat="46.55922" lon="5.60732">
        <ele>527.8</ele>
        <time>2022-05-07T14:23:02Z</time>
      </trkpt>
      <trkpt lat="46.55903" lon="5.60649">
        <ele>527</ele>
        <time>2022-05-07T14:23:10Z</time>
      </trkpt>
      <trkpt lat="46.55887" lon="5.6059">
        <ele>525.8</ele>
        <time>2022-05-07T14:23:16Z</time>
      </trkpt>
      <trkpt lat="46.55884" lon="5.60581">
        <ele>525.6</ele>
        <time>2022-05-07T14:23:17Z</time>
      </trkpt>
      <trkpt lat="46.55865" lon="5.60555">
        <ele>524.6</ele>
        <time>2022-05-07T14:23:21Z</time>
      </trkpt>
      <trkpt lat="46.55845" lon="5.6054">
        <ele>524.2</ele>
        <time>2022-05-07T14:23:24Z</time>
      </trkpt>
      <trkpt lat="46.55838" lon="5.60537">
        <ele>524.4</ele>
        <time>2022-05-07T14:23:25Z</time>
      </trkpt>
      <trkpt lat="46.55797" lon="5.60527">
        <ele>524.2</ele>
        <time>2022-05-07T14:23:30Z</time>
      </trkpt>
      <trkpt lat="46.55772" lon="5.6052">
        <ele>523.4</ele>
        <time>2022-05-07T14:23:33Z</time>
      </trkpt>
      <trkpt lat="46.55763" lon="5.60516">
        <ele>523.4</ele>
        <time>2022-05-07T14:23:34Z</time>
      </trkpt>
      <trkpt lat="46.55753" lon="5.6051">
        <ele>523.2</ele>
        <time>2022-05-07T14:23:35Z</time>
      </trkpt>
      <trkpt lat="46.55747" lon="5.60505">
        <ele>523</ele>
        <time>2022-05-07T14:23:36Z</time>
      </trkpt>
      <trkpt lat="46.5574" lon="5.60498">
        <ele>522.6</ele>
        <time>2022-05-07T14:23:37Z</time>
      </trkpt>
      <trkpt lat="46.55732" lon="5.60487">
        <ele>522.2</ele>
        <time>2022-05-07T14:23:38Z</time>
      </trkpt>
      <trkpt lat="46.55726" lon="5.60477">
        <ele>522</ele>
        <time>2022-05-07T14:23:39Z</time>
      </trkpt>
      <trkpt lat="46.55711" lon="5.60444">
        <ele>521</ele>
        <time>2022-05-07T14:23:42Z</time>
      </trkpt>
      <trkpt lat="46.55702" lon="5.60424">
        <ele>520.4</ele>
        <time>2022-05-07T14:23:44Z</time>
      </trkpt>
      <trkpt lat="46.55697" lon="5.60413">
        <ele>520</ele>
        <time>2022-05-07T14:23:45Z</time>
      </trkpt>
      <trkpt lat="46.5568" lon="5.60383">
        <ele>519.4</ele>
        <time>2022-05-07T14:23:48Z</time>
      </trkpt>
      <trkpt lat="46.55673" lon="5.60375">
        <ele>519.2</ele>
        <time>2022-05-07T14:23:49Z</time>
      </trkpt>
      <trkpt lat="46.55666" lon="5.60367">
        <ele>519</ele>
        <time>2022-05-07T14:23:50Z</time>
      </trkpt>
      <trkpt lat="46.55658" lon="5.60361">
        <ele>518.8</ele>
        <time>2022-05-07T14:23:51Z</time>
      </trkpt>
      <trkpt lat="46.55649" lon="5.60356">
        <ele>518.6</ele>
        <time>2022-05-07T14:23:52Z</time>
      </trkpt>
      <trkpt lat="46.55611" lon="5.60348">
        <ele>517.8</ele>
        <time>2022-05-07T14:23:56Z</time>
      </trkpt>
      <trkpt lat="46.55601" lon="5.60347">
        <ele>517.8</ele>
        <time>2022-05-07T14:23:57Z</time>
      </trkpt>
      <trkpt lat="46.55541" lon="5.60343">
        <ele>516.6</ele>
        <time>2022-05-07T14:24:03Z</time>
      </trkpt>
      <trkpt lat="46.55502" lon="5.60336">
        <ele>515.6</ele>
        <time>2022-05-07T14:24:07Z</time>
      </trkpt>
      <trkpt lat="46.5548" lon="5.60329">
        <ele>515.2</ele>
        <time>2022-05-07T14:24:09Z</time>
      </trkpt>
      <trkpt lat="46.55441" lon="5.60314">
        <ele>514.4</ele>
        <time>2022-05-07T14:24:13Z</time>
      </trkpt>
      <trkpt lat="46.5541" lon="5.60303">
        <ele>513.4</ele>
        <time>2022-05-07T14:24:16Z</time>
      </trkpt>
      <trkpt lat="46.554" lon="5.60299">
        <ele>513</ele>
        <time>2022-05-07T14:24:17Z</time>
      </trkpt>
      <trkpt lat="46.55379" lon="5.60292">
        <ele>512.2</ele>
        <time>2022-05-07T14:24:19Z</time>
      </trkpt>
      <trkpt lat="46.55326" lon="5.60277">
        <ele>511.6</ele>
        <time>2022-05-07T14:24:24Z</time>
      </trkpt>
      <trkpt lat="46.55304" lon="5.60279">
        <ele>511.2</ele>
        <time>2022-05-07T14:24:26Z</time>
      </trkpt>
      <trkpt lat="46.55294" lon="5.60282">
        <ele>511</ele>
        <time>2022-05-07T14:24:27Z</time>
      </trkpt>
      <trkpt lat="46.55242" lon="5.60304">
        <ele>510.6</ele>
        <time>2022-05-07T14:24:32Z</time>
      </trkpt>
      <trkpt lat="46.55231" lon="5.60309">
        <ele>510.6</ele>
        <time>2022-05-07T14:24:33Z</time>
      </trkpt>
      <trkpt lat="46.55189" lon="5.60322">
        <ele>510.4</ele>
        <time>2022-05-07T14:24:37Z</time>
      </trkpt>
      <trkpt lat="46.55179" lon="5.60322">
        <ele>510.2</ele>
        <time>2022-05-07T14:24:38Z</time>
      </trkpt>
      <trkpt lat="46.55168" lon="5.6032">
        <ele>510.2</ele>
        <time>2022-05-07T14:24:39Z</time>
      </trkpt>
      <trkpt lat="46.55157" lon="5.60316">
        <ele>510</ele>
        <time>2022-05-07T14:24:40Z</time>
      </trkpt>
      <trkpt lat="46.55146" lon="5.60311">
        <ele>509.8</ele>
        <time>2022-05-07T14:24:41Z</time>
      </trkpt>
      <trkpt lat="46.55127" lon="5.60295">
        <ele>509.6</ele>
        <time>2022-05-07T14:24:43Z</time>
      </trkpt>
      <trkpt lat="46.55118" lon="5.60285">
        <ele>509.6</ele>
        <time>2022-05-07T14:24:44Z</time>
      </trkpt>
      <trkpt lat="46.5511" lon="5.60273">
        <ele>509.4</ele>
        <time>2022-05-07T14:24:45Z</time>
      </trkpt>
      <trkpt lat="46.55089" lon="5.60235">
        <ele>509</ele>
        <time>2022-05-07T14:24:48Z</time>
      </trkpt>
      <trkpt lat="46.55082" lon="5.60223">
        <ele>508.8</ele>
        <time>2022-05-07T14:24:49Z</time>
      </trkpt>
      <trkpt lat="46.55059" lon="5.60189">
        <ele>508.6</ele>
        <time>2022-05-07T14:24:52Z</time>
      </trkpt>
      <trkpt lat="46.5505" lon="5.6018">
        <ele>508.4</ele>
        <time>2022-05-07T14:24:53Z</time>
      </trkpt>
      <trkpt lat="46.55013" lon="5.60151">
        <ele>507.8</ele>
        <time>2022-05-07T14:24:57Z</time>
      </trkpt>
      <trkpt lat="46.54961" lon="5.60116">
        <ele>507.2</ele>
        <time>2022-05-07T14:25:02Z</time>
      </trkpt>
      <trkpt lat="46.54954" lon="5.60109">
        <ele>507</ele>
        <time>2022-05-07T14:25:03Z</time>
      </trkpt>
      <trkpt lat="46.54926" lon="5.60077">
        <ele>506.6</ele>
        <time>2022-05-07T14:25:06Z</time>
      </trkpt>
      <trkpt lat="46.54909" lon="5.60061">
        <ele>506.6</ele>
        <time>2022-05-07T14:25:08Z</time>
      </trkpt>
      <trkpt lat="46.54878" lon="5.60044">
        <ele>506.4</ele>
        <time>2022-05-07T14:25:11Z</time>
      </trkpt>
      <trkpt lat="46.54823" lon="5.60025">
        <ele>506</ele>
        <time>2022-05-07T14:25:16Z</time>
      </trkpt>
      <trkpt lat="46.54813" lon="5.60019">
        <ele>506</ele>
        <time>2022-05-07T14:25:17Z</time>
      </trkpt>
      <trkpt lat="46.54792" lon="5.6">
        <ele>505.8</ele>
        <time>2022-05-07T14:25:19Z</time>
      </trkpt>
      <trkpt lat="46.54786" lon="5.5999">
        <ele>505.6</ele>
        <time>2022-05-07T14:25:20Z</time>
      </trkpt>
      <trkpt lat="46.54763" lon="5.59954">
        <ele>505.2</ele>
        <time>2022-05-07T14:25:23Z</time>
      </trkpt>
      <trkpt lat="46.54754" lon="5.59944">
        <ele>504.8</ele>
        <time>2022-05-07T14:25:24Z</time>
      </trkpt>
      <trkpt lat="46.54744" lon="5.59935">
        <ele>504.6</ele>
        <time>2022-05-07T14:25:25Z</time>
      </trkpt>
      <trkpt lat="46.54731" lon="5.59929">
        <ele>504.4</ele>
        <time>2022-05-07T14:25:26Z</time>
      </trkpt>
      <trkpt lat="46.54722" lon="5.59928">
        <ele>504.2</ele>
        <time>2022-05-07T14:25:27Z</time>
      </trkpt>
      <trkpt lat="46.54701" lon="5.59931">
        <ele>504</ele>
        <time>2022-05-07T14:25:29Z</time>
      </trkpt>
      <trkpt lat="46.5469" lon="5.59936">
        <ele>503.8</ele>
        <time>2022-05-07T14:25:30Z</time>
      </trkpt>
      <trkpt lat="46.5467" lon="5.59948">
        <ele>503.4</ele>
        <time>2022-05-07T14:25:32Z</time>
      </trkpt>
      <trkpt lat="46.5463" lon="5.59969">
        <ele>502.6</ele>
        <time>2022-05-07T14:25:36Z</time>
      </trkpt>
      <trkpt lat="46.5461" lon="5.59977">
        <ele>502.4</ele>
        <time>2022-05-07T14:25:38Z</time>
      </trkpt>
      <trkpt lat="46.54581" lon="5.5998">
        <ele>502</ele>
        <time>2022-05-07T14:25:41Z</time>
      </trkpt>
      <trkpt lat="46.54534" lon="5.59971">
        <ele>501.8</ele>
        <time>2022-05-07T14:25:46Z</time>
      </trkpt>
      <trkpt lat="46.54476" lon="5.59949">
        <ele>501.2</ele>
        <time>2022-05-07T14:25:52Z</time>
      </trkpt>
      <trkpt lat="46.54455" lon="5.59942">
        <ele>500.8</ele>
        <time>2022-05-07T14:25:54Z</time>
      </trkpt>
      <trkpt lat="46.54429" lon="5.59933">
        <ele>500.2</ele>
        <time>2022-05-07T14:25:57Z</time>
      </trkpt>
      <trkpt lat="46.54417" lon="5.59928">
        <ele>499.8</ele>
        <time>2022-05-07T14:25:59Z</time>
      </trkpt>
      <trkpt lat="46.5441" lon="5.59921">
        <ele>499.4</ele>
        <time>2022-05-07T14:26:02Z</time>
      </trkpt>
      <trkpt lat="46.54409" lon="5.5992">
        <ele>499.4</ele>
        <time>2022-05-07T14:26:03Z</time>
      </trkpt>
      <trkpt lat="46.54408" lon="5.59919">
        <ele>499.2</ele>
        <time>2022-05-07T14:26:05Z</time>
      </trkpt>
      <trkpt lat="46.54408" lon="5.59919">
        <ele>499.2</ele>
        <time>2022-05-07T14:26:06Z</time>
      </trkpt>
      <trkpt lat="46.54407" lon="5.59917">
        <ele>499.2</ele>
        <time>2022-05-07T14:26:07Z</time>
      </trkpt>
      <trkpt lat="46.54405" lon="5.59914">
        <ele>499</ele>
        <time>2022-05-07T14:26:08Z</time>
      </trkpt>
      <trkpt lat="46.54398" lon="5.59906">
        <ele>498.8</ele>
        <time>2022-05-07T14:26:10Z</time>
      </trkpt>
      <trkpt lat="46.54395" lon="5.59901">
        <ele>498.8</ele>
        <time>2022-05-07T14:26:11Z</time>
      </trkpt>
      <trkpt lat="46.54392" lon="5.59885">
        <ele>498.8</ele>
        <time>2022-05-07T14:26:13Z</time>
      </trkpt>
      <trkpt lat="46.54398" lon="5.59837">
        <ele>498</ele>
        <time>2022-05-07T14:26:18Z</time>
      </trkpt>
      <trkpt lat="46.54399" lon="5.59827">
        <ele>498</ele>
        <time>2022-05-07T14:26:19Z</time>
      </trkpt>
      <trkpt lat="46.54407" lon="5.59764">
        <ele>497.8</ele>
        <time>2022-05-07T14:26:25Z</time>
      </trkpt>
      <trkpt lat="46.54417" lon="5.59683">
        <ele>498.4</ele>
        <time>2022-05-07T14:26:33Z</time>
      </trkpt>
      <trkpt lat="46.54418" lon="5.59673">
        <ele>498.4</ele>
        <time>2022-05-07T14:26:34Z</time>
      </trkpt>
      <trkpt lat="46.54422" lon="5.59635">
        <ele>499</ele>
        <time>2022-05-07T14:26:38Z</time>
      </trkpt>
      <trkpt lat="46.54427" lon="5.59599">
        <ele>499.4</ele>
        <time>2022-05-07T14:26:42Z</time>
      </trkpt>
      <trkpt lat="46.54428" lon="5.59582">
        <ele>500</ele>
        <time>2022-05-07T14:26:44Z</time>
      </trkpt>
      <trkpt lat="46.54435" lon="5.59526">
        <ele>501.8</ele>
        <time>2022-05-07T14:26:51Z</time>
      </trkpt>
      <trkpt lat="46.5444" lon="5.5948">
        <ele>503</ele>
        <time>2022-05-07T14:26:57Z</time>
      </trkpt>
      <trkpt lat="46.54441" lon="5.59472">
        <ele>503.2</ele>
        <time>2022-05-07T14:26:58Z</time>
      </trkpt>
      <trkpt lat="46.54447" lon="5.59426">
        <ele>504</ele>
        <time>2022-05-07T14:27:04Z</time>
      </trkpt>
      <trkpt lat="46.54449" lon="5.59404">
        <ele>504.8</ele>
        <time>2022-05-07T14:27:07Z</time>
      </trkpt>
      <trkpt lat="46.54451" lon="5.59389">
        <ele>505.2</ele>
        <time>2022-05-07T14:27:09Z</time>
      </trkpt>
      <trkpt lat="46.54456" lon="5.59345">
        <ele>506.2</ele>
        <time>2022-05-07T14:27:15Z</time>
      </trkpt>
      <trkpt lat="46.54461" lon="5.59323">
        <ele>506.4</ele>
        <time>2022-05-07T14:27:18Z</time>
      </trkpt>
      <trkpt lat="46.54468" lon="5.59304">
        <ele>507</ele>
        <time>2022-05-07T14:27:21Z</time>
      </trkpt>
      <trkpt lat="46.54474" lon="5.59292">
        <ele>507.4</ele>
        <time>2022-05-07T14:27:23Z</time>
      </trkpt>
      <trkpt lat="46.54487" lon="5.59268">
        <ele>508</ele>
        <time>2022-05-07T14:27:27Z</time>
      </trkpt>
      <trkpt lat="46.5449" lon="5.59254">
        <ele>508.4</ele>
        <time>2022-05-07T14:27:29Z</time>
      </trkpt>
      <trkpt lat="46.54492" lon="5.59245">
        <ele>508.6</ele>
        <time>2022-05-07T14:27:30Z</time>
      </trkpt>
      <trkpt lat="46.54493" lon="5.59237">
        <ele>508.6</ele>
        <time>2022-05-07T14:27:31Z</time>
      </trkpt>
      <trkpt lat="46.54496" lon="5.59169">
        <ele>509</ele>
        <time>2022-05-07T14:27:38Z</time>
      </trkpt>
      <trkpt lat="46.54506" lon="5.59091">
        <ele>509</ele>
        <time>2022-05-07T14:27:47Z</time>
      </trkpt>
      <trkpt lat="46.5451" lon="5.59051">
        <ele>509.6</ele>
        <time>2022-05-07T14:27:52Z</time>
      </trkpt>
      <trkpt lat="46.54512" lon="5.59027">
        <ele>510.6</ele>
        <time>2022-05-07T14:27:55Z</time>
      </trkpt>
      <trkpt lat="46.54512" lon="5.59019">
        <ele>510.8</ele>
        <time>2022-05-07T14:27:56Z</time>
      </trkpt>
      <trkpt lat="46.54513" lon="5.58984">
        <ele>512.2</ele>
        <time>2022-05-07T14:28:00Z</time>
      </trkpt>
      <trkpt lat="46.54514" lon="5.58965">
        <ele>512.4</ele>
        <time>2022-05-07T14:28:02Z</time>
      </trkpt>
      <trkpt lat="46.54515" lon="5.58894">
        <ele>512.2</ele>
        <time>2022-05-07T14:28:09Z</time>
      </trkpt>
      <trkpt lat="46.54516" lon="5.58813">
        <ele>512.2</ele>
        <time>2022-05-07T14:28:17Z</time>
      </trkpt>
      <trkpt lat="46.54516" lon="5.58803">
        <ele>512.2</ele>
        <time>2022-05-07T14:28:18Z</time>
      </trkpt>
      <trkpt lat="46.54518" lon="5.5872">
        <ele>512.4</ele>
        <time>2022-05-07T14:28:27Z</time>
      </trkpt>
      <trkpt lat="46.54518" lon="5.58711">
        <ele>512.8</ele>
        <time>2022-05-07T14:28:28Z</time>
      </trkpt>
      <trkpt lat="46.54521" lon="5.58676">
        <ele>513.2</ele>
        <time>2022-05-07T14:28:32Z</time>
      </trkpt>
      <trkpt lat="46.54525" lon="5.58648">
        <ele>513.6</ele>
        <time>2022-05-07T14:28:35Z</time>
      </trkpt>
      <trkpt lat="46.54533" lon="5.58577">
        <ele>513.8</ele>
        <time>2022-05-07T14:28:42Z</time>
      </trkpt>
      <trkpt lat="46.54538" lon="5.58523">
        <ele>513.8</ele>
        <time>2022-05-07T14:28:48Z</time>
      </trkpt>
      <trkpt lat="46.54542" lon="5.58477">
        <ele>514</ele>
        <time>2022-05-07T14:28:54Z</time>
      </trkpt>
      <trkpt lat="46.54542" lon="5.58463">
        <ele>514.4</ele>
        <time>2022-05-07T14:28:56Z</time>
      </trkpt>
      <trkpt lat="46.54542" lon="5.58439">
        <ele>514.8</ele>
        <time>2022-05-07T14:29:00Z</time>
      </trkpt>
      <trkpt lat="46.54541" lon="5.58435">
        <ele>515</ele>
        <time>2022-05-07T14:29:01Z</time>
      </trkpt>
      <trkpt lat="46.54534" lon="5.58428">
        <ele>515.4</ele>
        <time>2022-05-07T14:29:03Z</time>
      </trkpt>
      <trkpt lat="46.54517" lon="5.58422">
        <ele>515.4</ele>
        <time>2022-05-07T14:29:06Z</time>
      </trkpt>
      <trkpt lat="46.5451" lon="5.5842">
        <ele>515.6</ele>
        <time>2022-05-07T14:29:07Z</time>
      </trkpt>
      <trkpt lat="46.54475" lon="5.58411">
        <ele>515.4</ele>
        <time>2022-05-07T14:29:11Z</time>
      </trkpt>
      <trkpt lat="46.54427" lon="5.58395">
        <ele>514.4</ele>
        <time>2022-05-07T14:29:16Z</time>
      </trkpt>
      <trkpt lat="46.54379" lon="5.58372">
        <ele>513.2</ele>
        <time>2022-05-07T14:29:21Z</time>
      </trkpt>
      <trkpt lat="46.5436" lon="5.58362">
        <ele>512.2</ele>
        <time>2022-05-07T14:29:23Z</time>
      </trkpt>
      <trkpt lat="46.5435" lon="5.58357">
        <ele>512</ele>
        <time>2022-05-07T14:29:24Z</time>
      </trkpt>
      <trkpt lat="46.54309" lon="5.58337">
        <ele>510.6</ele>
        <time>2022-05-07T14:29:28Z</time>
      </trkpt>
      <trkpt lat="46.54288" lon="5.58327">
        <ele>510</ele>
        <time>2022-05-07T14:29:30Z</time>
      </trkpt>
      <trkpt lat="46.54268" lon="5.58316">
        <ele>509.4</ele>
        <time>2022-05-07T14:29:32Z</time>
      </trkpt>
      <trkpt lat="46.54227" lon="5.58295">
        <ele>508.4</ele>
        <time>2022-05-07T14:29:36Z</time>
      </trkpt>
      <trkpt lat="46.54217" lon="5.58289">
        <ele>508</ele>
        <time>2022-05-07T14:29:37Z</time>
      </trkpt>
      <trkpt lat="46.54199" lon="5.58276">
        <ele>507.8</ele>
        <time>2022-05-07T14:29:39Z</time>
      </trkpt>
      <trkpt lat="46.54191" lon="5.58268">
        <ele>507.8</ele>
        <time>2022-05-07T14:29:40Z</time>
      </trkpt>
      <trkpt lat="46.54185" lon="5.58258">
        <ele>507.8</ele>
        <time>2022-05-07T14:29:41Z</time>
      </trkpt>
      <trkpt lat="46.5418" lon="5.58246">
        <ele>507.8</ele>
        <time>2022-05-07T14:29:42Z</time>
      </trkpt>
      <trkpt lat="46.54177" lon="5.58233">
        <ele>508</ele>
        <time>2022-05-07T14:29:43Z</time>
      </trkpt>
      <trkpt lat="46.5417" lon="5.58196">
        <ele>509</ele>
        <time>2022-05-07T14:29:46Z</time>
      </trkpt>
      <trkpt lat="46.54163" lon="5.58176">
        <ele>509.4</ele>
        <time>2022-05-07T14:29:48Z</time>
      </trkpt>
      <trkpt lat="46.54159" lon="5.58167">
        <ele>509.8</ele>
        <time>2022-05-07T14:29:49Z</time>
      </trkpt>
      <trkpt lat="46.54155" lon="5.58158">
        <ele>510</ele>
        <time>2022-05-07T14:29:50Z</time>
      </trkpt>
      <trkpt lat="46.54145" lon="5.58143">
        <ele>510.8</ele>
        <time>2022-05-07T14:29:52Z</time>
      </trkpt>
      <trkpt lat="46.54128" lon="5.58122">
        <ele>512</ele>
        <time>2022-05-07T14:29:55Z</time>
      </trkpt>
      <trkpt lat="46.54111" lon="5.58105">
        <ele>513.2</ele>
        <time>2022-05-07T14:29:58Z</time>
      </trkpt>
      <trkpt lat="46.5409" lon="5.58084">
        <ele>514.6</ele>
        <time>2022-05-07T14:30:02Z</time>
      </trkpt>
      <trkpt lat="46.54076" lon="5.58066">
        <ele>515.6</ele>
        <time>2022-05-07T14:30:05Z</time>
      </trkpt>
      <trkpt lat="46.54064" lon="5.58049">
        <ele>516.6</ele>
        <time>2022-05-07T14:30:08Z</time>
      </trkpt>
      <trkpt lat="46.5406" lon="5.58044">
        <ele>517.2</ele>
        <time>2022-05-07T14:30:09Z</time>
      </trkpt>
      <trkpt lat="46.5405" lon="5.58035">
        <ele>517.6</ele>
        <time>2022-05-07T14:30:11Z</time>
      </trkpt>
      <trkpt lat="46.5404" lon="5.58028">
        <ele>518.2</ele>
        <time>2022-05-07T14:30:13Z</time>
      </trkpt>
      <trkpt lat="46.54034" lon="5.58023">
        <ele>518.6</ele>
        <time>2022-05-07T14:30:14Z</time>
      </trkpt>
      <trkpt lat="46.53994" lon="5.57999">
        <ele>518.6</ele>
        <time>2022-05-07T14:30:20Z</time>
      </trkpt>
      <trkpt lat="46.53953" lon="5.57985">
        <ele>517</ele>
        <time>2022-05-07T14:30:25Z</time>
      </trkpt>
      <trkpt lat="46.53909" lon="5.57978">
        <ele>516</ele>
        <time>2022-05-07T14:30:29Z</time>
      </trkpt>
      <trkpt lat="46.53897" lon="5.57976">
        <ele>515.4</ele>
        <time>2022-05-07T14:30:30Z</time>
      </trkpt>
      <trkpt lat="46.53884" lon="5.57973">
        <ele>514</ele>
        <time>2022-05-07T14:30:31Z</time>
      </trkpt>
      <trkpt lat="46.53859" lon="5.57966">
        <ele>511.6</ele>
        <time>2022-05-07T14:30:33Z</time>
      </trkpt>
      <trkpt lat="46.53833" lon="5.57957">
        <ele>509.6</ele>
        <time>2022-05-07T14:30:35Z</time>
      </trkpt>
      <trkpt lat="46.53807" lon="5.5795">
        <ele>506.8</ele>
        <time>2022-05-07T14:30:37Z</time>
      </trkpt>
      <trkpt lat="46.5378" lon="5.57943">
        <ele>505.4</ele>
        <time>2022-05-07T14:30:39Z</time>
      </trkpt>
      <trkpt lat="46.53767" lon="5.57939">
        <ele>504.2</ele>
        <time>2022-05-07T14:30:40Z</time>
      </trkpt>
      <trkpt lat="46.53754" lon="5.57935">
        <ele>504</ele>
        <time>2022-05-07T14:30:41Z</time>
      </trkpt>
      <trkpt lat="46.53727" lon="5.57927">
        <ele>503.2</ele>
        <time>2022-05-07T14:30:43Z</time>
      </trkpt>
      <trkpt lat="46.53714" lon="5.57923">
        <ele>502.2</ele>
        <time>2022-05-07T14:30:44Z</time>
      </trkpt>
      <trkpt lat="46.53675" lon="5.57911">
        <ele>500.4</ele>
        <time>2022-05-07T14:30:47Z</time>
      </trkpt>
      <trkpt lat="46.53649" lon="5.57903">
        <ele>499</ele>
        <time>2022-05-07T14:30:49Z</time>
      </trkpt>
      <trkpt lat="46.53624" lon="5.57894">
        <ele>498</ele>
        <time>2022-05-07T14:30:51Z</time>
      </trkpt>
      <trkpt lat="46.53612" lon="5.5789">
        <ele>497.6</ele>
        <time>2022-05-07T14:30:52Z</time>
      </trkpt>
      <trkpt lat="46.536" lon="5.57885">
        <ele>497</ele>
        <time>2022-05-07T14:30:53Z</time>
      </trkpt>
      <trkpt lat="46.53555" lon="5.57865">
        <ele>496.4</ele>
        <time>2022-05-07T14:30:57Z</time>
      </trkpt>
      <trkpt lat="46.53516" lon="5.57837">
        <ele>496.4</ele>
        <time>2022-05-07T14:31:01Z</time>
      </trkpt>
      <trkpt lat="46.53486" lon="5.57807">
        <ele>497.2</ele>
        <time>2022-05-07T14:31:05Z</time>
      </trkpt>
      <trkpt lat="46.53466" lon="5.57787">
        <ele>498.2</ele>
        <time>2022-05-07T14:31:08Z</time>
      </trkpt>
      <trkpt lat="46.5346" lon="5.57782">
        <ele>498.6</ele>
        <time>2022-05-07T14:31:09Z</time>
      </trkpt>
      <trkpt lat="46.53453" lon="5.57778">
        <ele>499.4</ele>
        <time>2022-05-07T14:31:10Z</time>
      </trkpt>
      <trkpt lat="46.53439" lon="5.57769">
        <ele>500.8</ele>
        <time>2022-05-07T14:31:12Z</time>
      </trkpt>
      <trkpt lat="46.53416" lon="5.57758">
        <ele>502</ele>
        <time>2022-05-07T14:31:15Z</time>
      </trkpt>
      <trkpt lat="46.53358" lon="5.57739">
        <ele>502.6</ele>
        <time>2022-05-07T14:31:22Z</time>
      </trkpt>
      <trkpt lat="46.53325" lon="5.57721">
        <ele>502.6</ele>
        <time>2022-05-07T14:31:27Z</time>
      </trkpt>
      <trkpt lat="46.53314" lon="5.57711">
        <ele>502.6</ele>
        <time>2022-05-07T14:31:29Z</time>
      </trkpt>
      <trkpt lat="46.53304" lon="5.57699">
        <ele>503.2</ele>
        <time>2022-05-07T14:31:31Z</time>
      </trkpt>
      <trkpt lat="46.533" lon="5.57693">
        <ele>503.4</ele>
        <time>2022-05-07T14:31:32Z</time>
      </trkpt>
      <trkpt lat="46.53293" lon="5.57678">
        <ele>503.8</ele>
        <time>2022-05-07T14:31:34Z</time>
      </trkpt>
      <trkpt lat="46.53288" lon="5.57661">
        <ele>504.6</ele>
        <time>2022-05-07T14:31:36Z</time>
      </trkpt>
      <trkpt lat="46.53287" lon="5.57641">
        <ele>505.2</ele>
        <time>2022-05-07T14:31:38Z</time>
      </trkpt>
      <trkpt lat="46.53288" lon="5.5762">
        <ele>505.4</ele>
        <time>2022-05-07T14:31:40Z</time>
      </trkpt>
      <trkpt lat="46.53286" lon="5.57563">
        <ele>505</ele>
        <time>2022-05-07T14:31:45Z</time>
      </trkpt>
      <trkpt lat="46.53271" lon="5.575">
        <ele>504</ele>
        <time>2022-05-07T14:31:51Z</time>
      </trkpt>
      <trkpt lat="46.53264" lon="5.5748">
        <ele>504</ele>
        <time>2022-05-07T14:31:53Z</time>
      </trkpt>
      <trkpt lat="46.5325" lon="5.57455">
        <ele>504</ele>
        <time>2022-05-07T14:31:56Z</time>
      </trkpt>
      <trkpt lat="46.53211" lon="5.57405">
        <ele>504</ele>
        <time>2022-05-07T14:32:03Z</time>
      </trkpt>
      <trkpt lat="46.53167" lon="5.57366">
        <ele>503.8</ele>
        <time>2022-05-07T14:32:09Z</time>
      </trkpt>
      <trkpt lat="46.53153" lon="5.57355">
        <ele>503.6</ele>
        <time>2022-05-07T14:32:11Z</time>
      </trkpt>
      <trkpt lat="46.5312" lon="5.57332">
        <ele>502.8</ele>
        <time>2022-05-07T14:32:15Z</time>
      </trkpt>
      <trkpt lat="46.53104" lon="5.57317">
        <ele>502.6</ele>
        <time>2022-05-07T14:32:17Z</time>
      </trkpt>
      <trkpt lat="46.5309" lon="5.57296">
        <ele>502</ele>
        <time>2022-05-07T14:32:19Z</time>
      </trkpt>
      <trkpt lat="46.53065" lon="5.57237">
        <ele>501</ele>
        <time>2022-05-07T14:32:24Z</time>
      </trkpt>
      <trkpt lat="46.53035" lon="5.57163">
        <ele>500.2</ele>
        <time>2022-05-07T14:32:30Z</time>
      </trkpt>
      <trkpt lat="46.5303" lon="5.57151">
        <ele>499.8</ele>
        <time>2022-05-07T14:32:31Z</time>
      </trkpt>
      <trkpt lat="46.53025" lon="5.57138">
        <ele>499.6</ele>
        <time>2022-05-07T14:32:32Z</time>
      </trkpt>
      <trkpt lat="46.5302" lon="5.57126">
        <ele>499</ele>
        <time>2022-05-07T14:32:33Z</time>
      </trkpt>
      <trkpt lat="46.53014" lon="5.57114">
        <ele>498.8</ele>
        <time>2022-05-07T14:32:34Z</time>
      </trkpt>
      <trkpt lat="46.53004" lon="5.57088">
        <ele>498.4</ele>
        <time>2022-05-07T14:32:36Z</time>
      </trkpt>
      <trkpt lat="46.52982" lon="5.57038">
        <ele>498</ele>
        <time>2022-05-07T14:32:41Z</time>
      </trkpt>
      <trkpt lat="46.52954" lon="5.56997">
        <ele>498.4</ele>
        <time>2022-05-07T14:32:46Z</time>
      </trkpt>
      <trkpt lat="46.52948" lon="5.56988">
        <ele>498.4</ele>
        <time>2022-05-07T14:32:47Z</time>
      </trkpt>
      <trkpt lat="46.52937" lon="5.56958">
        <ele>498.8</ele>
        <time>2022-05-07T14:32:50Z</time>
      </trkpt>
      <trkpt lat="46.52917" lon="5.56884">
        <ele>499</ele>
        <time>2022-05-07T14:32:57Z</time>
      </trkpt>
      <trkpt lat="46.52898" lon="5.56803">
        <ele>499.8</ele>
        <time>2022-05-07T14:33:05Z</time>
      </trkpt>
      <trkpt lat="46.52893" lon="5.56782">
        <ele>499.8</ele>
        <time>2022-05-07T14:33:07Z</time>
      </trkpt>
      <trkpt lat="46.52874" lon="5.56696">
        <ele>500</ele>
        <time>2022-05-07T14:33:16Z</time>
      </trkpt>
      <trkpt lat="46.52858" lon="5.56621">
        <ele>499.4</ele>
        <time>2022-05-07T14:33:23Z</time>
      </trkpt>
      <trkpt lat="46.5284" lon="5.56546">
        <ele>498.8</ele>
        <time>2022-05-07T14:33:30Z</time>
      </trkpt>
      <trkpt lat="46.52837" lon="5.56534">
        <ele>498.6</ele>
        <time>2022-05-07T14:33:31Z</time>
      </trkpt>
      <trkpt lat="46.52827" lon="5.56488">
        <ele>497.6</ele>
        <time>2022-05-07T14:33:35Z</time>
      </trkpt>
      <trkpt lat="46.52817" lon="5.5645">
        <ele>496.6</ele>
        <time>2022-05-07T14:33:38Z</time>
      </trkpt>
      <trkpt lat="46.52815" lon="5.56441">
        <ele>496.2</ele>
        <time>2022-05-07T14:33:39Z</time>
      </trkpt>
      <trkpt lat="46.52798" lon="5.56371">
        <ele>495.8</ele>
        <time>2022-05-07T14:33:45Z</time>
      </trkpt>
      <trkpt lat="46.52778" lon="5.56293">
        <ele>496</ele>
        <time>2022-05-07T14:33:52Z</time>
      </trkpt>
      <trkpt lat="46.5277" lon="5.56259">
        <ele>496.2</ele>
        <time>2022-05-07T14:33:55Z</time>
      </trkpt>
      <trkpt lat="46.52751" lon="5.56184">
        <ele>496</ele>
        <time>2022-05-07T14:34:02Z</time>
      </trkpt>
      <trkpt lat="46.52734" lon="5.56116">
        <ele>495.6</ele>
        <time>2022-05-07T14:34:09Z</time>
      </trkpt>
      <trkpt lat="46.52724" lon="5.56081">
        <ele>495.6</ele>
        <time>2022-05-07T14:34:13Z</time>
      </trkpt>
      <trkpt lat="46.52719" lon="5.56076">
        <ele>495.6</ele>
        <time>2022-05-07T14:34:14Z</time>
      </trkpt>
      <trkpt lat="46.52706" lon="5.56075">
        <ele>495.6</ele>
        <time>2022-05-07T14:34:16Z</time>
      </trkpt>
      <trkpt lat="46.527" lon="5.56078">
        <ele>495.6</ele>
        <time>2022-05-07T14:34:17Z</time>
      </trkpt>
      <trkpt lat="46.5266" lon="5.56099">
        <ele>495.4</ele>
        <time>2022-05-07T14:34:23Z</time>
      </trkpt>
      <trkpt lat="46.52646" lon="5.56105">
        <ele>495.4</ele>
        <time>2022-05-07T14:34:25Z</time>
      </trkpt>
      <trkpt lat="46.52633" lon="5.5611">
        <ele>495.4</ele>
        <time>2022-05-07T14:34:27Z</time>
      </trkpt>
      <trkpt lat="46.52623" lon="5.5611">
        <ele>495.2</ele>
        <time>2022-05-07T14:34:29Z</time>
      </trkpt>
      <trkpt lat="46.52616" lon="5.56105">
        <ele>495.4</ele>
        <time>2022-05-07T14:34:32Z</time>
      </trkpt>
      <trkpt lat="46.52617" lon="5.56083">
        <ele>495.6</ele>
        <time>2022-05-07T14:34:36Z</time>
      </trkpt>
      <trkpt lat="46.52621" lon="5.56039">
        <ele>495</ele>
        <time>2022-05-07T14:34:41Z</time>
      </trkpt>
      <trkpt lat="46.52623" lon="5.56008">
        <ele>494.4</ele>
        <time>2022-05-07T14:34:44Z</time>
      </trkpt>
      <trkpt lat="46.52626" lon="5.55967">
        <ele>494</ele>
        <time>2022-05-07T14:34:48Z</time>
      </trkpt>
      <trkpt lat="46.52633" lon="5.55886">
        <ele>493.8</ele>
        <time>2022-05-07T14:34:56Z</time>
      </trkpt>
      <trkpt lat="46.52639" lon="5.55808">
        <ele>494.2</ele>
        <time>2022-05-07T14:35:04Z</time>
      </trkpt>
      <trkpt lat="46.5264" lon="5.55798">
        <ele>494.4</ele>
        <time>2022-05-07T14:35:05Z</time>
      </trkpt>
      <trkpt lat="46.52646" lon="5.55714">
        <ele>495</ele>
        <time>2022-05-07T14:35:14Z</time>
      </trkpt>
      <trkpt lat="46.52654" lon="5.55626">
        <ele>495.4</ele>
        <time>2022-05-07T14:35:23Z</time>
      </trkpt>
      <trkpt lat="46.5266" lon="5.55547">
        <ele>495.6</ele>
        <time>2022-05-07T14:35:31Z</time>
      </trkpt>
      <trkpt lat="46.52666" lon="5.55461">
        <ele>495.4</ele>
        <time>2022-05-07T14:35:40Z</time>
      </trkpt>
      <trkpt lat="46.52667" lon="5.55451">
        <ele>495.4</ele>
        <time>2022-05-07T14:35:41Z</time>
      </trkpt>
      <trkpt lat="46.52672" lon="5.55379">
        <ele>495.4</ele>
        <time>2022-05-07T14:35:49Z</time>
      </trkpt>
      <trkpt lat="46.52678" lon="5.55311">
        <ele>496</ele>
        <time>2022-05-07T14:35:57Z</time>
      </trkpt>
      <trkpt lat="46.52681" lon="5.55269">
        <ele>496.6</ele>
        <time>2022-05-07T14:36:02Z</time>
      </trkpt>
      <trkpt lat="46.52683" lon="5.55233">
        <ele>497</ele>
        <time>2022-05-07T14:36:06Z</time>
      </trkpt>
      <trkpt lat="46.5269" lon="5.55153">
        <ele>497.6</ele>
        <time>2022-05-07T14:36:15Z</time>
      </trkpt>
      <trkpt lat="46.52691" lon="5.55144">
        <ele>497.6</ele>
        <time>2022-05-07T14:36:16Z</time>
      </trkpt>
      <trkpt lat="46.52697" lon="5.55063">
        <ele>497.6</ele>
        <time>2022-05-07T14:36:25Z</time>
      </trkpt>
      <trkpt lat="46.52698" lon="5.55055">
        <ele>497.8</ele>
        <time>2022-05-07T14:36:26Z</time>
      </trkpt>
      <trkpt lat="46.52699" lon="5.55047">
        <ele>498</ele>
        <time>2022-05-07T14:36:27Z</time>
      </trkpt>
      <trkpt lat="46.52703" lon="5.54997">
        <ele>499.2</ele>
        <time>2022-05-07T14:36:33Z</time>
      </trkpt>
      <trkpt lat="46.52704" lon="5.5498">
        <ele>499.4</ele>
        <time>2022-05-07T14:36:35Z</time>
      </trkpt>
      <trkpt lat="46.52707" lon="5.5493">
        <ele>500</ele>
        <time>2022-05-07T14:36:42Z</time>
      </trkpt>
      <trkpt lat="46.52709" lon="5.54912">
        <ele>500.2</ele>
        <time>2022-05-07T14:36:45Z</time>
      </trkpt>
      <trkpt lat="46.52711" lon="5.54887">
        <ele>500.6</ele>
        <time>2022-05-07T14:36:49Z</time>
      </trkpt>
      <trkpt lat="46.52713" lon="5.54855">
        <ele>501.2</ele>
        <time>2022-05-07T14:36:54Z</time>
      </trkpt>
      <trkpt lat="46.52716" lon="5.54816">
        <ele>502</ele>
        <time>2022-05-07T14:37:00Z</time>
      </trkpt>
      <trkpt lat="46.52717" lon="5.54797">
        <ele>502.4</ele>
        <time>2022-05-07T14:37:03Z</time>
      </trkpt>
      <trkpt lat="46.52722" lon="5.54743">
        <ele>503.2</ele>
        <time>2022-05-07T14:37:11Z</time>
      </trkpt>
      <trkpt lat="46.52723" lon="5.54729">
        <ele>503.6</ele>
        <time>2022-05-07T14:37:13Z</time>
      </trkpt>
      <trkpt lat="46.52725" lon="5.54694">
        <ele>504.6</ele>
        <time>2022-05-07T14:37:18Z</time>
      </trkpt>
      <trkpt lat="46.52726" lon="5.54689">
        <ele>504.8</ele>
        <time>2022-05-07T14:37:19Z</time>
      </trkpt>
      <trkpt lat="46.52729" lon="5.54643">
        <ele>505.6</ele>
        <time>2022-05-07T14:37:26Z</time>
      </trkpt>
      <trkpt lat="46.5273" lon="5.54637">
        <ele>505.8</ele>
        <time>2022-05-07T14:37:27Z</time>
      </trkpt>
      <trkpt lat="46.52734" lon="5.54625">
        <ele>506</ele>
        <time>2022-05-07T14:37:29Z</time>
      </trkpt>
      <trkpt lat="46.5274" lon="5.54616">
        <ele>506.2</ele>
        <time>2022-05-07T14:37:31Z</time>
      </trkpt>
      <trkpt lat="46.5275" lon="5.54608">
        <ele>506.8</ele>
        <time>2022-05-07T14:37:34Z</time>
      </trkpt>
      <trkpt lat="46.52758" lon="5.54607">
        <ele>507</ele>
        <time>2022-05-07T14:37:36Z</time>
      </trkpt>
      <trkpt lat="46.52773" lon="5.54606">
        <ele>507.8</ele>
        <time>2022-05-07T14:37:40Z</time>
      </trkpt>
      <trkpt lat="46.52785" lon="5.54607">
        <ele>509.2</ele>
        <time>2022-05-07T14:37:43Z</time>
      </trkpt>
      <trkpt lat="46.52789" lon="5.54607">
        <ele>509.4</ele>
        <time>2022-05-07T14:37:44Z</time>
      </trkpt>
      <trkpt lat="46.52809" lon="5.54609">
        <ele>510.4</ele>
        <time>2022-05-07T14:37:49Z</time>
      </trkpt>
      <trkpt lat="46.52817" lon="5.54609">
        <ele>510.8</ele>
        <time>2022-05-07T14:37:51Z</time>
      </trkpt>
      <trkpt lat="46.52823" lon="5.54609">
        <ele>511.4</ele>
        <time>2022-05-07T14:37:53Z</time>
      </trkpt>
      <trkpt lat="46.52839" lon="5.54612">
        <ele>512.8</ele>
        <time>2022-05-07T14:37:57Z</time>
      </trkpt>
      <trkpt lat="46.52849" lon="5.54613">
        <ele>513.4</ele>
        <time>2022-05-07T14:38:00Z</time>
      </trkpt>
      <trkpt lat="46.52856" lon="5.54614">
        <ele>513.8</ele>
        <time>2022-05-07T14:38:02Z</time>
      </trkpt>
      <trkpt lat="46.52875" lon="5.54616">
        <ele>515</ele>
        <time>2022-05-07T14:38:07Z</time>
      </trkpt>
      <trkpt lat="46.52898" lon="5.54617">
        <ele>516.2</ele>
        <time>2022-05-07T14:38:13Z</time>
      </trkpt>
      <trkpt lat="46.52902" lon="5.54617">
        <ele>516.2</ele>
        <time>2022-05-07T14:38:14Z</time>
      </trkpt>
      <trkpt lat="46.52923" lon="5.54618">
        <ele>516.8</ele>
        <time>2022-05-07T14:38:20Z</time>
      </trkpt>
      <trkpt lat="46.52938" lon="5.54619">
        <ele>517.2</ele>
        <time>2022-05-07T14:38:23Z</time>
      </trkpt>
      <trkpt lat="46.52948" lon="5.54619">
        <ele>517.8</ele>
        <time>2022-05-07T14:38:25Z</time>
      </trkpt>
      <trkpt lat="46.52977" lon="5.54623">
        <ele>518</ele>
        <time>2022-05-07T14:38:31Z</time>
      </trkpt>
      <trkpt lat="46.52986" lon="5.54624">
        <ele>518.4</ele>
        <time>2022-05-07T14:38:33Z</time>
      </trkpt>
      <trkpt lat="46.53015" lon="5.54627">
        <ele>519</ele>
        <time>2022-05-07T14:38:39Z</time>
      </trkpt>
      <trkpt lat="46.5302" lon="5.54628">
        <ele>519</ele>
        <time>2022-05-07T14:38:40Z</time>
      </trkpt>
      <trkpt lat="46.53034" lon="5.54632">
        <ele>519.4</ele>
        <time>2022-05-07T14:38:43Z</time>
      </trkpt>
      <trkpt lat="46.53049" lon="5.54631">
        <ele>519.8</ele>
        <time>2022-05-07T14:38:46Z</time>
      </trkpt>
      <trkpt lat="46.53066" lon="5.5463">
        <ele>520.4</ele>
        <time>2022-05-07T14:38:50Z</time>
      </trkpt>
      <trkpt lat="46.5308" lon="5.54632">
        <ele>521</ele>
        <time>2022-05-07T14:38:53Z</time>
      </trkpt>
      <trkpt lat="46.53089" lon="5.54633">
        <ele>521.2</ele>
        <time>2022-05-07T14:38:55Z</time>
      </trkpt>
      <trkpt lat="46.53099" lon="5.54632">
        <ele>521.6</ele>
        <time>2022-05-07T14:38:57Z</time>
      </trkpt>
      <trkpt lat="46.53103" lon="5.54632">
        <ele>521.8</ele>
        <time>2022-05-07T14:38:58Z</time>
      </trkpt>
      <trkpt lat="46.5313" lon="5.54638">
        <ele>522.2</ele>
        <time>2022-05-07T14:39:04Z</time>
      </trkpt>
      <trkpt lat="46.53146" lon="5.54643">
        <ele>522.8</ele>
        <time>2022-05-07T14:39:08Z</time>
      </trkpt>
      <trkpt lat="46.53152" lon="5.54645">
        <ele>523</ele>
        <time>2022-05-07T14:39:10Z</time>
      </trkpt>
      <trkpt lat="46.53169" lon="5.54648">
        <ele>523.8</ele>
        <time>2022-05-07T14:39:15Z</time>
      </trkpt>
      <trkpt lat="46.53181" lon="5.5465">
        <ele>524.6</ele>
        <time>2022-05-07T14:39:19Z</time>
      </trkpt>
      <trkpt lat="46.5319" lon="5.54651">
        <ele>525</ele>
        <time>2022-05-07T14:39:21Z</time>
      </trkpt>
      <trkpt lat="46.53203" lon="5.54652">
        <ele>526.2</ele>
        <time>2022-05-07T14:39:24Z</time>
      </trkpt>
      <trkpt lat="46.53219" lon="5.54654">
        <ele>526.8</ele>
        <time>2022-05-07T14:39:27Z</time>
      </trkpt>
      <trkpt lat="46.53241" lon="5.54657">
        <ele>527.4</ele>
        <time>2022-05-07T14:39:32Z</time>
      </trkpt>
      <trkpt lat="46.53263" lon="5.5466">
        <ele>528.2</ele>
        <time>2022-05-07T14:39:37Z</time>
      </trkpt>
      <trkpt lat="46.53267" lon="5.54661">
        <ele>528.6</ele>
        <time>2022-05-07T14:39:38Z</time>
      </trkpt>
      <trkpt lat="46.53296" lon="5.54669">
        <ele>529.4</ele>
        <time>2022-05-07T14:39:45Z</time>
      </trkpt>
      <trkpt lat="46.533" lon="5.5467">
        <ele>529.6</ele>
        <time>2022-05-07T14:39:46Z</time>
      </trkpt>
      <trkpt lat="46.53326" lon="5.54679">
        <ele>530.8</ele>
        <time>2022-05-07T14:39:52Z</time>
      </trkpt>
      <trkpt lat="46.53348" lon="5.54686">
        <ele>531.8</ele>
        <time>2022-05-07T14:39:57Z</time>
      </trkpt>
      <trkpt lat="46.5338" lon="5.54696">
        <ele>532.4</ele>
        <time>2022-05-07T14:40:04Z</time>
      </trkpt>
      <trkpt lat="46.53406" lon="5.54704">
        <ele>532.6</ele>
        <time>2022-05-07T14:40:09Z</time>
      </trkpt>
      <trkpt lat="46.53425" lon="5.54711">
        <ele>533.4</ele>
        <time>2022-05-07T14:40:13Z</time>
      </trkpt>
      <trkpt lat="46.5344" lon="5.54716">
        <ele>533.8</ele>
        <time>2022-05-07T14:40:16Z</time>
      </trkpt>
      <trkpt lat="46.53444" lon="5.54718">
        <ele>534</ele>
        <time>2022-05-07T14:40:17Z</time>
      </trkpt>
      <trkpt lat="46.53462" lon="5.54724">
        <ele>534.2</ele>
        <time>2022-05-07T14:40:21Z</time>
      </trkpt>
      <trkpt lat="46.53503" lon="5.54739">
        <ele>535</ele>
        <time>2022-05-07T14:40:30Z</time>
      </trkpt>
      <trkpt lat="46.53507" lon="5.5474">
        <ele>535.4</ele>
        <time>2022-05-07T14:40:31Z</time>
      </trkpt>
      <trkpt lat="46.53521" lon="5.54744">
        <ele>536.6</ele>
        <time>2022-05-07T14:40:34Z</time>
      </trkpt>
      <trkpt lat="46.53534" lon="5.54748">
        <ele>536.8</ele>
        <time>2022-05-07T14:40:37Z</time>
      </trkpt>
      <trkpt lat="46.53561" lon="5.54757">
        <ele>537.4</ele>
        <time>2022-05-07T14:40:43Z</time>
      </trkpt>
      <trkpt lat="46.5357" lon="5.5476">
        <ele>537.8</ele>
        <time>2022-05-07T14:40:45Z</time>
      </trkpt>
      <trkpt lat="46.53592" lon="5.54767">
        <ele>538.6</ele>
        <time>2022-05-07T14:40:50Z</time>
      </trkpt>
      <trkpt lat="46.5361" lon="5.54772">
        <ele>539.8</ele>
        <time>2022-05-07T14:40:54Z</time>
      </trkpt>
      <trkpt lat="46.53614" lon="5.54773">
        <ele>540</ele>
        <time>2022-05-07T14:40:55Z</time>
      </trkpt>
      <trkpt lat="46.53653" lon="5.54787">
        <ele>540.6</ele>
        <time>2022-05-07T14:41:04Z</time>
      </trkpt>
      <trkpt lat="46.53661" lon="5.5479">
        <ele>540.8</ele>
        <time>2022-05-07T14:41:06Z</time>
      </trkpt>
      <trkpt lat="46.53689" lon="5.548">
        <ele>542.2</ele>
        <time>2022-05-07T14:41:13Z</time>
      </trkpt>
      <trkpt lat="46.53724" lon="5.54813">
        <ele>542.6</ele>
        <time>2022-05-07T14:41:22Z</time>
      </trkpt>
      <trkpt lat="46.53754" lon="5.54823">
        <ele>543.2</ele>
        <time>2022-05-07T14:41:30Z</time>
      </trkpt>
      <trkpt lat="46.53762" lon="5.54824">
        <ele>543.2</ele>
        <time>2022-05-07T14:41:32Z</time>
      </trkpt>
      <trkpt lat="46.5379" lon="5.54822">
        <ele>544</ele>
        <time>2022-05-07T14:41:39Z</time>
      </trkpt>
      <trkpt lat="46.5382" lon="5.54816">
        <ele>545.2</ele>
        <time>2022-05-07T14:41:46Z</time>
      </trkpt>
      <trkpt lat="46.53824" lon="5.54815">
        <ele>545.2</ele>
        <time>2022-05-07T14:41:47Z</time>
      </trkpt>
      <trkpt lat="46.53853" lon="5.54808">
        <ele>546</ele>
        <time>2022-05-07T14:41:53Z</time>
      </trkpt>
      <trkpt lat="46.53862" lon="5.54806">
        <ele>546.6</ele>
        <time>2022-05-07T14:41:55Z</time>
      </trkpt>
      <trkpt lat="46.53872" lon="5.54805">
        <ele>546.6</ele>
        <time>2022-05-07T14:41:57Z</time>
      </trkpt>
      <trkpt lat="46.5389" lon="5.54799">
        <ele>547.2</ele>
        <time>2022-05-07T14:42:01Z</time>
      </trkpt>
      <trkpt lat="46.53899" lon="5.54796">
        <ele>547.6</ele>
        <time>2022-05-07T14:42:03Z</time>
      </trkpt>
      <trkpt lat="46.53922" lon="5.54784">
        <ele>547.8</ele>
        <time>2022-05-07T14:42:08Z</time>
      </trkpt>
      <trkpt lat="46.53964" lon="5.54746">
        <ele>548.4</ele>
        <time>2022-05-07T14:42:18Z</time>
      </trkpt>
      <trkpt lat="46.53968" lon="5.54741">
        <ele>548.6</ele>
        <time>2022-05-07T14:42:19Z</time>
      </trkpt>
      <trkpt lat="46.53986" lon="5.54712">
        <ele>548.6</ele>
        <time>2022-05-07T14:42:24Z</time>
      </trkpt>
      <trkpt lat="46.53997" lon="5.54691">
        <ele>549</ele>
        <time>2022-05-07T14:42:27Z</time>
      </trkpt>
      <trkpt lat="46.54004" lon="5.54666">
        <ele>549</ele>
        <time>2022-05-07T14:42:30Z</time>
      </trkpt>
      <trkpt lat="46.54013" lon="5.5464">
        <ele>548.6</ele>
        <time>2022-05-07T14:42:33Z</time>
      </trkpt>
      <trkpt lat="46.54018" lon="5.5462">
        <ele>548.4</ele>
        <time>2022-05-07T14:42:35Z</time>
      </trkpt>
      <trkpt lat="46.54022" lon="5.546">
        <ele>547.2</ele>
        <time>2022-05-07T14:42:37Z</time>
      </trkpt>
      <trkpt lat="46.54035" lon="5.54551">
        <ele>546.4</ele>
        <time>2022-05-07T14:42:42Z</time>
      </trkpt>
      <trkpt lat="46.54037" lon="5.54542">
        <ele>546.4</ele>
        <time>2022-05-07T14:42:43Z</time>
      </trkpt>
      <trkpt lat="46.54052" lon="5.54493">
        <ele>546</ele>
        <time>2022-05-07T14:42:48Z</time>
      </trkpt>
      <trkpt lat="46.5407" lon="5.54426">
        <ele>545.6</ele>
        <time>2022-05-07T14:42:55Z</time>
      </trkpt>
      <trkpt lat="46.54079" lon="5.54396">
        <ele>544.8</ele>
        <time>2022-05-07T14:42:58Z</time>
      </trkpt>
      <trkpt lat="46.54091" lon="5.54354">
        <ele>543.8</ele>
        <time>2022-05-07T14:43:02Z</time>
      </trkpt>
      <trkpt lat="46.54097" lon="5.54333">
        <ele>543.2</ele>
        <time>2022-05-07T14:43:04Z</time>
      </trkpt>
      <trkpt lat="46.54103" lon="5.54309">
        <ele>542.6</ele>
        <time>2022-05-07T14:43:06Z</time>
      </trkpt>
      <trkpt lat="46.54112" lon="5.54272">
        <ele>541.2</ele>
        <time>2022-05-07T14:43:09Z</time>
      </trkpt>
      <trkpt lat="46.54123" lon="5.54231">
        <ele>540.2</ele>
        <time>2022-05-07T14:43:12Z</time>
      </trkpt>
      <trkpt lat="46.5413" lon="5.54203">
        <ele>538.8</ele>
        <time>2022-05-07T14:43:14Z</time>
      </trkpt>
      <trkpt lat="46.54141" lon="5.54161">
        <ele>538</ele>
        <time>2022-05-07T14:43:17Z</time>
      </trkpt>
      <trkpt lat="46.54145" lon="5.54148">
        <ele>537.4</ele>
        <time>2022-05-07T14:43:18Z</time>
      </trkpt>
      <trkpt lat="46.54152" lon="5.5412">
        <ele>536.4</ele>
        <time>2022-05-07T14:43:20Z</time>
      </trkpt>
      <trkpt lat="46.5416" lon="5.54091">
        <ele>535.2</ele>
        <time>2022-05-07T14:43:22Z</time>
      </trkpt>
      <trkpt lat="46.54164" lon="5.54077">
        <ele>534.2</ele>
        <time>2022-05-07T14:43:23Z</time>
      </trkpt>
      <trkpt lat="46.54175" lon="5.54036">
        <ele>533</ele>
        <time>2022-05-07T14:43:26Z</time>
      </trkpt>
      <trkpt lat="46.54195" lon="5.53958">
        <ele>532.2</ele>
        <time>2022-05-07T14:43:32Z</time>
      </trkpt>
      <trkpt lat="46.542" lon="5.53931">
        <ele>532</ele>
        <time>2022-05-07T14:43:34Z</time>
      </trkpt>
      <trkpt lat="46.54202" lon="5.53891">
        <ele>531.8</ele>
        <time>2022-05-07T14:43:37Z</time>
      </trkpt>
      <trkpt lat="46.54203" lon="5.53813">
        <ele>532.2</ele>
        <time>2022-05-07T14:43:43Z</time>
      </trkpt>
      <trkpt lat="46.54205" lon="5.53732">
        <ele>531.8</ele>
        <time>2022-05-07T14:43:49Z</time>
      </trkpt>
      <trkpt lat="46.54206" lon="5.53718">
        <ele>531.8</ele>
        <time>2022-05-07T14:43:50Z</time>
      </trkpt>
      <trkpt lat="46.54211" lon="5.53679">
        <ele>531.2</ele>
        <time>2022-05-07T14:43:53Z</time>
      </trkpt>
      <trkpt lat="46.54214" lon="5.53667">
        <ele>530.8</ele>
        <time>2022-05-07T14:43:54Z</time>
      </trkpt>
      <trkpt lat="46.54218" lon="5.53655">
        <ele>530.6</ele>
        <time>2022-05-07T14:43:55Z</time>
      </trkpt>
      <trkpt lat="46.54234" lon="5.53623">
        <ele>530.2</ele>
        <time>2022-05-07T14:43:58Z</time>
      </trkpt>
      <trkpt lat="46.54267" lon="5.53556">
        <ele>529.4</ele>
        <time>2022-05-07T14:44:04Z</time>
      </trkpt>
      <trkpt lat="46.54276" lon="5.53533">
        <ele>529.2</ele>
        <time>2022-05-07T14:44:06Z</time>
      </trkpt>
      <trkpt lat="46.5428" lon="5.53521">
        <ele>529</ele>
        <time>2022-05-07T14:44:07Z</time>
      </trkpt>
      <trkpt lat="46.54292" lon="5.53486">
        <ele>528.6</ele>
        <time>2022-05-07T14:44:10Z</time>
      </trkpt>
      <trkpt lat="46.54301" lon="5.53465">
        <ele>528.4</ele>
        <time>2022-05-07T14:44:12Z</time>
      </trkpt>
      <trkpt lat="46.54307" lon="5.53456">
        <ele>528.2</ele>
        <time>2022-05-07T14:44:13Z</time>
      </trkpt>
      <trkpt lat="46.54314" lon="5.53447">
        <ele>528</ele>
        <time>2022-05-07T14:44:14Z</time>
      </trkpt>
      <trkpt lat="46.54342" lon="5.53411">
        <ele>527.4</ele>
        <time>2022-05-07T14:44:18Z</time>
      </trkpt>
      <trkpt lat="46.54352" lon="5.53386">
        <ele>527.4</ele>
        <time>2022-05-07T14:44:20Z</time>
      </trkpt>
      <trkpt lat="46.54355" lon="5.53373">
        <ele>527.2</ele>
        <time>2022-05-07T14:44:21Z</time>
      </trkpt>
      <trkpt lat="46.54365" lon="5.5332">
        <ele>526</ele>
        <time>2022-05-07T14:44:25Z</time>
      </trkpt>
      <trkpt lat="46.5437" lon="5.53308">
        <ele>525.8</ele>
        <time>2022-05-07T14:44:26Z</time>
      </trkpt>
      <trkpt lat="46.54376" lon="5.53298">
        <ele>525.6</ele>
        <time>2022-05-07T14:44:27Z</time>
      </trkpt>
      <trkpt lat="46.5439" lon="5.53279">
        <ele>525</ele>
        <time>2022-05-07T14:44:29Z</time>
      </trkpt>
      <trkpt lat="46.54398" lon="5.53272">
        <ele>524.4</ele>
        <time>2022-05-07T14:44:30Z</time>
      </trkpt>
      <trkpt lat="46.54406" lon="5.53266">
        <ele>523.8</ele>
        <time>2022-05-07T14:44:31Z</time>
      </trkpt>
      <trkpt lat="46.54415" lon="5.53262">
        <ele>523</ele>
        <time>2022-05-07T14:44:32Z</time>
      </trkpt>
      <trkpt lat="46.54433" lon="5.53257">
        <ele>521.6</ele>
        <time>2022-05-07T14:44:34Z</time>
      </trkpt>
      <trkpt lat="46.54442" lon="5.53256">
        <ele>520.2</ele>
        <time>2022-05-07T14:44:35Z</time>
      </trkpt>
      <trkpt lat="46.5446" lon="5.53252">
        <ele>518.6</ele>
        <time>2022-05-07T14:44:37Z</time>
      </trkpt>
      <trkpt lat="46.5447" lon="5.5325">
        <ele>518.2</ele>
        <time>2022-05-07T14:44:38Z</time>
      </trkpt>
      <trkpt lat="46.54479" lon="5.53248">
        <ele>517.2</ele>
        <time>2022-05-07T14:44:39Z</time>
      </trkpt>
      <trkpt lat="46.54498" lon="5.53244">
        <ele>516.2</ele>
        <time>2022-05-07T14:44:41Z</time>
      </trkpt>
      <trkpt lat="46.5452" lon="5.53239">
        <ele>515</ele>
        <time>2022-05-07T14:44:43Z</time>
      </trkpt>
      <trkpt lat="46.5453" lon="5.53237">
        <ele>513.8</ele>
        <time>2022-05-07T14:44:44Z</time>
      </trkpt>
      <trkpt lat="46.54547" lon="5.53233">
        <ele>512.8</ele>
        <time>2022-05-07T14:44:46Z</time>
      </trkpt>
      <trkpt lat="46.54566" lon="5.53228">
        <ele>512.2</ele>
        <time>2022-05-07T14:44:48Z</time>
      </trkpt>
      <trkpt lat="46.54576" lon="5.53225">
        <ele>511.4</ele>
        <time>2022-05-07T14:44:49Z</time>
      </trkpt>
      <trkpt lat="46.54595" lon="5.53218">
        <ele>509.8</ele>
        <time>2022-05-07T14:44:51Z</time>
      </trkpt>
      <trkpt lat="46.54622" lon="5.53207">
        <ele>508.8</ele>
        <time>2022-05-07T14:44:54Z</time>
      </trkpt>
      <trkpt lat="46.54631" lon="5.53204">
        <ele>508.4</ele>
        <time>2022-05-07T14:44:55Z</time>
      </trkpt>
      <trkpt lat="46.54648" lon="5.53198">
        <ele>507.8</ele>
        <time>2022-05-07T14:44:57Z</time>
      </trkpt>
      <trkpt lat="46.54667" lon="5.53195">
        <ele>506.8</ele>
        <time>2022-05-07T14:44:59Z</time>
      </trkpt>
      <trkpt lat="46.54677" lon="5.53194">
        <ele>506.2</ele>
        <time>2022-05-07T14:45:00Z</time>
      </trkpt>
      <trkpt lat="46.54696" lon="5.53195">
        <ele>505.2</ele>
        <time>2022-05-07T14:45:02Z</time>
      </trkpt>
      <trkpt lat="46.54725" lon="5.53199">
        <ele>503.6</ele>
        <time>2022-05-07T14:45:05Z</time>
      </trkpt>
      <trkpt lat="46.54734" lon="5.53199">
        <ele>502.8</ele>
        <time>2022-05-07T14:45:06Z</time>
      </trkpt>
      <trkpt lat="46.54745" lon="5.53199">
        <ele>501.6</ele>
        <time>2022-05-07T14:45:07Z</time>
      </trkpt>
      <trkpt lat="46.54762" lon="5.53197">
        <ele>500.6</ele>
        <time>2022-05-07T14:45:09Z</time>
      </trkpt>
      <trkpt lat="46.54782" lon="5.53191">
        <ele>500</ele>
        <time>2022-05-07T14:45:11Z</time>
      </trkpt>
      <trkpt lat="46.54797" lon="5.53183">
        <ele>499.6</ele>
        <time>2022-05-07T14:45:13Z</time>
      </trkpt>
      <trkpt lat="46.5484" lon="5.53161">
        <ele>498.4</ele>
        <time>2022-05-07T14:45:18Z</time>
      </trkpt>
      <trkpt lat="46.54856" lon="5.53152">
        <ele>497.8</ele>
        <time>2022-05-07T14:45:20Z</time>
      </trkpt>
      <trkpt lat="46.54878" lon="5.53133">
        <ele>497.2</ele>
        <time>2022-05-07T14:45:23Z</time>
      </trkpt>
      <trkpt lat="46.54884" lon="5.53125">
        <ele>497.2</ele>
        <time>2022-05-07T14:45:24Z</time>
      </trkpt>
      <trkpt lat="46.5489" lon="5.53115">
        <ele>497.2</ele>
        <time>2022-05-07T14:45:25Z</time>
      </trkpt>
      <trkpt lat="46.54912" lon="5.5307">
        <ele>497</ele>
        <time>2022-05-07T14:45:29Z</time>
      </trkpt>
      <trkpt lat="46.54933" lon="5.53025">
        <ele>496</ele>
        <time>2022-05-07T14:45:33Z</time>
      </trkpt>
      <trkpt lat="46.54942" lon="5.53004">
        <ele>495</ele>
        <time>2022-05-07T14:45:35Z</time>
      </trkpt>
      <trkpt lat="46.54946" lon="5.52991">
        <ele>494.6</ele>
        <time>2022-05-07T14:45:36Z</time>
      </trkpt>
      <trkpt lat="46.54955" lon="5.52951">
        <ele>493.8</ele>
        <time>2022-05-07T14:45:39Z</time>
      </trkpt>
      <trkpt lat="46.54961" lon="5.52923">
        <ele>493.4</ele>
        <time>2022-05-07T14:45:41Z</time>
      </trkpt>
      <trkpt lat="46.54968" lon="5.52897">
        <ele>492.6</ele>
        <time>2022-05-07T14:45:43Z</time>
      </trkpt>
      <trkpt lat="46.54983" lon="5.52862">
        <ele>491.2</ele>
        <time>2022-05-07T14:45:46Z</time>
      </trkpt>
      <trkpt lat="46.55001" lon="5.52834">
        <ele>489.8</ele>
        <time>2022-05-07T14:45:49Z</time>
      </trkpt>
      <trkpt lat="46.55007" lon="5.52825">
        <ele>489.6</ele>
        <time>2022-05-07T14:45:50Z</time>
      </trkpt>
      <trkpt lat="46.55025" lon="5.52802">
        <ele>488.6</ele>
        <time>2022-05-07T14:45:53Z</time>
      </trkpt>
      <trkpt lat="46.55035" lon="5.52786">
        <ele>488.4</ele>
        <time>2022-05-07T14:45:55Z</time>
      </trkpt>
      <trkpt lat="46.55065" lon="5.52726">
        <ele>488.6</ele>
        <time>2022-05-07T14:46:02Z</time>
      </trkpt>
      <trkpt lat="46.55076" lon="5.52691">
        <ele>488.6</ele>
        <time>2022-05-07T14:46:06Z</time>
      </trkpt>
      <trkpt lat="46.55076" lon="5.52682">
        <ele>488.4</ele>
        <time>2022-05-07T14:46:07Z</time>
      </trkpt>
      <trkpt lat="46.55074" lon="5.52674">
        <ele>488.4</ele>
        <time>2022-05-07T14:46:08Z</time>
      </trkpt>
      <trkpt lat="46.55066" lon="5.52659">
        <ele>488.2</ele>
        <time>2022-05-07T14:46:10Z</time>
      </trkpt>
      <trkpt lat="46.55029" lon="5.52609">
        <ele>487.8</ele>
        <time>2022-05-07T14:46:17Z</time>
      </trkpt>
      <trkpt lat="46.54989" lon="5.52555">
        <ele>487.8</ele>
        <time>2022-05-07T14:46:24Z</time>
      </trkpt>
      <trkpt lat="46.54984" lon="5.52546">
        <ele>487.8</ele>
        <time>2022-05-07T14:46:25Z</time>
      </trkpt>
      <trkpt lat="46.54953" lon="5.52494">
        <ele>488</ele>
        <time>2022-05-07T14:46:31Z</time>
      </trkpt>
      <trkpt lat="46.54939" lon="5.52472">
        <ele>488.6</ele>
        <time>2022-05-07T14:46:34Z</time>
      </trkpt>
      <trkpt lat="46.54928" lon="5.52459">
        <ele>488.6</ele>
        <time>2022-05-07T14:46:36Z</time>
      </trkpt>
      <trkpt lat="46.54922" lon="5.52453">
        <ele>488.8</ele>
        <time>2022-05-07T14:46:37Z</time>
      </trkpt>
      <trkpt lat="46.54909" lon="5.52445">
        <ele>489</ele>
        <time>2022-05-07T14:46:39Z</time>
      </trkpt>
      <trkpt lat="46.54903" lon="5.52442">
        <ele>489</ele>
        <time>2022-05-07T14:46:40Z</time>
      </trkpt>
      <trkpt lat="46.5489" lon="5.52438">
        <ele>489.8</ele>
        <time>2022-05-07T14:46:42Z</time>
      </trkpt>
      <trkpt lat="46.54871" lon="5.52438">
        <ele>490.8</ele>
        <time>2022-05-07T14:46:45Z</time>
      </trkpt>
      <trkpt lat="46.54864" lon="5.52438">
        <ele>491</ele>
        <time>2022-05-07T14:46:46Z</time>
      </trkpt>
      <trkpt lat="46.54833" lon="5.52444">
        <ele>492.2</ele>
        <time>2022-05-07T14:46:51Z</time>
      </trkpt>
      <trkpt lat="46.5479" lon="5.52446">
        <ele>493.2</ele>
        <time>2022-05-07T14:46:58Z</time>
      </trkpt>
      <trkpt lat="46.54784" lon="5.52447">
        <ele>493.2</ele>
        <time>2022-05-07T14:46:59Z</time>
      </trkpt>
      <trkpt lat="46.54744" lon="5.5245">
        <ele>494.4</ele>
        <time>2022-05-07T14:47:06Z</time>
      </trkpt>
      <trkpt lat="46.54738" lon="5.52451">
        <ele>494.4</ele>
        <time>2022-05-07T14:47:07Z</time>
      </trkpt>
      <trkpt lat="46.54695" lon="5.52452">
        <ele>495</ele>
        <time>2022-05-07T14:47:14Z</time>
      </trkpt>
      <trkpt lat="46.54674" lon="5.52449">
        <ele>495.4</ele>
        <time>2022-05-07T14:47:17Z</time>
      </trkpt>
      <trkpt lat="46.54644" lon="5.52445">
        <ele>495.4</ele>
        <time>2022-05-07T14:47:21Z</time>
      </trkpt>
      <trkpt lat="46.54636" lon="5.52443">
        <ele>495.4</ele>
        <time>2022-05-07T14:47:22Z</time>
      </trkpt>
      <trkpt lat="46.54589" lon="5.52434">
        <ele>495.2</ele>
        <time>2022-05-07T14:47:28Z</time>
      </trkpt>
      <trkpt lat="46.54543" lon="5.52422">
        <ele>495.2</ele>
        <time>2022-05-07T14:47:34Z</time>
      </trkpt>
      <trkpt lat="46.54504" lon="5.52413">
        <ele>495.6</ele>
        <time>2022-05-07T14:47:39Z</time>
      </trkpt>
      <trkpt lat="46.54446" lon="5.52401">
        <ele>495.8</ele>
        <time>2022-05-07T14:47:47Z</time>
      </trkpt>
      <trkpt lat="46.54402" lon="5.52398">
        <ele>496.4</ele>
        <time>2022-05-07T14:47:53Z</time>
      </trkpt>
      <trkpt lat="46.54395" lon="5.52398">
        <ele>496.6</ele>
        <time>2022-05-07T14:47:54Z</time>
      </trkpt>
      <trkpt lat="46.54381" lon="5.52396">
        <ele>496.6</ele>
        <time>2022-05-07T14:47:56Z</time>
      </trkpt>
      <trkpt lat="46.54359" lon="5.52388">
        <ele>496.8</ele>
        <time>2022-05-07T14:47:59Z</time>
      </trkpt>
      <trkpt lat="46.54346" lon="5.52381">
        <ele>497</ele>
        <time>2022-05-07T14:48:01Z</time>
      </trkpt>
      <trkpt lat="46.54333" lon="5.52373">
        <ele>497.2</ele>
        <time>2022-05-07T14:48:03Z</time>
      </trkpt>
      <trkpt lat="46.54326" lon="5.5237">
        <ele>497.8</ele>
        <time>2022-05-07T14:48:04Z</time>
      </trkpt>
      <trkpt lat="46.5432" lon="5.52366">
        <ele>498</ele>
        <time>2022-05-07T14:48:05Z</time>
      </trkpt>
      <trkpt lat="46.54299" lon="5.52358">
        <ele>499</ele>
        <time>2022-05-07T14:48:08Z</time>
      </trkpt>
      <trkpt lat="46.54265" lon="5.52345">
        <ele>499.8</ele>
        <time>2022-05-07T14:48:13Z</time>
      </trkpt>
      <trkpt lat="46.54237" lon="5.52337">
        <ele>500.2</ele>
        <time>2022-05-07T14:48:17Z</time>
      </trkpt>
      <trkpt lat="46.54217" lon="5.5233">
        <ele>500.2</ele>
        <time>2022-05-07T14:48:20Z</time>
      </trkpt>
      <trkpt lat="46.5416" lon="5.52311">
        <ele>500.4</ele>
        <time>2022-05-07T14:48:28Z</time>
      </trkpt>
      <trkpt lat="46.54153" lon="5.52309">
        <ele>500.6</ele>
        <time>2022-05-07T14:48:29Z</time>
      </trkpt>
      <trkpt lat="46.54116" lon="5.52287">
        <ele>500.6</ele>
        <time>2022-05-07T14:48:34Z</time>
      </trkpt>
      <trkpt lat="46.54064" lon="5.52252">
        <ele>500</ele>
        <time>2022-05-07T14:48:41Z</time>
      </trkpt>
      <trkpt lat="46.54018" lon="5.52226">
        <ele>499.8</ele>
        <time>2022-05-07T14:48:47Z</time>
      </trkpt>
      <trkpt lat="46.54003" lon="5.52219">
        <ele>499.8</ele>
        <time>2022-05-07T14:48:49Z</time>
      </trkpt>
      <trkpt lat="46.5395" lon="5.52194">
        <ele>500.2</ele>
        <time>2022-05-07T14:48:56Z</time>
      </trkpt>
      <trkpt lat="46.53942" lon="5.52189">
        <ele>500.2</ele>
        <time>2022-05-07T14:48:57Z</time>
      </trkpt>
      <trkpt lat="46.53895" lon="5.52147">
        <ele>500.8</ele>
        <time>2022-05-07T14:49:04Z</time>
      </trkpt>
      <trkpt lat="46.53857" lon="5.52109">
        <ele>501</ele>
        <time>2022-05-07T14:49:10Z</time>
      </trkpt>
      <trkpt lat="46.53851" lon="5.52102">
        <ele>501</ele>
        <time>2022-05-07T14:49:11Z</time>
      </trkpt>
      <trkpt lat="46.53845" lon="5.52093">
        <ele>501</ele>
        <time>2022-05-07T14:49:12Z</time>
      </trkpt>
      <trkpt lat="46.53827" lon="5.52059">
        <ele>502</ele>
        <time>2022-05-07T14:49:16Z</time>
      </trkpt>
      <trkpt lat="46.53821" lon="5.52051">
        <ele>502</ele>
        <time>2022-05-07T14:49:17Z</time>
      </trkpt>
      <trkpt lat="46.53786" lon="5.52012">
        <ele>502.8</ele>
        <time>2022-05-07T14:49:23Z</time>
      </trkpt>
      <trkpt lat="46.53751" lon="5.51988">
        <ele>503</ele>
        <time>2022-05-07T14:49:28Z</time>
      </trkpt>
      <trkpt lat="46.53744" lon="5.51983">
        <ele>503.2</ele>
        <time>2022-05-07T14:49:29Z</time>
      </trkpt>
      <trkpt lat="46.53705" lon="5.51959">
        <ele>504.2</ele>
        <time>2022-05-07T14:49:35Z</time>
      </trkpt>
      <trkpt lat="46.53673" lon="5.51935">
        <ele>505.2</ele>
        <time>2022-05-07T14:49:40Z</time>
      </trkpt>
      <trkpt lat="46.53667" lon="5.51929">
        <ele>505.6</ele>
        <time>2022-05-07T14:49:41Z</time>
      </trkpt>
      <trkpt lat="46.5364" lon="5.51894">
        <ele>506.4</ele>
        <time>2022-05-07T14:49:46Z</time>
      </trkpt>
      <trkpt lat="46.53634" lon="5.51887">
        <ele>506.4</ele>
        <time>2022-05-07T14:49:47Z</time>
      </trkpt>
      <trkpt lat="46.53599" lon="5.51836">
        <ele>506.6</ele>
        <time>2022-05-07T14:49:54Z</time>
      </trkpt>
      <trkpt lat="46.53574" lon="5.51789">
        <ele>507.2</ele>
        <time>2022-05-07T14:50:00Z</time>
      </trkpt>
      <trkpt lat="46.53569" lon="5.51782">
        <ele>507.2</ele>
        <time>2022-05-07T14:50:01Z</time>
      </trkpt>
      <trkpt lat="46.53538" lon="5.5175">
        <ele>508.4</ele>
        <time>2022-05-07T14:50:07Z</time>
      </trkpt>
      <trkpt lat="46.53533" lon="5.51745">
        <ele>508.4</ele>
        <time>2022-05-07T14:50:08Z</time>
      </trkpt>
      <trkpt lat="46.53497" lon="5.5171">
        <ele>509.2</ele>
        <time>2022-05-07T14:50:15Z</time>
      </trkpt>
      <trkpt lat="46.53492" lon="5.51705">
        <ele>509.4</ele>
        <time>2022-05-07T14:50:16Z</time>
      </trkpt>
      <trkpt lat="46.53476" lon="5.5169">
        <ele>509.8</ele>
        <time>2022-05-07T14:50:19Z</time>
      </trkpt>
      <trkpt lat="46.53466" lon="5.51683">
        <ele>509.8</ele>
        <time>2022-05-07T14:50:21Z</time>
      </trkpt>
      <trkpt lat="46.53433" lon="5.51661">
        <ele>510.6</ele>
        <time>2022-05-07T14:50:27Z</time>
      </trkpt>
      <trkpt lat="46.53422" lon="5.51655">
        <ele>510.8</ele>
        <time>2022-05-07T14:50:29Z</time>
      </trkpt>
      <trkpt lat="46.53406" lon="5.51645">
        <ele>511.6</ele>
        <time>2022-05-07T14:50:32Z</time>
      </trkpt>
      <trkpt lat="46.53382" lon="5.51629">
        <ele>512.8</ele>
        <time>2022-05-07T14:50:37Z</time>
      </trkpt>
      <trkpt lat="46.53372" lon="5.51623">
        <ele>513.2</ele>
        <time>2022-05-07T14:50:39Z</time>
      </trkpt>
      <trkpt lat="46.53352" lon="5.5161">
        <ele>513.8</ele>
        <time>2022-05-07T14:50:43Z</time>
      </trkpt>
      <trkpt lat="46.53322" lon="5.51591">
        <ele>514.8</ele>
        <time>2022-05-07T14:50:49Z</time>
      </trkpt>
      <trkpt lat="46.53317" lon="5.51588">
        <ele>514.8</ele>
        <time>2022-05-07T14:50:50Z</time>
      </trkpt>
      <trkpt lat="46.53293" lon="5.51574">
        <ele>516.2</ele>
        <time>2022-05-07T14:50:55Z</time>
      </trkpt>
      <trkpt lat="46.53279" lon="5.51565">
        <ele>517</ele>
        <time>2022-05-07T14:50:58Z</time>
      </trkpt>
      <trkpt lat="46.5327" lon="5.5156">
        <ele>517.4</ele>
        <time>2022-05-07T14:51:00Z</time>
      </trkpt>
      <trkpt lat="46.53241" lon="5.5155">
        <ele>518.4</ele>
        <time>2022-05-07T14:51:06Z</time>
      </trkpt>
      <trkpt lat="46.53221" lon="5.51548">
        <ele>519.6</ele>
        <time>2022-05-07T14:51:10Z</time>
      </trkpt>
      <trkpt lat="46.53202" lon="5.51549">
        <ele>520.4</ele>
        <time>2022-05-07T14:51:14Z</time>
      </trkpt>
      <trkpt lat="46.53187" lon="5.5155">
        <ele>521.2</ele>
        <time>2022-05-07T14:51:17Z</time>
      </trkpt>
      <trkpt lat="46.53167" lon="5.51553">
        <ele>522.2</ele>
        <time>2022-05-07T14:51:21Z</time>
      </trkpt>
      <trkpt lat="46.53162" lon="5.51553">
        <ele>522.4</ele>
        <time>2022-05-07T14:51:22Z</time>
      </trkpt>
      <trkpt lat="46.53148" lon="5.51555">
        <ele>523.2</ele>
        <time>2022-05-07T14:51:25Z</time>
      </trkpt>
      <trkpt lat="46.53116" lon="5.51555">
        <ele>524.4</ele>
        <time>2022-05-07T14:51:32Z</time>
      </trkpt>
      <trkpt lat="46.53111" lon="5.51555">
        <ele>524.8</ele>
        <time>2022-05-07T14:51:33Z</time>
      </trkpt>
      <trkpt lat="46.53092" lon="5.5155">
        <ele>525.6</ele>
        <time>2022-05-07T14:51:37Z</time>
      </trkpt>
      <trkpt lat="46.53072" lon="5.51543">
        <ele>526.2</ele>
        <time>2022-05-07T14:51:41Z</time>
      </trkpt>
      <trkpt lat="46.53044" lon="5.51528">
        <ele>526.6</ele>
        <time>2022-05-07T14:51:46Z</time>
      </trkpt>
      <trkpt lat="46.53004" lon="5.51497">
        <ele>526.4</ele>
        <time>2022-05-07T14:51:53Z</time>
      </trkpt>
      <trkpt lat="46.52963" lon="5.51453">
        <ele>526</ele>
        <time>2022-05-07T14:52:00Z</time>
      </trkpt>
      <trkpt lat="46.52923" lon="5.5142">
        <ele>525.8</ele>
        <time>2022-05-07T14:52:06Z</time>
      </trkpt>
      <trkpt lat="46.52881" lon="5.51399">
        <ele>525.6</ele>
        <time>2022-05-07T14:52:12Z</time>
      </trkpt>
      <trkpt lat="46.52825" lon="5.51371">
        <ele>526.6</ele>
        <time>2022-05-07T14:52:20Z</time>
      </trkpt>
      <trkpt lat="46.52769" lon="5.51341">
        <ele>527.4</ele>
        <time>2022-05-07T14:52:28Z</time>
      </trkpt>
      <trkpt lat="46.52762" lon="5.51337">
        <ele>527.6</ele>
        <time>2022-05-07T14:52:29Z</time>
      </trkpt>
      <trkpt lat="46.52741" lon="5.51326">
        <ele>527.8</ele>
        <time>2022-05-07T14:52:32Z</time>
      </trkpt>
      <trkpt lat="46.52721" lon="5.51314">
        <ele>528.2</ele>
        <time>2022-05-07T14:52:35Z</time>
      </trkpt>
      <trkpt lat="46.527" lon="5.51301">
        <ele>528.6</ele>
        <time>2022-05-07T14:52:38Z</time>
      </trkpt>
      <trkpt lat="46.52687" lon="5.51292">
        <ele>529</ele>
        <time>2022-05-07T14:52:40Z</time>
      </trkpt>
      <trkpt lat="46.52673" lon="5.51283">
        <ele>529.6</ele>
        <time>2022-05-07T14:52:42Z</time>
      </trkpt>
      <trkpt lat="46.52666" lon="5.5128">
        <ele>529.8</ele>
        <time>2022-05-07T14:52:43Z</time>
      </trkpt>
      <trkpt lat="46.52609" lon="5.51252">
        <ele>530.6</ele>
        <time>2022-05-07T14:52:51Z</time>
      </trkpt>
      <trkpt lat="46.52596" lon="5.51246">
        <ele>531</ele>
        <time>2022-05-07T14:52:53Z</time>
      </trkpt>
      <trkpt lat="46.52555" lon="5.51227">
        <ele>532</ele>
        <time>2022-05-07T14:52:59Z</time>
      </trkpt>
      <trkpt lat="46.52549" lon="5.51224">
        <ele>532</ele>
        <time>2022-05-07T14:53:00Z</time>
      </trkpt>
      <trkpt lat="46.52511" lon="5.51206">
        <ele>533</ele>
        <time>2022-05-07T14:53:06Z</time>
      </trkpt>
      <trkpt lat="46.52498" lon="5.51199">
        <ele>533.4</ele>
        <time>2022-05-07T14:53:08Z</time>
      </trkpt>
      <trkpt lat="46.5248" lon="5.51189">
        <ele>534.2</ele>
        <time>2022-05-07T14:53:11Z</time>
      </trkpt>
      <trkpt lat="46.52455" lon="5.51174">
        <ele>535.2</ele>
        <time>2022-05-07T14:53:15Z</time>
      </trkpt>
      <trkpt lat="46.52442" lon="5.51167">
        <ele>535.4</ele>
        <time>2022-05-07T14:53:17Z</time>
      </trkpt>
      <trkpt lat="46.5241" lon="5.51146">
        <ele>536.2</ele>
        <time>2022-05-07T14:53:22Z</time>
      </trkpt>
      <trkpt lat="46.52403" lon="5.51143">
        <ele>536.4</ele>
        <time>2022-05-07T14:53:23Z</time>
      </trkpt>
      <trkpt lat="46.52351" lon="5.51109">
        <ele>536.4</ele>
        <time>2022-05-07T14:53:31Z</time>
      </trkpt>
      <trkpt lat="46.52304" lon="5.5108">
        <ele>536</ele>
        <time>2022-05-07T14:53:37Z</time>
      </trkpt>
      <trkpt lat="46.5227" lon="5.51058">
        <ele>535</ele>
        <time>2022-05-07T14:53:41Z</time>
      </trkpt>
      <trkpt lat="46.52235" lon="5.51034">
        <ele>533.2</ele>
        <time>2022-05-07T14:53:45Z</time>
      </trkpt>
      <trkpt lat="46.52219" lon="5.5102">
        <ele>532.2</ele>
        <time>2022-05-07T14:53:47Z</time>
      </trkpt>
      <trkpt lat="46.52203" lon="5.51006">
        <ele>531.6</ele>
        <time>2022-05-07T14:53:49Z</time>
      </trkpt>
      <trkpt lat="46.5219" lon="5.50988">
        <ele>531.4</ele>
        <time>2022-05-07T14:53:51Z</time>
      </trkpt>
      <trkpt lat="46.52168" lon="5.50951">
        <ele>531.2</ele>
        <time>2022-05-07T14:53:55Z</time>
      </trkpt>
      <trkpt lat="46.52163" lon="5.50942">
        <ele>531.2</ele>
        <time>2022-05-07T14:53:56Z</time>
      </trkpt>
      <trkpt lat="46.52146" lon="5.50922">
        <ele>531.8</ele>
        <time>2022-05-07T14:53:59Z</time>
      </trkpt>
      <trkpt lat="46.52132" lon="5.5091">
        <ele>532.2</ele>
        <time>2022-05-07T14:54:01Z</time>
      </trkpt>
      <trkpt lat="46.5211" lon="5.50892">
        <ele>532.2</ele>
        <time>2022-05-07T14:54:04Z</time>
      </trkpt>
      <trkpt lat="46.52071" lon="5.50869">
        <ele>532.2</ele>
        <time>2022-05-07T14:54:09Z</time>
      </trkpt>
      <trkpt lat="46.52027" lon="5.50848">
        <ele>532.2</ele>
        <time>2022-05-07T14:54:15Z</time>
      </trkpt>
      <trkpt lat="46.51982" lon="5.50833">
        <ele>532.8</ele>
        <time>2022-05-07T14:54:21Z</time>
      </trkpt>
      <trkpt lat="46.5196" lon="5.50832">
        <ele>533.4</ele>
        <time>2022-05-07T14:54:24Z</time>
      </trkpt>
      <trkpt lat="46.51939" lon="5.50835">
        <ele>534.2</ele>
        <time>2022-05-07T14:54:27Z</time>
      </trkpt>
      <trkpt lat="46.51924" lon="5.50838">
        <ele>534.6</ele>
        <time>2022-05-07T14:54:29Z</time>
      </trkpt>
      <trkpt lat="46.51895" lon="5.50836">
        <ele>535.2</ele>
        <time>2022-05-07T14:54:33Z</time>
      </trkpt>
      <trkpt lat="46.51874" lon="5.50829">
        <ele>535.8</ele>
        <time>2022-05-07T14:54:36Z</time>
      </trkpt>
      <trkpt lat="46.51854" lon="5.50817">
        <ele>536.4</ele>
        <time>2022-05-07T14:54:39Z</time>
      </trkpt>
      <trkpt lat="46.51828" lon="5.50802">
        <ele>537</ele>
        <time>2022-05-07T14:54:43Z</time>
      </trkpt>
      <trkpt lat="46.51804" lon="5.50786">
        <ele>537.6</ele>
        <time>2022-05-07T14:54:47Z</time>
      </trkpt>
      <trkpt lat="46.51798" lon="5.50782">
        <ele>538.2</ele>
        <time>2022-05-07T14:54:48Z</time>
      </trkpt>
      <trkpt lat="46.51773" lon="5.50766">
        <ele>539.6</ele>
        <time>2022-05-07T14:54:52Z</time>
      </trkpt>
      <trkpt lat="46.51761" lon="5.50757">
        <ele>539.8</ele>
        <time>2022-05-07T14:54:54Z</time>
      </trkpt>
      <trkpt lat="46.51724" lon="5.50731">
        <ele>539.8</ele>
        <time>2022-05-07T14:54:59Z</time>
      </trkpt>
      <trkpt lat="46.51716" lon="5.50726">
        <ele>539.6</ele>
        <time>2022-05-07T14:55:00Z</time>
      </trkpt>
      <trkpt lat="46.51689" lon="5.50717">
        <ele>539</ele>
        <time>2022-05-07T14:55:03Z</time>
      </trkpt>
      <trkpt lat="46.51671" lon="5.50713">
        <ele>538.4</ele>
        <time>2022-05-07T14:55:05Z</time>
      </trkpt>
      <trkpt lat="46.51633" lon="5.50702">
        <ele>537.2</ele>
        <time>2022-05-07T14:55:09Z</time>
      </trkpt>
      <trkpt lat="46.5158" lon="5.50679">
        <ele>536.2</ele>
        <time>2022-05-07T14:55:15Z</time>
      </trkpt>
      <trkpt lat="46.51571" lon="5.50676">
        <ele>536</ele>
        <time>2022-05-07T14:55:16Z</time>
      </trkpt>
      <trkpt lat="46.51527" lon="5.5067">
        <ele>535.8</ele>
        <time>2022-05-07T14:55:21Z</time>
      </trkpt>
      <trkpt lat="46.51466" lon="5.50669">
        <ele>535.6</ele>
        <time>2022-05-07T14:55:28Z</time>
      </trkpt>
      <trkpt lat="46.51457" lon="5.50668">
        <ele>535.8</ele>
        <time>2022-05-07T14:55:29Z</time>
      </trkpt>
      <trkpt lat="46.51414" lon="5.50654">
        <ele>535.8</ele>
        <time>2022-05-07T14:55:34Z</time>
      </trkpt>
      <trkpt lat="46.5137" lon="5.50644">
        <ele>535.8</ele>
        <time>2022-05-07T14:55:39Z</time>
      </trkpt>
      <trkpt lat="46.51315" lon="5.50637">
        <ele>535.4</ele>
        <time>2022-05-07T14:55:45Z</time>
      </trkpt>
      <trkpt lat="46.51305" lon="5.50636">
        <ele>535.2</ele>
        <time>2022-05-07T14:55:46Z</time>
      </trkpt>
      <trkpt lat="46.51296" lon="5.50634">
        <ele>535.2</ele>
        <time>2022-05-07T14:55:47Z</time>
      </trkpt>
      <trkpt lat="46.51257" lon="5.5063">
        <ele>534</ele>
        <time>2022-05-07T14:55:51Z</time>
      </trkpt>
      <trkpt lat="46.51218" lon="5.50629">
        <ele>533.6</ele>
        <time>2022-05-07T14:55:55Z</time>
      </trkpt>
      <trkpt lat="46.51167" lon="5.50635">
        <ele>533</ele>
        <time>2022-05-07T14:56:00Z</time>
      </trkpt>
      <trkpt lat="46.51157" lon="5.50637">
        <ele>533</ele>
        <time>2022-05-07T14:56:01Z</time>
      </trkpt>
      <trkpt lat="46.51114" lon="5.5064">
        <ele>532</ele>
        <time>2022-05-07T14:56:05Z</time>
      </trkpt>
      <trkpt lat="46.51093" lon="5.50637">
        <ele>531.8</ele>
        <time>2022-05-07T14:56:07Z</time>
      </trkpt>
      <trkpt lat="46.51061" lon="5.50629">
        <ele>530.4</ele>
        <time>2022-05-07T14:56:10Z</time>
      </trkpt>
      <trkpt lat="46.51019" lon="5.50618">
        <ele>529.2</ele>
        <time>2022-05-07T14:56:14Z</time>
      </trkpt>
      <trkpt lat="46.50989" lon="5.5061">
        <ele>528.2</ele>
        <time>2022-05-07T14:56:17Z</time>
      </trkpt>
      <trkpt lat="46.50927" lon="5.50602">
        <ele>527.8</ele>
        <time>2022-05-07T14:56:23Z</time>
      </trkpt>
      <trkpt lat="46.50877" lon="5.50612">
        <ele>527.4</ele>
        <time>2022-05-07T14:56:28Z</time>
      </trkpt>
      <trkpt lat="46.5083" lon="5.50614">
        <ele>527.6</ele>
        <time>2022-05-07T14:56:33Z</time>
      </trkpt>
      <trkpt lat="46.50774" lon="5.5061">
        <ele>528</ele>
        <time>2022-05-07T14:56:39Z</time>
      </trkpt>
      <trkpt lat="46.50765" lon="5.50608">
        <ele>528</ele>
        <time>2022-05-07T14:56:40Z</time>
      </trkpt>
      <trkpt lat="46.50723" lon="5.50587">
        <ele>528.2</ele>
        <time>2022-05-07T14:56:45Z</time>
      </trkpt>
      <trkpt lat="46.50707" lon="5.5058">
        <ele>528.2</ele>
        <time>2022-05-07T14:56:47Z</time>
      </trkpt>
      <trkpt lat="46.50689" lon="5.50578">
        <ele>528.6</ele>
        <time>2022-05-07T14:56:49Z</time>
      </trkpt>
      <trkpt lat="46.50662" lon="5.50573">
        <ele>529.2</ele>
        <time>2022-05-07T14:56:52Z</time>
      </trkpt>
      <trkpt lat="46.50644" lon="5.50564">
        <ele>529.4</ele>
        <time>2022-05-07T14:56:54Z</time>
      </trkpt>
      <trkpt lat="46.50608" lon="5.50531">
        <ele>529.6</ele>
        <time>2022-05-07T14:56:59Z</time>
      </trkpt>
      <trkpt lat="46.50581" lon="5.50496">
        <ele>529.4</ele>
        <time>2022-05-07T14:57:03Z</time>
      </trkpt>
      <trkpt lat="46.50573" lon="5.50488">
        <ele>529.2</ele>
        <time>2022-05-07T14:57:04Z</time>
      </trkpt>
      <trkpt lat="46.50534" lon="5.50465">
        <ele>528</ele>
        <time>2022-05-07T14:57:08Z</time>
      </trkpt>
      <trkpt lat="46.50513" lon="5.50461">
        <ele>526.8</ele>
        <time>2022-05-07T14:57:10Z</time>
      </trkpt>
      <trkpt lat="46.50502" lon="5.50461">
        <ele>526.6</ele>
        <time>2022-05-07T14:57:11Z</time>
      </trkpt>
      <trkpt lat="46.50492" lon="5.50462">
        <ele>526.4</ele>
        <time>2022-05-07T14:57:12Z</time>
      </trkpt>
      <trkpt lat="46.50481" lon="5.50463">
        <ele>525.6</ele>
        <time>2022-05-07T14:57:13Z</time>
      </trkpt>
      <trkpt lat="46.50471" lon="5.50463">
        <ele>525</ele>
        <time>2022-05-07T14:57:14Z</time>
      </trkpt>
      <trkpt lat="46.50462" lon="5.50461">
        <ele>524.4</ele>
        <time>2022-05-07T14:57:15Z</time>
      </trkpt>
      <trkpt lat="46.50443" lon="5.50453">
        <ele>523.8</ele>
        <time>2022-05-07T14:57:17Z</time>
      </trkpt>
      <trkpt lat="46.50424" lon="5.50445">
        <ele>523.4</ele>
        <time>2022-05-07T14:57:19Z</time>
      </trkpt>
      <trkpt lat="46.50386" lon="5.50431">
        <ele>522</ele>
        <time>2022-05-07T14:57:23Z</time>
      </trkpt>
      <trkpt lat="46.50327" lon="5.50421">
        <ele>520.8</ele>
        <time>2022-05-07T14:57:29Z</time>
      </trkpt>
      <trkpt lat="46.50317" lon="5.50423">
        <ele>520.6</ele>
        <time>2022-05-07T14:57:30Z</time>
      </trkpt>
      <trkpt lat="46.50297" lon="5.50434">
        <ele>519.6</ele>
        <time>2022-05-07T14:57:32Z</time>
      </trkpt>
      <trkpt lat="46.5027" lon="5.50456">
        <ele>518.6</ele>
        <time>2022-05-07T14:57:35Z</time>
      </trkpt>
      <trkpt lat="46.50261" lon="5.50463">
        <ele>518</ele>
        <time>2022-05-07T14:57:36Z</time>
      </trkpt>
      <trkpt lat="46.50251" lon="5.50467">
        <ele>517.6</ele>
        <time>2022-05-07T14:57:37Z</time>
      </trkpt>
      <trkpt lat="46.50241" lon="5.50467">
        <ele>516.8</ele>
        <time>2022-05-07T14:57:38Z</time>
      </trkpt>
      <trkpt lat="46.50232" lon="5.50463">
        <ele>516.6</ele>
        <time>2022-05-07T14:57:39Z</time>
      </trkpt>
      <trkpt lat="46.50213" lon="5.50449">
        <ele>515.8</ele>
        <time>2022-05-07T14:57:41Z</time>
      </trkpt>
      <trkpt lat="46.50194" lon="5.50435">
        <ele>515</ele>
        <time>2022-05-07T14:57:43Z</time>
      </trkpt>
      <trkpt lat="46.50184" lon="5.50429">
        <ele>514.6</ele>
        <time>2022-05-07T14:57:44Z</time>
      </trkpt>
      <trkpt lat="46.50155" lon="5.50413">
        <ele>513.4</ele>
        <time>2022-05-07T14:57:47Z</time>
      </trkpt>
      <trkpt lat="46.50137" lon="5.50405">
        <ele>512.8</ele>
        <time>2022-05-07T14:57:49Z</time>
      </trkpt>
      <trkpt lat="46.50113" lon="5.50397">
        <ele>512</ele>
        <time>2022-05-07T14:57:52Z</time>
      </trkpt>
      <trkpt lat="46.50105" lon="5.50395">
        <ele>511.8</ele>
        <time>2022-05-07T14:57:53Z</time>
      </trkpt>
      <trkpt lat="46.501" lon="5.50396">
        <ele>511.6</ele>
        <time>2022-05-07T14:57:54Z</time>
      </trkpt>
      <trkpt lat="46.50088" lon="5.50404">
        <ele>511.6</ele>
        <time>2022-05-07T14:57:56Z</time>
      </trkpt>
      <trkpt lat="46.50075" lon="5.5042">
        <ele>511</ele>
        <time>2022-05-07T14:57:58Z</time>
      </trkpt>
      <trkpt lat="46.50068" lon="5.50429">
        <ele>511</ele>
        <time>2022-05-07T14:57:59Z</time>
      </trkpt>
      <trkpt lat="46.50029" lon="5.50484">
        <ele>511</ele>
        <time>2022-05-07T14:58:05Z</time>
      </trkpt>
      <trkpt lat="46.49994" lon="5.50512">
        <ele>511.6</ele>
        <time>2022-05-07T14:58:10Z</time>
      </trkpt>
      <trkpt lat="46.49965" lon="5.50528">
        <ele>512</ele>
        <time>2022-05-07T14:58:14Z</time>
      </trkpt>
      <trkpt lat="46.49958" lon="5.50529">
        <ele>512.6</ele>
        <time>2022-05-07T14:58:15Z</time>
      </trkpt>
      <trkpt lat="46.49951" lon="5.5053">
        <ele>512.8</ele>
        <time>2022-05-07T14:58:16Z</time>
      </trkpt>
      <trkpt lat="46.49929" lon="5.50524">
        <ele>513.2</ele>
        <time>2022-05-07T14:58:19Z</time>
      </trkpt>
      <trkpt lat="46.4989" lon="5.50501">
        <ele>513.2</ele>
        <time>2022-05-07T14:58:24Z</time>
      </trkpt>
      <trkpt lat="46.49844" lon="5.50471">
        <ele>512.8</ele>
        <time>2022-05-07T14:58:30Z</time>
      </trkpt>
      <trkpt lat="46.49786" lon="5.50454">
        <ele>512.8</ele>
        <time>2022-05-07T14:58:37Z</time>
      </trkpt>
      <trkpt lat="46.4977" lon="5.50449">
        <ele>512.8</ele>
        <time>2022-05-07T14:58:39Z</time>
      </trkpt>
      <trkpt lat="46.49755" lon="5.5044">
        <ele>512.8</ele>
        <time>2022-05-07T14:58:41Z</time>
      </trkpt>
      <trkpt lat="46.49741" lon="5.50428">
        <ele>512.8</ele>
        <time>2022-05-07T14:58:43Z</time>
      </trkpt>
      <trkpt lat="46.4973" lon="5.50413">
        <ele>512.8</ele>
        <time>2022-05-07T14:58:45Z</time>
      </trkpt>
      <trkpt lat="46.49722" lon="5.50398">
        <ele>513</ele>
        <time>2022-05-07T14:58:47Z</time>
      </trkpt>
      <trkpt lat="46.49717" lon="5.50391">
        <ele>513.2</ele>
        <time>2022-05-07T14:58:48Z</time>
      </trkpt>
      <trkpt lat="46.49708" lon="5.50378">
        <ele>513.6</ele>
        <time>2022-05-07T14:58:50Z</time>
      </trkpt>
      <trkpt lat="46.49697" lon="5.50366">
        <ele>514</ele>
        <time>2022-05-07T14:58:52Z</time>
      </trkpt>
      <trkpt lat="46.49679" lon="5.50344">
        <ele>514.8</ele>
        <time>2022-05-07T14:58:55Z</time>
      </trkpt>
      <trkpt lat="46.49669" lon="5.5033">
        <ele>515.4</ele>
        <time>2022-05-07T14:58:57Z</time>
      </trkpt>
      <trkpt lat="46.4966" lon="5.50315">
        <ele>515.8</ele>
        <time>2022-05-07T14:58:59Z</time>
      </trkpt>
      <trkpt lat="46.49625" lon="5.50255">
        <ele>516.2</ele>
        <time>2022-05-07T14:59:06Z</time>
      </trkpt>
      <trkpt lat="46.49594" lon="5.50205">
        <ele>515.2</ele>
        <time>2022-05-07T14:59:11Z</time>
      </trkpt>
      <trkpt lat="46.49581" lon="5.50181">
        <ele>514.2</ele>
        <time>2022-05-07T14:59:13Z</time>
      </trkpt>
      <trkpt lat="46.49562" lon="5.50144">
        <ele>512.6</ele>
        <time>2022-05-07T14:59:16Z</time>
      </trkpt>
      <trkpt lat="46.49556" lon="5.5013">
        <ele>512.4</ele>
        <time>2022-05-07T14:59:17Z</time>
      </trkpt>
      <trkpt lat="46.49551" lon="5.50116">
        <ele>511.8</ele>
        <time>2022-05-07T14:59:18Z</time>
      </trkpt>
      <trkpt lat="46.49547" lon="5.50101">
        <ele>511.6</ele>
        <time>2022-05-07T14:59:19Z</time>
      </trkpt>
      <trkpt lat="46.49543" lon="5.50085">
        <ele>510</ele>
        <time>2022-05-07T14:59:20Z</time>
      </trkpt>
      <trkpt lat="46.49537" lon="5.50054">
        <ele>508.6</ele>
        <time>2022-05-07T14:59:22Z</time>
      </trkpt>
      <trkpt lat="46.49532" lon="5.5004">
        <ele>508</ele>
        <time>2022-05-07T14:59:23Z</time>
      </trkpt>
      <trkpt lat="46.49528" lon="5.50027">
        <ele>507.8</ele>
        <time>2022-05-07T14:59:24Z</time>
      </trkpt>
      <trkpt lat="46.49522" lon="5.50014">
        <ele>507.4</ele>
        <time>2022-05-07T14:59:25Z</time>
      </trkpt>
      <trkpt lat="46.495" lon="5.49968">
        <ele>507.2</ele>
        <time>2022-05-07T14:59:29Z</time>
      </trkpt>
      <trkpt lat="46.49463" lon="5.49892">
        <ele>506.6</ele>
        <time>2022-05-07T14:59:35Z</time>
      </trkpt>
      <trkpt lat="46.49456" lon="5.49879">
        <ele>506.4</ele>
        <time>2022-05-07T14:59:36Z</time>
      </trkpt>
      <trkpt lat="46.49443" lon="5.49853">
        <ele>505.2</ele>
        <time>2022-05-07T14:59:38Z</time>
      </trkpt>
      <trkpt lat="46.4943" lon="5.49828">
        <ele>504.4</ele>
        <time>2022-05-07T14:59:40Z</time>
      </trkpt>
      <trkpt lat="46.49407" lon="5.49784">
        <ele>504.4</ele>
        <time>2022-05-07T14:59:44Z</time>
      </trkpt>
      <trkpt lat="46.49389" lon="5.4973">
        <ele>505.6</ele>
        <time>2022-05-07T14:59:49Z</time>
      </trkpt>
      <trkpt lat="46.49377" lon="5.4969">
        <ele>506.2</ele>
        <time>2022-05-07T14:59:53Z</time>
      </trkpt>
      <trkpt lat="46.49373" lon="5.49682">
        <ele>506.4</ele>
        <time>2022-05-07T14:59:54Z</time>
      </trkpt>
      <trkpt lat="46.49368" lon="5.49675">
        <ele>506.6</ele>
        <time>2022-05-07T14:59:55Z</time>
      </trkpt>
      <trkpt lat="46.49356" lon="5.49665">
        <ele>507.2</ele>
        <time>2022-05-07T14:59:57Z</time>
      </trkpt>
      <trkpt lat="46.49349" lon="5.49661">
        <ele>507.4</ele>
        <time>2022-05-07T14:59:58Z</time>
      </trkpt>
      <trkpt lat="46.49315" lon="5.49645">
        <ele>508.2</ele>
        <time>2022-05-07T15:00:03Z</time>
      </trkpt>
      <trkpt lat="46.49301" lon="5.49638">
        <ele>508.6</ele>
        <time>2022-05-07T15:00:05Z</time>
      </trkpt>
      <trkpt lat="46.49282" lon="5.49624">
        <ele>508.8</ele>
        <time>2022-05-07T15:00:08Z</time>
      </trkpt>
      <trkpt lat="46.49276" lon="5.49617">
        <ele>509</ele>
        <time>2022-05-07T15:00:09Z</time>
      </trkpt>
      <trkpt lat="46.49247" lon="5.49576">
        <ele>508.8</ele>
        <time>2022-05-07T15:00:14Z</time>
      </trkpt>
      <trkpt lat="46.49238" lon="5.49553">
        <ele>508</ele>
        <time>2022-05-07T15:00:16Z</time>
      </trkpt>
      <trkpt lat="46.49237" lon="5.4954">
        <ele>507.4</ele>
        <time>2022-05-07T15:00:17Z</time>
      </trkpt>
      <trkpt lat="46.49238" lon="5.49527">
        <ele>507.2</ele>
        <time>2022-05-07T15:00:18Z</time>
      </trkpt>
      <trkpt lat="46.49245" lon="5.49502">
        <ele>506.6</ele>
        <time>2022-05-07T15:00:20Z</time>
      </trkpt>
      <trkpt lat="46.4925" lon="5.4949">
        <ele>506.4</ele>
        <time>2022-05-07T15:00:21Z</time>
      </trkpt>
      <trkpt lat="46.49264" lon="5.49455">
        <ele>505.8</ele>
        <time>2022-05-07T15:00:24Z</time>
      </trkpt>
      <trkpt lat="46.49267" lon="5.49442">
        <ele>505.4</ele>
        <time>2022-05-07T15:00:25Z</time>
      </trkpt>
      <trkpt lat="46.49275" lon="5.49418">
        <ele>504.2</ele>
        <time>2022-05-07T15:00:27Z</time>
      </trkpt>
      <trkpt lat="46.49282" lon="5.49379">
        <ele>503.4</ele>
        <time>2022-05-07T15:00:30Z</time>
      </trkpt>
      <trkpt lat="46.49286" lon="5.49352">
        <ele>503</ele>
        <time>2022-05-07T15:00:32Z</time>
      </trkpt>
      <trkpt lat="46.49293" lon="5.49283">
        <ele>502.6</ele>
        <time>2022-05-07T15:00:37Z</time>
      </trkpt>
      <trkpt lat="46.4929" lon="5.49255">
        <ele>502.6</ele>
        <time>2022-05-07T15:00:39Z</time>
      </trkpt>
      <trkpt lat="46.49284" lon="5.49226">
        <ele>502.2</ele>
        <time>2022-05-07T15:00:41Z</time>
      </trkpt>
      <trkpt lat="46.49279" lon="5.49211">
        <ele>501.6</ele>
        <time>2022-05-07T15:00:42Z</time>
      </trkpt>
      <trkpt lat="46.49262" lon="5.49153">
        <ele>500.2</ele>
        <time>2022-05-07T15:00:46Z</time>
      </trkpt>
      <trkpt lat="46.49253" lon="5.49125">
        <ele>499.8</ele>
        <time>2022-05-07T15:00:48Z</time>
      </trkpt>
      <trkpt lat="46.49232" lon="5.49056">
        <ele>499.4</ele>
        <time>2022-05-07T15:00:53Z</time>
      </trkpt>
      <trkpt lat="46.49225" lon="5.4903">
        <ele>499</ele>
        <time>2022-05-07T15:00:55Z</time>
      </trkpt>
      <trkpt lat="46.49201" lon="5.48957">
        <ele>498.8</ele>
        <time>2022-05-07T15:01:01Z</time>
      </trkpt>
      <trkpt lat="46.49197" lon="5.48945">
        <ele>498.8</ele>
        <time>2022-05-07T15:01:02Z</time>
      </trkpt>
      <trkpt lat="46.49169" lon="5.48866">
        <ele>498.6</ele>
        <time>2022-05-07T15:01:09Z</time>
      </trkpt>
      <trkpt lat="46.49165" lon="5.48856">
        <ele>498.4</ele>
        <time>2022-05-07T15:01:10Z</time>
      </trkpt>
      <trkpt lat="46.49139" lon="5.48794">
        <ele>499.4</ele>
        <time>2022-05-07T15:01:17Z</time>
      </trkpt>
      <trkpt lat="46.49112" lon="5.48739">
        <ele>499</ele>
        <time>2022-05-07T15:01:23Z</time>
      </trkpt>
      <trkpt lat="46.49092" lon="5.48716">
        <ele>498.4</ele>
        <time>2022-05-07T15:01:26Z</time>
      </trkpt>
      <trkpt lat="46.49085" lon="5.4871">
        <ele>498.2</ele>
        <time>2022-05-07T15:01:27Z</time>
      </trkpt>
      <trkpt lat="46.4906" lon="5.48687">
        <ele>497.8</ele>
        <time>2022-05-07T15:01:31Z</time>
      </trkpt>
      <trkpt lat="46.4905" lon="5.48675">
        <ele>497.8</ele>
        <time>2022-05-07T15:01:33Z</time>
      </trkpt>
      <trkpt lat="46.49036" lon="5.48656">
        <ele>499.2</ele>
        <time>2022-05-07T15:01:36Z</time>
      </trkpt>
      <trkpt lat="46.49022" lon="5.48637">
        <ele>500.2</ele>
        <time>2022-05-07T15:01:39Z</time>
      </trkpt>
      <trkpt lat="46.49018" lon="5.48631">
        <ele>500.4</ele>
        <time>2022-05-07T15:01:40Z</time>
      </trkpt>
      <trkpt lat="46.48999" lon="5.48602">
        <ele>500.8</ele>
        <time>2022-05-07T15:01:44Z</time>
      </trkpt>
      <trkpt lat="46.48994" lon="5.48594">
        <ele>500.8</ele>
        <time>2022-05-07T15:01:45Z</time>
      </trkpt>
      <trkpt lat="46.48969" lon="5.48537">
        <ele>499.6</ele>
        <time>2022-05-07T15:01:51Z</time>
      </trkpt>
      <trkpt lat="46.48959" lon="5.48522">
        <ele>499.6</ele>
        <time>2022-05-07T15:01:53Z</time>
      </trkpt>
      <trkpt lat="46.48948" lon="5.4851">
        <ele>499.6</ele>
        <time>2022-05-07T15:01:55Z</time>
      </trkpt>
      <trkpt lat="46.48907" lon="5.48469">
        <ele>499.2</ele>
        <time>2022-05-07T15:02:01Z</time>
      </trkpt>
      <trkpt lat="46.48899" lon="5.48462">
        <ele>499</ele>
        <time>2022-05-07T15:02:02Z</time>
      </trkpt>
      <trkpt lat="46.48892" lon="5.48455">
        <ele>497.8</ele>
        <time>2022-05-07T15:02:03Z</time>
      </trkpt>
      <trkpt lat="46.48884" lon="5.48447">
        <ele>496.4</ele>
        <time>2022-05-07T15:02:04Z</time>
      </trkpt>
      <trkpt lat="46.48876" lon="5.4844">
        <ele>495.8</ele>
        <time>2022-05-07T15:02:05Z</time>
      </trkpt>
      <trkpt lat="46.48869" lon="5.48432">
        <ele>495.2</ele>
        <time>2022-05-07T15:02:06Z</time>
      </trkpt>
      <trkpt lat="46.48845" lon="5.4841">
        <ele>493.8</ele>
        <time>2022-05-07T15:02:09Z</time>
      </trkpt>
      <trkpt lat="46.48829" lon="5.48394">
        <ele>492.6</ele>
        <time>2022-05-07T15:02:11Z</time>
      </trkpt>
      <trkpt lat="46.48801" lon="5.4837">
        <ele>491.4</ele>
        <time>2022-05-07T15:02:14Z</time>
      </trkpt>
      <trkpt lat="46.48791" lon="5.48361">
        <ele>490.6</ele>
        <time>2022-05-07T15:02:15Z</time>
      </trkpt>
      <trkpt lat="46.48781" lon="5.48352">
        <ele>490.2</ele>
        <time>2022-05-07T15:02:16Z</time>
      </trkpt>
      <trkpt lat="46.48771" lon="5.48342">
        <ele>489.4</ele>
        <time>2022-05-07T15:02:17Z</time>
      </trkpt>
      <trkpt lat="46.48761" lon="5.48331">
        <ele>488.4</ele>
        <time>2022-05-07T15:02:18Z</time>
      </trkpt>
      <trkpt lat="46.48741" lon="5.48309">
        <ele>486.6</ele>
        <time>2022-05-07T15:02:20Z</time>
      </trkpt>
      <trkpt lat="46.48721" lon="5.48288">
        <ele>485</ele>
        <time>2022-05-07T15:02:22Z</time>
      </trkpt>
      <trkpt lat="46.4871" lon="5.48279">
        <ele>484.4</ele>
        <time>2022-05-07T15:02:23Z</time>
      </trkpt>
      <trkpt lat="46.48698" lon="5.4827">
        <ele>483.2</ele>
        <time>2022-05-07T15:02:24Z</time>
      </trkpt>
      <trkpt lat="46.48684" lon="5.4826">
        <ele>482.6</ele>
        <time>2022-05-07T15:02:25Z</time>
      </trkpt>
      <trkpt lat="46.48659" lon="5.48241">
        <ele>481.4</ele>
        <time>2022-05-07T15:02:27Z</time>
      </trkpt>
      <trkpt lat="46.48647" lon="5.4823">
        <ele>480.6</ele>
        <time>2022-05-07T15:02:28Z</time>
      </trkpt>
      <trkpt lat="46.48635" lon="5.48221">
        <ele>478.8</ele>
        <time>2022-05-07T15:02:29Z</time>
      </trkpt>
      <trkpt lat="46.48608" lon="5.48202">
        <ele>476.8</ele>
        <time>2022-05-07T15:02:31Z</time>
      </trkpt>
      <trkpt lat="46.48596" lon="5.48191">
        <ele>474.4</ele>
        <time>2022-05-07T15:02:32Z</time>
      </trkpt>
      <trkpt lat="46.48585" lon="5.4818">
        <ele>473.8</ele>
        <time>2022-05-07T15:02:33Z</time>
      </trkpt>
      <trkpt lat="46.48573" lon="5.4817">
        <ele>472</ele>
        <time>2022-05-07T15:02:34Z</time>
      </trkpt>
      <trkpt lat="46.48548" lon="5.48147">
        <ele>469.6</ele>
        <time>2022-05-07T15:02:36Z</time>
      </trkpt>
      <trkpt lat="46.48522" lon="5.48123">
        <ele>467</ele>
        <time>2022-05-07T15:02:38Z</time>
      </trkpt>
      <trkpt lat="46.48508" lon="5.48111">
        <ele>465.2</ele>
        <time>2022-05-07T15:02:39Z</time>
      </trkpt>
      <trkpt lat="46.4848" lon="5.48089">
        <ele>462.2</ele>
        <time>2022-05-07T15:02:41Z</time>
      </trkpt>
      <trkpt lat="46.48465" lon="5.48079">
        <ele>461.2</ele>
        <time>2022-05-07T15:02:42Z</time>
      </trkpt>
      <trkpt lat="46.48447" lon="5.48068">
        <ele>459.4</ele>
        <time>2022-05-07T15:02:43Z</time>
      </trkpt>
      <trkpt lat="46.48432" lon="5.48059">
        <ele>458.2</ele>
        <time>2022-05-07T15:02:44Z</time>
      </trkpt>
      <trkpt lat="46.48419" lon="5.48053">
        <ele>455.8</ele>
        <time>2022-05-07T15:02:45Z</time>
      </trkpt>
      <trkpt lat="46.48401" lon="5.48044">
        <ele>453.8</ele>
        <time>2022-05-07T15:02:46Z</time>
      </trkpt>
      <trkpt lat="46.48386" lon="5.48036">
        <ele>452.4</ele>
        <time>2022-05-07T15:02:47Z</time>
      </trkpt>
      <trkpt lat="46.48373" lon="5.48031">
        <ele>450.8</ele>
        <time>2022-05-07T15:02:48Z</time>
      </trkpt>
      <trkpt lat="46.48339" lon="5.48017">
        <ele>448</ele>
        <time>2022-05-07T15:02:50Z</time>
      </trkpt>
      <trkpt lat="46.48327" lon="5.48012">
        <ele>447</ele>
        <time>2022-05-07T15:02:51Z</time>
      </trkpt>
      <trkpt lat="46.48308" lon="5.48004">
        <ele>445.2</ele>
        <time>2022-05-07T15:02:52Z</time>
      </trkpt>
      <trkpt lat="46.48292" lon="5.47997">
        <ele>443</ele>
        <time>2022-05-07T15:02:53Z</time>
      </trkpt>
      <trkpt lat="46.48264" lon="5.47985">
        <ele>439.6</ele>
        <time>2022-05-07T15:02:55Z</time>
      </trkpt>
      <trkpt lat="46.48246" lon="5.47977">
        <ele>438.6</ele>
        <time>2022-05-07T15:02:56Z</time>
      </trkpt>
      <trkpt lat="46.48233" lon="5.47972">
        <ele>436.8</ele>
        <time>2022-05-07T15:02:57Z</time>
      </trkpt>
      <trkpt lat="46.48201" lon="5.47954">
        <ele>434</ele>
        <time>2022-05-07T15:02:59Z</time>
      </trkpt>
      <trkpt lat="46.4819" lon="5.47948">
        <ele>431.2</ele>
        <time>2022-05-07T15:03:00Z</time>
      </trkpt>
      <trkpt lat="46.48161" lon="5.47928">
        <ele>428.2</ele>
        <time>2022-05-07T15:03:02Z</time>
      </trkpt>
      <trkpt lat="46.48151" lon="5.47919">
        <ele>427.6</ele>
        <time>2022-05-07T15:03:03Z</time>
      </trkpt>
      <trkpt lat="46.48139" lon="5.47906">
        <ele>426.4</ele>
        <time>2022-05-07T15:03:04Z</time>
      </trkpt>
      <trkpt lat="46.48119" lon="5.47877">
        <ele>424.6</ele>
        <time>2022-05-07T15:03:06Z</time>
      </trkpt>
      <trkpt lat="46.48111" lon="5.47861">
        <ele>423.8</ele>
        <time>2022-05-07T15:03:07Z</time>
      </trkpt>
      <trkpt lat="46.48103" lon="5.47844">
        <ele>423</ele>
        <time>2022-05-07T15:03:08Z</time>
      </trkpt>
      <trkpt lat="46.48096" lon="5.47826">
        <ele>421.8</ele>
        <time>2022-05-07T15:03:09Z</time>
      </trkpt>
      <trkpt lat="46.48084" lon="5.47789">
        <ele>420.4</ele>
        <time>2022-05-07T15:03:11Z</time>
      </trkpt>
      <trkpt lat="46.48075" lon="5.47751">
        <ele>419</ele>
        <time>2022-05-07T15:03:13Z</time>
      </trkpt>
      <trkpt lat="46.48071" lon="5.47731">
        <ele>418</ele>
        <time>2022-05-07T15:03:14Z</time>
      </trkpt>
      <trkpt lat="46.48069" lon="5.4769">
        <ele>416.2</ele>
        <time>2022-05-07T15:03:16Z</time>
      </trkpt>
      <trkpt lat="46.48074" lon="5.4765">
        <ele>414</ele>
        <time>2022-05-07T15:03:18Z</time>
      </trkpt>
      <trkpt lat="46.48082" lon="5.47609">
        <ele>412.4</ele>
        <time>2022-05-07T15:03:20Z</time>
      </trkpt>
      <trkpt lat="46.48086" lon="5.47587">
        <ele>411</ele>
        <time>2022-05-07T15:03:21Z</time>
      </trkpt>
      <trkpt lat="46.48095" lon="5.47546">
        <ele>408.6</ele>
        <time>2022-05-07T15:03:23Z</time>
      </trkpt>
      <trkpt lat="46.48101" lon="5.47505">
        <ele>406.2</ele>
        <time>2022-05-07T15:03:25Z</time>
      </trkpt>
      <trkpt lat="46.48102" lon="5.4749">
        <ele>405.6</ele>
        <time>2022-05-07T15:03:26Z</time>
      </trkpt>
      <trkpt lat="46.48103" lon="5.47472">
        <ele>405</ele>
        <time>2022-05-07T15:03:27Z</time>
      </trkpt>
      <trkpt lat="46.48102" lon="5.47404">
        <ele>404.6</ele>
        <time>2022-05-07T15:03:31Z</time>
      </trkpt>
      <trkpt lat="46.481" lon="5.47389">
        <ele>404.2</ele>
        <time>2022-05-07T15:03:32Z</time>
      </trkpt>
      <trkpt lat="46.48097" lon="5.47373">
        <ele>404.2</ele>
        <time>2022-05-07T15:03:33Z</time>
      </trkpt>
      <trkpt lat="46.48093" lon="5.47358">
        <ele>403.8</ele>
        <time>2022-05-07T15:03:34Z</time>
      </trkpt>
      <trkpt lat="46.48078" lon="5.47306">
        <ele>403.6</ele>
        <time>2022-05-07T15:03:38Z</time>
      </trkpt>
      <trkpt lat="46.48076" lon="5.47293">
        <ele>403.6</ele>
        <time>2022-05-07T15:03:39Z</time>
      </trkpt>
      <trkpt lat="46.48076" lon="5.47266">
        <ele>403.8</ele>
        <time>2022-05-07T15:03:41Z</time>
      </trkpt>
      <trkpt lat="46.48078" lon="5.47253">
        <ele>403.8</ele>
        <time>2022-05-07T15:03:42Z</time>
      </trkpt>
      <trkpt lat="46.48087" lon="5.47214">
        <ele>403.8</ele>
        <time>2022-05-07T15:03:45Z</time>
      </trkpt>
      <trkpt lat="46.48106" lon="5.47137">
        <ele>402.6</ele>
        <time>2022-05-07T15:03:51Z</time>
      </trkpt>
      <trkpt lat="46.4812" lon="5.47089">
        <ele>401.6</ele>
        <time>2022-05-07T15:03:55Z</time>
      </trkpt>
      <trkpt lat="46.48143" lon="5.47038">
        <ele>400.8</ele>
        <time>2022-05-07T15:04:00Z</time>
      </trkpt>
      <trkpt lat="46.48161" lon="5.4701">
        <ele>400.4</ele>
        <time>2022-05-07T15:04:03Z</time>
      </trkpt>
      <trkpt lat="46.48185" lon="5.46972">
        <ele>400</ele>
        <time>2022-05-07T15:04:07Z</time>
      </trkpt>
      <trkpt lat="46.48192" lon="5.46962">
        <ele>399.4</ele>
        <time>2022-05-07T15:04:08Z</time>
      </trkpt>
      <trkpt lat="46.48209" lon="5.46931">
        <ele>398.4</ele>
        <time>2022-05-07T15:04:11Z</time>
      </trkpt>
      <trkpt lat="46.4822" lon="5.46909">
        <ele>397.8</ele>
        <time>2022-05-07T15:04:13Z</time>
      </trkpt>
      <trkpt lat="46.4823" lon="5.46885">
        <ele>397.2</ele>
        <time>2022-05-07T15:04:15Z</time>
      </trkpt>
      <trkpt lat="46.48245" lon="5.4685">
        <ele>395.8</ele>
        <time>2022-05-07T15:04:18Z</time>
      </trkpt>
      <trkpt lat="46.48249" lon="5.46838">
        <ele>395.6</ele>
        <time>2022-05-07T15:04:19Z</time>
      </trkpt>
      <trkpt lat="46.48281" lon="5.4676">
        <ele>394.8</ele>
        <time>2022-05-07T15:04:26Z</time>
      </trkpt>
      <trkpt lat="46.48285" lon="5.46749">
        <ele>394.6</ele>
        <time>2022-05-07T15:04:27Z</time>
      </trkpt>
      <trkpt lat="46.48306" lon="5.46697">
        <ele>393.6</ele>
        <time>2022-05-07T15:04:32Z</time>
      </trkpt>
      <trkpt lat="46.48318" lon="5.46668">
        <ele>393.2</ele>
        <time>2022-05-07T15:04:35Z</time>
      </trkpt>
      <trkpt lat="46.48336" lon="5.46627">
        <ele>392.8</ele>
        <time>2022-05-07T15:04:40Z</time>
      </trkpt>
      <trkpt lat="46.48342" lon="5.46614">
        <ele>392.6</ele>
        <time>2022-05-07T15:04:43Z</time>
      </trkpt>
      <trkpt lat="46.48343" lon="5.46612">
        <ele>392.6</ele>
        <time>2022-05-07T15:04:44Z</time>
      </trkpt>
      <trkpt lat="46.48343" lon="5.46611">
        <ele>392.6</ele>
        <time>2022-05-07T15:04:47Z</time>
      </trkpt>
      <trkpt lat="46.48344" lon="5.46609">
        <ele>392.8</ele>
        <time>2022-05-07T15:05:09Z</time>
      </trkpt>
      <trkpt lat="46.48351" lon="5.46593">
        <ele>392.8</ele>
        <time>2022-05-07T15:05:13Z</time>
      </trkpt>
      <trkpt lat="46.48361" lon="5.46565">
        <ele>392.8</ele>
        <time>2022-05-07T15:05:17Z</time>
      </trkpt>
      <trkpt lat="46.4838" lon="5.46517">
        <ele>392.4</ele>
        <time>2022-05-07T15:05:23Z</time>
      </trkpt>
      <trkpt lat="46.48387" lon="5.46491">
        <ele>392.2</ele>
        <time>2022-05-07T15:05:26Z</time>
      </trkpt>
      <trkpt lat="46.48388" lon="5.46481">
        <ele>392.2</ele>
        <time>2022-05-07T15:05:27Z</time>
      </trkpt>
      <trkpt lat="46.48389" lon="5.4644">
        <ele>392.2</ele>
        <time>2022-05-07T15:05:31Z</time>
      </trkpt>
      <trkpt lat="46.4839" lon="5.4643">
        <ele>392</ele>
        <time>2022-05-07T15:05:32Z</time>
      </trkpt>
      <trkpt lat="46.48394" lon="5.46411">
        <ele>392</ele>
        <time>2022-05-07T15:05:34Z</time>
      </trkpt>
      <trkpt lat="46.48402" lon="5.46383">
        <ele>392</ele>
        <time>2022-05-07T15:05:37Z</time>
      </trkpt>
      <trkpt lat="46.48429" lon="5.4632">
        <ele>392.2</ele>
        <time>2022-05-07T15:05:45Z</time>
      </trkpt>
      <trkpt lat="46.48445" lon="5.46287">
        <ele>392.8</ele>
        <time>2022-05-07T15:05:50Z</time>
      </trkpt>
      <trkpt lat="46.48447" lon="5.4628">
        <ele>392.8</ele>
        <time>2022-05-07T15:05:51Z</time>
      </trkpt>
      <trkpt lat="46.48447" lon="5.46273">
        <ele>393</ele>
        <time>2022-05-07T15:05:52Z</time>
      </trkpt>
      <trkpt lat="46.48443" lon="5.4626">
        <ele>393.2</ele>
        <time>2022-05-07T15:05:54Z</time>
      </trkpt>
      <trkpt lat="46.48438" lon="5.46247">
        <ele>394.2</ele>
        <time>2022-05-07T15:05:56Z</time>
      </trkpt>
      <trkpt lat="46.48432" lon="5.46226">
        <ele>395.4</ele>
        <time>2022-05-07T15:05:59Z</time>
      </trkpt>
      <trkpt lat="46.48422" lon="5.46185">
        <ele>396.4</ele>
        <time>2022-05-07T15:06:05Z</time>
      </trkpt>
      <trkpt lat="46.48419" lon="5.46179">
        <ele>396.6</ele>
        <time>2022-05-07T15:06:06Z</time>
      </trkpt>
      <trkpt lat="46.48408" lon="5.46154">
        <ele>397.6</ele>
        <time>2022-05-07T15:06:10Z</time>
      </trkpt>
      <trkpt lat="46.48394" lon="5.46124">
        <ele>398.6</ele>
        <time>2022-05-07T15:06:15Z</time>
      </trkpt>
      <trkpt lat="46.48388" lon="5.46111">
        <ele>398.8</ele>
        <time>2022-05-07T15:06:17Z</time>
      </trkpt>
      <trkpt lat="46.48368" lon="5.46072">
        <ele>399.4</ele>
        <time>2022-05-07T15:06:23Z</time>
      </trkpt>
      <trkpt lat="46.4835" lon="5.46035">
        <ele>399.4</ele>
        <time>2022-05-07T15:06:28Z</time>
      </trkpt>
      <trkpt lat="46.4832" lon="5.45984">
        <ele>399.4</ele>
        <time>2022-05-07T15:06:35Z</time>
      </trkpt>
      <trkpt lat="46.48285" lon="5.45929">
        <ele>399.4</ele>
        <time>2022-05-07T15:06:42Z</time>
      </trkpt>
      <trkpt lat="46.48244" lon="5.4587">
        <ele>397.8</ele>
        <time>2022-05-07T15:06:49Z</time>
      </trkpt>
      <trkpt lat="46.48237" lon="5.45861">
        <ele>397.4</ele>
        <time>2022-05-07T15:06:50Z</time>
      </trkpt>
      <trkpt lat="46.4821" lon="5.45826">
        <ele>396</ele>
        <time>2022-05-07T15:06:54Z</time>
      </trkpt>
      <trkpt lat="46.48203" lon="5.45817">
        <ele>396</ele>
        <time>2022-05-07T15:06:55Z</time>
      </trkpt>
      <trkpt lat="46.48181" lon="5.45789">
        <ele>394.8</ele>
        <time>2022-05-07T15:06:58Z</time>
      </trkpt>
      <trkpt lat="46.48158" lon="5.45761">
        <ele>393.8</ele>
        <time>2022-05-07T15:07:01Z</time>
      </trkpt>
      <trkpt lat="46.48142" lon="5.45742">
        <ele>393.4</ele>
        <time>2022-05-07T15:07:03Z</time>
      </trkpt>
      <trkpt lat="46.48103" lon="5.45695">
        <ele>392.2</ele>
        <time>2022-05-07T15:07:08Z</time>
      </trkpt>
      <trkpt lat="46.48087" lon="5.45678">
        <ele>391.4</ele>
        <time>2022-05-07T15:07:10Z</time>
      </trkpt>
      <trkpt lat="46.48079" lon="5.4567">
        <ele>391</ele>
        <time>2022-05-07T15:07:11Z</time>
      </trkpt>
      <trkpt lat="46.48055" lon="5.45652">
        <ele>390</ele>
        <time>2022-05-07T15:07:14Z</time>
      </trkpt>
      <trkpt lat="46.48047" lon="5.45647">
        <ele>389.8</ele>
        <time>2022-05-07T15:07:15Z</time>
      </trkpt>
      <trkpt lat="46.47999" lon="5.45625">
        <ele>389.4</ele>
        <time>2022-05-07T15:07:21Z</time>
      </trkpt>
      <trkpt lat="46.47949" lon="5.45606">
        <ele>391</ele>
        <time>2022-05-07T15:07:28Z</time>
      </trkpt>
      <trkpt lat="46.47929" lon="5.45598">
        <ele>392.4</ele>
        <time>2022-05-07T15:07:31Z</time>
      </trkpt>
      <trkpt lat="46.47909" lon="5.4559">
        <ele>392.8</ele>
        <time>2022-05-07T15:07:34Z</time>
      </trkpt>
      <trkpt lat="46.47896" lon="5.45584">
        <ele>393.4</ele>
        <time>2022-05-07T15:07:36Z</time>
      </trkpt>
      <trkpt lat="46.47865" lon="5.45571">
        <ele>394.6</ele>
        <time>2022-05-07T15:07:41Z</time>
      </trkpt>
      <trkpt lat="46.47854" lon="5.45567">
        <ele>395.2</ele>
        <time>2022-05-07T15:07:43Z</time>
      </trkpt>
      <trkpt lat="46.47842" lon="5.45564">
        <ele>395.8</ele>
        <time>2022-05-07T15:07:45Z</time>
      </trkpt>
      <trkpt lat="46.47815" lon="5.45557">
        <ele>397</ele>
        <time>2022-05-07T15:07:50Z</time>
      </trkpt>
      <trkpt lat="46.47766" lon="5.45545">
        <ele>397.8</ele>
        <time>2022-05-07T15:07:58Z</time>
      </trkpt>
      <trkpt lat="46.47754" lon="5.45539">
        <ele>397.8</ele>
        <time>2022-05-07T15:08:00Z</time>
      </trkpt>
      <trkpt lat="46.47742" lon="5.45529">
        <ele>397.8</ele>
        <time>2022-05-07T15:08:02Z</time>
      </trkpt>
      <trkpt lat="46.47692" lon="5.45485">
        <ele>397.6</ele>
        <time>2022-05-07T15:08:10Z</time>
      </trkpt>
      <trkpt lat="46.47685" lon="5.4548">
        <ele>397.4</ele>
        <time>2022-05-07T15:08:11Z</time>
      </trkpt>
      <trkpt lat="46.47659" lon="5.45459">
        <ele>397.2</ele>
        <time>2022-05-07T15:08:15Z</time>
      </trkpt>
      <trkpt lat="46.47651" lon="5.45456">
        <ele>397</ele>
        <time>2022-05-07T15:08:16Z</time>
      </trkpt>
      <trkpt lat="46.47594" lon="5.45424">
        <ele>397</ele>
        <time>2022-05-07T15:08:24Z</time>
      </trkpt>
      <trkpt lat="46.47542" lon="5.45383">
        <ele>396.8</ele>
        <time>2022-05-07T15:08:31Z</time>
      </trkpt>
      <trkpt lat="46.47497" lon="5.45359">
        <ele>395.4</ele>
        <time>2022-05-07T15:08:36Z</time>
      </trkpt>
      <trkpt lat="46.47467" lon="5.4535">
        <ele>394</ele>
        <time>2022-05-07T15:08:39Z</time>
      </trkpt>
      <trkpt lat="46.47427" lon="5.45339">
        <ele>392.6</ele>
        <time>2022-05-07T15:08:43Z</time>
      </trkpt>
      <trkpt lat="46.47417" lon="5.45337">
        <ele>392</ele>
        <time>2022-05-07T15:08:44Z</time>
      </trkpt>
      <trkpt lat="46.47389" lon="5.45328">
        <ele>391.6</ele>
        <time>2022-05-07T15:08:47Z</time>
      </trkpt>
      <trkpt lat="46.47332" lon="5.45308">
        <ele>391.6</ele>
        <time>2022-05-07T15:08:53Z</time>
      </trkpt>
      <trkpt lat="46.47323" lon="5.45304">
        <ele>391.6</ele>
        <time>2022-05-07T15:08:54Z</time>
      </trkpt>
      <trkpt lat="46.47269" lon="5.45279">
        <ele>391.6</ele>
        <time>2022-05-07T15:09:00Z</time>
      </trkpt>
      <trkpt lat="46.47232" lon="5.45263">
        <ele>391.2</ele>
        <time>2022-05-07T15:09:04Z</time>
      </trkpt>
      <trkpt lat="46.47179" lon="5.45238">
        <ele>391.2</ele>
        <time>2022-05-07T15:09:10Z</time>
      </trkpt>
      <trkpt lat="46.47135" lon="5.45217">
        <ele>390.8</ele>
        <time>2022-05-07T15:09:15Z</time>
      </trkpt>
      <trkpt lat="46.47093" lon="5.45192">
        <ele>390.6</ele>
        <time>2022-05-07T15:09:20Z</time>
      </trkpt>
      <trkpt lat="46.47061" lon="5.4517">
        <ele>390.8</ele>
        <time>2022-05-07T15:09:24Z</time>
      </trkpt>
      <trkpt lat="46.47014" lon="5.4513">
        <ele>391.2</ele>
        <time>2022-05-07T15:09:30Z</time>
      </trkpt>
      <trkpt lat="46.47006" lon="5.45123">
        <ele>391</ele>
        <time>2022-05-07T15:09:31Z</time>
      </trkpt>
      <trkpt lat="46.46982" lon="5.45104">
        <ele>390.2</ele>
        <time>2022-05-07T15:09:34Z</time>
      </trkpt>
      <trkpt lat="46.46939" lon="5.4507">
        <ele>389.6</ele>
        <time>2022-05-07T15:09:39Z</time>
      </trkpt>
      <trkpt lat="46.46931" lon="5.45063">
        <ele>389.2</ele>
        <time>2022-05-07T15:09:40Z</time>
      </trkpt>
      <trkpt lat="46.46881" lon="5.45022">
        <ele>388.4</ele>
        <time>2022-05-07T15:09:46Z</time>
      </trkpt>
      <trkpt lat="46.46856" lon="5.45001">
        <ele>388</ele>
        <time>2022-05-07T15:09:49Z</time>
      </trkpt>
      <trkpt lat="46.46825" lon="5.44973">
        <ele>387.2</ele>
        <time>2022-05-07T15:09:53Z</time>
      </trkpt>
      <trkpt lat="46.468" lon="5.44952">
        <ele>387</ele>
        <time>2022-05-07T15:09:56Z</time>
      </trkpt>
      <trkpt lat="46.46745" lon="5.44915">
        <ele>387</ele>
        <time>2022-05-07T15:10:03Z</time>
      </trkpt>
      <trkpt lat="46.46686" lon="5.44884">
        <ele>387.8</ele>
        <time>2022-05-07T15:10:10Z</time>
      </trkpt>
      <trkpt lat="46.4668" lon="5.44881">
        <ele>387.8</ele>
        <time>2022-05-07T15:10:11Z</time>
      </trkpt>
      <trkpt lat="46.46625" lon="5.44853">
        <ele>388</ele>
        <time>2022-05-07T15:10:18Z</time>
      </trkpt>
      <trkpt lat="46.46611" lon="5.44845">
        <ele>388</ele>
        <time>2022-05-07T15:10:20Z</time>
      </trkpt>
      <trkpt lat="46.46589" lon="5.44834">
        <ele>388.4</ele>
        <time>2022-05-07T15:10:23Z</time>
      </trkpt>
      <trkpt lat="46.46563" lon="5.44821">
        <ele>388.8</ele>
        <time>2022-05-07T15:10:27Z</time>
      </trkpt>
      <trkpt lat="46.46518" lon="5.44799">
        <ele>389.4</ele>
        <time>2022-05-07T15:10:34Z</time>
      </trkpt>
      <trkpt lat="46.46511" lon="5.44795">
        <ele>389.4</ele>
        <time>2022-05-07T15:10:35Z</time>
      </trkpt>
      <trkpt lat="46.46481" lon="5.44779">
        <ele>390</ele>
        <time>2022-05-07T15:10:40Z</time>
      </trkpt>
      <trkpt lat="46.46458" lon="5.44768">
        <ele>390.6</ele>
        <time>2022-05-07T15:10:44Z</time>
      </trkpt>
      <trkpt lat="46.4644" lon="5.44759">
        <ele>391.2</ele>
        <time>2022-05-07T15:10:47Z</time>
      </trkpt>
      <trkpt lat="46.46429" lon="5.44754">
        <ele>391.6</ele>
        <time>2022-05-07T15:10:49Z</time>
      </trkpt>
      <trkpt lat="46.46407" lon="5.44743">
        <ele>392.6</ele>
        <time>2022-05-07T15:10:53Z</time>
      </trkpt>
      <trkpt lat="46.46402" lon="5.4474">
        <ele>393</ele>
        <time>2022-05-07T15:10:54Z</time>
      </trkpt>
      <trkpt lat="46.46371" lon="5.44725">
        <ele>393.8</ele>
        <time>2022-05-07T15:11:00Z</time>
      </trkpt>
      <trkpt lat="46.4636" lon="5.4472">
        <ele>394</ele>
        <time>2022-05-07T15:11:02Z</time>
      </trkpt>
      <trkpt lat="46.46355" lon="5.44718">
        <ele>394</ele>
        <time>2022-05-07T15:11:03Z</time>
      </trkpt>
      <trkpt lat="46.46344" lon="5.44713">
        <ele>394.4</ele>
        <time>2022-05-07T15:11:05Z</time>
      </trkpt>
      <trkpt lat="46.46319" lon="5.44699">
        <ele>395.2</ele>
        <time>2022-05-07T15:11:10Z</time>
      </trkpt>
      <trkpt lat="46.46304" lon="5.44691">
        <ele>395.8</ele>
        <time>2022-05-07T15:11:13Z</time>
      </trkpt>
      <trkpt lat="46.46296" lon="5.44688">
        <ele>396.2</ele>
        <time>2022-05-07T15:11:15Z</time>
      </trkpt>
      <trkpt lat="46.46284" lon="5.4468">
        <ele>396.4</ele>
        <time>2022-05-07T15:11:18Z</time>
      </trkpt>
      <trkpt lat="46.46279" lon="5.44678">
        <ele>396.8</ele>
        <time>2022-05-07T15:11:19Z</time>
      </trkpt>
      <trkpt lat="46.46272" lon="5.44674">
        <ele>397.6</ele>
        <time>2022-05-07T15:11:21Z</time>
      </trkpt>
      <trkpt lat="46.46261" lon="5.4467">
        <ele>398.4</ele>
        <time>2022-05-07T15:11:24Z</time>
      </trkpt>
      <trkpt lat="46.46253" lon="5.44665">
        <ele>398.8</ele>
        <time>2022-05-07T15:11:26Z</time>
      </trkpt>
      <trkpt lat="46.46239" lon="5.44656">
        <ele>399.8</ele>
        <time>2022-05-07T15:11:30Z</time>
      </trkpt>
      <trkpt lat="46.46235" lon="5.44653">
        <ele>400</ele>
        <time>2022-05-07T15:11:31Z</time>
      </trkpt>
      <trkpt lat="46.46214" lon="5.4463">
        <ele>400.6</ele>
        <time>2022-05-07T15:11:37Z</time>
      </trkpt>
      <trkpt lat="46.46211" lon="5.44625">
        <ele>400.8</ele>
        <time>2022-05-07T15:11:38Z</time>
      </trkpt>
      <trkpt lat="46.46207" lon="5.44616">
        <ele>401.4</ele>
        <time>2022-05-07T15:11:40Z</time>
      </trkpt>
      <trkpt lat="46.46202" lon="5.44605">
        <ele>402</ele>
        <time>2022-05-07T15:11:42Z</time>
      </trkpt>
      <trkpt lat="46.46197" lon="5.44587">
        <ele>402.6</ele>
        <time>2022-05-07T15:11:45Z</time>
      </trkpt>
      <trkpt lat="46.46194" lon="5.44564">
        <ele>403.6</ele>
        <time>2022-05-07T15:11:49Z</time>
      </trkpt>
      <trkpt lat="46.46194" lon="5.44558">
        <ele>403.6</ele>
        <time>2022-05-07T15:11:50Z</time>
      </trkpt>
      <trkpt lat="46.46193" lon="5.44536">
        <ele>404.8</ele>
        <time>2022-05-07T15:11:54Z</time>
      </trkpt>
      <trkpt lat="46.46193" lon="5.44516">
        <ele>405.6</ele>
        <time>2022-05-07T15:11:58Z</time>
      </trkpt>
      <trkpt lat="46.46193" lon="5.4451">
        <ele>406</ele>
        <time>2022-05-07T15:11:59Z</time>
      </trkpt>
      <trkpt lat="46.46194" lon="5.44485">
        <ele>407</ele>
        <time>2022-05-07T15:12:04Z</time>
      </trkpt>
      <trkpt lat="46.46195" lon="5.4448">
        <ele>407.2</ele>
        <time>2022-05-07T15:12:05Z</time>
      </trkpt>
      <trkpt lat="46.46195" lon="5.44452">
        <ele>408.2</ele>
        <time>2022-05-07T15:12:10Z</time>
      </trkpt>
      <trkpt lat="46.46192" lon="5.44426">
        <ele>409.4</ele>
        <time>2022-05-07T15:12:14Z</time>
      </trkpt>
      <trkpt lat="46.46191" lon="5.4442">
        <ele>409.6</ele>
        <time>2022-05-07T15:12:15Z</time>
      </trkpt>
      <trkpt lat="46.4619" lon="5.44402">
        <ele>410.2</ele>
        <time>2022-05-07T15:12:18Z</time>
      </trkpt>
      <trkpt lat="46.4619" lon="5.44397">
        <ele>410.4</ele>
        <time>2022-05-07T15:12:19Z</time>
      </trkpt>
      <trkpt lat="46.46192" lon="5.44378">
        <ele>411.2</ele>
        <time>2022-05-07T15:12:23Z</time>
      </trkpt>
      <trkpt lat="46.46193" lon="5.44372">
        <ele>411.6</ele>
        <time>2022-05-07T15:12:24Z</time>
      </trkpt>
      <trkpt lat="46.46194" lon="5.44337">
        <ele>412.4</ele>
        <time>2022-05-07T15:12:30Z</time>
      </trkpt>
      <trkpt lat="46.46195" lon="5.44333">
        <ele>412.8</ele>
        <time>2022-05-07T15:12:31Z</time>
      </trkpt>
      <trkpt lat="46.46198" lon="5.44318">
        <ele>413.6</ele>
        <time>2022-05-07T15:12:34Z</time>
      </trkpt>
      <trkpt lat="46.46201" lon="5.44311">
        <ele>414</ele>
        <time>2022-05-07T15:12:36Z</time>
      </trkpt>
      <trkpt lat="46.46198" lon="5.44289">
        <ele>414.6</ele>
        <time>2022-05-07T15:12:40Z</time>
      </trkpt>
      <trkpt lat="46.46195" lon="5.44276">
        <ele>415.2</ele>
        <time>2022-05-07T15:12:42Z</time>
      </trkpt>
      <trkpt lat="46.46186" lon="5.44252">
        <ele>415.8</ele>
        <time>2022-05-07T15:12:46Z</time>
      </trkpt>
      <trkpt lat="46.4618" lon="5.44233">
        <ele>416.6</ele>
        <time>2022-05-07T15:12:49Z</time>
      </trkpt>
      <trkpt lat="46.46175" lon="5.44216">
        <ele>417.6</ele>
        <time>2022-05-07T15:12:52Z</time>
      </trkpt>
      <trkpt lat="46.46173" lon="5.44211">
        <ele>417.8</ele>
        <time>2022-05-07T15:12:53Z</time>
      </trkpt>
      <trkpt lat="46.46164" lon="5.44188">
        <ele>418.8</ele>
        <time>2022-05-07T15:12:57Z</time>
      </trkpt>
      <trkpt lat="46.46156" lon="5.44167">
        <ele>419.6</ele>
        <time>2022-05-07T15:13:01Z</time>
      </trkpt>
      <trkpt lat="46.4615" lon="5.44152">
        <ele>420</ele>
        <time>2022-05-07T15:13:04Z</time>
      </trkpt>
      <trkpt lat="46.46142" lon="5.44124">
        <ele>421</ele>
        <time>2022-05-07T15:13:09Z</time>
      </trkpt>
      <trkpt lat="46.46139" lon="5.44113">
        <ele>421.6</ele>
        <time>2022-05-07T15:13:11Z</time>
      </trkpt>
      <trkpt lat="46.46136" lon="5.44098">
        <ele>422.2</ele>
        <time>2022-05-07T15:13:14Z</time>
      </trkpt>
      <trkpt lat="46.46131" lon="5.44071">
        <ele>423.4</ele>
        <time>2022-05-07T15:13:19Z</time>
      </trkpt>
      <trkpt lat="46.46127" lon="5.44047">
        <ele>424.4</ele>
        <time>2022-05-07T15:13:23Z</time>
      </trkpt>
      <trkpt lat="46.46124" lon="5.44029">
        <ele>425</ele>
        <time>2022-05-07T15:13:26Z</time>
      </trkpt>
      <trkpt lat="46.46122" lon="5.44017">
        <ele>425.4</ele>
        <time>2022-05-07T15:13:28Z</time>
      </trkpt>
      <trkpt lat="46.46124" lon="5.44001">
        <ele>425.8</ele>
        <time>2022-05-07T15:13:31Z</time>
      </trkpt>
      <trkpt lat="46.46125" lon="5.43995">
        <ele>426</ele>
        <time>2022-05-07T15:13:32Z</time>
      </trkpt>
      <trkpt lat="46.46127" lon="5.43978">
        <ele>426.6</ele>
        <time>2022-05-07T15:13:35Z</time>
      </trkpt>
      <trkpt lat="46.46129" lon="5.43967">
        <ele>427</ele>
        <time>2022-05-07T15:13:37Z</time>
      </trkpt>
      <trkpt lat="46.46133" lon="5.43951">
        <ele>427.6</ele>
        <time>2022-05-07T15:13:40Z</time>
      </trkpt>
      <trkpt lat="46.46137" lon="5.43935">
        <ele>428.6</ele>
        <time>2022-05-07T15:13:43Z</time>
      </trkpt>
      <trkpt lat="46.46142" lon="5.43912">
        <ele>429.6</ele>
        <time>2022-05-07T15:13:47Z</time>
      </trkpt>
      <trkpt lat="46.46144" lon="5.43907">
        <ele>429.8</ele>
        <time>2022-05-07T15:13:48Z</time>
      </trkpt>
      <trkpt lat="46.46149" lon="5.43891">
        <ele>430.4</ele>
        <time>2022-05-07T15:13:51Z</time>
      </trkpt>
      <trkpt lat="46.46151" lon="5.43886">
        <ele>430.6</ele>
        <time>2022-05-07T15:13:52Z</time>
      </trkpt>
      <trkpt lat="46.46154" lon="5.43874">
        <ele>431</ele>
        <time>2022-05-07T15:13:54Z</time>
      </trkpt>
      <trkpt lat="46.46161" lon="5.43848">
        <ele>432.2</ele>
        <time>2022-05-07T15:13:59Z</time>
      </trkpt>
      <trkpt lat="46.46165" lon="5.43839">
        <ele>432.6</ele>
        <time>2022-05-07T15:14:01Z</time>
      </trkpt>
      <trkpt lat="46.46174" lon="5.43814">
        <ele>433.4</ele>
        <time>2022-05-07T15:14:06Z</time>
      </trkpt>
      <trkpt lat="46.4618" lon="5.43793">
        <ele>434.2</ele>
        <time>2022-05-07T15:14:10Z</time>
      </trkpt>
      <trkpt lat="46.46181" lon="5.43787">
        <ele>434.6</ele>
        <time>2022-05-07T15:14:11Z</time>
      </trkpt>
      <trkpt lat="46.46186" lon="5.43765">
        <ele>435.8</ele>
        <time>2022-05-07T15:14:15Z</time>
      </trkpt>
      <trkpt lat="46.46187" lon="5.43753">
        <ele>436.2</ele>
        <time>2022-05-07T15:14:17Z</time>
      </trkpt>
      <trkpt lat="46.46188" lon="5.43724">
        <ele>437.2</ele>
        <time>2022-05-07T15:14:22Z</time>
      </trkpt>
      <trkpt lat="46.46187" lon="5.437">
        <ele>437.8</ele>
        <time>2022-05-07T15:14:26Z</time>
      </trkpt>
      <trkpt lat="46.46185" lon="5.43683">
        <ele>438.2</ele>
        <time>2022-05-07T15:14:29Z</time>
      </trkpt>
      <trkpt lat="46.46183" lon="5.4367">
        <ele>438.4</ele>
        <time>2022-05-07T15:14:31Z</time>
      </trkpt>
      <trkpt lat="46.46178" lon="5.43656">
        <ele>439</ele>
        <time>2022-05-07T15:14:33Z</time>
      </trkpt>
      <trkpt lat="46.46174" lon="5.43644">
        <ele>439.4</ele>
        <time>2022-05-07T15:14:35Z</time>
      </trkpt>
      <trkpt lat="46.46158" lon="5.43614">
        <ele>439.8</ele>
        <time>2022-05-07T15:14:40Z</time>
      </trkpt>
      <trkpt lat="46.46135" lon="5.43588">
        <ele>440.4</ele>
        <time>2022-05-07T15:14:45Z</time>
      </trkpt>
      <trkpt lat="46.46115" lon="5.43574">
        <ele>440.6</ele>
        <time>2022-05-07T15:14:48Z</time>
      </trkpt>
      <trkpt lat="46.46108" lon="5.43571">
        <ele>440.6</ele>
        <time>2022-05-07T15:14:49Z</time>
      </trkpt>
      <trkpt lat="46.46067" lon="5.43566">
        <ele>439.6</ele>
        <time>2022-05-07T15:14:54Z</time>
      </trkpt>
      <trkpt lat="46.46049" lon="5.43564">
        <ele>439.2</ele>
        <time>2022-05-07T15:14:56Z</time>
      </trkpt>
      <trkpt lat="46.4602" lon="5.43558">
        <ele>438.2</ele>
        <time>2022-05-07T15:14:59Z</time>
      </trkpt>
      <trkpt lat="46.4601" lon="5.43555">
        <ele>438</ele>
        <time>2022-05-07T15:15:00Z</time>
      </trkpt>
      <trkpt lat="46.4599" lon="5.43545">
        <ele>436.8</ele>
        <time>2022-05-07T15:15:02Z</time>
      </trkpt>
      <trkpt lat="46.4598" lon="5.43539">
        <ele>436.6</ele>
        <time>2022-05-07T15:15:03Z</time>
      </trkpt>
      <trkpt lat="46.45942" lon="5.4351">
        <ele>434.4</ele>
        <time>2022-05-07T15:15:07Z</time>
      </trkpt>
      <trkpt lat="46.45923" lon="5.43495">
        <ele>433</ele>
        <time>2022-05-07T15:15:09Z</time>
      </trkpt>
      <trkpt lat="46.45913" lon="5.43487">
        <ele>432.8</ele>
        <time>2022-05-07T15:15:10Z</time>
      </trkpt>
      <trkpt lat="46.45893" lon="5.43472">
        <ele>431.6</ele>
        <time>2022-05-07T15:15:12Z</time>
      </trkpt>
      <trkpt lat="46.45873" lon="5.43457">
        <ele>430.4</ele>
        <time>2022-05-07T15:15:14Z</time>
      </trkpt>
      <trkpt lat="46.45832" lon="5.43425">
        <ele>429</ele>
        <time>2022-05-07T15:15:18Z</time>
      </trkpt>
      <trkpt lat="46.458" lon="5.43401">
        <ele>428</ele>
        <time>2022-05-07T15:15:21Z</time>
      </trkpt>
      <trkpt lat="46.45779" lon="5.43384">
        <ele>427</ele>
        <time>2022-05-07T15:15:23Z</time>
      </trkpt>
      <trkpt lat="46.45758" lon="5.43365">
        <ele>426</ele>
        <time>2022-05-07T15:15:25Z</time>
      </trkpt>
      <trkpt lat="46.4573" lon="5.43332">
        <ele>424</ele>
        <time>2022-05-07T15:15:28Z</time>
      </trkpt>
      <trkpt lat="46.45722" lon="5.4332">
        <ele>423.8</ele>
        <time>2022-05-07T15:15:29Z</time>
      </trkpt>
      <trkpt lat="46.45714" lon="5.43307">
        <ele>423</ele>
        <time>2022-05-07T15:15:30Z</time>
      </trkpt>
      <trkpt lat="46.45693" lon="5.43264">
        <ele>421.8</ele>
        <time>2022-05-07T15:15:33Z</time>
      </trkpt>
      <trkpt lat="46.45669" lon="5.43209">
        <ele>420.2</ele>
        <time>2022-05-07T15:15:37Z</time>
      </trkpt>
      <trkpt lat="46.45651" lon="5.43168">
        <ele>419.8</ele>
        <time>2022-05-07T15:15:40Z</time>
      </trkpt>
      <trkpt lat="46.45621" lon="5.43102">
        <ele>419.2</ele>
        <time>2022-05-07T15:15:45Z</time>
      </trkpt>
      <trkpt lat="46.45615" lon="5.43089">
        <ele>419</ele>
        <time>2022-05-07T15:15:46Z</time>
      </trkpt>
      <trkpt lat="46.45598" lon="5.43051">
        <ele>419</ele>
        <time>2022-05-07T15:15:49Z</time>
      </trkpt>
      <trkpt lat="46.45568" lon="5.42996">
        <ele>419</ele>
        <time>2022-05-07T15:15:54Z</time>
      </trkpt>
      <trkpt lat="46.45538" lon="5.42955">
        <ele>419.2</ele>
        <time>2022-05-07T15:15:59Z</time>
      </trkpt>
      <trkpt lat="46.4552" lon="5.42933">
        <ele>420.4</ele>
        <time>2022-05-07T15:16:02Z</time>
      </trkpt>
      <trkpt lat="46.45504" lon="5.42911">
        <ele>421</ele>
        <time>2022-05-07T15:16:05Z</time>
      </trkpt>
      <trkpt lat="46.45494" lon="5.42899">
        <ele>421.6</ele>
        <time>2022-05-07T15:16:07Z</time>
      </trkpt>
      <trkpt lat="46.45478" lon="5.42879">
        <ele>422.6</ele>
        <time>2022-05-07T15:16:10Z</time>
      </trkpt>
      <trkpt lat="46.45468" lon="5.42867">
        <ele>422.8</ele>
        <time>2022-05-07T15:16:12Z</time>
      </trkpt>
      <trkpt lat="46.45443" lon="5.42841">
        <ele>423.8</ele>
        <time>2022-05-07T15:16:17Z</time>
      </trkpt>
      <trkpt lat="46.45433" lon="5.42831">
        <ele>424.6</ele>
        <time>2022-05-07T15:16:19Z</time>
      </trkpt>
      <trkpt lat="46.45428" lon="5.42827">
        <ele>424.8</ele>
        <time>2022-05-07T15:16:20Z</time>
      </trkpt>
      <trkpt lat="46.45401" lon="5.428">
        <ele>426</ele>
        <time>2022-05-07T15:16:26Z</time>
      </trkpt>
      <trkpt lat="46.45384" lon="5.42781">
        <ele>427.2</ele>
        <time>2022-05-07T15:16:30Z</time>
      </trkpt>
      <trkpt lat="46.45365" lon="5.42755">
        <ele>427.6</ele>
        <time>2022-05-07T15:16:35Z</time>
      </trkpt>
      <trkpt lat="46.45352" lon="5.42733">
        <ele>428.2</ele>
        <time>2022-05-07T15:16:39Z</time>
      </trkpt>
      <trkpt lat="46.45336" lon="5.42704">
        <ele>429.4</ele>
        <time>2022-05-07T15:16:44Z</time>
      </trkpt>
      <trkpt lat="46.45307" lon="5.42651">
        <ele>430.6</ele>
        <time>2022-05-07T15:16:53Z</time>
      </trkpt>
      <trkpt lat="46.45305" lon="5.42646">
        <ele>430.8</ele>
        <time>2022-05-07T15:16:54Z</time>
      </trkpt>
      <trkpt lat="46.45291" lon="5.42623">
        <ele>431.6</ele>
        <time>2022-05-07T15:16:58Z</time>
      </trkpt>
      <trkpt lat="46.45275" lon="5.42594">
        <ele>432.8</ele>
        <time>2022-05-07T15:17:03Z</time>
      </trkpt>
      <trkpt lat="46.45266" lon="5.42576">
        <ele>433</ele>
        <time>2022-05-07T15:17:06Z</time>
      </trkpt>
      <trkpt lat="46.4525" lon="5.42547">
        <ele>433.8</ele>
        <time>2022-05-07T15:17:11Z</time>
      </trkpt>
      <trkpt lat="46.45243" lon="5.42536">
        <ele>434.2</ele>
        <time>2022-05-07T15:17:13Z</time>
      </trkpt>
      <trkpt lat="46.45224" lon="5.425">
        <ele>435</ele>
        <time>2022-05-07T15:17:19Z</time>
      </trkpt>
      <trkpt lat="46.45215" lon="5.42482">
        <ele>435.2</ele>
        <time>2022-05-07T15:17:22Z</time>
      </trkpt>
      <trkpt lat="46.45195" lon="5.42447">
        <ele>436.4</ele>
        <time>2022-05-07T15:17:28Z</time>
      </trkpt>
      <trkpt lat="46.45185" lon="5.4243">
        <ele>436.8</ele>
        <time>2022-05-07T15:17:31Z</time>
      </trkpt>
      <trkpt lat="46.45155" lon="5.42379">
        <ele>437.6</ele>
        <time>2022-05-07T15:17:40Z</time>
      </trkpt>
      <trkpt lat="46.45148" lon="5.42368">
        <ele>438</ele>
        <time>2022-05-07T15:17:42Z</time>
      </trkpt>
      <trkpt lat="46.45131" lon="5.42349">
        <ele>438.8</ele>
        <time>2022-05-07T15:17:46Z</time>
      </trkpt>
      <trkpt lat="46.45113" lon="5.42322">
        <ele>439.8</ele>
        <time>2022-05-07T15:17:51Z</time>
      </trkpt>
      <trkpt lat="46.45104" lon="5.42312">
        <ele>440.2</ele>
        <time>2022-05-07T15:17:53Z</time>
      </trkpt>
      <trkpt lat="46.45092" lon="5.42297">
        <ele>441.2</ele>
        <time>2022-05-07T15:17:56Z</time>
      </trkpt>
      <trkpt lat="46.45089" lon="5.42291">
        <ele>441.4</ele>
        <time>2022-05-07T15:17:57Z</time>
      </trkpt>
      <trkpt lat="46.45086" lon="5.42283">
        <ele>441.6</ele>
        <time>2022-05-07T15:17:58Z</time>
      </trkpt>
      <trkpt lat="46.45083" lon="5.42259">
        <ele>442</ele>
        <time>2022-05-07T15:18:01Z</time>
      </trkpt>
      <trkpt lat="46.4508" lon="5.42236">
        <ele>442.4</ele>
        <time>2022-05-07T15:18:04Z</time>
      </trkpt>
      <trkpt lat="46.45078" lon="5.42209">
        <ele>443.4</ele>
        <time>2022-05-07T15:18:08Z</time>
      </trkpt>
      <trkpt lat="46.45077" lon="5.42202">
        <ele>443.6</ele>
        <time>2022-05-07T15:18:09Z</time>
      </trkpt>
      <trkpt lat="46.45073" lon="5.42183">
        <ele>444.8</ele>
        <time>2022-05-07T15:18:12Z</time>
      </trkpt>
      <trkpt lat="46.45066" lon="5.42157">
        <ele>445.2</ele>
        <time>2022-05-07T15:18:16Z</time>
      </trkpt>
      <trkpt lat="46.4505" lon="5.42116">
        <ele>446</ele>
        <time>2022-05-07T15:18:22Z</time>
      </trkpt>
      <trkpt lat="46.45042" lon="5.42095">
        <ele>446</ele>
        <time>2022-05-07T15:18:25Z</time>
      </trkpt>
      <trkpt lat="46.4501" lon="5.42037">
        <ele>446.4</ele>
        <time>2022-05-07T15:18:34Z</time>
      </trkpt>
      <trkpt lat="46.44989" lon="5.42001">
        <ele>446.8</ele>
        <time>2022-05-07T15:18:40Z</time>
      </trkpt>
      <trkpt lat="46.44978" lon="5.41984">
        <ele>447.4</ele>
        <time>2022-05-07T15:18:43Z</time>
      </trkpt>
      <trkpt lat="46.4497" lon="5.41973">
        <ele>448</ele>
        <time>2022-05-07T15:18:45Z</time>
      </trkpt>
      <trkpt lat="46.44964" lon="5.41962">
        <ele>448.4</ele>
        <time>2022-05-07T15:18:47Z</time>
      </trkpt>
      <trkpt lat="46.44957" lon="5.41941">
        <ele>449</ele>
        <time>2022-05-07T15:18:50Z</time>
      </trkpt>
      <trkpt lat="46.44955" lon="5.41934">
        <ele>449.6</ele>
        <time>2022-05-07T15:18:51Z</time>
      </trkpt>
      <trkpt lat="46.44954" lon="5.41927">
        <ele>450.2</ele>
        <time>2022-05-07T15:18:52Z</time>
      </trkpt>
      <trkpt lat="46.44954" lon="5.41919">
        <ele>450.6</ele>
        <time>2022-05-07T15:18:53Z</time>
      </trkpt>
      <trkpt lat="46.44954" lon="5.41911">
        <ele>450.8</ele>
        <time>2022-05-07T15:18:54Z</time>
      </trkpt>
      <trkpt lat="46.44962" lon="5.41869">
        <ele>451.2</ele>
        <time>2022-05-07T15:18:59Z</time>
      </trkpt>
      <trkpt lat="46.44965" lon="5.41862">
        <ele>451.4</ele>
        <time>2022-05-07T15:19:00Z</time>
      </trkpt>
      <trkpt lat="46.44979" lon="5.41828">
        <ele>451.6</ele>
        <time>2022-05-07T15:19:05Z</time>
      </trkpt>
      <trkpt lat="46.44982" lon="5.41823">
        <ele>451.8</ele>
        <time>2022-05-07T15:19:06Z</time>
      </trkpt>
      <trkpt lat="46.44987" lon="5.41818">
        <ele>451.8</ele>
        <time>2022-05-07T15:19:07Z</time>
      </trkpt>
      <trkpt lat="46.44996" lon="5.4181">
        <ele>452</ele>
        <time>2022-05-07T15:19:09Z</time>
      </trkpt>
      <trkpt lat="46.45006" lon="5.41804">
        <ele>452.2</ele>
        <time>2022-05-07T15:19:11Z</time>
      </trkpt>
      <trkpt lat="46.45011" lon="5.41803">
        <ele>452.4</ele>
        <time>2022-05-07T15:19:12Z</time>
      </trkpt>
      <trkpt lat="46.45017" lon="5.41802">
        <ele>452.6</ele>
        <time>2022-05-07T15:19:13Z</time>
      </trkpt>
      <trkpt lat="46.45033" lon="5.41803">
        <ele>453</ele>
        <time>2022-05-07T15:19:16Z</time>
      </trkpt>
      <trkpt lat="46.45062" lon="5.41812">
        <ele>453.4</ele>
        <time>2022-05-07T15:19:21Z</time>
      </trkpt>
      <trkpt lat="46.45099" lon="5.41812">
        <ele>453</ele>
        <time>2022-05-07T15:19:26Z</time>
      </trkpt>
      <trkpt lat="46.45134" lon="5.41802">
        <ele>452.2</ele>
        <time>2022-05-07T15:19:31Z</time>
      </trkpt>
      <trkpt lat="46.45141" lon="5.41798">
        <ele>452.2</ele>
        <time>2022-05-07T15:19:32Z</time>
      </trkpt>
      <trkpt lat="46.45155" lon="5.41789">
        <ele>452</ele>
        <time>2022-05-07T15:19:34Z</time>
      </trkpt>
      <trkpt lat="46.45173" lon="5.41772">
        <ele>452</ele>
        <time>2022-05-07T15:19:37Z</time>
      </trkpt>
      <trkpt lat="46.45194" lon="5.41735">
        <ele>452</ele>
        <time>2022-05-07T15:19:42Z</time>
      </trkpt>
      <trkpt lat="46.45215" lon="5.4168">
        <ele>452.4</ele>
        <time>2022-05-07T15:19:49Z</time>
      </trkpt>
      <trkpt lat="46.4523" lon="5.41625">
        <ele>453.4</ele>
        <time>2022-05-07T15:19:56Z</time>
      </trkpt>
      <trkpt lat="46.45234" lon="5.41603">
        <ele>454.6</ele>
        <time>2022-05-07T15:19:59Z</time>
      </trkpt>
      <trkpt lat="46.45238" lon="5.41589">
        <ele>455.2</ele>
        <time>2022-05-07T15:20:01Z</time>
      </trkpt>
      <trkpt lat="46.45245" lon="5.41566">
        <ele>455.6</ele>
        <time>2022-05-07T15:20:04Z</time>
      </trkpt>
      <trkpt lat="46.45252" lon="5.41553">
        <ele>456</ele>
        <time>2022-05-07T15:20:06Z</time>
      </trkpt>
      <trkpt lat="46.45257" lon="5.41547">
        <ele>456</ele>
        <time>2022-05-07T15:20:07Z</time>
      </trkpt>
      <trkpt lat="46.45266" lon="5.41538">
        <ele>456</ele>
        <time>2022-05-07T15:20:09Z</time>
      </trkpt>
      <trkpt lat="46.4527" lon="5.41534">
        <ele>456</ele>
        <time>2022-05-07T15:20:10Z</time>
      </trkpt>
      <trkpt lat="46.45275" lon="5.41532">
        <ele>456</ele>
        <time>2022-05-07T15:20:11Z</time>
      </trkpt>
      <trkpt lat="46.45291" lon="5.41529">
        <ele>456.4</ele>
        <time>2022-05-07T15:20:14Z</time>
      </trkpt>
      <trkpt lat="46.45304" lon="5.4153">
        <ele>456.8</ele>
        <time>2022-05-07T15:20:17Z</time>
      </trkpt>
      <trkpt lat="46.45323" lon="5.41533">
        <ele>457.2</ele>
        <time>2022-05-07T15:20:21Z</time>
      </trkpt>
      <trkpt lat="46.45351" lon="5.41539">
        <ele>458.2</ele>
        <time>2022-05-07T15:20:27Z</time>
      </trkpt>
      <trkpt lat="46.45357" lon="5.41539">
        <ele>458.4</ele>
        <time>2022-05-07T15:20:28Z</time>
      </trkpt>
      <trkpt lat="46.45376" lon="5.41538">
        <ele>459.2</ele>
        <time>2022-05-07T15:20:32Z</time>
      </trkpt>
      <trkpt lat="46.45381" lon="5.41537">
        <ele>459.4</ele>
        <time>2022-05-07T15:20:33Z</time>
      </trkpt>
      <trkpt lat="46.45395" lon="5.41533">
        <ele>459.8</ele>
        <time>2022-05-07T15:20:36Z</time>
      </trkpt>
      <trkpt lat="46.45413" lon="5.41527">
        <ele>460.2</ele>
        <time>2022-05-07T15:20:40Z</time>
      </trkpt>
      <trkpt lat="46.45439" lon="5.41518">
        <ele>461</ele>
        <time>2022-05-07T15:20:46Z</time>
      </trkpt>
      <trkpt lat="46.45447" lon="5.41514">
        <ele>461.2</ele>
        <time>2022-05-07T15:20:48Z</time>
      </trkpt>
      <trkpt lat="46.45472" lon="5.41504">
        <ele>462.2</ele>
        <time>2022-05-07T15:20:54Z</time>
      </trkpt>
      <trkpt lat="46.45485" lon="5.41498">
        <ele>463</ele>
        <time>2022-05-07T15:20:57Z</time>
      </trkpt>
      <trkpt lat="46.45494" lon="5.41493">
        <ele>463.2</ele>
        <time>2022-05-07T15:20:59Z</time>
      </trkpt>
      <trkpt lat="46.45527" lon="5.41476">
        <ele>464.4</ele>
        <time>2022-05-07T15:21:06Z</time>
      </trkpt>
      <trkpt lat="46.45568" lon="5.41449">
        <ele>464.8</ele>
        <time>2022-05-07T15:21:14Z</time>
      </trkpt>
      <trkpt lat="46.45595" lon="5.41418">
        <ele>465.2</ele>
        <time>2022-05-07T15:21:20Z</time>
      </trkpt>
      <trkpt lat="46.45616" lon="5.4138">
        <ele>465.4</ele>
        <time>2022-05-07T15:21:26Z</time>
      </trkpt>
      <trkpt lat="46.45619" lon="5.41374">
        <ele>465.4</ele>
        <time>2022-05-07T15:21:27Z</time>
      </trkpt>
      <trkpt lat="46.45647" lon="5.4132">
        <ele>466.6</ele>
        <time>2022-05-07T15:21:36Z</time>
      </trkpt>
      <trkpt lat="46.45686" lon="5.4127">
        <ele>466.4</ele>
        <time>2022-05-07T15:21:45Z</time>
      </trkpt>
      <trkpt lat="46.45725" lon="5.41226">
        <ele>465.8</ele>
        <time>2022-05-07T15:21:53Z</time>
      </trkpt>
      <trkpt lat="46.45746" lon="5.41198">
        <ele>465.8</ele>
        <time>2022-05-07T15:21:58Z</time>
      </trkpt>
      <trkpt lat="46.45753" lon="5.41185">
        <ele>466</ele>
        <time>2022-05-07T15:22:00Z</time>
      </trkpt>
      <trkpt lat="46.45756" lon="5.41178">
        <ele>466</ele>
        <time>2022-05-07T15:22:01Z</time>
      </trkpt>
      <trkpt lat="46.45767" lon="5.41142">
        <ele>466.6</ele>
        <time>2022-05-07T15:22:06Z</time>
      </trkpt>
      <trkpt lat="46.45784" lon="5.41075">
        <ele>467.4</ele>
        <time>2022-05-07T15:22:15Z</time>
      </trkpt>
      <trkpt lat="46.45789" lon="5.41054">
        <ele>467.6</ele>
        <time>2022-05-07T15:22:18Z</time>
      </trkpt>
      <trkpt lat="46.45803" lon="5.4101">
        <ele>468.2</ele>
        <time>2022-05-07T15:22:24Z</time>
      </trkpt>
      <trkpt lat="46.45818" lon="5.40956">
        <ele>468.4</ele>
        <time>2022-05-07T15:22:32Z</time>
      </trkpt>
      <trkpt lat="46.45824" lon="5.40926">
        <ele>468.8</ele>
        <time>2022-05-07T15:22:36Z</time>
      </trkpt>
      <trkpt lat="46.45833" lon="5.40879">
        <ele>468.8</ele>
        <time>2022-05-07T15:22:42Z</time>
      </trkpt>
      <trkpt lat="46.45844" lon="5.40807">
        <ele>469.2</ele>
        <time>2022-05-07T15:22:51Z</time>
      </trkpt>
      <trkpt lat="46.4585" lon="5.40742">
        <ele>469.2</ele>
        <time>2022-05-07T15:22:59Z</time>
      </trkpt>
      <trkpt lat="46.45851" lon="5.40734">
        <ele>469.2</ele>
        <time>2022-05-07T15:23:00Z</time>
      </trkpt>
      <trkpt lat="46.45859" lon="5.40698">
        <ele>469.6</ele>
        <time>2022-05-07T15:23:05Z</time>
      </trkpt>
      <trkpt lat="46.45862" lon="5.40693">
        <ele>469.8</ele>
        <time>2022-05-07T15:23:06Z</time>
      </trkpt>
      <trkpt lat="46.45864" lon="5.40687">
        <ele>469.8</ele>
        <time>2022-05-07T15:23:07Z</time>
      </trkpt>
      <trkpt lat="46.45873" lon="5.40666">
        <ele>471</ele>
        <time>2022-05-07T15:23:11Z</time>
      </trkpt>
      <trkpt lat="46.45877" lon="5.40656">
        <ele>471.6</ele>
        <time>2022-05-07T15:23:13Z</time>
      </trkpt>
      <trkpt lat="46.4588" lon="5.40647">
        <ele>472.2</ele>
        <time>2022-05-07T15:23:15Z</time>
      </trkpt>
      <trkpt lat="46.45887" lon="5.40633">
        <ele>473.4</ele>
        <time>2022-05-07T15:23:18Z</time>
      </trkpt>
      <trkpt lat="46.45892" lon="5.4062">
        <ele>474</ele>
        <time>2022-05-07T15:23:21Z</time>
      </trkpt>
      <trkpt lat="46.45894" lon="5.40616">
        <ele>474.8</ele>
        <time>2022-05-07T15:23:22Z</time>
      </trkpt>
      <trkpt lat="46.459" lon="5.40603">
        <ele>475.8</ele>
        <time>2022-05-07T15:23:25Z</time>
      </trkpt>
      <trkpt lat="46.45904" lon="5.40595">
        <ele>476</ele>
        <time>2022-05-07T15:23:27Z</time>
      </trkpt>
      <trkpt lat="46.45909" lon="5.40582">
        <ele>477</ele>
        <time>2022-05-07T15:23:30Z</time>
      </trkpt>
      <trkpt lat="46.45915" lon="5.4057">
        <ele>478</ele>
        <time>2022-05-07T15:23:33Z</time>
      </trkpt>
      <trkpt lat="46.45922" lon="5.40554">
        <ele>479.2</ele>
        <time>2022-05-07T15:23:37Z</time>
      </trkpt>
      <trkpt lat="46.45931" lon="5.40537">
        <ele>480</ele>
        <time>2022-05-07T15:23:41Z</time>
      </trkpt>
      <trkpt lat="46.45933" lon="5.40534">
        <ele>480.2</ele>
        <time>2022-05-07T15:23:42Z</time>
      </trkpt>
      <trkpt lat="46.45942" lon="5.40522">
        <ele>481.6</ele>
        <time>2022-05-07T15:23:46Z</time>
      </trkpt>
      <trkpt lat="46.45946" lon="5.40514">
        <ele>482</ele>
        <time>2022-05-07T15:23:48Z</time>
      </trkpt>
      <trkpt lat="46.45954" lon="5.40501">
        <ele>483</ele>
        <time>2022-05-07T15:23:52Z</time>
      </trkpt>
      <trkpt lat="46.45961" lon="5.40492">
        <ele>484.2</ele>
        <time>2022-05-07T15:23:55Z</time>
      </trkpt>
      <trkpt lat="46.45969" lon="5.40474">
        <ele>485.2</ele>
        <time>2022-05-07T15:24:00Z</time>
      </trkpt>
      <trkpt lat="46.45971" lon="5.40471">
        <ele>485.2</ele>
        <time>2022-05-07T15:24:01Z</time>
      </trkpt>
      <trkpt lat="46.45982" lon="5.40449">
        <ele>486.2</ele>
        <time>2022-05-07T15:24:07Z</time>
      </trkpt>
      <trkpt lat="46.45984" lon="5.40446">
        <ele>486.2</ele>
        <time>2022-05-07T15:24:08Z</time>
      </trkpt>
      <trkpt lat="46.45992" lon="5.40432">
        <ele>487.4</ele>
        <time>2022-05-07T15:24:12Z</time>
      </trkpt>
      <trkpt lat="46.45996" lon="5.40424">
        <ele>488</ele>
        <time>2022-05-07T15:24:14Z</time>
      </trkpt>
      <trkpt lat="46.46" lon="5.40417">
        <ele>488.4</ele>
        <time>2022-05-07T15:24:16Z</time>
      </trkpt>
      <trkpt lat="46.46009" lon="5.40399">
        <ele>489.6</ele>
        <time>2022-05-07T15:24:21Z</time>
      </trkpt>
      <trkpt lat="46.4601" lon="5.40395">
        <ele>489.6</ele>
        <time>2022-05-07T15:24:22Z</time>
      </trkpt>
      <trkpt lat="46.46016" lon="5.4038">
        <ele>490.6</ele>
        <time>2022-05-07T15:24:26Z</time>
      </trkpt>
      <trkpt lat="46.46017" lon="5.40376">
        <ele>490.8</ele>
        <time>2022-05-07T15:24:27Z</time>
      </trkpt>
      <trkpt lat="46.46025" lon="5.4036">
        <ele>492</ele>
        <time>2022-05-07T15:24:31Z</time>
      </trkpt>
      <trkpt lat="46.46033" lon="5.40347">
        <ele>493</ele>
        <time>2022-05-07T15:24:35Z</time>
      </trkpt>
      <trkpt lat="46.46043" lon="5.40337">
        <ele>493.8</ele>
        <time>2022-05-07T15:24:39Z</time>
      </trkpt>
      <trkpt lat="46.4605" lon="5.40332">
        <ele>494</ele>
        <time>2022-05-07T15:24:41Z</time>
      </trkpt>
      <trkpt lat="46.46063" lon="5.40324">
        <ele>495.4</ele>
        <time>2022-05-07T15:24:46Z</time>
      </trkpt>
      <trkpt lat="46.46066" lon="5.40322">
        <ele>495.6</ele>
        <time>2022-05-07T15:24:47Z</time>
      </trkpt>
      <trkpt lat="46.46078" lon="5.40318">
        <ele>496.4</ele>
        <time>2022-05-07T15:24:51Z</time>
      </trkpt>
      <trkpt lat="46.46095" lon="5.40309">
        <ele>497.4</ele>
        <time>2022-05-07T15:24:57Z</time>
      </trkpt>
      <trkpt lat="46.46098" lon="5.40308">
        <ele>497.6</ele>
        <time>2022-05-07T15:24:58Z</time>
      </trkpt>
      <trkpt lat="46.46105" lon="5.40303">
        <ele>498.6</ele>
        <time>2022-05-07T15:25:01Z</time>
      </trkpt>
      <trkpt lat="46.46117" lon="5.40291">
        <ele>499.4</ele>
        <time>2022-05-07T15:25:06Z</time>
      </trkpt>
      <trkpt lat="46.46132" lon="5.40273">
        <ele>500</ele>
        <time>2022-05-07T15:25:11Z</time>
      </trkpt>
      <trkpt lat="46.46149" lon="5.40246">
        <ele>500.6</ele>
        <time>2022-05-07T15:25:17Z</time>
      </trkpt>
      <trkpt lat="46.46151" lon="5.40241">
        <ele>500.6</ele>
        <time>2022-05-07T15:25:18Z</time>
      </trkpt>
      <trkpt lat="46.46167" lon="5.4021">
        <ele>501.8</ele>
        <time>2022-05-07T15:25:25Z</time>
      </trkpt>
      <trkpt lat="46.46179" lon="5.40189">
        <ele>502.8</ele>
        <time>2022-05-07T15:25:30Z</time>
      </trkpt>
      <trkpt lat="46.46189" lon="5.40169">
        <ele>503.8</ele>
        <time>2022-05-07T15:25:34Z</time>
      </trkpt>
      <trkpt lat="46.46192" lon="5.40164">
        <ele>503.8</ele>
        <time>2022-05-07T15:25:35Z</time>
      </trkpt>
      <trkpt lat="46.46211" lon="5.40134">
        <ele>504.6</ele>
        <time>2022-05-07T15:25:41Z</time>
      </trkpt>
      <trkpt lat="46.46222" lon="5.40121">
        <ele>505</ele>
        <time>2022-05-07T15:25:44Z</time>
      </trkpt>
      <trkpt lat="46.46233" lon="5.4011">
        <ele>505</ele>
        <time>2022-05-07T15:25:47Z</time>
      </trkpt>
      <trkpt lat="46.46256" lon="5.40094">
        <ele>505</ele>
        <time>2022-05-07T15:25:52Z</time>
      </trkpt>
      <trkpt lat="46.4626" lon="5.40093">
        <ele>505.2</ele>
        <time>2022-05-07T15:25:53Z</time>
      </trkpt>
      <trkpt lat="46.46273" lon="5.40091">
        <ele>505.6</ele>
        <time>2022-05-07T15:25:57Z</time>
      </trkpt>
      <trkpt lat="46.46279" lon="5.4009">
        <ele>506.2</ele>
        <time>2022-05-07T15:26:00Z</time>
      </trkpt>
      <trkpt lat="46.46285" lon="5.40089">
        <ele>507.2</ele>
        <time>2022-05-07T15:26:03Z</time>
      </trkpt>
      <trkpt lat="46.46289" lon="5.40089">
        <ele>507.2</ele>
        <time>2022-05-07T15:26:05Z</time>
      </trkpt>
      <trkpt lat="46.463" lon="5.40092">
        <ele>508.6</ele>
        <time>2022-05-07T15:26:11Z</time>
      </trkpt>
      <trkpt lat="46.46315" lon="5.40093">
        <ele>509.6</ele>
        <time>2022-05-07T15:26:16Z</time>
      </trkpt>
      <trkpt lat="46.46317" lon="5.40093">
        <ele>509.8</ele>
        <time>2022-05-07T15:26:17Z</time>
      </trkpt>
      <trkpt lat="46.46338" lon="5.40091">
        <ele>510.2</ele>
        <time>2022-05-07T15:26:23Z</time>
      </trkpt>
      <trkpt lat="46.46356" lon="5.40088">
        <ele>510.6</ele>
        <time>2022-05-07T15:26:28Z</time>
      </trkpt>
      <trkpt lat="46.46363" lon="5.40087">
        <ele>510.8</ele>
        <time>2022-05-07T15:26:30Z</time>
      </trkpt>
      <trkpt lat="46.4638" lon="5.40085">
        <ele>511.8</ele>
        <time>2022-05-07T15:26:35Z</time>
      </trkpt>
      <trkpt lat="46.46394" lon="5.40082">
        <ele>512</ele>
        <time>2022-05-07T15:26:39Z</time>
      </trkpt>
      <trkpt lat="46.46419" lon="5.40078">
        <ele>512.8</ele>
        <time>2022-05-07T15:26:46Z</time>
      </trkpt>
      <trkpt lat="46.46422" lon="5.40079">
        <ele>513</ele>
        <time>2022-05-07T15:26:47Z</time>
      </trkpt>
      <trkpt lat="46.46433" lon="5.40078">
        <ele>513.4</ele>
        <time>2022-05-07T15:26:51Z</time>
      </trkpt>
      <trkpt lat="46.46448" lon="5.40073">
        <ele>514</ele>
        <time>2022-05-07T15:26:55Z</time>
      </trkpt>
      <trkpt lat="46.4646" lon="5.40071">
        <ele>514.4</ele>
        <time>2022-05-07T15:26:59Z</time>
      </trkpt>
      <trkpt lat="46.46488" lon="5.40069">
        <ele>515</ele>
        <time>2022-05-07T15:27:07Z</time>
      </trkpt>
      <trkpt lat="46.46492" lon="5.40069">
        <ele>515.2</ele>
        <time>2022-05-07T15:27:08Z</time>
      </trkpt>
      <trkpt lat="46.46517" lon="5.40078">
        <ele>515.8</ele>
        <time>2022-05-07T15:27:14Z</time>
      </trkpt>
      <trkpt lat="46.46525" lon="5.40081">
        <ele>515.8</ele>
        <time>2022-05-07T15:27:16Z</time>
      </trkpt>
      <trkpt lat="46.4654" lon="5.40089">
        <ele>516.2</ele>
        <time>2022-05-07T15:27:20Z</time>
      </trkpt>
      <trkpt lat="46.46557" lon="5.40098">
        <ele>517.2</ele>
        <time>2022-05-07T15:27:25Z</time>
      </trkpt>
      <trkpt lat="46.46582" lon="5.40111">
        <ele>517.6</ele>
        <time>2022-05-07T15:27:32Z</time>
      </trkpt>
      <trkpt lat="46.46602" lon="5.40122">
        <ele>518.2</ele>
        <time>2022-05-07T15:27:38Z</time>
      </trkpt>
      <trkpt lat="46.46608" lon="5.40125">
        <ele>518.6</ele>
        <time>2022-05-07T15:27:40Z</time>
      </trkpt>
      <trkpt lat="46.46618" lon="5.40129">
        <ele>519.4</ele>
        <time>2022-05-07T15:27:43Z</time>
      </trkpt>
      <trkpt lat="46.46629" lon="5.40135">
        <ele>520.4</ele>
        <time>2022-05-07T15:27:47Z</time>
      </trkpt>
      <trkpt lat="46.46648" lon="5.40145">
        <ele>521.4</ele>
        <time>2022-05-07T15:27:53Z</time>
      </trkpt>
      <trkpt lat="46.46656" lon="5.40149">
        <ele>522.2</ele>
        <time>2022-05-07T15:27:56Z</time>
      </trkpt>
      <trkpt lat="46.46664" lon="5.40154">
        <ele>522.6</ele>
        <time>2022-05-07T15:27:59Z</time>
      </trkpt>
      <trkpt lat="46.46679" lon="5.40161">
        <ele>523.2</ele>
        <time>2022-05-07T15:28:04Z</time>
      </trkpt>
      <trkpt lat="46.4669" lon="5.40168">
        <ele>523.8</ele>
        <time>2022-05-07T15:28:08Z</time>
      </trkpt>
      <trkpt lat="46.46703" lon="5.40173">
        <ele>524.8</ele>
        <time>2022-05-07T15:28:12Z</time>
      </trkpt>
      <trkpt lat="46.46706" lon="5.40175">
        <ele>525.2</ele>
        <time>2022-05-07T15:28:13Z</time>
      </trkpt>
      <trkpt lat="46.46724" lon="5.40184">
        <ele>526.4</ele>
        <time>2022-05-07T15:28:20Z</time>
      </trkpt>
      <trkpt lat="46.46739" lon="5.40191">
        <ele>526.8</ele>
        <time>2022-05-07T15:28:25Z</time>
      </trkpt>
      <trkpt lat="46.4675" lon="5.40197">
        <ele>527.4</ele>
        <time>2022-05-07T15:28:29Z</time>
      </trkpt>
      <trkpt lat="46.46759" lon="5.40202">
        <ele>527.8</ele>
        <time>2022-05-07T15:28:32Z</time>
      </trkpt>
      <trkpt lat="46.46764" lon="5.40205">
        <ele>528.6</ele>
        <time>2022-05-07T15:28:34Z</time>
      </trkpt>
      <trkpt lat="46.46778" lon="5.40213">
        <ele>529.8</ele>
        <time>2022-05-07T15:28:39Z</time>
      </trkpt>
      <trkpt lat="46.46794" lon="5.40222">
        <ele>530.8</ele>
        <time>2022-05-07T15:28:45Z</time>
      </trkpt>
      <trkpt lat="46.46808" lon="5.40229">
        <ele>532</ele>
        <time>2022-05-07T15:28:49Z</time>
      </trkpt>
      <trkpt lat="46.46818" lon="5.40233">
        <ele>532.8</ele>
        <time>2022-05-07T15:28:52Z</time>
      </trkpt>
      <trkpt lat="46.46824" lon="5.40236">
        <ele>533.4</ele>
        <time>2022-05-07T15:28:54Z</time>
      </trkpt>
      <trkpt lat="46.46838" lon="5.40242">
        <ele>534</ele>
        <time>2022-05-07T15:28:58Z</time>
      </trkpt>
      <trkpt lat="46.46844" lon="5.40245">
        <ele>534.2</ele>
        <time>2022-05-07T15:29:00Z</time>
      </trkpt>
      <trkpt lat="46.46857" lon="5.40252">
        <ele>535.4</ele>
        <time>2022-05-07T15:29:05Z</time>
      </trkpt>
      <trkpt lat="46.4686" lon="5.40254">
        <ele>535.6</ele>
        <time>2022-05-07T15:29:06Z</time>
      </trkpt>
      <trkpt lat="46.46871" lon="5.40258">
        <ele>536.6</ele>
        <time>2022-05-07T15:29:10Z</time>
      </trkpt>
      <trkpt lat="46.46875" lon="5.40261">
        <ele>537</ele>
        <time>2022-05-07T15:29:12Z</time>
      </trkpt>
      <trkpt lat="46.46889" lon="5.40266">
        <ele>537.2</ele>
        <time>2022-05-07T15:29:17Z</time>
      </trkpt>
      <trkpt lat="46.469" lon="5.40272">
        <ele>537.4</ele>
        <time>2022-05-07T15:29:22Z</time>
      </trkpt>
      <trkpt lat="46.46901" lon="5.40273">
        <ele>537.4</ele>
        <time>2022-05-07T15:29:23Z</time>
      </trkpt>
      <trkpt lat="46.46902" lon="5.40277">
        <ele>537.6</ele>
        <time>2022-05-07T15:29:25Z</time>
      </trkpt>
      <trkpt lat="46.46903" lon="5.40278">
        <ele>537.6</ele>
        <time>2022-05-07T15:29:26Z</time>
      </trkpt>
      <trkpt lat="46.46905" lon="5.40279">
        <ele>537.8</ele>
        <time>2022-05-07T15:29:27Z</time>
      </trkpt>
      <trkpt lat="46.46908" lon="5.40282">
        <ele>537.8</ele>
        <time>2022-05-07T15:29:30Z</time>
      </trkpt>
      <trkpt lat="46.46909" lon="5.40283">
        <ele>537.8</ele>
        <time>2022-05-07T15:29:31Z</time>
      </trkpt>
      <trkpt lat="46.46911" lon="5.40283">
        <ele>537.8</ele>
        <time>2022-05-07T15:29:35Z</time>
      </trkpt>
      <trkpt lat="46.46919" lon="5.40285">
        <ele>538.2</ele>
        <time>2022-05-07T15:34:30Z</time>
      </trkpt>
      <trkpt lat="46.46932" lon="5.40291">
        <ele>538.2</ele>
        <time>2022-05-07T15:34:34Z</time>
      </trkpt>
      <trkpt lat="46.4694" lon="5.40295">
        <ele>538.2</ele>
        <time>2022-05-07T15:34:36Z</time>
      </trkpt>
      <trkpt lat="46.4696" lon="5.40304">
        <ele>538.8</ele>
        <time>2022-05-07T15:34:40Z</time>
      </trkpt>
      <trkpt lat="46.46979" lon="5.40312">
        <ele>539.6</ele>
        <time>2022-05-07T15:34:44Z</time>
      </trkpt>
      <trkpt lat="46.46989" lon="5.40315">
        <ele>539.8</ele>
        <time>2022-05-07T15:34:46Z</time>
      </trkpt>
      <trkpt lat="46.46994" lon="5.40316">
        <ele>540</ele>
        <time>2022-05-07T15:34:47Z</time>
      </trkpt>
      <trkpt lat="46.47017" lon="5.40322">
        <ele>540.2</ele>
        <time>2022-05-07T15:34:52Z</time>
      </trkpt>
      <trkpt lat="46.47041" lon="5.40325">
        <ele>541</ele>
        <time>2022-05-07T15:34:57Z</time>
      </trkpt>
      <trkpt lat="46.47052" lon="5.40325">
        <ele>541.2</ele>
        <time>2022-05-07T15:34:59Z</time>
      </trkpt>
      <trkpt lat="46.47088" lon="5.40328">
        <ele>541.2</ele>
        <time>2022-05-07T15:35:04Z</time>
      </trkpt>
      <trkpt lat="46.4712" lon="5.40333">
        <ele>539.2</ele>
        <time>2022-05-07T15:35:08Z</time>
      </trkpt>
      <trkpt lat="46.47134" lon="5.40339">
        <ele>538</ele>
        <time>2022-05-07T15:35:10Z</time>
      </trkpt>
      <trkpt lat="46.47153" lon="5.40348">
        <ele>536.6</ele>
        <time>2022-05-07T15:35:13Z</time>
      </trkpt>
      <trkpt lat="46.47171" lon="5.40358">
        <ele>535.8</ele>
        <time>2022-05-07T15:35:15Z</time>
      </trkpt>
      <trkpt lat="46.4718" lon="5.40364">
        <ele>535.6</ele>
        <time>2022-05-07T15:35:16Z</time>
      </trkpt>
      <trkpt lat="46.47188" lon="5.40371">
        <ele>534.8</ele>
        <time>2022-05-07T15:35:17Z</time>
      </trkpt>
      <trkpt lat="46.47195" lon="5.4038">
        <ele>534.4</ele>
        <time>2022-05-07T15:35:18Z</time>
      </trkpt>
      <trkpt lat="46.47202" lon="5.4039">
        <ele>533.8</ele>
        <time>2022-05-07T15:35:19Z</time>
      </trkpt>
      <trkpt lat="46.4721" lon="5.404">
        <ele>533</ele>
        <time>2022-05-07T15:35:20Z</time>
      </trkpt>
      <trkpt lat="46.47225" lon="5.40416">
        <ele>531</ele>
        <time>2022-05-07T15:35:22Z</time>
      </trkpt>
      <trkpt lat="46.47235" lon="5.40421">
        <ele>530.6</ele>
        <time>2022-05-07T15:35:23Z</time>
      </trkpt>
      <trkpt lat="46.47246" lon="5.40426">
        <ele>529.8</ele>
        <time>2022-05-07T15:35:24Z</time>
      </trkpt>
      <trkpt lat="46.47258" lon="5.40431">
        <ele>529.4</ele>
        <time>2022-05-07T15:35:25Z</time>
      </trkpt>
      <trkpt lat="46.47282" lon="5.40438">
        <ele>528.8</ele>
        <time>2022-05-07T15:35:27Z</time>
      </trkpt>
      <trkpt lat="46.47294" lon="5.40441">
        <ele>528.6</ele>
        <time>2022-05-07T15:35:28Z</time>
      </trkpt>
      <trkpt lat="46.47303" lon="5.40443">
        <ele>527.6</ele>
        <time>2022-05-07T15:35:29Z</time>
      </trkpt>
      <trkpt lat="46.47325" lon="5.40445">
        <ele>526.2</ele>
        <time>2022-05-07T15:35:31Z</time>
      </trkpt>
      <trkpt lat="46.47378" lon="5.40451">
        <ele>525</ele>
        <time>2022-05-07T15:35:36Z</time>
      </trkpt>
      <trkpt lat="46.47395" lon="5.4045">
        <ele>523.2</ele>
        <time>2022-05-07T15:35:38Z</time>
      </trkpt>
      <trkpt lat="46.47427" lon="5.4045">
        <ele>521.8</ele>
        <time>2022-05-07T15:35:41Z</time>
      </trkpt>
      <trkpt lat="46.47437" lon="5.40451">
        <ele>521.2</ele>
        <time>2022-05-07T15:35:42Z</time>
      </trkpt>
      <trkpt lat="46.47448" lon="5.40452">
        <ele>520.6</ele>
        <time>2022-05-07T15:35:43Z</time>
      </trkpt>
      <trkpt lat="46.47477" lon="5.40462">
        <ele>519.8</ele>
        <time>2022-05-07T15:35:46Z</time>
      </trkpt>
      <trkpt lat="46.47492" lon="5.40472">
        <ele>519.4</ele>
        <time>2022-05-07T15:35:48Z</time>
      </trkpt>
      <trkpt lat="46.47505" lon="5.40478">
        <ele>518.6</ele>
        <time>2022-05-07T15:35:49Z</time>
      </trkpt>
      <trkpt lat="46.47516" lon="5.40479">
        <ele>517.6</ele>
        <time>2022-05-07T15:35:50Z</time>
      </trkpt>
      <trkpt lat="46.47525" lon="5.40475">
        <ele>517.4</ele>
        <time>2022-05-07T15:35:51Z</time>
      </trkpt>
      <trkpt lat="46.47531" lon="5.40467">
        <ele>517</ele>
        <time>2022-05-07T15:35:52Z</time>
      </trkpt>
      <trkpt lat="46.47536" lon="5.40455">
        <ele>516.6</ele>
        <time>2022-05-07T15:35:53Z</time>
      </trkpt>
      <trkpt lat="46.4754" lon="5.40442">
        <ele>515.6</ele>
        <time>2022-05-07T15:35:54Z</time>
      </trkpt>
      <trkpt lat="46.47541" lon="5.40428">
        <ele>515.2</ele>
        <time>2022-05-07T15:35:55Z</time>
      </trkpt>
      <trkpt lat="46.47539" lon="5.40413">
        <ele>514.4</ele>
        <time>2022-05-07T15:35:56Z</time>
      </trkpt>
      <trkpt lat="46.47536" lon="5.40399">
        <ele>513.6</ele>
        <time>2022-05-07T15:35:57Z</time>
      </trkpt>
      <trkpt lat="46.47532" lon="5.40385">
        <ele>513.4</ele>
        <time>2022-05-07T15:35:58Z</time>
      </trkpt>
      <trkpt lat="46.47525" lon="5.40356">
        <ele>512.8</ele>
        <time>2022-05-07T15:36:00Z</time>
      </trkpt>
      <trkpt lat="46.47523" lon="5.40339">
        <ele>512.2</ele>
        <time>2022-05-07T15:36:01Z</time>
      </trkpt>
      <trkpt lat="46.47524" lon="5.40324">
        <ele>511.8</ele>
        <time>2022-05-07T15:36:02Z</time>
      </trkpt>
      <trkpt lat="46.47527" lon="5.4031">
        <ele>510.6</ele>
        <time>2022-05-07T15:36:03Z</time>
      </trkpt>
      <trkpt lat="46.47535" lon="5.40297">
        <ele>509.4</ele>
        <time>2022-05-07T15:36:04Z</time>
      </trkpt>
      <trkpt lat="46.47544" lon="5.40286">
        <ele>508.8</ele>
        <time>2022-05-07T15:36:05Z</time>
      </trkpt>
      <trkpt lat="46.47553" lon="5.40275">
        <ele>507.8</ele>
        <time>2022-05-07T15:36:06Z</time>
      </trkpt>
      <trkpt lat="46.47562" lon="5.40267">
        <ele>507.4</ele>
        <time>2022-05-07T15:36:07Z</time>
      </trkpt>
      <trkpt lat="46.47581" lon="5.40255">
        <ele>506.6</ele>
        <time>2022-05-07T15:36:09Z</time>
      </trkpt>
      <trkpt lat="46.47591" lon="5.40253">
        <ele>505.4</ele>
        <time>2022-05-07T15:36:10Z</time>
      </trkpt>
      <trkpt lat="46.476" lon="5.40252">
        <ele>504.2</ele>
        <time>2022-05-07T15:36:11Z</time>
      </trkpt>
      <trkpt lat="46.47618" lon="5.40251">
        <ele>503.2</ele>
        <time>2022-05-07T15:36:13Z</time>
      </trkpt>
      <trkpt lat="46.47625" lon="5.4025">
        <ele>503.2</ele>
        <time>2022-05-07T15:36:14Z</time>
      </trkpt>
      <trkpt lat="46.47645" lon="5.40251">
        <ele>501.8</ele>
        <time>2022-05-07T15:36:16Z</time>
      </trkpt>
      <trkpt lat="46.47657" lon="5.4025">
        <ele>501</ele>
        <time>2022-05-07T15:36:17Z</time>
      </trkpt>
      <trkpt lat="46.47666" lon="5.40249">
        <ele>500.6</ele>
        <time>2022-05-07T15:36:18Z</time>
      </trkpt>
      <trkpt lat="46.47679" lon="5.40242">
        <ele>500.2</ele>
        <time>2022-05-07T15:36:19Z</time>
      </trkpt>
      <trkpt lat="46.47686" lon="5.40235">
        <ele>499.6</ele>
        <time>2022-05-07T15:36:20Z</time>
      </trkpt>
      <trkpt lat="46.47695" lon="5.40219">
        <ele>499.6</ele>
        <time>2022-05-07T15:36:21Z</time>
      </trkpt>
      <trkpt lat="46.47709" lon="5.40186">
        <ele>498.4</ele>
        <time>2022-05-07T15:36:23Z</time>
      </trkpt>
      <trkpt lat="46.47729" lon="5.40163">
        <ele>497</ele>
        <time>2022-05-07T15:36:25Z</time>
      </trkpt>
      <trkpt lat="46.47748" lon="5.40142">
        <ele>496.2</ele>
        <time>2022-05-07T15:36:27Z</time>
      </trkpt>
      <trkpt lat="46.47755" lon="5.4013">
        <ele>496</ele>
        <time>2022-05-07T15:36:28Z</time>
      </trkpt>
      <trkpt lat="46.47761" lon="5.40115">
        <ele>495.2</ele>
        <time>2022-05-07T15:36:29Z</time>
      </trkpt>
      <trkpt lat="46.47766" lon="5.40099">
        <ele>494.6</ele>
        <time>2022-05-07T15:36:30Z</time>
      </trkpt>
      <trkpt lat="46.47769" lon="5.40084">
        <ele>493.8</ele>
        <time>2022-05-07T15:36:31Z</time>
      </trkpt>
      <trkpt lat="46.47767" lon="5.40068">
        <ele>493</ele>
        <time>2022-05-07T15:36:32Z</time>
      </trkpt>
      <trkpt lat="46.47764" lon="5.40051">
        <ele>492.6</ele>
        <time>2022-05-07T15:36:33Z</time>
      </trkpt>
      <trkpt lat="46.47764" lon="5.40036">
        <ele>491.8</ele>
        <time>2022-05-07T15:36:34Z</time>
      </trkpt>
      <trkpt lat="46.47766" lon="5.40022">
        <ele>491.4</ele>
        <time>2022-05-07T15:36:35Z</time>
      </trkpt>
      <trkpt lat="46.47769" lon="5.40011">
        <ele>491</ele>
        <time>2022-05-07T15:36:36Z</time>
      </trkpt>
      <trkpt lat="46.4778" lon="5.39996">
        <ele>490.6</ele>
        <time>2022-05-07T15:36:38Z</time>
      </trkpt>
      <trkpt lat="46.47786" lon="5.39992">
        <ele>490.2</ele>
        <time>2022-05-07T15:36:39Z</time>
      </trkpt>
      <trkpt lat="46.47817" lon="5.39978">
        <ele>489</ele>
        <time>2022-05-07T15:36:42Z</time>
      </trkpt>
      <trkpt lat="46.47827" lon="5.39972">
        <ele>487.2</ele>
        <time>2022-05-07T15:36:43Z</time>
      </trkpt>
      <trkpt lat="46.47848" lon="5.39961">
        <ele>485.4</ele>
        <time>2022-05-07T15:36:45Z</time>
      </trkpt>
      <trkpt lat="46.47871" lon="5.39949">
        <ele>483.6</ele>
        <time>2022-05-07T15:36:47Z</time>
      </trkpt>
      <trkpt lat="46.47891" lon="5.39939">
        <ele>482.2</ele>
        <time>2022-05-07T15:36:49Z</time>
      </trkpt>
      <trkpt lat="46.47925" lon="5.39921">
        <ele>481</ele>
        <time>2022-05-07T15:36:52Z</time>
      </trkpt>
      <trkpt lat="46.47959" lon="5.39902">
        <ele>479.2</ele>
        <time>2022-05-07T15:36:55Z</time>
      </trkpt>
      <trkpt lat="46.47987" lon="5.39889">
        <ele>477.8</ele>
        <time>2022-05-07T15:36:58Z</time>
      </trkpt>
      <trkpt lat="46.48008" lon="5.39882">
        <ele>477</ele>
        <time>2022-05-07T15:37:00Z</time>
      </trkpt>
      <trkpt lat="46.48018" lon="5.39882">
        <ele>476.8</ele>
        <time>2022-05-07T15:37:01Z</time>
      </trkpt>
      <trkpt lat="46.48026" lon="5.39884">
        <ele>476.6</ele>
        <time>2022-05-07T15:37:02Z</time>
      </trkpt>
      <trkpt lat="46.48045" lon="5.39895">
        <ele>476.4</ele>
        <time>2022-05-07T15:37:04Z</time>
      </trkpt>
      <trkpt lat="46.48071" lon="5.39908">
        <ele>476.2</ele>
        <time>2022-05-07T15:37:07Z</time>
      </trkpt>
      <trkpt lat="46.48077" lon="5.3991">
        <ele>476.2</ele>
        <time>2022-05-07T15:37:08Z</time>
      </trkpt>
      <trkpt lat="46.48087" lon="5.3991">
        <ele>476.2</ele>
        <time>2022-05-07T15:37:09Z</time>
      </trkpt>
      <trkpt lat="46.4811" lon="5.39908">
        <ele>476.6</ele>
        <time>2022-05-07T15:37:12Z</time>
      </trkpt>
      <trkpt lat="46.48145" lon="5.39895">
        <ele>476.6</ele>
        <time>2022-05-07T15:37:16Z</time>
      </trkpt>
      <trkpt lat="46.48183" lon="5.39868">
        <ele>477.2</ele>
        <time>2022-05-07T15:37:21Z</time>
      </trkpt>
      <trkpt lat="46.4819" lon="5.39859">
        <ele>477.2</ele>
        <time>2022-05-07T15:37:22Z</time>
      </trkpt>
      <trkpt lat="46.48197" lon="5.39837">
        <ele>477.2</ele>
        <time>2022-05-07T15:37:24Z</time>
      </trkpt>
      <trkpt lat="46.48192" lon="5.39801">
        <ele>477.6</ele>
        <time>2022-05-07T15:37:27Z</time>
      </trkpt>
      <trkpt lat="46.48183" lon="5.39752">
        <ele>477.8</ele>
        <time>2022-05-07T15:37:31Z</time>
      </trkpt>
      <trkpt lat="46.48179" lon="5.39716">
        <ele>477.8</ele>
        <time>2022-05-07T15:37:34Z</time>
      </trkpt>
      <trkpt lat="46.48177" lon="5.39668">
        <ele>477</ele>
        <time>2022-05-07T15:37:38Z</time>
      </trkpt>
      <trkpt lat="46.48179" lon="5.39655">
        <ele>476.6</ele>
        <time>2022-05-07T15:37:39Z</time>
      </trkpt>
      <trkpt lat="46.48182" lon="5.39641">
        <ele>476.4</ele>
        <time>2022-05-07T15:37:40Z</time>
      </trkpt>
      <trkpt lat="46.48191" lon="5.39615">
        <ele>475.8</ele>
        <time>2022-05-07T15:37:42Z</time>
      </trkpt>
      <trkpt lat="46.48197" lon="5.39599">
        <ele>475</ele>
        <time>2022-05-07T15:37:43Z</time>
      </trkpt>
      <trkpt lat="46.48207" lon="5.39575">
        <ele>473</ele>
        <time>2022-05-07T15:37:45Z</time>
      </trkpt>
      <trkpt lat="46.48211" lon="5.3956">
        <ele>471.8</ele>
        <time>2022-05-07T15:37:46Z</time>
      </trkpt>
      <trkpt lat="46.48218" lon="5.3953">
        <ele>470.6</ele>
        <time>2022-05-07T15:37:48Z</time>
      </trkpt>
      <trkpt lat="46.48221" lon="5.39515">
        <ele>470.2</ele>
        <time>2022-05-07T15:37:49Z</time>
      </trkpt>
      <trkpt lat="46.48227" lon="5.39499">
        <ele>469.6</ele>
        <time>2022-05-07T15:37:50Z</time>
      </trkpt>
      <trkpt lat="46.48232" lon="5.39487">
        <ele>468.6</ele>
        <time>2022-05-07T15:37:51Z</time>
      </trkpt>
      <trkpt lat="46.48238" lon="5.39477">
        <ele>466.4</ele>
        <time>2022-05-07T15:37:52Z</time>
      </trkpt>
      <trkpt lat="46.48245" lon="5.3947">
        <ele>465.2</ele>
        <time>2022-05-07T15:37:53Z</time>
      </trkpt>
      <trkpt lat="46.48252" lon="5.39464">
        <ele>464.6</ele>
        <time>2022-05-07T15:37:54Z</time>
      </trkpt>
      <trkpt lat="46.48259" lon="5.39461">
        <ele>463.6</ele>
        <time>2022-05-07T15:37:55Z</time>
      </trkpt>
      <trkpt lat="46.48267" lon="5.39461">
        <ele>463</ele>
        <time>2022-05-07T15:37:56Z</time>
      </trkpt>
      <trkpt lat="46.48275" lon="5.39462">
        <ele>461.6</ele>
        <time>2022-05-07T15:37:57Z</time>
      </trkpt>
      <trkpt lat="46.4828" lon="5.39462">
        <ele>461.2</ele>
        <time>2022-05-07T15:37:58Z</time>
      </trkpt>
      <trkpt lat="46.48288" lon="5.39459">
        <ele>460.6</ele>
        <time>2022-05-07T15:37:59Z</time>
      </trkpt>
      <trkpt lat="46.48294" lon="5.39453">
        <ele>459.8</ele>
        <time>2022-05-07T15:38:00Z</time>
      </trkpt>
      <trkpt lat="46.48298" lon="5.39447">
        <ele>459.6</ele>
        <time>2022-05-07T15:38:01Z</time>
      </trkpt>
      <trkpt lat="46.48303" lon="5.3944">
        <ele>459.2</ele>
        <time>2022-05-07T15:38:02Z</time>
      </trkpt>
      <trkpt lat="46.48312" lon="5.39409">
        <ele>458.4</ele>
        <time>2022-05-07T15:38:04Z</time>
      </trkpt>
      <trkpt lat="46.4832" lon="5.39379">
        <ele>457.4</ele>
        <time>2022-05-07T15:38:06Z</time>
      </trkpt>
      <trkpt lat="46.48323" lon="5.39366">
        <ele>456.2</ele>
        <time>2022-05-07T15:38:07Z</time>
      </trkpt>
      <trkpt lat="46.48329" lon="5.3935">
        <ele>455.8</ele>
        <time>2022-05-07T15:38:08Z</time>
      </trkpt>
      <trkpt lat="46.48335" lon="5.39339">
        <ele>454.4</ele>
        <time>2022-05-07T15:38:09Z</time>
      </trkpt>
      <trkpt lat="46.48344" lon="5.3933">
        <ele>453.8</ele>
        <time>2022-05-07T15:38:10Z</time>
      </trkpt>
      <trkpt lat="46.48353" lon="5.39321">
        <ele>452</ele>
        <time>2022-05-07T15:38:11Z</time>
      </trkpt>
      <trkpt lat="46.48363" lon="5.39316">
        <ele>451.4</ele>
        <time>2022-05-07T15:38:12Z</time>
      </trkpt>
      <trkpt lat="46.48372" lon="5.39314">
        <ele>450.6</ele>
        <time>2022-05-07T15:38:13Z</time>
      </trkpt>
      <trkpt lat="46.48383" lon="5.39313">
        <ele>449.6</ele>
        <time>2022-05-07T15:38:14Z</time>
      </trkpt>
      <trkpt lat="46.48393" lon="5.39315">
        <ele>448.6</ele>
        <time>2022-05-07T15:38:15Z</time>
      </trkpt>
      <trkpt lat="46.48401" lon="5.39318">
        <ele>447.2</ele>
        <time>2022-05-07T15:38:16Z</time>
      </trkpt>
      <trkpt lat="46.48413" lon="5.39319">
        <ele>446.4</ele>
        <time>2022-05-07T15:38:17Z</time>
      </trkpt>
      <trkpt lat="46.48425" lon="5.39317">
        <ele>445.4</ele>
        <time>2022-05-07T15:38:18Z</time>
      </trkpt>
      <trkpt lat="46.4845" lon="5.39311">
        <ele>444</ele>
        <time>2022-05-07T15:38:20Z</time>
      </trkpt>
      <trkpt lat="46.48474" lon="5.39307">
        <ele>442.4</ele>
        <time>2022-05-07T15:38:22Z</time>
      </trkpt>
      <trkpt lat="46.48486" lon="5.39304">
        <ele>441</ele>
        <time>2022-05-07T15:38:23Z</time>
      </trkpt>
      <trkpt lat="46.48513" lon="5.39298">
        <ele>439.6</ele>
        <time>2022-05-07T15:38:25Z</time>
      </trkpt>
      <trkpt lat="46.48527" lon="5.39294">
        <ele>439.2</ele>
        <time>2022-05-07T15:38:26Z</time>
      </trkpt>
      <trkpt lat="46.48537" lon="5.39292">
        <ele>438.6</ele>
        <time>2022-05-07T15:38:27Z</time>
      </trkpt>
      <trkpt lat="46.48567" lon="5.39288">
        <ele>436.4</ele>
        <time>2022-05-07T15:38:29Z</time>
      </trkpt>
      <trkpt lat="46.48581" lon="5.39285">
        <ele>434.8</ele>
        <time>2022-05-07T15:38:30Z</time>
      </trkpt>
      <trkpt lat="46.48608" lon="5.39279">
        <ele>432.6</ele>
        <time>2022-05-07T15:38:32Z</time>
      </trkpt>
      <trkpt lat="46.48635" lon="5.39275">
        <ele>430.8</ele>
        <time>2022-05-07T15:38:34Z</time>
      </trkpt>
      <trkpt lat="46.4866" lon="5.39278">
        <ele>428.8</ele>
        <time>2022-05-07T15:38:36Z</time>
      </trkpt>
      <trkpt lat="46.48671" lon="5.39281">
        <ele>427.4</ele>
        <time>2022-05-07T15:38:37Z</time>
      </trkpt>
      <trkpt lat="46.48688" lon="5.39291">
        <ele>425.8</ele>
        <time>2022-05-07T15:38:39Z</time>
      </trkpt>
      <trkpt lat="46.48704" lon="5.39304">
        <ele>423.6</ele>
        <time>2022-05-07T15:38:41Z</time>
      </trkpt>
      <trkpt lat="46.48711" lon="5.39308">
        <ele>423.2</ele>
        <time>2022-05-07T15:38:42Z</time>
      </trkpt>
      <trkpt lat="46.48719" lon="5.39309">
        <ele>422.8</ele>
        <time>2022-05-07T15:38:43Z</time>
      </trkpt>
      <trkpt lat="46.48727" lon="5.39305">
        <ele>422.2</ele>
        <time>2022-05-07T15:38:44Z</time>
      </trkpt>
      <trkpt lat="46.48729" lon="5.39296">
        <ele>421.8</ele>
        <time>2022-05-07T15:38:45Z</time>
      </trkpt>
      <trkpt lat="46.48726" lon="5.39272">
        <ele>421</ele>
        <time>2022-05-07T15:38:47Z</time>
      </trkpt>
      <trkpt lat="46.48778" lon="5.39251">
        <ele>420.6</ele>
        <time>2022-05-07T15:38:49Z</time>
      </trkpt>
      <trkpt lat="46.48761" lon="5.39243">
        <ele>419.4</ele>
        <time>2022-05-07T15:38:50Z</time>
      </trkpt>
      <trkpt lat="46.48725" lon="5.39231">
        <ele>418.2</ele>
        <time>2022-05-07T15:38:51Z</time>
      </trkpt>
      <trkpt lat="46.48684" lon="5.39208">
        <ele>416.4</ele>
        <time>2022-05-07T15:38:53Z</time>
      </trkpt>
      <trkpt lat="46.48674" lon="5.39193">
        <ele>415.6</ele>
        <time>2022-05-07T15:38:54Z</time>
      </trkpt>
      <trkpt lat="46.48667" lon="5.39183">
        <ele>414</ele>
        <time>2022-05-07T15:38:55Z</time>
      </trkpt>
      <trkpt lat="46.48649" lon="5.39156">
        <ele>412.2</ele>
        <time>2022-05-07T15:38:57Z</time>
      </trkpt>
      <trkpt lat="46.48641" lon="5.39147">
        <ele>410.6</ele>
        <time>2022-05-07T15:38:58Z</time>
      </trkpt>
      <trkpt lat="46.48629" lon="5.39134">
        <ele>410</ele>
        <time>2022-05-07T15:38:59Z</time>
      </trkpt>
      <trkpt lat="46.48617" lon="5.39124">
        <ele>409</ele>
        <time>2022-05-07T15:39:00Z</time>
      </trkpt>
      <trkpt lat="46.48593" lon="5.39105">
        <ele>407.2</ele>
        <time>2022-05-07T15:39:02Z</time>
      </trkpt>
      <trkpt lat="46.48581" lon="5.39096">
        <ele>406.8</ele>
        <time>2022-05-07T15:39:03Z</time>
      </trkpt>
      <trkpt lat="46.4857" lon="5.39089">
        <ele>405</ele>
        <time>2022-05-07T15:39:04Z</time>
      </trkpt>
      <trkpt lat="46.48558" lon="5.39081">
        <ele>402.8</ele>
        <time>2022-05-07T15:39:05Z</time>
      </trkpt>
      <trkpt lat="46.48532" lon="5.39065">
        <ele>400.8</ele>
        <time>2022-05-07T15:39:07Z</time>
      </trkpt>
      <trkpt lat="46.4852" lon="5.39056">
        <ele>400</ele>
        <time>2022-05-07T15:39:08Z</time>
      </trkpt>
      <trkpt lat="46.48509" lon="5.39045">
        <ele>398.8</ele>
        <time>2022-05-07T15:39:09Z</time>
      </trkpt>
      <trkpt lat="46.48501" lon="5.3903">
        <ele>397.8</ele>
        <time>2022-05-07T15:39:10Z</time>
      </trkpt>
      <trkpt lat="46.48494" lon="5.39012">
        <ele>396.6</ele>
        <time>2022-05-07T15:39:11Z</time>
      </trkpt>
      <trkpt lat="46.48482" lon="5.3897">
        <ele>394.8</ele>
        <time>2022-05-07T15:39:13Z</time>
      </trkpt>
      <trkpt lat="46.48476" lon="5.38956">
        <ele>392</ele>
        <time>2022-05-07T15:39:14Z</time>
      </trkpt>
      <trkpt lat="46.48468" lon="5.38941">
        <ele>391</ele>
        <time>2022-05-07T15:39:15Z</time>
      </trkpt>
      <trkpt lat="46.4846" lon="5.38924">
        <ele>389.6</ele>
        <time>2022-05-07T15:39:16Z</time>
      </trkpt>
      <trkpt lat="46.48454" lon="5.38911">
        <ele>389.2</ele>
        <time>2022-05-07T15:39:17Z</time>
      </trkpt>
      <trkpt lat="46.48451" lon="5.38897">
        <ele>388.2</ele>
        <time>2022-05-07T15:39:18Z</time>
      </trkpt>
      <trkpt lat="46.48449" lon="5.38884">
        <ele>387.8</ele>
        <time>2022-05-07T15:39:19Z</time>
      </trkpt>
      <trkpt lat="46.48451" lon="5.3887">
        <ele>387</ele>
        <time>2022-05-07T15:39:20Z</time>
      </trkpt>
      <trkpt lat="46.48455" lon="5.38859">
        <ele>385.8</ele>
        <time>2022-05-07T15:39:21Z</time>
      </trkpt>
      <trkpt lat="46.48469" lon="5.38842">
        <ele>385.2</ele>
        <time>2022-05-07T15:39:23Z</time>
      </trkpt>
      <trkpt lat="46.48487" lon="5.3883">
        <ele>384.4</ele>
        <time>2022-05-07T15:39:25Z</time>
      </trkpt>
      <trkpt lat="46.48516" lon="5.38812">
        <ele>382.6</ele>
        <time>2022-05-07T15:39:28Z</time>
      </trkpt>
      <trkpt lat="46.48537" lon="5.388">
        <ele>381.4</ele>
        <time>2022-05-07T15:39:30Z</time>
      </trkpt>
      <trkpt lat="46.48555" lon="5.38787">
        <ele>380.2</ele>
        <time>2022-05-07T15:39:32Z</time>
      </trkpt>
      <trkpt lat="46.48573" lon="5.38776">
        <ele>379</ele>
        <time>2022-05-07T15:39:34Z</time>
      </trkpt>
      <trkpt lat="46.4859" lon="5.38772">
        <ele>377.4</ele>
        <time>2022-05-07T15:39:36Z</time>
      </trkpt>
      <trkpt lat="46.48597" lon="5.38774">
        <ele>376</ele>
        <time>2022-05-07T15:39:37Z</time>
      </trkpt>
      <trkpt lat="46.48603" lon="5.38775">
        <ele>375.6</ele>
        <time>2022-05-07T15:39:38Z</time>
      </trkpt>
      <trkpt lat="46.48607" lon="5.38774">
        <ele>374.8</ele>
        <time>2022-05-07T15:39:39Z</time>
      </trkpt>
      <trkpt lat="46.48613" lon="5.38767">
        <ele>374.4</ele>
        <time>2022-05-07T15:39:40Z</time>
      </trkpt>
      <trkpt lat="46.48617" lon="5.38761">
        <ele>373.8</ele>
        <time>2022-05-07T15:39:41Z</time>
      </trkpt>
      <trkpt lat="46.48628" lon="5.3874">
        <ele>372.8</ele>
        <time>2022-05-07T15:39:43Z</time>
      </trkpt>
      <trkpt lat="46.48633" lon="5.38729">
        <ele>372</ele>
        <time>2022-05-07T15:39:44Z</time>
      </trkpt>
      <trkpt lat="46.48636" lon="5.38715">
        <ele>371.8</ele>
        <time>2022-05-07T15:39:45Z</time>
      </trkpt>
      <trkpt lat="46.48638" lon="5.38701">
        <ele>370.8</ele>
        <time>2022-05-07T15:39:46Z</time>
      </trkpt>
      <trkpt lat="46.48638" lon="5.38686">
        <ele>370.2</ele>
        <time>2022-05-07T15:39:47Z</time>
      </trkpt>
      <trkpt lat="46.48638" lon="5.38656">
        <ele>368.4</ele>
        <time>2022-05-07T15:39:49Z</time>
      </trkpt>
      <trkpt lat="46.48633" lon="5.38627">
        <ele>367.4</ele>
        <time>2022-05-07T15:39:51Z</time>
      </trkpt>
      <trkpt lat="46.48621" lon="5.38581">
        <ele>366</ele>
        <time>2022-05-07T15:39:54Z</time>
      </trkpt>
      <trkpt lat="46.48612" lon="5.3855">
        <ele>364</ele>
        <time>2022-05-07T15:39:56Z</time>
      </trkpt>
      <trkpt lat="46.48608" lon="5.38534">
        <ele>362.8</ele>
        <time>2022-05-07T15:39:57Z</time>
      </trkpt>
      <trkpt lat="46.48599" lon="5.38504">
        <ele>361.8</ele>
        <time>2022-05-07T15:39:59Z</time>
      </trkpt>
    </trkseg>
  </trk>
</gpx>